<?xml version="1.0" encoding="UTF-8" standalone="no" ?>
<gpx xmlns="http://www.topografix.com/GPX/1/1" xmlns:xsi="http://www.w3.org/2001/XMLSchema-instance" xsi:schemaLocation="http://www.topografix.com/GPX/1/1 http://www.topografix.com/GPX/1/1/gpx.xsd" version="1.1" creator="VisuGPX - https://www.visugpx.com">
  <metadata>
    <name>ski de fond st francois</name>
    <desc><![CDATA[30 kilometres en travesrant tout le plateau]]></desc>
  </metadata>
  <trk>
    <name><![CDATA[ski de fond feclaz]]></name>
    <trkseg>
      <trkpt lat="45.68603" lon="6.03045">
        <ele>1320.4000244141</ele>
        <time>2014-02-15T11:00:57.000Z</time>
      </trkpt>
      <trkpt lat="45.68605" lon="6.03035">
        <ele>1320</ele>
        <time>2014-02-15T11:05:53.000Z</time>
      </trkpt>
      <trkpt lat="45.68605" lon="6.03034">
        <ele>1320</ele>
        <time>2014-02-15T11:05:54.000Z</time>
      </trkpt>
      <trkpt lat="45.68603" lon="6.03032">
        <ele>1320</ele>
        <time>2014-02-15T11:05:56.000Z</time>
      </trkpt>
      <trkpt lat="45.68599" lon="6.03019">
        <ele>1319.8000488281</ele>
        <time>2014-02-15T11:06:00.000Z</time>
      </trkpt>
      <trkpt lat="45.68595" lon="6.03008">
        <ele>1319.8000488281</ele>
        <time>2014-02-15T11:06:03.000Z</time>
      </trkpt>
      <trkpt lat="45.6859" lon="6.02989">
        <ele>1319.8000488281</ele>
        <time>2014-02-15T11:06:08.000Z</time>
      </trkpt>
      <trkpt lat="45.68587" lon="6.02978">
        <ele>1320.1999511719</ele>
        <time>2014-02-15T11:06:11.000Z</time>
      </trkpt>
      <trkpt lat="45.68586" lon="6.02975">
        <ele>1320.1999511719</ele>
        <time>2014-02-15T11:06:12.000Z</time>
      </trkpt>
      <trkpt lat="45.68582" lon="6.02955">
        <ele>1320.8000488281</ele>
        <time>2014-02-15T11:06:17.000Z</time>
      </trkpt>
      <trkpt lat="45.68578" lon="6.02941">
        <ele>1321.8000488281</ele>
        <time>2014-02-15T11:06:21.000Z</time>
      </trkpt>
      <trkpt lat="45.68578" lon="6.02928">
        <ele>1322</ele>
        <time>2014-02-15T11:06:25.000Z</time>
      </trkpt>
      <trkpt lat="45.68575" lon="6.02913">
        <ele>1322.5999755859</ele>
        <time>2014-02-15T11:06:30.000Z</time>
      </trkpt>
      <trkpt lat="45.68575" lon="6.02904">
        <ele>1322.5999755859</ele>
        <time>2014-02-15T11:06:33.000Z</time>
      </trkpt>
      <trkpt lat="45.68576" lon="6.02896">
        <ele>1322.5999755859</ele>
        <time>2014-02-15T11:06:36.000Z</time>
      </trkpt>
      <trkpt lat="45.68574" lon="6.02886">
        <ele>1323</ele>
        <time>2014-02-15T11:06:39.000Z</time>
      </trkpt>
      <trkpt lat="45.68573" lon="6.02876">
        <ele>1323.4000244141</ele>
        <time>2014-02-15T11:06:42.000Z</time>
      </trkpt>
      <trkpt lat="45.68572" lon="6.02866">
        <ele>1323.8000488281</ele>
        <time>2014-02-15T11:06:45.000Z</time>
      </trkpt>
      <trkpt lat="45.68572" lon="6.0285">
        <ele>1324</ele>
        <time>2014-02-15T11:06:50.000Z</time>
      </trkpt>
      <trkpt lat="45.68572" lon="6.02838">
        <ele>1324</ele>
        <time>2014-02-15T11:06:54.000Z</time>
      </trkpt>
      <trkpt lat="45.68573" lon="6.02823">
        <ele>1324.8000488281</ele>
        <time>2014-02-15T11:06:58.000Z</time>
      </trkpt>
      <trkpt lat="45.68576" lon="6.02805">
        <ele>1325.8000488281</ele>
        <time>2014-02-15T11:07:03.000Z</time>
      </trkpt>
      <trkpt lat="45.68579" lon="6.02789">
        <ele>1326.4000244141</ele>
        <time>2014-02-15T11:07:08.000Z</time>
      </trkpt>
      <trkpt lat="45.68582" lon="6.02776">
        <ele>1327</ele>
        <time>2014-02-15T11:07:13.000Z</time>
      </trkpt>
      <trkpt lat="45.68583" lon="6.02766">
        <ele>1327.5999755859</ele>
        <time>2014-02-15T11:07:17.000Z</time>
      </trkpt>
      <trkpt lat="45.68585" lon="6.02758">
        <ele>1328.1999511719</ele>
        <time>2014-02-15T11:07:20.000Z</time>
      </trkpt>
      <trkpt lat="45.68586" lon="6.02753">
        <ele>1328.5999755859</ele>
        <time>2014-02-15T11:07:22.000Z</time>
      </trkpt>
      <trkpt lat="45.6859" lon="6.02738">
        <ele>1329.4000244141</ele>
        <time>2014-02-15T11:07:28.000Z</time>
      </trkpt>
      <trkpt lat="45.6859" lon="6.02722">
        <ele>1330.1999511719</ele>
        <time>2014-02-15T11:07:33.000Z</time>
      </trkpt>
      <trkpt lat="45.68591" lon="6.02706">
        <ele>1330.8000488281</ele>
        <time>2014-02-15T11:07:38.000Z</time>
      </trkpt>
      <trkpt lat="45.68594" lon="6.02696">
        <ele>1331.4000244141</ele>
        <time>2014-02-15T11:07:42.000Z</time>
      </trkpt>
      <trkpt lat="45.68595" lon="6.02688">
        <ele>1331.5999755859</ele>
        <time>2014-02-15T11:07:45.000Z</time>
      </trkpt>
      <trkpt lat="45.68595" lon="6.02684">
        <ele>1331.8000488281</ele>
        <time>2014-02-15T11:07:47.000Z</time>
      </trkpt>
      <trkpt lat="45.68596" lon="6.02668">
        <ele>1332.5999755859</ele>
        <time>2014-02-15T11:07:53.000Z</time>
      </trkpt>
      <trkpt lat="45.68599" lon="6.02662">
        <ele>1332.8000488281</ele>
        <time>2014-02-15T11:07:56.000Z</time>
      </trkpt>
      <trkpt lat="45.68598" lon="6.02652">
        <ele>1333.1999511719</ele>
        <time>2014-02-15T11:07:59.000Z</time>
      </trkpt>
      <trkpt lat="45.68598" lon="6.02649">
        <ele>1333.1999511719</ele>
        <time>2014-02-15T11:08:00.000Z</time>
      </trkpt>
      <trkpt lat="45.68599" lon="6.02643">
        <ele>1333.4000244141</ele>
        <time>2014-02-15T11:08:03.000Z</time>
      </trkpt>
      <trkpt lat="45.686" lon="6.0263">
        <ele>1333.8000488281</ele>
        <time>2014-02-15T11:08:08.000Z</time>
      </trkpt>
      <trkpt lat="45.686" lon="6.02617">
        <ele>1334.1999511719</ele>
        <time>2014-02-15T11:08:13.000Z</time>
      </trkpt>
      <trkpt lat="45.68598" lon="6.02602">
        <ele>1334.8000488281</ele>
        <time>2014-02-15T11:08:19.000Z</time>
      </trkpt>
      <trkpt lat="45.68596" lon="6.02592">
        <ele>1335</ele>
        <time>2014-02-15T11:08:23.000Z</time>
      </trkpt>
      <trkpt lat="45.68595" lon="6.02582">
        <ele>1335.4000244141</ele>
        <time>2014-02-15T11:08:27.000Z</time>
      </trkpt>
      <trkpt lat="45.68592" lon="6.02575">
        <ele>1335.5999755859</ele>
        <time>2014-02-15T11:08:30.000Z</time>
      </trkpt>
      <trkpt lat="45.68587" lon="6.02562">
        <ele>1335.8000488281</ele>
        <time>2014-02-15T11:08:35.000Z</time>
      </trkpt>
      <trkpt lat="45.68583" lon="6.02549">
        <ele>1336.4000244141</ele>
        <time>2014-02-15T11:08:39.000Z</time>
      </trkpt>
      <trkpt lat="45.68577" lon="6.02535">
        <ele>1337.8000488281</ele>
        <time>2014-02-15T11:08:43.000Z</time>
      </trkpt>
      <trkpt lat="45.68571" lon="6.0252">
        <ele>1339</ele>
        <time>2014-02-15T11:08:48.000Z</time>
      </trkpt>
      <trkpt lat="45.68567" lon="6.0251">
        <ele>1339.8000488281</ele>
        <time>2014-02-15T11:08:51.000Z</time>
      </trkpt>
      <trkpt lat="45.68561" lon="6.02495">
        <ele>1340.5999755859</ele>
        <time>2014-02-15T11:08:56.000Z</time>
      </trkpt>
      <trkpt lat="45.68559" lon="6.02491">
        <ele>1340.8000488281</ele>
        <time>2014-02-15T11:08:58.000Z</time>
      </trkpt>
      <trkpt lat="45.68562" lon="6.02487">
        <ele>1340.4000244141</ele>
        <time>2014-02-15T11:09:03.000Z</time>
      </trkpt>
      <trkpt lat="45.68571" lon="6.0249">
        <ele>1339.5999755859</ele>
        <time>2014-02-15T11:09:07.000Z</time>
      </trkpt>
      <trkpt lat="45.68585" lon="6.02499">
        <ele>1338</ele>
        <time>2014-02-15T11:09:14.000Z</time>
      </trkpt>
      <trkpt lat="45.68592" lon="6.02509">
        <ele>1337.8000488281</ele>
        <time>2014-02-15T11:09:18.000Z</time>
      </trkpt>
      <trkpt lat="45.68601" lon="6.02522">
        <ele>1337.5999755859</ele>
        <time>2014-02-15T11:09:22.000Z</time>
      </trkpt>
      <trkpt lat="45.68605" lon="6.02528">
        <ele>1337.5999755859</ele>
        <time>2014-02-15T11:09:24.000Z</time>
      </trkpt>
      <trkpt lat="45.68613" lon="6.0253">
        <ele>1337.5999755859</ele>
        <time>2014-02-15T11:09:28.000Z</time>
      </trkpt>
      <trkpt lat="45.68626" lon="6.0252">
        <ele>1338.4000244141</ele>
        <time>2014-02-15T11:09:35.000Z</time>
      </trkpt>
      <trkpt lat="45.68633" lon="6.02512">
        <ele>1338.8000488281</ele>
        <time>2014-02-15T11:09:39.000Z</time>
      </trkpt>
      <trkpt lat="45.68635" lon="6.02511">
        <ele>1338.8000488281</ele>
        <time>2014-02-15T11:09:40.000Z</time>
      </trkpt>
      <trkpt lat="45.68647" lon="6.02502">
        <ele>1339.4000244141</ele>
        <time>2014-02-15T11:09:46.000Z</time>
      </trkpt>
      <trkpt lat="45.68656" lon="6.0249">
        <ele>1340.4000244141</ele>
        <time>2014-02-15T11:09:51.000Z</time>
      </trkpt>
      <trkpt lat="45.68659" lon="6.02487">
        <ele>1340.5999755859</ele>
        <time>2014-02-15T11:09:52.000Z</time>
      </trkpt>
      <trkpt lat="45.68662" lon="6.02477">
        <ele>1341.1999511719</ele>
        <time>2014-02-15T11:09:56.000Z</time>
      </trkpt>
      <trkpt lat="45.68669" lon="6.02469">
        <ele>1341.8000488281</ele>
        <time>2014-02-15T11:10:00.000Z</time>
      </trkpt>
      <trkpt lat="45.68674" lon="6.02461">
        <ele>1342.1999511719</ele>
        <time>2014-02-15T11:10:04.000Z</time>
      </trkpt>
      <trkpt lat="45.68677" lon="6.02448">
        <ele>1343</ele>
        <time>2014-02-15T11:10:09.000Z</time>
      </trkpt>
      <trkpt lat="45.68678" lon="6.02444">
        <ele>1343.1999511719</ele>
        <time>2014-02-15T11:10:11.000Z</time>
      </trkpt>
      <trkpt lat="45.68678" lon="6.02433">
        <ele>1344</ele>
        <time>2014-02-15T11:10:16.000Z</time>
      </trkpt>
      <trkpt lat="45.68677" lon="6.02428">
        <ele>1344.1999511719</ele>
        <time>2014-02-15T11:10:18.000Z</time>
      </trkpt>
      <trkpt lat="45.68675" lon="6.02415">
        <ele>1345</ele>
        <time>2014-02-15T11:10:23.000Z</time>
      </trkpt>
      <trkpt lat="45.68678" lon="6.02405">
        <ele>1345.5999755859</ele>
        <time>2014-02-15T11:10:26.000Z</time>
      </trkpt>
      <trkpt lat="45.68697" lon="6.02395">
        <ele>1346</ele>
        <time>2014-02-15T11:10:32.000Z</time>
      </trkpt>
      <trkpt lat="45.68707" lon="6.02384">
        <ele>1346.5999755859</ele>
        <time>2014-02-15T11:10:36.000Z</time>
      </trkpt>
      <trkpt lat="45.68709" lon="6.02382">
        <ele>1346.8000488281</ele>
        <time>2014-02-15T11:10:37.000Z</time>
      </trkpt>
      <trkpt lat="45.68718" lon="6.02373">
        <ele>1347.4000244141</ele>
        <time>2014-02-15T11:10:42.000Z</time>
      </trkpt>
      <trkpt lat="45.68726" lon="6.02369">
        <ele>1347.5999755859</ele>
        <time>2014-02-15T11:10:46.000Z</time>
      </trkpt>
      <trkpt lat="45.68728" lon="6.02369">
        <ele>1347.5999755859</ele>
        <time>2014-02-15T11:10:54.000Z</time>
      </trkpt>
      <trkpt lat="45.68726" lon="6.02369">
        <ele>1347.5999755859</ele>
        <time>2014-02-15T11:10:58.000Z</time>
      </trkpt>
      <trkpt lat="45.68723" lon="6.02368">
        <ele>1347.5999755859</ele>
        <time>2014-02-15T11:11:03.000Z</time>
      </trkpt>
      <trkpt lat="45.68722" lon="6.02372">
        <ele>1347.4000244141</ele>
        <time>2014-02-15T11:11:13.000Z</time>
      </trkpt>
      <trkpt lat="45.68712" lon="6.02384">
        <ele>1346.5999755859</ele>
        <time>2014-02-15T11:11:19.000Z</time>
      </trkpt>
      <trkpt lat="45.68702" lon="6.02394">
        <ele>1346</ele>
        <time>2014-02-15T11:11:23.000Z</time>
      </trkpt>
      <trkpt lat="45.68691" lon="6.02403">
        <ele>1345.5999755859</ele>
        <time>2014-02-15T11:11:27.000Z</time>
      </trkpt>
      <trkpt lat="45.68681" lon="6.02409">
        <ele>1345.4000244141</ele>
        <time>2014-02-15T11:11:31.000Z</time>
      </trkpt>
      <trkpt lat="45.68679" lon="6.0241">
        <ele>1345.1999511719</ele>
        <time>2014-02-15T11:11:32.000Z</time>
      </trkpt>
      <trkpt lat="45.68675" lon="6.02425">
        <ele>1344.4000244141</ele>
        <time>2014-02-15T11:11:37.000Z</time>
      </trkpt>
      <trkpt lat="45.68675" lon="6.02456">
        <ele>1342.5999755859</ele>
        <time>2014-02-15T11:11:43.000Z</time>
      </trkpt>
      <trkpt lat="45.68661" lon="6.02488">
        <ele>1340.5999755859</ele>
        <time>2014-02-15T11:11:49.000Z</time>
      </trkpt>
      <trkpt lat="45.68658" lon="6.02493">
        <ele>1340.1999511719</ele>
        <time>2014-02-15T11:11:50.000Z</time>
      </trkpt>
      <trkpt lat="45.68651" lon="6.02501">
        <ele>1339.5999755859</ele>
        <time>2014-02-15T11:11:52.000Z</time>
      </trkpt>
      <trkpt lat="45.6864" lon="6.02515">
        <ele>1338.8000488281</ele>
        <time>2014-02-15T11:11:56.000Z</time>
      </trkpt>
      <trkpt lat="45.6862" lon="6.02528">
        <ele>1337.8000488281</ele>
        <time>2014-02-15T11:12:02.000Z</time>
      </trkpt>
      <trkpt lat="45.68609" lon="6.0253">
        <ele>1337.5999755859</ele>
        <time>2014-02-15T11:12:05.000Z</time>
      </trkpt>
      <trkpt lat="45.68595" lon="6.02516">
        <ele>1337.5999755859</ele>
        <time>2014-02-15T11:12:10.000Z</time>
      </trkpt>
      <trkpt lat="45.68586" lon="6.02502">
        <ele>1338</ele>
        <time>2014-02-15T11:12:14.000Z</time>
      </trkpt>
      <trkpt lat="45.68573" lon="6.02493">
        <ele>1339.1999511719</ele>
        <time>2014-02-15T11:12:18.000Z</time>
      </trkpt>
      <trkpt lat="45.68561" lon="6.02491">
        <ele>1340.5999755859</ele>
        <time>2014-02-15T11:12:21.000Z</time>
      </trkpt>
      <trkpt lat="45.68551" lon="6.02484">
        <ele>1341.4000244141</ele>
        <time>2014-02-15T11:12:24.000Z</time>
      </trkpt>
      <trkpt lat="45.68545" lon="6.02473">
        <ele>1341.4000244141</ele>
        <time>2014-02-15T11:12:28.000Z</time>
      </trkpt>
      <trkpt lat="45.68534" lon="6.02465">
        <ele>1341.8000488281</ele>
        <time>2014-02-15T11:12:33.000Z</time>
      </trkpt>
      <trkpt lat="45.68526" lon="6.02456">
        <ele>1341.5999755859</ele>
        <time>2014-02-15T11:12:37.000Z</time>
      </trkpt>
      <trkpt lat="45.68517" lon="6.02447">
        <ele>1341.1999511719</ele>
        <time>2014-02-15T11:12:41.000Z</time>
      </trkpt>
      <trkpt lat="45.68506" lon="6.02442">
        <ele>1341</ele>
        <time>2014-02-15T11:12:45.000Z</time>
      </trkpt>
      <trkpt lat="45.68502" lon="6.0244">
        <ele>1340.8000488281</ele>
        <time>2014-02-15T11:12:46.000Z</time>
      </trkpt>
      <trkpt lat="45.6849" lon="6.0243">
        <ele>1340.5999755859</ele>
        <time>2014-02-15T11:12:51.000Z</time>
      </trkpt>
      <trkpt lat="45.68485" lon="6.02423">
        <ele>1340.1999511719</ele>
        <time>2014-02-15T11:12:54.000Z</time>
      </trkpt>
      <trkpt lat="45.68476" lon="6.02415">
        <ele>1339.8000488281</ele>
        <time>2014-02-15T11:12:58.000Z</time>
      </trkpt>
      <trkpt lat="45.6847" lon="6.02408">
        <ele>1339.8000488281</ele>
        <time>2014-02-15T11:13:01.000Z</time>
      </trkpt>
      <trkpt lat="45.68461" lon="6.024">
        <ele>1339.5999755859</ele>
        <time>2014-02-15T11:13:04.000Z</time>
      </trkpt>
      <trkpt lat="45.68444" lon="6.02384">
        <ele>1338.8000488281</ele>
        <time>2014-02-15T11:13:09.000Z</time>
      </trkpt>
      <trkpt lat="45.68435" lon="6.02374">
        <ele>1338.1999511719</ele>
        <time>2014-02-15T11:13:12.000Z</time>
      </trkpt>
      <trkpt lat="45.68423" lon="6.02361">
        <ele>1336.8000488281</ele>
        <time>2014-02-15T11:13:16.000Z</time>
      </trkpt>
      <trkpt lat="45.68409" lon="6.02347">
        <ele>1336</ele>
        <time>2014-02-15T11:13:20.000Z</time>
      </trkpt>
      <trkpt lat="45.68396" lon="6.02333">
        <ele>1335.4000244141</ele>
        <time>2014-02-15T11:13:24.000Z</time>
      </trkpt>
      <trkpt lat="45.68377" lon="6.02309">
        <ele>1334.8000488281</ele>
        <time>2014-02-15T11:13:31.000Z</time>
      </trkpt>
      <trkpt lat="45.68368" lon="6.02299">
        <ele>1334.5999755859</ele>
        <time>2014-02-15T11:13:35.000Z</time>
      </trkpt>
      <trkpt lat="45.68358" lon="6.02292">
        <ele>1335</ele>
        <time>2014-02-15T11:13:39.000Z</time>
      </trkpt>
      <trkpt lat="45.68348" lon="6.02285">
        <ele>1335</ele>
        <time>2014-02-15T11:13:42.000Z</time>
      </trkpt>
      <trkpt lat="45.68339" lon="6.02277">
        <ele>1335</ele>
        <time>2014-02-15T11:13:45.000Z</time>
      </trkpt>
      <trkpt lat="45.68329" lon="6.02267">
        <ele>1335.1999511719</ele>
        <time>2014-02-15T11:13:49.000Z</time>
      </trkpt>
      <trkpt lat="45.68316" lon="6.02263">
        <ele>1337.5999755859</ele>
        <time>2014-02-15T11:13:54.000Z</time>
      </trkpt>
      <trkpt lat="45.68308" lon="6.02264">
        <ele>1339.8000488281</ele>
        <time>2014-02-15T11:13:57.000Z</time>
      </trkpt>
      <trkpt lat="45.68304" lon="6.02265">
        <ele>1340.8000488281</ele>
        <time>2014-02-15T11:13:59.000Z</time>
      </trkpt>
      <trkpt lat="45.68292" lon="6.02272">
        <ele>1345</ele>
        <time>2014-02-15T11:14:05.000Z</time>
      </trkpt>
      <trkpt lat="45.68286" lon="6.02272">
        <ele>1346.4000244141</ele>
        <time>2014-02-15T11:14:09.000Z</time>
      </trkpt>
      <trkpt lat="45.6828" lon="6.02266">
        <ele>1346.5999755859</ele>
        <time>2014-02-15T11:14:13.000Z</time>
      </trkpt>
      <trkpt lat="45.68278" lon="6.02253">
        <ele>1344.4000244141</ele>
        <time>2014-02-15T11:14:19.000Z</time>
      </trkpt>
      <trkpt lat="45.68279" lon="6.02239">
        <ele>1342.8000488281</ele>
        <time>2014-02-15T11:14:26.000Z</time>
      </trkpt>
      <trkpt lat="45.68279" lon="6.02236">
        <ele>1342.5999755859</ele>
        <time>2014-02-15T11:14:27.000Z</time>
      </trkpt>
      <trkpt lat="45.68279" lon="6.02224">
        <ele>1341.5999755859</ele>
        <time>2014-02-15T11:14:32.000Z</time>
      </trkpt>
      <trkpt lat="45.68279" lon="6.02214">
        <ele>1340.8000488281</ele>
        <time>2014-02-15T11:14:36.000Z</time>
      </trkpt>
      <trkpt lat="45.68279" lon="6.02211">
        <ele>1340.4000244141</ele>
        <time>2014-02-15T11:14:37.000Z</time>
      </trkpt>
      <trkpt lat="45.68278" lon="6.02194">
        <ele>1339.1999511719</ele>
        <time>2014-02-15T11:14:43.000Z</time>
      </trkpt>
      <trkpt lat="45.68278" lon="6.0219">
        <ele>1338.8000488281</ele>
        <time>2014-02-15T11:14:44.000Z</time>
      </trkpt>
      <trkpt lat="45.68278" lon="6.02177">
        <ele>1337.8000488281</ele>
        <time>2014-02-15T11:14:49.000Z</time>
      </trkpt>
      <trkpt lat="45.68278" lon="6.02168">
        <ele>1337</ele>
        <time>2014-02-15T11:14:53.000Z</time>
      </trkpt>
      <trkpt lat="45.68277" lon="6.02156">
        <ele>1337.1999511719</ele>
        <time>2014-02-15T11:14:59.000Z</time>
      </trkpt>
      <trkpt lat="45.68276" lon="6.02146">
        <ele>1337.5999755859</ele>
        <time>2014-02-15T11:15:05.000Z</time>
      </trkpt>
      <trkpt lat="45.68275" lon="6.0214">
        <ele>1337.8000488281</ele>
        <time>2014-02-15T11:15:08.000Z</time>
      </trkpt>
      <trkpt lat="45.68273" lon="6.02128">
        <ele>1338.4000244141</ele>
        <time>2014-02-15T11:15:13.000Z</time>
      </trkpt>
      <trkpt lat="45.68271" lon="6.02121">
        <ele>1339</ele>
        <time>2014-02-15T11:15:17.000Z</time>
      </trkpt>
      <trkpt lat="45.68269" lon="6.0211">
        <ele>1339.5999755859</ele>
        <time>2014-02-15T11:15:22.000Z</time>
      </trkpt>
      <trkpt lat="45.68268" lon="6.02108">
        <ele>1339.8000488281</ele>
        <time>2014-02-15T11:15:23.000Z</time>
      </trkpt>
      <trkpt lat="45.68264" lon="6.02093">
        <ele>1341.1999511719</ele>
        <time>2014-02-15T11:15:28.000Z</time>
      </trkpt>
      <trkpt lat="45.6826" lon="6.02081">
        <ele>1342.4000244141</ele>
        <time>2014-02-15T11:15:32.000Z</time>
      </trkpt>
      <trkpt lat="45.68259" lon="6.02078">
        <ele>1342.8000488281</ele>
        <time>2014-02-15T11:15:33.000Z</time>
      </trkpt>
      <trkpt lat="45.68256" lon="6.02069">
        <ele>1343.5999755859</ele>
        <time>2014-02-15T11:15:36.000Z</time>
      </trkpt>
      <trkpt lat="45.68249" lon="6.02055">
        <ele>1345.4000244141</ele>
        <time>2014-02-15T11:15:41.000Z</time>
      </trkpt>
      <trkpt lat="45.68246" lon="6.02048">
        <ele>1345.5999755859</ele>
        <time>2014-02-15T11:15:43.000Z</time>
      </trkpt>
      <trkpt lat="45.68239" lon="6.02028">
        <ele>1345.8000488281</ele>
        <time>2014-02-15T11:15:48.000Z</time>
      </trkpt>
      <trkpt lat="45.68238" lon="6.0201">
        <ele>1346</ele>
        <time>2014-02-15T11:15:52.000Z</time>
      </trkpt>
      <trkpt lat="45.68244" lon="6.01993">
        <ele>1345.8000488281</ele>
        <time>2014-02-15T11:15:57.000Z</time>
      </trkpt>
      <trkpt lat="45.6825" lon="6.01973">
        <ele>1345.4000244141</ele>
        <time>2014-02-15T11:16:02.000Z</time>
      </trkpt>
      <trkpt lat="45.68254" lon="6.01956">
        <ele>1343.5999755859</ele>
        <time>2014-02-15T11:16:06.000Z</time>
      </trkpt>
      <trkpt lat="45.68257" lon="6.01942">
        <ele>1342.4000244141</ele>
        <time>2014-02-15T11:16:10.000Z</time>
      </trkpt>
      <trkpt lat="45.6826" lon="6.0193">
        <ele>1341.4000244141</ele>
        <time>2014-02-15T11:16:13.000Z</time>
      </trkpt>
      <trkpt lat="45.68264" lon="6.01916">
        <ele>1339.8000488281</ele>
        <time>2014-02-15T11:16:17.000Z</time>
      </trkpt>
      <trkpt lat="45.68264" lon="6.01899">
        <ele>1339.5999755859</ele>
        <time>2014-02-15T11:16:21.000Z</time>
      </trkpt>
      <trkpt lat="45.68262" lon="6.01889">
        <ele>1340</ele>
        <time>2014-02-15T11:16:24.000Z</time>
      </trkpt>
      <trkpt lat="45.68255" lon="6.01875">
        <ele>1341.8000488281</ele>
        <time>2014-02-15T11:16:29.000Z</time>
      </trkpt>
      <trkpt lat="45.68247" lon="6.01857">
        <ele>1342.5999755859</ele>
        <time>2014-02-15T11:16:34.000Z</time>
      </trkpt>
      <trkpt lat="45.68246" lon="6.01848">
        <ele>1342.4000244141</ele>
        <time>2014-02-15T11:16:36.000Z</time>
      </trkpt>
      <trkpt lat="45.68248" lon="6.01822">
        <ele>1341.5999755859</ele>
        <time>2014-02-15T11:16:40.000Z</time>
      </trkpt>
      <trkpt lat="45.68249" lon="6.01789">
        <ele>1340.4000244141</ele>
        <time>2014-02-15T11:16:44.000Z</time>
      </trkpt>
      <trkpt lat="45.68245" lon="6.01771">
        <ele>1339.8000488281</ele>
        <time>2014-02-15T11:16:48.000Z</time>
      </trkpt>
      <trkpt lat="45.68239" lon="6.0174">
        <ele>1339</ele>
        <time>2014-02-15T11:16:54.000Z</time>
      </trkpt>
      <trkpt lat="45.68235" lon="6.01727">
        <ele>1338.5999755859</ele>
        <time>2014-02-15T11:16:57.000Z</time>
      </trkpt>
      <trkpt lat="45.68227" lon="6.01709">
        <ele>1338</ele>
        <time>2014-02-15T11:17:02.000Z</time>
      </trkpt>
      <trkpt lat="45.68226" lon="6.01705">
        <ele>1338</ele>
        <time>2014-02-15T11:17:03.000Z</time>
      </trkpt>
      <trkpt lat="45.68217" lon="6.0168">
        <ele>1337.1999511719</ele>
        <time>2014-02-15T11:17:08.000Z</time>
      </trkpt>
      <trkpt lat="45.68204" lon="6.01666">
        <ele>1337</ele>
        <time>2014-02-15T11:17:12.000Z</time>
      </trkpt>
      <trkpt lat="45.68188" lon="6.01654">
        <ele>1337.4000244141</ele>
        <time>2014-02-15T11:17:17.000Z</time>
      </trkpt>
      <trkpt lat="45.68176" lon="6.01648">
        <ele>1337.8000488281</ele>
        <time>2014-02-15T11:17:20.000Z</time>
      </trkpt>
      <trkpt lat="45.68173" lon="6.01647">
        <ele>1338</ele>
        <time>2014-02-15T11:17:21.000Z</time>
      </trkpt>
      <trkpt lat="45.68157" lon="6.01644">
        <ele>1340.1999511719</ele>
        <time>2014-02-15T11:17:26.000Z</time>
      </trkpt>
      <trkpt lat="45.68147" lon="6.01639">
        <ele>1342.1999511719</ele>
        <time>2014-02-15T11:17:30.000Z</time>
      </trkpt>
      <trkpt lat="45.68137" lon="6.01644">
        <ele>1344.1999511719</ele>
        <time>2014-02-15T11:17:34.000Z</time>
      </trkpt>
      <trkpt lat="45.68128" lon="6.01658">
        <ele>1345.1999511719</ele>
        <time>2014-02-15T11:17:38.000Z</time>
      </trkpt>
      <trkpt lat="45.68123" lon="6.01675">
        <ele>1345.8000488281</ele>
        <time>2014-02-15T11:17:42.000Z</time>
      </trkpt>
      <trkpt lat="45.68119" lon="6.01687">
        <ele>1346.1999511719</ele>
        <time>2014-02-15T11:17:45.000Z</time>
      </trkpt>
      <trkpt lat="45.68117" lon="6.01692">
        <ele>1346.4000244141</ele>
        <time>2014-02-15T11:17:46.000Z</time>
      </trkpt>
      <trkpt lat="45.6811" lon="6.01705">
        <ele>1347</ele>
        <time>2014-02-15T11:17:50.000Z</time>
      </trkpt>
      <trkpt lat="45.68104" lon="6.0172">
        <ele>1347.4000244141</ele>
        <time>2014-02-15T11:17:54.000Z</time>
      </trkpt>
      <trkpt lat="45.68099" lon="6.01731">
        <ele>1347.4000244141</ele>
        <time>2014-02-15T11:17:57.000Z</time>
      </trkpt>
      <trkpt lat="45.68089" lon="6.01756">
        <ele>1347.4000244141</ele>
        <time>2014-02-15T11:18:03.000Z</time>
      </trkpt>
      <trkpt lat="45.68081" lon="6.01767">
        <ele>1348.1999511719</ele>
        <time>2014-02-15T11:18:07.000Z</time>
      </trkpt>
      <trkpt lat="45.68071" lon="6.01771">
        <ele>1350.1999511719</ele>
        <time>2014-02-15T11:18:12.000Z</time>
      </trkpt>
      <trkpt lat="45.68066" lon="6.01759">
        <ele>1351.4000244141</ele>
        <time>2014-02-15T11:18:16.000Z</time>
      </trkpt>
      <trkpt lat="45.68067" lon="6.01745">
        <ele>1351.5999755859</ele>
        <time>2014-02-15T11:18:21.000Z</time>
      </trkpt>
      <trkpt lat="45.68066" lon="6.0174">
        <ele>1352.1999511719</ele>
        <time>2014-02-15T11:18:23.000Z</time>
      </trkpt>
      <trkpt lat="45.68066" lon="6.01725">
        <ele>1353.4000244141</ele>
        <time>2014-02-15T11:18:28.000Z</time>
      </trkpt>
      <trkpt lat="45.68066" lon="6.01723">
        <ele>1353.4000244141</ele>
        <time>2014-02-15T11:18:29.000Z</time>
      </trkpt>
      <trkpt lat="45.68066" lon="6.01707">
        <ele>1354.5999755859</ele>
        <time>2014-02-15T11:18:34.000Z</time>
      </trkpt>
      <trkpt lat="45.68066" lon="6.01704">
        <ele>1354.8000488281</ele>
        <time>2014-02-15T11:18:35.000Z</time>
      </trkpt>
      <trkpt lat="45.68068" lon="6.01691">
        <ele>1355.1999511719</ele>
        <time>2014-02-15T11:18:40.000Z</time>
      </trkpt>
      <trkpt lat="45.6807" lon="6.01682">
        <ele>1355.4000244141</ele>
        <time>2014-02-15T11:18:44.000Z</time>
      </trkpt>
      <trkpt lat="45.68071" lon="6.01673">
        <ele>1355.5999755859</ele>
        <time>2014-02-15T11:18:48.000Z</time>
      </trkpt>
      <trkpt lat="45.68073" lon="6.01661">
        <ele>1356</ele>
        <time>2014-02-15T11:18:53.000Z</time>
      </trkpt>
      <trkpt lat="45.68074" lon="6.0165">
        <ele>1356.4000244141</ele>
        <time>2014-02-15T11:18:57.000Z</time>
      </trkpt>
      <trkpt lat="45.68074" lon="6.01638">
        <ele>1357.1999511719</ele>
        <time>2014-02-15T11:19:02.000Z</time>
      </trkpt>
      <trkpt lat="45.68072" lon="6.01632">
        <ele>1358.1999511719</ele>
        <time>2014-02-15T11:19:05.000Z</time>
      </trkpt>
      <trkpt lat="45.6807" lon="6.01622">
        <ele>1359.5999755859</ele>
        <time>2014-02-15T11:19:09.000Z</time>
      </trkpt>
      <trkpt lat="45.68068" lon="6.0161">
        <ele>1360.8000488281</ele>
        <time>2014-02-15T11:19:12.000Z</time>
      </trkpt>
      <trkpt lat="45.68072" lon="6.01589">
        <ele>1361.4000244141</ele>
        <time>2014-02-15T11:19:17.000Z</time>
      </trkpt>
      <trkpt lat="45.68075" lon="6.01572">
        <ele>1361.1999511719</ele>
        <time>2014-02-15T11:19:21.000Z</time>
      </trkpt>
      <trkpt lat="45.68077" lon="6.01553">
        <ele>1361.1999511719</ele>
        <time>2014-02-15T11:19:25.000Z</time>
      </trkpt>
      <trkpt lat="45.68077" lon="6.01531">
        <ele>1361.8000488281</ele>
        <time>2014-02-15T11:19:29.000Z</time>
      </trkpt>
      <trkpt lat="45.68079" lon="6.01521">
        <ele>1361.5999755859</ele>
        <time>2014-02-15T11:19:31.000Z</time>
      </trkpt>
      <trkpt lat="45.68075" lon="6.01494">
        <ele>1362.5999755859</ele>
        <time>2014-02-15T11:19:36.000Z</time>
      </trkpt>
      <trkpt lat="45.68073" lon="6.01473">
        <ele>1362.5999755859</ele>
        <time>2014-02-15T11:19:40.000Z</time>
      </trkpt>
      <trkpt lat="45.68073" lon="6.01442">
        <ele>1361.4000244141</ele>
        <time>2014-02-15T11:19:46.000Z</time>
      </trkpt>
      <trkpt lat="45.68073" lon="6.01422">
        <ele>1361</ele>
        <time>2014-02-15T11:19:50.000Z</time>
      </trkpt>
      <trkpt lat="45.68071" lon="6.01401">
        <ele>1360.4000244141</ele>
        <time>2014-02-15T11:19:54.000Z</time>
      </trkpt>
      <trkpt lat="45.6807" lon="6.01381">
        <ele>1359.8000488281</ele>
        <time>2014-02-15T11:19:58.000Z</time>
      </trkpt>
      <trkpt lat="45.6807" lon="6.01362">
        <ele>1359.1999511719</ele>
        <time>2014-02-15T11:20:02.000Z</time>
      </trkpt>
      <trkpt lat="45.68068" lon="6.01346">
        <ele>1359</ele>
        <time>2014-02-15T11:20:05.000Z</time>
      </trkpt>
      <trkpt lat="45.68067" lon="6.01321">
        <ele>1358.1999511719</ele>
        <time>2014-02-15T11:20:10.000Z</time>
      </trkpt>
      <trkpt lat="45.68067" lon="6.01291">
        <ele>1357.1999511719</ele>
        <time>2014-02-15T11:20:15.000Z</time>
      </trkpt>
      <trkpt lat="45.68068" lon="6.01274">
        <ele>1356.5999755859</ele>
        <time>2014-02-15T11:20:18.000Z</time>
      </trkpt>
      <trkpt lat="45.68069" lon="6.01255">
        <ele>1356</ele>
        <time>2014-02-15T11:20:21.000Z</time>
      </trkpt>
      <trkpt lat="45.6807" lon="6.01232">
        <ele>1355.5999755859</ele>
        <time>2014-02-15T11:20:25.000Z</time>
      </trkpt>
      <trkpt lat="45.68073" lon="6.01205">
        <ele>1355</ele>
        <time>2014-02-15T11:20:30.000Z</time>
      </trkpt>
      <trkpt lat="45.68074" lon="6.01201">
        <ele>1354.8000488281</ele>
        <time>2014-02-15T11:20:31.000Z</time>
      </trkpt>
      <trkpt lat="45.68074" lon="6.01189">
        <ele>1354.8000488281</ele>
        <time>2014-02-15T11:20:34.000Z</time>
      </trkpt>
      <trkpt lat="45.68074" lon="6.01185">
        <ele>1354.8000488281</ele>
        <time>2014-02-15T11:20:35.000Z</time>
      </trkpt>
      <trkpt lat="45.68076" lon="6.01168">
        <ele>1354.4000244141</ele>
        <time>2014-02-15T11:20:39.000Z</time>
      </trkpt>
      <trkpt lat="45.68069" lon="6.01149">
        <ele>1353</ele>
        <time>2014-02-15T11:20:44.000Z</time>
      </trkpt>
      <trkpt lat="45.68055" lon="6.01132">
        <ele>1352.5999755859</ele>
        <time>2014-02-15T11:20:49.000Z</time>
      </trkpt>
      <trkpt lat="45.68044" lon="6.01121">
        <ele>1352.4000244141</ele>
        <time>2014-02-15T11:20:53.000Z</time>
      </trkpt>
      <trkpt lat="45.68033" lon="6.0111">
        <ele>1352.5999755859</ele>
        <time>2014-02-15T11:20:57.000Z</time>
      </trkpt>
      <trkpt lat="45.68021" lon="6.01097">
        <ele>1352.8000488281</ele>
        <time>2014-02-15T11:21:02.000Z</time>
      </trkpt>
      <trkpt lat="45.68013" lon="6.01087">
        <ele>1352.8000488281</ele>
        <time>2014-02-15T11:21:06.000Z</time>
      </trkpt>
      <trkpt lat="45.68003" lon="6.01077">
        <ele>1353.5999755859</ele>
        <time>2014-02-15T11:21:10.000Z</time>
      </trkpt>
      <trkpt lat="45.67992" lon="6.01071">
        <ele>1354.5999755859</ele>
        <time>2014-02-15T11:21:14.000Z</time>
      </trkpt>
      <trkpt lat="45.67983" lon="6.0107">
        <ele>1355.5999755859</ele>
        <time>2014-02-15T11:21:17.000Z</time>
      </trkpt>
      <trkpt lat="45.67973" lon="6.01067">
        <ele>1356.5999755859</ele>
        <time>2014-02-15T11:21:21.000Z</time>
      </trkpt>
      <trkpt lat="45.67961" lon="6.01064">
        <ele>1358</ele>
        <time>2014-02-15T11:21:25.000Z</time>
      </trkpt>
      <trkpt lat="45.67959" lon="6.01061">
        <ele>1358.1999511719</ele>
        <time>2014-02-15T11:21:26.000Z</time>
      </trkpt>
      <trkpt lat="45.6795" lon="6.01051">
        <ele>1359</ele>
        <time>2014-02-15T11:21:30.000Z</time>
      </trkpt>
      <trkpt lat="45.67939" lon="6.01035">
        <ele>1360.1999511719</ele>
        <time>2014-02-15T11:21:35.000Z</time>
      </trkpt>
      <trkpt lat="45.6794" lon="6.01024">
        <ele>1360</ele>
        <time>2014-02-15T11:21:37.000Z</time>
      </trkpt>
      <trkpt lat="45.6794" lon="6.00998">
        <ele>1360</ele>
        <time>2014-02-15T11:21:42.000Z</time>
      </trkpt>
      <trkpt lat="45.67945" lon="6.00978">
        <ele>1360.4000244141</ele>
        <time>2014-02-15T11:21:46.000Z</time>
      </trkpt>
      <trkpt lat="45.67948" lon="6.00954">
        <ele>1361.1999511719</ele>
        <time>2014-02-15T11:21:51.000Z</time>
      </trkpt>
      <trkpt lat="45.67951" lon="6.00933">
        <ele>1361.4000244141</ele>
        <time>2014-02-15T11:21:56.000Z</time>
      </trkpt>
      <trkpt lat="45.67959" lon="6.00907">
        <ele>1361</ele>
        <time>2014-02-15T11:22:01.000Z</time>
      </trkpt>
      <trkpt lat="45.67966" lon="6.00884">
        <ele>1360.8000488281</ele>
        <time>2014-02-15T11:22:05.000Z</time>
      </trkpt>
      <trkpt lat="45.67971" lon="6.00871">
        <ele>1360.5999755859</ele>
        <time>2014-02-15T11:22:07.000Z</time>
      </trkpt>
      <trkpt lat="45.67985" lon="6.00849">
        <ele>1358.8000488281</ele>
        <time>2014-02-15T11:22:12.000Z</time>
      </trkpt>
      <trkpt lat="45.67991" lon="6.0084">
        <ele>1357.8000488281</ele>
        <time>2014-02-15T11:22:14.000Z</time>
      </trkpt>
      <trkpt lat="45.6802" lon="6.00804">
        <ele>1354.1999511719</ele>
        <time>2014-02-15T11:22:22.000Z</time>
      </trkpt>
      <trkpt lat="45.68029" lon="6.00782">
        <ele>1353</ele>
        <time>2014-02-15T11:22:27.000Z</time>
      </trkpt>
      <trkpt lat="45.68033" lon="6.00772">
        <ele>1352.5999755859</ele>
        <time>2014-02-15T11:22:30.000Z</time>
      </trkpt>
      <trkpt lat="45.68036" lon="6.00744">
        <ele>1351.5999755859</ele>
        <time>2014-02-15T11:22:35.000Z</time>
      </trkpt>
      <trkpt lat="45.68035" lon="6.00732">
        <ele>1351.1999511719</ele>
        <time>2014-02-15T11:22:37.000Z</time>
      </trkpt>
      <trkpt lat="45.6804" lon="6.00709">
        <ele>1350</ele>
        <time>2014-02-15T11:22:42.000Z</time>
      </trkpt>
      <trkpt lat="45.68043" lon="6.00689">
        <ele>1348.8000488281</ele>
        <time>2014-02-15T11:22:46.000Z</time>
      </trkpt>
      <trkpt lat="45.68042" lon="6.0068">
        <ele>1348.5999755859</ele>
        <time>2014-02-15T11:22:48.000Z</time>
      </trkpt>
      <trkpt lat="45.68038" lon="6.00661">
        <ele>1348.1999511719</ele>
        <time>2014-02-15T11:22:52.000Z</time>
      </trkpt>
      <trkpt lat="45.68038" lon="6.00657">
        <ele>1348.1999511719</ele>
        <time>2014-02-15T11:22:53.000Z</time>
      </trkpt>
      <trkpt lat="45.68037" lon="6.00637">
        <ele>1347.5999755859</ele>
        <time>2014-02-15T11:22:58.000Z</time>
      </trkpt>
      <trkpt lat="45.68034" lon="6.00625">
        <ele>1347.5999755859</ele>
        <time>2014-02-15T11:23:02.000Z</time>
      </trkpt>
      <trkpt lat="45.68021" lon="6.00626">
        <ele>1348.8000488281</ele>
        <time>2014-02-15T11:23:08.000Z</time>
      </trkpt>
      <trkpt lat="45.68008" lon="6.00633">
        <ele>1350.4000244141</ele>
        <time>2014-02-15T11:23:13.000Z</time>
      </trkpt>
      <trkpt lat="45.67991" lon="6.00638">
        <ele>1352.1999511719</ele>
        <time>2014-02-15T11:23:18.000Z</time>
      </trkpt>
      <trkpt lat="45.67979" lon="6.00636">
        <ele>1353</ele>
        <time>2014-02-15T11:23:22.000Z</time>
      </trkpt>
      <trkpt lat="45.67972" lon="6.00633">
        <ele>1353.5999755859</ele>
        <time>2014-02-15T11:23:26.000Z</time>
      </trkpt>
      <trkpt lat="45.67966" lon="6.0063">
        <ele>1354.1999511719</ele>
        <time>2014-02-15T11:23:30.000Z</time>
      </trkpt>
      <trkpt lat="45.67964" lon="6.0063">
        <ele>1354.4000244141</ele>
        <time>2014-02-15T11:23:31.000Z</time>
      </trkpt>
      <trkpt lat="45.67959" lon="6.00627">
        <ele>1354.8000488281</ele>
        <time>2014-02-15T11:23:34.000Z</time>
      </trkpt>
      <trkpt lat="45.6795" lon="6.00627">
        <ele>1355.8000488281</ele>
        <time>2014-02-15T11:23:39.000Z</time>
      </trkpt>
      <trkpt lat="45.67942" lon="6.00634">
        <ele>1356.4000244141</ele>
        <time>2014-02-15T11:23:44.000Z</time>
      </trkpt>
      <trkpt lat="45.67935" lon="6.00644">
        <ele>1356.5999755859</ele>
        <time>2014-02-15T11:23:50.000Z</time>
      </trkpt>
      <trkpt lat="45.67933" lon="6.00652">
        <ele>1356.5999755859</ele>
        <time>2014-02-15T11:23:53.000Z</time>
      </trkpt>
      <trkpt lat="45.67928" lon="6.00677">
        <ele>1357.1999511719</ele>
        <time>2014-02-15T11:23:58.000Z</time>
      </trkpt>
      <trkpt lat="45.67927" lon="6.00686">
        <ele>1358.1999511719</ele>
        <time>2014-02-15T11:24:00.000Z</time>
      </trkpt>
      <trkpt lat="45.67914" lon="6.00698">
        <ele>1360.5999755859</ele>
        <time>2014-02-15T11:24:04.000Z</time>
      </trkpt>
      <trkpt lat="45.67901" lon="6.00697">
        <ele>1361.1999511719</ele>
        <time>2014-02-15T11:24:11.000Z</time>
      </trkpt>
      <trkpt lat="45.67889" lon="6.00698">
        <ele>1362</ele>
        <time>2014-02-15T11:24:17.000Z</time>
      </trkpt>
      <trkpt lat="45.67878" lon="6.00707">
        <ele>1363</ele>
        <time>2014-02-15T11:24:21.000Z</time>
      </trkpt>
      <trkpt lat="45.67866" lon="6.00715">
        <ele>1364</ele>
        <time>2014-02-15T11:24:25.000Z</time>
      </trkpt>
      <trkpt lat="45.67861" lon="6.0071">
        <ele>1364</ele>
        <time>2014-02-15T11:24:27.000Z</time>
      </trkpt>
      <trkpt lat="45.67858" lon="6.00704">
        <ele>1363.8000488281</ele>
        <time>2014-02-15T11:24:29.000Z</time>
      </trkpt>
      <trkpt lat="45.67861" lon="6.0069">
        <ele>1363.1999511719</ele>
        <time>2014-02-15T11:24:33.000Z</time>
      </trkpt>
      <trkpt lat="45.67858" lon="6.00674">
        <ele>1362.8000488281</ele>
        <time>2014-02-15T11:24:38.000Z</time>
      </trkpt>
      <trkpt lat="45.67857" lon="6.00657">
        <ele>1363.1999511719</ele>
        <time>2014-02-15T11:24:43.000Z</time>
      </trkpt>
      <trkpt lat="45.67858" lon="6.00649">
        <ele>1363.5999755859</ele>
        <time>2014-02-15T11:24:45.000Z</time>
      </trkpt>
      <trkpt lat="45.67864" lon="6.00636">
        <ele>1363.8000488281</ele>
        <time>2014-02-15T11:24:49.000Z</time>
      </trkpt>
      <trkpt lat="45.67866" lon="6.00631">
        <ele>1363.8000488281</ele>
        <time>2014-02-15T11:24:52.000Z</time>
      </trkpt>
      <trkpt lat="45.67874" lon="6.00624">
        <ele>1363.4000244141</ele>
        <time>2014-02-15T11:24:57.000Z</time>
      </trkpt>
      <trkpt lat="45.67882" lon="6.00617">
        <ele>1363</ele>
        <time>2014-02-15T11:25:02.000Z</time>
      </trkpt>
      <trkpt lat="45.67883" lon="6.00615">
        <ele>1363</ele>
        <time>2014-02-15T11:25:03.000Z</time>
      </trkpt>
      <trkpt lat="45.6789" lon="6.00605">
        <ele>1362.8000488281</ele>
        <time>2014-02-15T11:25:08.000Z</time>
      </trkpt>
      <trkpt lat="45.67896" lon="6.00595">
        <ele>1362.5999755859</ele>
        <time>2014-02-15T11:25:12.000Z</time>
      </trkpt>
      <trkpt lat="45.67903" lon="6.0058">
        <ele>1362.8000488281</ele>
        <time>2014-02-15T11:25:17.000Z</time>
      </trkpt>
      <trkpt lat="45.67908" lon="6.00568">
        <ele>1363.4000244141</ele>
        <time>2014-02-15T11:25:21.000Z</time>
      </trkpt>
      <trkpt lat="45.6791" lon="6.00559">
        <ele>1364</ele>
        <time>2014-02-15T11:25:24.000Z</time>
      </trkpt>
      <trkpt lat="45.67912" lon="6.00546">
        <ele>1365</ele>
        <time>2014-02-15T11:25:29.000Z</time>
      </trkpt>
      <trkpt lat="45.67915" lon="6.00534">
        <ele>1365.8000488281</ele>
        <time>2014-02-15T11:25:33.000Z</time>
      </trkpt>
      <trkpt lat="45.67918" lon="6.00526">
        <ele>1366.4000244141</ele>
        <time>2014-02-15T11:25:36.000Z</time>
      </trkpt>
      <trkpt lat="45.67922" lon="6.00513">
        <ele>1366.8000488281</ele>
        <time>2014-02-15T11:25:41.000Z</time>
      </trkpt>
      <trkpt lat="45.67924" lon="6.00503">
        <ele>1367.4000244141</ele>
        <time>2014-02-15T11:25:45.000Z</time>
      </trkpt>
      <trkpt lat="45.67925" lon="6.00494">
        <ele>1368</ele>
        <time>2014-02-15T11:25:49.000Z</time>
      </trkpt>
      <trkpt lat="45.67924" lon="6.00484">
        <ele>1369</ele>
        <time>2014-02-15T11:25:52.000Z</time>
      </trkpt>
      <trkpt lat="45.6793" lon="6.00467">
        <ele>1369.1999511719</ele>
        <time>2014-02-15T11:25:58.000Z</time>
      </trkpt>
      <trkpt lat="45.67931" lon="6.00465">
        <ele>1369.1999511719</ele>
        <time>2014-02-15T11:25:59.000Z</time>
      </trkpt>
      <trkpt lat="45.67938" lon="6.00453">
        <ele>1368.5999755859</ele>
        <time>2014-02-15T11:26:04.000Z</time>
      </trkpt>
      <trkpt lat="45.67943" lon="6.00445">
        <ele>1368.1999511719</ele>
        <time>2014-02-15T11:26:08.000Z</time>
      </trkpt>
      <trkpt lat="45.67945" lon="6.00433">
        <ele>1368.8000488281</ele>
        <time>2014-02-15T11:26:12.000Z</time>
      </trkpt>
      <trkpt lat="45.67945" lon="6.0043">
        <ele>1369</ele>
        <time>2014-02-15T11:26:13.000Z</time>
      </trkpt>
      <trkpt lat="45.67942" lon="6.00411">
        <ele>1371</ele>
        <time>2014-02-15T11:26:18.000Z</time>
      </trkpt>
      <trkpt lat="45.67941" lon="6.00396">
        <ele>1372.5999755859</ele>
        <time>2014-02-15T11:26:23.000Z</time>
      </trkpt>
      <trkpt lat="45.67941" lon="6.00384">
        <ele>1373.5999755859</ele>
        <time>2014-02-15T11:26:28.000Z</time>
      </trkpt>
      <trkpt lat="45.67942" lon="6.00375">
        <ele>1373.8000488281</ele>
        <time>2014-02-15T11:26:33.000Z</time>
      </trkpt>
      <trkpt lat="45.67948" lon="6.00359">
        <ele>1374</ele>
        <time>2014-02-15T11:26:40.000Z</time>
      </trkpt>
      <trkpt lat="45.67952" lon="6.00348">
        <ele>1374.1999511719</ele>
        <time>2014-02-15T11:26:45.000Z</time>
      </trkpt>
      <trkpt lat="45.67957" lon="6.00339">
        <ele>1373.8000488281</ele>
        <time>2014-02-15T11:26:49.000Z</time>
      </trkpt>
      <trkpt lat="45.67963" lon="6.00333">
        <ele>1373.1999511719</ele>
        <time>2014-02-15T11:26:52.000Z</time>
      </trkpt>
      <trkpt lat="45.67971" lon="6.00324">
        <ele>1371.8000488281</ele>
        <time>2014-02-15T11:26:57.000Z</time>
      </trkpt>
      <trkpt lat="45.67972" lon="6.00322">
        <ele>1371.4000244141</ele>
        <time>2014-02-15T11:26:58.000Z</time>
      </trkpt>
      <trkpt lat="45.67979" lon="6.00309">
        <ele>1370.4000244141</ele>
        <time>2014-02-15T11:27:03.000Z</time>
      </trkpt>
      <trkpt lat="45.67981" lon="6.00299">
        <ele>1370.4000244141</ele>
        <time>2014-02-15T11:27:06.000Z</time>
      </trkpt>
      <trkpt lat="45.67982" lon="6.00287">
        <ele>1370.5999755859</ele>
        <time>2014-02-15T11:27:10.000Z</time>
      </trkpt>
      <trkpt lat="45.67982" lon="6.00275">
        <ele>1371</ele>
        <time>2014-02-15T11:27:14.000Z</time>
      </trkpt>
      <trkpt lat="45.6798" lon="6.00267">
        <ele>1371.8000488281</ele>
        <time>2014-02-15T11:27:19.000Z</time>
      </trkpt>
      <trkpt lat="45.67977" lon="6.00261">
        <ele>1372.5999755859</ele>
        <time>2014-02-15T11:27:22.000Z</time>
      </trkpt>
      <trkpt lat="45.67974" lon="6.00252">
        <ele>1374</ele>
        <time>2014-02-15T11:27:27.000Z</time>
      </trkpt>
      <trkpt lat="45.67971" lon="6.00246">
        <ele>1374.8000488281</ele>
        <time>2014-02-15T11:27:31.000Z</time>
      </trkpt>
      <trkpt lat="45.6797" lon="6.00244">
        <ele>1375</ele>
        <time>2014-02-15T11:27:32.000Z</time>
      </trkpt>
      <trkpt lat="45.67964" lon="6.00231">
        <ele>1376.5999755859</ele>
        <time>2014-02-15T11:27:39.000Z</time>
      </trkpt>
      <trkpt lat="45.67961" lon="6.0022">
        <ele>1377.5999755859</ele>
        <time>2014-02-15T11:27:44.000Z</time>
      </trkpt>
      <trkpt lat="45.6796" lon="6.00218">
        <ele>1377.8000488281</ele>
        <time>2014-02-15T11:27:45.000Z</time>
      </trkpt>
      <trkpt lat="45.67959" lon="6.00206">
        <ele>1378.1999511719</ele>
        <time>2014-02-15T11:27:49.000Z</time>
      </trkpt>
      <trkpt lat="45.67959" lon="6.00197">
        <ele>1378.4000244141</ele>
        <time>2014-02-15T11:27:52.000Z</time>
      </trkpt>
      <trkpt lat="45.67958" lon="6.00181">
        <ele>1378.8000488281</ele>
        <time>2014-02-15T11:27:57.000Z</time>
      </trkpt>
      <trkpt lat="45.67957" lon="6.0017">
        <ele>1379.4000244141</ele>
        <time>2014-02-15T11:28:00.000Z</time>
      </trkpt>
      <trkpt lat="45.67953" lon="6.00151">
        <ele>1381.1999511719</ele>
        <time>2014-02-15T11:28:04.000Z</time>
      </trkpt>
      <trkpt lat="45.67951" lon="6.00146">
        <ele>1381.8000488281</ele>
        <time>2014-02-15T11:28:05.000Z</time>
      </trkpt>
      <trkpt lat="45.67947" lon="6.00122">
        <ele>1383.8000488281</ele>
        <time>2014-02-15T11:28:11.000Z</time>
      </trkpt>
      <trkpt lat="45.67948" lon="6.00119">
        <ele>1383.8000488281</ele>
        <time>2014-02-15T11:28:12.000Z</time>
      </trkpt>
      <trkpt lat="45.67946" lon="6.00101">
        <ele>1385</ele>
        <time>2014-02-15T11:28:18.000Z</time>
      </trkpt>
      <trkpt lat="45.67944" lon="6.00089">
        <ele>1386</ele>
        <time>2014-02-15T11:28:23.000Z</time>
      </trkpt>
      <trkpt lat="45.67941" lon="6.00075">
        <ele>1386.8000488281</ele>
        <time>2014-02-15T11:28:28.000Z</time>
      </trkpt>
      <trkpt lat="45.67935" lon="6.00065">
        <ele>1387.4000244141</ele>
        <time>2014-02-15T11:28:32.000Z</time>
      </trkpt>
      <trkpt lat="45.67931" lon="6.00051">
        <ele>1387.8000488281</ele>
        <time>2014-02-15T11:28:37.000Z</time>
      </trkpt>
      <trkpt lat="45.67925" lon="6.00041">
        <ele>1388.4000244141</ele>
        <time>2014-02-15T11:28:41.000Z</time>
      </trkpt>
      <trkpt lat="45.67919" lon="6.00025">
        <ele>1388.5999755859</ele>
        <time>2014-02-15T11:28:46.000Z</time>
      </trkpt>
      <trkpt lat="45.67913" lon="6.00016">
        <ele>1388.8000488281</ele>
        <time>2014-02-15T11:28:51.000Z</time>
      </trkpt>
      <trkpt lat="45.67907" lon="6.0001">
        <ele>1389</ele>
        <time>2014-02-15T11:28:55.000Z</time>
      </trkpt>
      <trkpt lat="45.67901" lon="6.00002">
        <ele>1389</ele>
        <time>2014-02-15T11:28:59.000Z</time>
      </trkpt>
      <trkpt lat="45.67883" lon="5.99978">
        <ele>1390</ele>
        <time>2014-02-15T11:29:07.000Z</time>
      </trkpt>
      <trkpt lat="45.67862" lon="5.99964">
        <ele>1391.1999511719</ele>
        <time>2014-02-15T11:29:14.000Z</time>
      </trkpt>
      <trkpt lat="45.67851" lon="5.99963">
        <ele>1392</ele>
        <time>2014-02-15T11:29:18.000Z</time>
      </trkpt>
      <trkpt lat="45.67843" lon="5.99956">
        <ele>1389.5999755859</ele>
        <time>2014-02-15T11:29:23.000Z</time>
      </trkpt>
      <trkpt lat="45.6784" lon="5.99952">
        <ele>1389.4000244141</ele>
        <time>2014-02-15T11:29:25.000Z</time>
      </trkpt>
      <trkpt lat="45.67837" lon="5.99942">
        <ele>1388.8000488281</ele>
        <time>2014-02-15T11:29:29.000Z</time>
      </trkpt>
      <trkpt lat="45.67837" lon="5.99933">
        <ele>1388.1999511719</ele>
        <time>2014-02-15T11:29:33.000Z</time>
      </trkpt>
      <trkpt lat="45.67835" lon="5.99926">
        <ele>1387.5999755859</ele>
        <time>2014-02-15T11:29:36.000Z</time>
      </trkpt>
      <trkpt lat="45.67834" lon="5.99914">
        <ele>1387.1999511719</ele>
        <time>2014-02-15T11:29:41.000Z</time>
      </trkpt>
      <trkpt lat="45.67829" lon="5.99903">
        <ele>1387.5999755859</ele>
        <time>2014-02-15T11:29:45.000Z</time>
      </trkpt>
      <trkpt lat="45.67821" lon="5.9989">
        <ele>1388</ele>
        <time>2014-02-15T11:29:51.000Z</time>
      </trkpt>
      <trkpt lat="45.67816" lon="5.99883">
        <ele>1388</ele>
        <time>2014-02-15T11:29:55.000Z</time>
      </trkpt>
      <trkpt lat="45.67812" lon="5.99879">
        <ele>1388.1999511719</ele>
        <time>2014-02-15T11:29:58.000Z</time>
      </trkpt>
      <trkpt lat="45.67806" lon="5.99869">
        <ele>1388.4000244141</ele>
        <time>2014-02-15T11:30:03.000Z</time>
      </trkpt>
      <trkpt lat="45.67804" lon="5.99867">
        <ele>1388.4000244141</ele>
        <time>2014-02-15T11:30:04.000Z</time>
      </trkpt>
      <trkpt lat="45.67792" lon="5.99856">
        <ele>1388.5999755859</ele>
        <time>2014-02-15T11:30:11.000Z</time>
      </trkpt>
      <trkpt lat="45.67787" lon="5.9985">
        <ele>1388.5999755859</ele>
        <time>2014-02-15T11:30:14.000Z</time>
      </trkpt>
      <trkpt lat="45.67782" lon="5.99842">
        <ele>1388.8000488281</ele>
        <time>2014-02-15T11:30:18.000Z</time>
      </trkpt>
      <trkpt lat="45.67778" lon="5.9983">
        <ele>1389.1999511719</ele>
        <time>2014-02-15T11:30:23.000Z</time>
      </trkpt>
      <trkpt lat="45.67777" lon="5.99829">
        <ele>1389.1999511719</ele>
        <time>2014-02-15T11:30:24.000Z</time>
      </trkpt>
      <trkpt lat="45.67776" lon="5.99827">
        <ele>1389.1999511719</ele>
        <time>2014-02-15T11:30:25.000Z</time>
      </trkpt>
      <trkpt lat="45.6774" lon="5.99821">
        <ele>1388</ele>
        <time>2014-02-15T11:32:24.000Z</time>
      </trkpt>
      <trkpt lat="45.6771" lon="5.99816">
        <ele>1386.1999511719</ele>
        <time>2014-02-15T11:32:32.000Z</time>
      </trkpt>
      <trkpt lat="45.67698" lon="5.99818">
        <ele>1385.1999511719</ele>
        <time>2014-02-15T11:32:36.000Z</time>
      </trkpt>
      <trkpt lat="45.6769" lon="5.99818">
        <ele>1384.5999755859</ele>
        <time>2014-02-15T11:32:39.000Z</time>
      </trkpt>
      <trkpt lat="45.67678" lon="5.99814">
        <ele>1384</ele>
        <time>2014-02-15T11:32:43.000Z</time>
      </trkpt>
      <trkpt lat="45.6766" lon="5.99804">
        <ele>1383.1999511719</ele>
        <time>2014-02-15T11:32:48.000Z</time>
      </trkpt>
      <trkpt lat="45.67653" lon="5.99797">
        <ele>1383</ele>
        <time>2014-02-15T11:32:50.000Z</time>
      </trkpt>
      <trkpt lat="45.67642" lon="5.99786">
        <ele>1382.5999755859</ele>
        <time>2014-02-15T11:32:53.000Z</time>
      </trkpt>
      <trkpt lat="45.67631" lon="5.99769">
        <ele>1382.4000244141</ele>
        <time>2014-02-15T11:32:57.000Z</time>
      </trkpt>
      <trkpt lat="45.67625" lon="5.99737">
        <ele>1382.8000488281</ele>
        <time>2014-02-15T11:33:03.000Z</time>
      </trkpt>
      <trkpt lat="45.67623" lon="5.99732">
        <ele>1382.8000488281</ele>
        <time>2014-02-15T11:33:04.000Z</time>
      </trkpt>
      <trkpt lat="45.67615" lon="5.99715">
        <ele>1382.5999755859</ele>
        <time>2014-02-15T11:33:07.000Z</time>
      </trkpt>
      <trkpt lat="45.67606" lon="5.99699">
        <ele>1382.1999511719</ele>
        <time>2014-02-15T11:33:11.000Z</time>
      </trkpt>
      <trkpt lat="45.67599" lon="5.99688">
        <ele>1381.8000488281</ele>
        <time>2014-02-15T11:33:14.000Z</time>
      </trkpt>
      <trkpt lat="45.67577" lon="5.99682">
        <ele>1380.1999511719</ele>
        <time>2014-02-15T11:33:19.000Z</time>
      </trkpt>
      <trkpt lat="45.67559" lon="5.99681">
        <ele>1379.1999511719</ele>
        <time>2014-02-15T11:33:22.000Z</time>
      </trkpt>
      <trkpt lat="45.67553" lon="5.99679">
        <ele>1379</ele>
        <time>2014-02-15T11:33:23.000Z</time>
      </trkpt>
      <trkpt lat="45.67532" lon="5.99669">
        <ele>1378.4000244141</ele>
        <time>2014-02-15T11:33:28.000Z</time>
      </trkpt>
      <trkpt lat="45.67516" lon="5.99664">
        <ele>1378</ele>
        <time>2014-02-15T11:33:32.000Z</time>
      </trkpt>
      <trkpt lat="45.67501" lon="5.99667">
        <ele>1377</ele>
        <time>2014-02-15T11:33:35.000Z</time>
      </trkpt>
      <trkpt lat="45.67495" lon="5.99667">
        <ele>1377.1999511719</ele>
        <time>2014-02-15T11:33:36.000Z</time>
      </trkpt>
      <trkpt lat="45.67477" lon="5.99667">
        <ele>1378.4000244141</ele>
        <time>2014-02-15T11:33:40.000Z</time>
      </trkpt>
      <trkpt lat="45.67462" lon="5.99656">
        <ele>1379.5999755859</ele>
        <time>2014-02-15T11:33:44.000Z</time>
      </trkpt>
      <trkpt lat="45.67455" lon="5.99648">
        <ele>1380</ele>
        <time>2014-02-15T11:33:47.000Z</time>
      </trkpt>
      <trkpt lat="45.67447" lon="5.99637">
        <ele>1380.1999511719</ele>
        <time>2014-02-15T11:33:51.000Z</time>
      </trkpt>
      <trkpt lat="45.67425" lon="5.99631">
        <ele>1380.5999755859</ele>
        <time>2014-02-15T11:33:55.000Z</time>
      </trkpt>
      <trkpt lat="45.67419" lon="5.99628">
        <ele>1380.5999755859</ele>
        <time>2014-02-15T11:33:56.000Z</time>
      </trkpt>
      <trkpt lat="45.67402" lon="5.99621">
        <ele>1380.5999755859</ele>
        <time>2014-02-15T11:33:59.000Z</time>
      </trkpt>
      <trkpt lat="45.67393" lon="5.99605">
        <ele>1380.1999511719</ele>
        <time>2014-02-15T11:34:03.000Z</time>
      </trkpt>
      <trkpt lat="45.67389" lon="5.99598">
        <ele>1380</ele>
        <time>2014-02-15T11:34:06.000Z</time>
      </trkpt>
      <trkpt lat="45.67387" lon="5.99596">
        <ele>1380</ele>
        <time>2014-02-15T11:34:07.000Z</time>
      </trkpt>
      <trkpt lat="45.67376" lon="5.99588">
        <ele>1380</ele>
        <time>2014-02-15T11:34:14.000Z</time>
      </trkpt>
      <trkpt lat="45.67373" lon="5.99587">
        <ele>1380.1999511719</ele>
        <time>2014-02-15T11:34:15.000Z</time>
      </trkpt>
      <trkpt lat="45.67361" lon="5.99587">
        <ele>1380.4000244141</ele>
        <time>2014-02-15T11:34:21.000Z</time>
      </trkpt>
      <trkpt lat="45.67359" lon="5.99586">
        <ele>1380.4000244141</ele>
        <time>2014-02-15T11:34:22.000Z</time>
      </trkpt>
      <trkpt lat="45.67346" lon="5.99592">
        <ele>1380.8000488281</ele>
        <time>2014-02-15T11:34:27.000Z</time>
      </trkpt>
      <trkpt lat="45.67333" lon="5.99597">
        <ele>1381.1999511719</ele>
        <time>2014-02-15T11:34:31.000Z</time>
      </trkpt>
      <trkpt lat="45.6732" lon="5.99613">
        <ele>1381.5999755859</ele>
        <time>2014-02-15T11:34:35.000Z</time>
      </trkpt>
      <trkpt lat="45.67307" lon="5.99621">
        <ele>1382</ele>
        <time>2014-02-15T11:34:39.000Z</time>
      </trkpt>
      <trkpt lat="45.67297" lon="5.99621">
        <ele>1382.4000244141</ele>
        <time>2014-02-15T11:34:42.000Z</time>
      </trkpt>
      <trkpt lat="45.67282" lon="5.99618">
        <ele>1382.5999755859</ele>
        <time>2014-02-15T11:34:46.000Z</time>
      </trkpt>
      <trkpt lat="45.6727" lon="5.99611">
        <ele>1382.5999755859</ele>
        <time>2014-02-15T11:34:50.000Z</time>
      </trkpt>
      <trkpt lat="45.67268" lon="5.9961">
        <ele>1382.5999755859</ele>
        <time>2014-02-15T11:34:51.000Z</time>
      </trkpt>
      <trkpt lat="45.67265" lon="5.99606">
        <ele>1382.5999755859</ele>
        <time>2014-02-15T11:34:53.000Z</time>
      </trkpt>
      <trkpt lat="45.67255" lon="5.99604">
        <ele>1382.5999755859</ele>
        <time>2014-02-15T11:34:57.000Z</time>
      </trkpt>
      <trkpt lat="45.67243" lon="5.99606">
        <ele>1383.1999511719</ele>
        <time>2014-02-15T11:35:03.000Z</time>
      </trkpt>
      <trkpt lat="45.67229" lon="5.99606">
        <ele>1383.5999755859</ele>
        <time>2014-02-15T11:35:08.000Z</time>
      </trkpt>
      <trkpt lat="45.67219" lon="5.99599">
        <ele>1384</ele>
        <time>2014-02-15T11:35:12.000Z</time>
      </trkpt>
      <trkpt lat="45.67211" lon="5.99588">
        <ele>1384</ele>
        <time>2014-02-15T11:35:16.000Z</time>
      </trkpt>
      <trkpt lat="45.67207" lon="5.99576">
        <ele>1384</ele>
        <time>2014-02-15T11:35:20.000Z</time>
      </trkpt>
      <trkpt lat="45.67205" lon="5.99561">
        <ele>1384.1999511719</ele>
        <time>2014-02-15T11:35:26.000Z</time>
      </trkpt>
      <trkpt lat="45.67205" lon="5.99546">
        <ele>1384.1999511719</ele>
        <time>2014-02-15T11:35:31.000Z</time>
      </trkpt>
      <trkpt lat="45.672" lon="5.99534">
        <ele>1384.1999511719</ele>
        <time>2014-02-15T11:35:36.000Z</time>
      </trkpt>
      <trkpt lat="45.67199" lon="5.99532">
        <ele>1384.1999511719</ele>
        <time>2014-02-15T11:35:37.000Z</time>
      </trkpt>
      <trkpt lat="45.67189" lon="5.99523">
        <ele>1384.1999511719</ele>
        <time>2014-02-15T11:35:43.000Z</time>
      </trkpt>
      <trkpt lat="45.67179" lon="5.99518">
        <ele>1384.4000244141</ele>
        <time>2014-02-15T11:35:47.000Z</time>
      </trkpt>
      <trkpt lat="45.67172" lon="5.9951">
        <ele>1384.1999511719</ele>
        <time>2014-02-15T11:35:50.000Z</time>
      </trkpt>
      <trkpt lat="45.67159" lon="5.99493">
        <ele>1384.1999511719</ele>
        <time>2014-02-15T11:35:54.000Z</time>
      </trkpt>
      <trkpt lat="45.67157" lon="5.99469">
        <ele>1384.5999755859</ele>
        <time>2014-02-15T11:35:58.000Z</time>
      </trkpt>
      <trkpt lat="45.67157" lon="5.99458">
        <ele>1384.8000488281</ele>
        <time>2014-02-15T11:36:00.000Z</time>
      </trkpt>
      <trkpt lat="45.67153" lon="5.99435">
        <ele>1385.1999511719</ele>
        <time>2014-02-15T11:36:05.000Z</time>
      </trkpt>
      <trkpt lat="45.6715" lon="5.9942">
        <ele>1385.4000244141</ele>
        <time>2014-02-15T11:36:09.000Z</time>
      </trkpt>
      <trkpt lat="45.67143" lon="5.99408">
        <ele>1385.5999755859</ele>
        <time>2014-02-15T11:36:13.000Z</time>
      </trkpt>
      <trkpt lat="45.67127" lon="5.99392">
        <ele>1385.8000488281</ele>
        <time>2014-02-15T11:36:18.000Z</time>
      </trkpt>
      <trkpt lat="45.67111" lon="5.99377">
        <ele>1385.8000488281</ele>
        <time>2014-02-15T11:36:22.000Z</time>
      </trkpt>
      <trkpt lat="45.67108" lon="5.99372">
        <ele>1385.8000488281</ele>
        <time>2014-02-15T11:36:23.000Z</time>
      </trkpt>
      <trkpt lat="45.67097" lon="5.99355">
        <ele>1386</ele>
        <time>2014-02-15T11:36:27.000Z</time>
      </trkpt>
      <trkpt lat="45.67086" lon="5.99337">
        <ele>1386</ele>
        <time>2014-02-15T11:36:32.000Z</time>
      </trkpt>
      <trkpt lat="45.67074" lon="5.99323">
        <ele>1386.4000244141</ele>
        <time>2014-02-15T11:36:37.000Z</time>
      </trkpt>
      <trkpt lat="45.67066" lon="5.99313">
        <ele>1386.8000488281</ele>
        <time>2014-02-15T11:36:41.000Z</time>
      </trkpt>
      <trkpt lat="45.67062" lon="5.99305">
        <ele>1387</ele>
        <time>2014-02-15T11:36:43.000Z</time>
      </trkpt>
      <trkpt lat="45.67047" lon="5.99284">
        <ele>1387.5999755859</ele>
        <time>2014-02-15T11:36:48.000Z</time>
      </trkpt>
      <trkpt lat="45.67041" lon="5.99267">
        <ele>1388.1999511719</ele>
        <time>2014-02-15T11:36:51.000Z</time>
      </trkpt>
      <trkpt lat="45.67034" lon="5.99243">
        <ele>1389</ele>
        <time>2014-02-15T11:36:56.000Z</time>
      </trkpt>
      <trkpt lat="45.6703" lon="5.99233">
        <ele>1389.4000244141</ele>
        <time>2014-02-15T11:36:58.000Z</time>
      </trkpt>
      <trkpt lat="45.67018" lon="5.99215">
        <ele>1389.5999755859</ele>
        <time>2014-02-15T11:37:03.000Z</time>
      </trkpt>
      <trkpt lat="45.67005" lon="5.99203">
        <ele>1389.4000244141</ele>
        <time>2014-02-15T11:37:08.000Z</time>
      </trkpt>
      <trkpt lat="45.66995" lon="5.99199">
        <ele>1389</ele>
        <time>2014-02-15T11:37:11.000Z</time>
      </trkpt>
      <trkpt lat="45.66979" lon="5.99182">
        <ele>1389</ele>
        <time>2014-02-15T11:37:16.000Z</time>
      </trkpt>
      <trkpt lat="45.66966" lon="5.99167">
        <ele>1388.8000488281</ele>
        <time>2014-02-15T11:37:20.000Z</time>
      </trkpt>
      <trkpt lat="45.66957" lon="5.9916">
        <ele>1388.5999755859</ele>
        <time>2014-02-15T11:37:23.000Z</time>
      </trkpt>
      <trkpt lat="45.66945" lon="5.99156">
        <ele>1388.4000244141</ele>
        <time>2014-02-15T11:37:27.000Z</time>
      </trkpt>
      <trkpt lat="45.66932" lon="5.99149">
        <ele>1388</ele>
        <time>2014-02-15T11:37:32.000Z</time>
      </trkpt>
      <trkpt lat="45.66929" lon="5.99149">
        <ele>1388</ele>
        <time>2014-02-15T11:37:33.000Z</time>
      </trkpt>
      <trkpt lat="45.66914" lon="5.99143">
        <ele>1387.4000244141</ele>
        <time>2014-02-15T11:37:38.000Z</time>
      </trkpt>
      <trkpt lat="45.66907" lon="5.9914">
        <ele>1387</ele>
        <time>2014-02-15T11:37:41.000Z</time>
      </trkpt>
      <trkpt lat="45.66899" lon="5.99132">
        <ele>1386.8000488281</ele>
        <time>2014-02-15T11:37:46.000Z</time>
      </trkpt>
      <trkpt lat="45.66895" lon="5.9913">
        <ele>1386.8000488281</ele>
        <time>2014-02-15T11:37:48.000Z</time>
      </trkpt>
      <trkpt lat="45.66882" lon="5.99123">
        <ele>1386.1999511719</ele>
        <time>2014-02-15T11:37:53.000Z</time>
      </trkpt>
      <trkpt lat="45.66873" lon="5.99117">
        <ele>1385.8000488281</ele>
        <time>2014-02-15T11:37:57.000Z</time>
      </trkpt>
      <trkpt lat="45.66864" lon="5.99111">
        <ele>1385.5999755859</ele>
        <time>2014-02-15T11:38:01.000Z</time>
      </trkpt>
      <trkpt lat="45.66854" lon="5.99104">
        <ele>1385.1999511719</ele>
        <time>2014-02-15T11:38:05.000Z</time>
      </trkpt>
      <trkpt lat="45.66842" lon="5.99091">
        <ele>1385.1999511719</ele>
        <time>2014-02-15T11:38:09.000Z</time>
      </trkpt>
      <trkpt lat="45.66839" lon="5.99082">
        <ele>1385.4000244141</ele>
        <time>2014-02-15T11:38:11.000Z</time>
      </trkpt>
      <trkpt lat="45.66836" lon="5.99065">
        <ele>1386</ele>
        <time>2014-02-15T11:38:16.000Z</time>
      </trkpt>
      <trkpt lat="45.6683" lon="5.99046">
        <ele>1386.5999755859</ele>
        <time>2014-02-15T11:38:20.000Z</time>
      </trkpt>
      <trkpt lat="45.66827" lon="5.99027">
        <ele>1387.4000244141</ele>
        <time>2014-02-15T11:38:24.000Z</time>
      </trkpt>
      <trkpt lat="45.66826" lon="5.99023">
        <ele>1387.4000244141</ele>
        <time>2014-02-15T11:38:25.000Z</time>
      </trkpt>
      <trkpt lat="45.66826" lon="5.99004">
        <ele>1388.4000244141</ele>
        <time>2014-02-15T11:38:29.000Z</time>
      </trkpt>
      <trkpt lat="45.6683" lon="5.98981">
        <ele>1389.8000488281</ele>
        <time>2014-02-15T11:38:34.000Z</time>
      </trkpt>
      <trkpt lat="45.66833" lon="5.98962">
        <ele>1391.1999511719</ele>
        <time>2014-02-15T11:38:39.000Z</time>
      </trkpt>
      <trkpt lat="45.66822" lon="5.98946">
        <ele>1391.1999511719</ele>
        <time>2014-02-15T11:38:45.000Z</time>
      </trkpt>
      <trkpt lat="45.66819" lon="5.98944">
        <ele>1391.1999511719</ele>
        <time>2014-02-15T11:38:46.000Z</time>
      </trkpt>
      <trkpt lat="45.66811" lon="5.98937">
        <ele>1390.8000488281</ele>
        <time>2014-02-15T11:38:49.000Z</time>
      </trkpt>
      <trkpt lat="45.66799" lon="5.98928">
        <ele>1390.1999511719</ele>
        <time>2014-02-15T11:38:53.000Z</time>
      </trkpt>
      <trkpt lat="45.66787" lon="5.98918">
        <ele>1389.5999755859</ele>
        <time>2014-02-15T11:38:57.000Z</time>
      </trkpt>
      <trkpt lat="45.66776" lon="5.98907">
        <ele>1388.8000488281</ele>
        <time>2014-02-15T11:39:01.000Z</time>
      </trkpt>
      <trkpt lat="45.66767" lon="5.98896">
        <ele>1388.4000244141</ele>
        <time>2014-02-15T11:39:05.000Z</time>
      </trkpt>
      <trkpt lat="45.66761" lon="5.98889">
        <ele>1388</ele>
        <time>2014-02-15T11:39:08.000Z</time>
      </trkpt>
      <trkpt lat="45.6675" lon="5.98871">
        <ele>1387.5999755859</ele>
        <time>2014-02-15T11:39:14.000Z</time>
      </trkpt>
      <trkpt lat="45.66746" lon="5.98864">
        <ele>1388</ele>
        <time>2014-02-15T11:39:16.000Z</time>
      </trkpt>
      <trkpt lat="45.66738" lon="5.98849">
        <ele>1388.8000488281</ele>
        <time>2014-02-15T11:39:20.000Z</time>
      </trkpt>
      <trkpt lat="45.66732" lon="5.98838">
        <ele>1389.1999511719</ele>
        <time>2014-02-15T11:39:23.000Z</time>
      </trkpt>
      <trkpt lat="45.66723" lon="5.98821">
        <ele>1389.4000244141</ele>
        <time>2014-02-15T11:39:28.000Z</time>
      </trkpt>
      <trkpt lat="45.66716" lon="5.98806">
        <ele>1389</ele>
        <time>2014-02-15T11:39:32.000Z</time>
      </trkpt>
      <trkpt lat="45.66708" lon="5.98793">
        <ele>1388.5999755859</ele>
        <time>2014-02-15T11:39:36.000Z</time>
      </trkpt>
      <trkpt lat="45.66702" lon="5.98782">
        <ele>1388</ele>
        <time>2014-02-15T11:39:39.000Z</time>
      </trkpt>
      <trkpt lat="45.66695" lon="5.98769">
        <ele>1387</ele>
        <time>2014-02-15T11:39:43.000Z</time>
      </trkpt>
      <trkpt lat="45.6669" lon="5.98753">
        <ele>1385.8000488281</ele>
        <time>2014-02-15T11:39:47.000Z</time>
      </trkpt>
      <trkpt lat="45.66687" lon="5.98738">
        <ele>1385</ele>
        <time>2014-02-15T11:39:50.000Z</time>
      </trkpt>
      <trkpt lat="45.66682" lon="5.98714">
        <ele>1383.4000244141</ele>
        <time>2014-02-15T11:39:54.000Z</time>
      </trkpt>
      <trkpt lat="45.6668" lon="5.98689">
        <ele>1382</ele>
        <time>2014-02-15T11:39:58.000Z</time>
      </trkpt>
      <trkpt lat="45.66678" lon="5.98673">
        <ele>1381</ele>
        <time>2014-02-15T11:40:02.000Z</time>
      </trkpt>
      <trkpt lat="45.66673" lon="5.98656">
        <ele>1379.8000488281</ele>
        <time>2014-02-15T11:40:06.000Z</time>
      </trkpt>
      <trkpt lat="45.6667" lon="5.98638">
        <ele>1379.1999511719</ele>
        <time>2014-02-15T11:40:10.000Z</time>
      </trkpt>
      <trkpt lat="45.66666" lon="5.98619">
        <ele>1378.4000244141</ele>
        <time>2014-02-15T11:40:15.000Z</time>
      </trkpt>
      <trkpt lat="45.66665" lon="5.9861">
        <ele>1378.4000244141</ele>
        <time>2014-02-15T11:40:17.000Z</time>
      </trkpt>
      <trkpt lat="45.6666" lon="5.98586">
        <ele>1378.1999511719</ele>
        <time>2014-02-15T11:40:22.000Z</time>
      </trkpt>
      <trkpt lat="45.66659" lon="5.98581">
        <ele>1378.1999511719</ele>
        <time>2014-02-15T11:40:23.000Z</time>
      </trkpt>
      <trkpt lat="45.66653" lon="5.98557">
        <ele>1377.4000244141</ele>
        <time>2014-02-15T11:40:28.000Z</time>
      </trkpt>
      <trkpt lat="45.66641" lon="5.9854">
        <ele>1377</ele>
        <time>2014-02-15T11:40:33.000Z</time>
      </trkpt>
      <trkpt lat="45.66634" lon="5.9853">
        <ele>1376.8000488281</ele>
        <time>2014-02-15T11:40:36.000Z</time>
      </trkpt>
      <trkpt lat="45.66625" lon="5.98518">
        <ele>1376.4000244141</ele>
        <time>2014-02-15T11:40:40.000Z</time>
      </trkpt>
      <trkpt lat="45.66619" lon="5.98509">
        <ele>1376</ele>
        <time>2014-02-15T11:40:43.000Z</time>
      </trkpt>
      <trkpt lat="45.66612" lon="5.98501">
        <ele>1375.8000488281</ele>
        <time>2014-02-15T11:40:46.000Z</time>
      </trkpt>
      <trkpt lat="45.6661" lon="5.98498">
        <ele>1375.8000488281</ele>
        <time>2014-02-15T11:40:47.000Z</time>
      </trkpt>
      <trkpt lat="45.66598" lon="5.98483">
        <ele>1376</ele>
        <time>2014-02-15T11:40:52.000Z</time>
      </trkpt>
      <trkpt lat="45.6659" lon="5.98475">
        <ele>1376</ele>
        <time>2014-02-15T11:40:55.000Z</time>
      </trkpt>
      <trkpt lat="45.66588" lon="5.98472">
        <ele>1376</ele>
        <time>2014-02-15T11:40:56.000Z</time>
      </trkpt>
      <trkpt lat="45.66575" lon="5.98464">
        <ele>1376</ele>
        <time>2014-02-15T11:41:00.000Z</time>
      </trkpt>
      <trkpt lat="45.6657" lon="5.98459">
        <ele>1376.1999511719</ele>
        <time>2014-02-15T11:41:02.000Z</time>
      </trkpt>
      <trkpt lat="45.66562" lon="5.98452">
        <ele>1376.1999511719</ele>
        <time>2014-02-15T11:41:05.000Z</time>
      </trkpt>
      <trkpt lat="45.6655" lon="5.98439">
        <ele>1376.5999755859</ele>
        <time>2014-02-15T11:41:10.000Z</time>
      </trkpt>
      <trkpt lat="45.66539" lon="5.98426">
        <ele>1377</ele>
        <time>2014-02-15T11:41:15.000Z</time>
      </trkpt>
      <trkpt lat="45.6653" lon="5.98419">
        <ele>1377.1999511719</ele>
        <time>2014-02-15T11:41:19.000Z</time>
      </trkpt>
      <trkpt lat="45.66523" lon="5.98414">
        <ele>1377.5999755859</ele>
        <time>2014-02-15T11:41:22.000Z</time>
      </trkpt>
      <trkpt lat="45.66513" lon="5.98406">
        <ele>1378.4000244141</ele>
        <time>2014-02-15T11:41:26.000Z</time>
      </trkpt>
      <trkpt lat="45.66503" lon="5.98397">
        <ele>1379.4000244141</ele>
        <time>2014-02-15T11:41:30.000Z</time>
      </trkpt>
      <trkpt lat="45.66496" lon="5.9839">
        <ele>1380.1999511719</ele>
        <time>2014-02-15T11:41:33.000Z</time>
      </trkpt>
      <trkpt lat="45.66484" lon="5.98381">
        <ele>1381.4000244141</ele>
        <time>2014-02-15T11:41:38.000Z</time>
      </trkpt>
      <trkpt lat="45.66474" lon="5.98372">
        <ele>1382.4000244141</ele>
        <time>2014-02-15T11:41:42.000Z</time>
      </trkpt>
      <trkpt lat="45.6647" lon="5.98366">
        <ele>1383</ele>
        <time>2014-02-15T11:41:44.000Z</time>
      </trkpt>
      <trkpt lat="45.66466" lon="5.98361">
        <ele>1383.5999755859</ele>
        <time>2014-02-15T11:41:46.000Z</time>
      </trkpt>
      <trkpt lat="45.66457" lon="5.98352">
        <ele>1384.8000488281</ele>
        <time>2014-02-15T11:41:51.000Z</time>
      </trkpt>
      <trkpt lat="45.66451" lon="5.98342">
        <ele>1385.8000488281</ele>
        <time>2014-02-15T11:41:55.000Z</time>
      </trkpt>
      <trkpt lat="45.66446" lon="5.98328">
        <ele>1387</ele>
        <time>2014-02-15T11:42:00.000Z</time>
      </trkpt>
      <trkpt lat="45.66445" lon="5.98315">
        <ele>1387.5999755859</ele>
        <time>2014-02-15T11:42:04.000Z</time>
      </trkpt>
      <trkpt lat="45.66444" lon="5.98312">
        <ele>1387.8000488281</ele>
        <time>2014-02-15T11:42:05.000Z</time>
      </trkpt>
      <trkpt lat="45.66445" lon="5.98293">
        <ele>1389</ele>
        <time>2014-02-15T11:42:11.000Z</time>
      </trkpt>
      <trkpt lat="45.66445" lon="5.98279">
        <ele>1389.8000488281</ele>
        <time>2014-02-15T11:42:15.000Z</time>
      </trkpt>
      <trkpt lat="45.66444" lon="5.98266">
        <ele>1390.4000244141</ele>
        <time>2014-02-15T11:42:19.000Z</time>
      </trkpt>
      <trkpt lat="45.6644" lon="5.98253">
        <ele>1391.1999511719</ele>
        <time>2014-02-15T11:42:23.000Z</time>
      </trkpt>
      <trkpt lat="45.66436" lon="5.98246">
        <ele>1391.4000244141</ele>
        <time>2014-02-15T11:42:25.000Z</time>
      </trkpt>
      <trkpt lat="45.66425" lon="5.98231">
        <ele>1391.5999755859</ele>
        <time>2014-02-15T11:42:29.000Z</time>
      </trkpt>
      <trkpt lat="45.6642" lon="5.98223">
        <ele>1391.8000488281</ele>
        <time>2014-02-15T11:42:31.000Z</time>
      </trkpt>
      <trkpt lat="45.66404" lon="5.9821">
        <ele>1392</ele>
        <time>2014-02-15T11:42:37.000Z</time>
      </trkpt>
      <trkpt lat="45.66399" lon="5.98207">
        <ele>1392</ele>
        <time>2014-02-15T11:42:39.000Z</time>
      </trkpt>
      <trkpt lat="45.66387" lon="5.98203">
        <ele>1392.1999511719</ele>
        <time>2014-02-15T11:42:44.000Z</time>
      </trkpt>
      <trkpt lat="45.66376" lon="5.98197">
        <ele>1392.1999511719</ele>
        <time>2014-02-15T11:42:49.000Z</time>
      </trkpt>
      <trkpt lat="45.66372" lon="5.98192">
        <ele>1392.4000244141</ele>
        <time>2014-02-15T11:42:51.000Z</time>
      </trkpt>
      <trkpt lat="45.66367" lon="5.98182">
        <ele>1392.5999755859</ele>
        <time>2014-02-15T11:42:55.000Z</time>
      </trkpt>
      <trkpt lat="45.66366" lon="5.9817">
        <ele>1393</ele>
        <time>2014-02-15T11:42:59.000Z</time>
      </trkpt>
      <trkpt lat="45.66366" lon="5.9815">
        <ele>1393.1999511719</ele>
        <time>2014-02-15T11:43:05.000Z</time>
      </trkpt>
      <trkpt lat="45.6637" lon="5.98138">
        <ele>1393.4000244141</ele>
        <time>2014-02-15T11:43:09.000Z</time>
      </trkpt>
      <trkpt lat="45.66374" lon="5.98122">
        <ele>1393.5999755859</ele>
        <time>2014-02-15T11:43:14.000Z</time>
      </trkpt>
      <trkpt lat="45.6638" lon="5.98106">
        <ele>1393.8000488281</ele>
        <time>2014-02-15T11:43:19.000Z</time>
      </trkpt>
      <trkpt lat="45.66381" lon="5.98101">
        <ele>1393.8000488281</ele>
        <time>2014-02-15T11:43:20.000Z</time>
      </trkpt>
      <trkpt lat="45.66381" lon="5.98093">
        <ele>1394</ele>
        <time>2014-02-15T11:43:22.000Z</time>
      </trkpt>
      <trkpt lat="45.66374" lon="5.98078">
        <ele>1394.4000244141</ele>
        <time>2014-02-15T11:43:27.000Z</time>
      </trkpt>
      <trkpt lat="45.66368" lon="5.98071">
        <ele>1394.5999755859</ele>
        <time>2014-02-15T11:43:30.000Z</time>
      </trkpt>
      <trkpt lat="45.66363" lon="5.98064">
        <ele>1395</ele>
        <time>2014-02-15T11:43:34.000Z</time>
      </trkpt>
      <trkpt lat="45.66357" lon="5.98061">
        <ele>1395</ele>
        <time>2014-02-15T11:43:36.000Z</time>
      </trkpt>
      <trkpt lat="45.66346" lon="5.98057">
        <ele>1394.8000488281</ele>
        <time>2014-02-15T11:43:41.000Z</time>
      </trkpt>
      <trkpt lat="45.66334" lon="5.98056">
        <ele>1394.4000244141</ele>
        <time>2014-02-15T11:43:45.000Z</time>
      </trkpt>
      <trkpt lat="45.66329" lon="5.98057">
        <ele>1394.4000244141</ele>
        <time>2014-02-15T11:43:46.000Z</time>
      </trkpt>
      <trkpt lat="45.6631" lon="5.98057">
        <ele>1395.1999511719</ele>
        <time>2014-02-15T11:43:51.000Z</time>
      </trkpt>
      <trkpt lat="45.66301" lon="5.98052">
        <ele>1395.8000488281</ele>
        <time>2014-02-15T11:43:55.000Z</time>
      </trkpt>
      <trkpt lat="45.66296" lon="5.98045">
        <ele>1396.1999511719</ele>
        <time>2014-02-15T11:43:58.000Z</time>
      </trkpt>
      <trkpt lat="45.66288" lon="5.98037">
        <ele>1396.8000488281</ele>
        <time>2014-02-15T11:44:02.000Z</time>
      </trkpt>
      <trkpt lat="45.66286" lon="5.98035">
        <ele>1397</ele>
        <time>2014-02-15T11:44:03.000Z</time>
      </trkpt>
      <trkpt lat="45.66278" lon="5.9803">
        <ele>1397.4000244141</ele>
        <time>2014-02-15T11:44:07.000Z</time>
      </trkpt>
      <trkpt lat="45.66274" lon="5.98024">
        <ele>1397.5999755859</ele>
        <time>2014-02-15T11:44:09.000Z</time>
      </trkpt>
      <trkpt lat="45.66261" lon="5.98022">
        <ele>1398.1999511719</ele>
        <time>2014-02-15T11:44:16.000Z</time>
      </trkpt>
      <trkpt lat="45.66253" lon="5.98026">
        <ele>1398.1999511719</ele>
        <time>2014-02-15T11:44:20.000Z</time>
      </trkpt>
      <trkpt lat="45.66251" lon="5.98028">
        <ele>1398.4000244141</ele>
        <time>2014-02-15T11:44:22.000Z</time>
      </trkpt>
      <trkpt lat="45.66244" lon="5.98035">
        <ele>1398.4000244141</ele>
        <time>2014-02-15T11:44:27.000Z</time>
      </trkpt>
      <trkpt lat="45.66236" lon="5.98042">
        <ele>1398.4000244141</ele>
        <time>2014-02-15T11:44:31.000Z</time>
      </trkpt>
      <trkpt lat="45.66226" lon="5.98051">
        <ele>1398.5999755859</ele>
        <time>2014-02-15T11:44:34.000Z</time>
      </trkpt>
      <trkpt lat="45.66206" lon="5.98053">
        <ele>1399.1999511719</ele>
        <time>2014-02-15T11:44:39.000Z</time>
      </trkpt>
      <trkpt lat="45.66196" lon="5.98045">
        <ele>1399.5999755859</ele>
        <time>2014-02-15T11:44:43.000Z</time>
      </trkpt>
      <trkpt lat="45.66191" lon="5.9804">
        <ele>1399.8000488281</ele>
        <time>2014-02-15T11:44:46.000Z</time>
      </trkpt>
      <trkpt lat="45.66184" lon="5.98035">
        <ele>1400</ele>
        <time>2014-02-15T11:44:50.000Z</time>
      </trkpt>
      <trkpt lat="45.66177" lon="5.98028">
        <ele>1400.4000244141</ele>
        <time>2014-02-15T11:44:54.000Z</time>
      </trkpt>
      <trkpt lat="45.66166" lon="5.9802">
        <ele>1400.8000488281</ele>
        <time>2014-02-15T11:44:59.000Z</time>
      </trkpt>
      <trkpt lat="45.66157" lon="5.98015">
        <ele>1401</ele>
        <time>2014-02-15T11:45:03.000Z</time>
      </trkpt>
      <trkpt lat="45.66149" lon="5.98007">
        <ele>1401.1999511719</ele>
        <time>2014-02-15T11:45:07.000Z</time>
      </trkpt>
      <trkpt lat="45.66144" lon="5.98003">
        <ele>1401.1999511719</ele>
        <time>2014-02-15T11:45:09.000Z</time>
      </trkpt>
      <trkpt lat="45.66138" lon="5.97993">
        <ele>1401.5999755859</ele>
        <time>2014-02-15T11:45:13.000Z</time>
      </trkpt>
      <trkpt lat="45.66132" lon="5.97978">
        <ele>1402</ele>
        <time>2014-02-15T11:45:19.000Z</time>
      </trkpt>
      <trkpt lat="45.66128" lon="5.97961">
        <ele>1402.5999755859</ele>
        <time>2014-02-15T11:45:22.000Z</time>
      </trkpt>
      <trkpt lat="45.66124" lon="5.97948">
        <ele>1403</ele>
        <time>2014-02-15T11:45:25.000Z</time>
      </trkpt>
      <trkpt lat="45.66118" lon="5.97935">
        <ele>1403.5999755859</ele>
        <time>2014-02-15T11:45:29.000Z</time>
      </trkpt>
      <trkpt lat="45.6611" lon="5.97927">
        <ele>1404</ele>
        <time>2014-02-15T11:45:33.000Z</time>
      </trkpt>
      <trkpt lat="45.66101" lon="5.97925">
        <ele>1404.1999511719</ele>
        <time>2014-02-15T11:45:37.000Z</time>
      </trkpt>
      <trkpt lat="45.66089" lon="5.97923">
        <ele>1404.5999755859</ele>
        <time>2014-02-15T11:45:42.000Z</time>
      </trkpt>
      <trkpt lat="45.66076" lon="5.97925">
        <ele>1404.8000488281</ele>
        <time>2014-02-15T11:45:45.000Z</time>
      </trkpt>
      <trkpt lat="45.66063" lon="5.97924">
        <ele>1405.1999511719</ele>
        <time>2014-02-15T11:45:48.000Z</time>
      </trkpt>
      <trkpt lat="45.66047" lon="5.9792">
        <ele>1405.8000488281</ele>
        <time>2014-02-15T11:45:53.000Z</time>
      </trkpt>
      <trkpt lat="45.66032" lon="5.97923">
        <ele>1406</ele>
        <time>2014-02-15T11:45:57.000Z</time>
      </trkpt>
      <trkpt lat="45.6602" lon="5.97933">
        <ele>1405.5999755859</ele>
        <time>2014-02-15T11:46:01.000Z</time>
      </trkpt>
      <trkpt lat="45.66015" lon="5.97937">
        <ele>1405.5999755859</ele>
        <time>2014-02-15T11:46:03.000Z</time>
      </trkpt>
      <trkpt lat="45.66001" lon="5.9795">
        <ele>1405</ele>
        <time>2014-02-15T11:46:08.000Z</time>
      </trkpt>
      <trkpt lat="45.65991" lon="5.97967">
        <ele>1403.8000488281</ele>
        <time>2014-02-15T11:46:14.000Z</time>
      </trkpt>
      <trkpt lat="45.65984" lon="5.97989">
        <ele>1402.1999511719</ele>
        <time>2014-02-15T11:46:20.000Z</time>
      </trkpt>
      <trkpt lat="45.65974" lon="5.98016">
        <ele>1400.1999511719</ele>
        <time>2014-02-15T11:46:24.000Z</time>
      </trkpt>
      <trkpt lat="45.65964" lon="5.98039">
        <ele>1398.4000244141</ele>
        <time>2014-02-15T11:46:28.000Z</time>
      </trkpt>
      <trkpt lat="45.65949" lon="5.98069">
        <ele>1395.8000488281</ele>
        <time>2014-02-15T11:46:33.000Z</time>
      </trkpt>
      <trkpt lat="45.65922" lon="5.98079">
        <ele>1393.5999755859</ele>
        <time>2014-02-15T11:46:38.000Z</time>
      </trkpt>
      <trkpt lat="45.65916" lon="5.98076">
        <ele>1393.5999755859</ele>
        <time>2014-02-15T11:46:39.000Z</time>
      </trkpt>
      <trkpt lat="45.65896" lon="5.98058">
        <ele>1394.5999755859</ele>
        <time>2014-02-15T11:46:44.000Z</time>
      </trkpt>
      <trkpt lat="45.65887" lon="5.98046">
        <ele>1395.4000244141</ele>
        <time>2014-02-15T11:46:49.000Z</time>
      </trkpt>
      <trkpt lat="45.65881" lon="5.98043">
        <ele>1395.4000244141</ele>
        <time>2014-02-15T11:46:52.000Z</time>
      </trkpt>
      <trkpt lat="45.65867" lon="5.98039">
        <ele>1395.5999755859</ele>
        <time>2014-02-15T11:46:57.000Z</time>
      </trkpt>
      <trkpt lat="45.65864" lon="5.98038">
        <ele>1395.5999755859</ele>
        <time>2014-02-15T11:46:58.000Z</time>
      </trkpt>
      <trkpt lat="45.6585" lon="5.98034">
        <ele>1395.8000488281</ele>
        <time>2014-02-15T11:47:03.000Z</time>
      </trkpt>
      <trkpt lat="45.65845" lon="5.98033">
        <ele>1395.8000488281</ele>
        <time>2014-02-15T11:47:05.000Z</time>
      </trkpt>
      <trkpt lat="45.65837" lon="5.98031">
        <ele>1395.8000488281</ele>
        <time>2014-02-15T11:47:08.000Z</time>
      </trkpt>
      <trkpt lat="45.65816" lon="5.9803">
        <ele>1395.5999755859</ele>
        <time>2014-02-15T11:47:14.000Z</time>
      </trkpt>
      <trkpt lat="45.65802" lon="5.98036">
        <ele>1395</ele>
        <time>2014-02-15T11:47:18.000Z</time>
      </trkpt>
      <trkpt lat="45.65786" lon="5.98062">
        <ele>1393</ele>
        <time>2014-02-15T11:47:23.000Z</time>
      </trkpt>
      <trkpt lat="45.65765" lon="5.98081">
        <ele>1391.4000244141</ele>
        <time>2014-02-15T11:47:28.000Z</time>
      </trkpt>
      <trkpt lat="45.6575" lon="5.9809">
        <ele>1390.4000244141</ele>
        <time>2014-02-15T11:47:32.000Z</time>
      </trkpt>
      <trkpt lat="45.65743" lon="5.98093">
        <ele>1390.4000244141</ele>
        <time>2014-02-15T11:47:35.000Z</time>
      </trkpt>
      <trkpt lat="45.65735" lon="5.98097">
        <ele>1390.5999755859</ele>
        <time>2014-02-15T11:47:38.000Z</time>
      </trkpt>
      <trkpt lat="45.65715" lon="5.98117">
        <ele>1389.5999755859</ele>
        <time>2014-02-15T11:47:44.000Z</time>
      </trkpt>
      <trkpt lat="45.65705" lon="5.98129">
        <ele>1388.8000488281</ele>
        <time>2014-02-15T11:47:47.000Z</time>
      </trkpt>
      <trkpt lat="45.65681" lon="5.9815">
        <ele>1387.4000244141</ele>
        <time>2014-02-15T11:47:53.000Z</time>
      </trkpt>
      <trkpt lat="45.65666" lon="5.98156">
        <ele>1387.1999511719</ele>
        <time>2014-02-15T11:47:56.000Z</time>
      </trkpt>
      <trkpt lat="45.65648" lon="5.98157">
        <ele>1387</ele>
        <time>2014-02-15T11:48:01.000Z</time>
      </trkpt>
      <trkpt lat="45.65634" lon="5.98158">
        <ele>1386.8000488281</ele>
        <time>2014-02-15T11:48:05.000Z</time>
      </trkpt>
      <trkpt lat="45.65627" lon="5.98159">
        <ele>1386.8000488281</ele>
        <time>2014-02-15T11:48:07.000Z</time>
      </trkpt>
      <trkpt lat="45.65612" lon="5.98155">
        <ele>1387.1999511719</ele>
        <time>2014-02-15T11:48:12.000Z</time>
      </trkpt>
      <trkpt lat="45.65598" lon="5.98154">
        <ele>1387.1999511719</ele>
        <time>2014-02-15T11:48:16.000Z</time>
      </trkpt>
      <trkpt lat="45.65585" lon="5.98154">
        <ele>1387.1999511719</ele>
        <time>2014-02-15T11:48:20.000Z</time>
      </trkpt>
      <trkpt lat="45.65575" lon="5.98168">
        <ele>1385.8000488281</ele>
        <time>2014-02-15T11:48:25.000Z</time>
      </trkpt>
      <trkpt lat="45.65575" lon="5.98176">
        <ele>1385.4000244141</ele>
        <time>2014-02-15T11:48:27.000Z</time>
      </trkpt>
      <trkpt lat="45.65579" lon="5.98206">
        <ele>1383.5999755859</ele>
        <time>2014-02-15T11:48:34.000Z</time>
      </trkpt>
      <trkpt lat="45.65584" lon="5.98235">
        <ele>1381.8000488281</ele>
        <time>2014-02-15T11:48:39.000Z</time>
      </trkpt>
      <trkpt lat="45.65589" lon="5.98261">
        <ele>1380.8000488281</ele>
        <time>2014-02-15T11:48:43.000Z</time>
      </trkpt>
      <trkpt lat="45.65589" lon="5.98273">
        <ele>1380.4000244141</ele>
        <time>2014-02-15T11:48:45.000Z</time>
      </trkpt>
      <trkpt lat="45.65583" lon="5.98301">
        <ele>1379.1999511719</ele>
        <time>2014-02-15T11:48:50.000Z</time>
      </trkpt>
      <trkpt lat="45.65579" lon="5.98316">
        <ele>1378.8000488281</ele>
        <time>2014-02-15T11:48:52.000Z</time>
      </trkpt>
      <trkpt lat="45.65569" lon="5.98338">
        <ele>1378.5999755859</ele>
        <time>2014-02-15T11:48:55.000Z</time>
      </trkpt>
      <trkpt lat="45.65554" lon="5.98372">
        <ele>1380.1999511719</ele>
        <time>2014-02-15T11:49:00.000Z</time>
      </trkpt>
      <trkpt lat="45.65543" lon="5.9839">
        <ele>1381.1999511719</ele>
        <time>2014-02-15T11:49:06.000Z</time>
      </trkpt>
      <trkpt lat="45.65536" lon="5.98391">
        <ele>1381.4000244141</ele>
        <time>2014-02-15T11:49:10.000Z</time>
      </trkpt>
      <trkpt lat="45.65528" lon="5.9839">
        <ele>1381.5999755859</ele>
        <time>2014-02-15T11:49:15.000Z</time>
      </trkpt>
      <trkpt lat="45.65518" lon="5.98387">
        <ele>1381.8000488281</ele>
        <time>2014-02-15T11:49:20.000Z</time>
      </trkpt>
      <trkpt lat="45.65506" lon="5.98376">
        <ele>1381.8000488281</ele>
        <time>2014-02-15T11:49:26.000Z</time>
      </trkpt>
      <trkpt lat="45.65496" lon="5.98362">
        <ele>1381.8000488281</ele>
        <time>2014-02-15T11:49:30.000Z</time>
      </trkpt>
      <trkpt lat="45.65483" lon="5.98343">
        <ele>1381.8000488281</ele>
        <time>2014-02-15T11:49:35.000Z</time>
      </trkpt>
      <trkpt lat="45.65472" lon="5.9834">
        <ele>1382</ele>
        <time>2014-02-15T11:49:39.000Z</time>
      </trkpt>
      <trkpt lat="45.65464" lon="5.98329">
        <ele>1382.4000244141</ele>
        <time>2014-02-15T11:49:43.000Z</time>
      </trkpt>
      <trkpt lat="45.65463" lon="5.9832">
        <ele>1382.8000488281</ele>
        <time>2014-02-15T11:49:46.000Z</time>
      </trkpt>
      <trkpt lat="45.65461" lon="5.98309">
        <ele>1383.1999511719</ele>
        <time>2014-02-15T11:49:52.000Z</time>
      </trkpt>
      <trkpt lat="45.65457" lon="5.98303">
        <ele>1383.4000244141</ele>
        <time>2014-02-15T11:49:56.000Z</time>
      </trkpt>
      <trkpt lat="45.6545" lon="5.98296">
        <ele>1383.8000488281</ele>
        <time>2014-02-15T11:50:02.000Z</time>
      </trkpt>
      <trkpt lat="45.65449" lon="5.98295">
        <ele>1383.8000488281</ele>
        <time>2014-02-15T11:50:03.000Z</time>
      </trkpt>
      <trkpt lat="45.65352" lon="5.98203">
        <ele>1385</ele>
        <time>2014-02-15T11:51:42.000Z</time>
      </trkpt>
      <trkpt lat="45.6535" lon="5.98199">
        <ele>1385</ele>
        <time>2014-02-15T11:51:43.000Z</time>
      </trkpt>
      <trkpt lat="45.65348" lon="5.98196">
        <ele>1385.1999511719</ele>
        <time>2014-02-15T11:51:44.000Z</time>
      </trkpt>
      <trkpt lat="45.65332" lon="5.98192">
        <ele>1384.8000488281</ele>
        <time>2014-02-15T11:51:49.000Z</time>
      </trkpt>
      <trkpt lat="45.65318" lon="5.98199">
        <ele>1383.5999755859</ele>
        <time>2014-02-15T11:51:53.000Z</time>
      </trkpt>
      <trkpt lat="45.65294" lon="5.98208">
        <ele>1382</ele>
        <time>2014-02-15T11:51:58.000Z</time>
      </trkpt>
      <trkpt lat="45.6528" lon="5.98215">
        <ele>1380.8000488281</ele>
        <time>2014-02-15T11:52:01.000Z</time>
      </trkpt>
      <trkpt lat="45.65253" lon="5.98226">
        <ele>1379</ele>
        <time>2014-02-15T11:52:06.000Z</time>
      </trkpt>
      <trkpt lat="45.65248" lon="5.9823">
        <ele>1378.8000488281</ele>
        <time>2014-02-15T11:52:07.000Z</time>
      </trkpt>
      <trkpt lat="45.65238" lon="5.98236">
        <ele>1378.8000488281</ele>
        <time>2014-02-15T11:52:09.000Z</time>
      </trkpt>
      <trkpt lat="45.65225" lon="5.98261">
        <ele>1378.4000244141</ele>
        <time>2014-02-15T11:52:14.000Z</time>
      </trkpt>
      <trkpt lat="45.65233" lon="5.98286">
        <ele>1377.1999511719</ele>
        <time>2014-02-15T11:52:18.000Z</time>
      </trkpt>
      <trkpt lat="45.65239" lon="5.98299">
        <ele>1376.4000244141</ele>
        <time>2014-02-15T11:52:20.000Z</time>
      </trkpt>
      <trkpt lat="45.65246" lon="5.98339">
        <ele>1374.5999755859</ele>
        <time>2014-02-15T11:52:25.000Z</time>
      </trkpt>
      <trkpt lat="45.65249" lon="5.98382">
        <ele>1370.4000244141</ele>
        <time>2014-02-15T11:52:30.000Z</time>
      </trkpt>
      <trkpt lat="45.65259" lon="5.98406">
        <ele>1369</ele>
        <time>2014-02-15T11:52:33.000Z</time>
      </trkpt>
      <trkpt lat="45.65266" lon="5.98419">
        <ele>1368.5999755859</ele>
        <time>2014-02-15T11:52:35.000Z</time>
      </trkpt>
      <trkpt lat="45.65266" lon="5.98457">
        <ele>1365.8000488281</ele>
        <time>2014-02-15T11:52:40.000Z</time>
      </trkpt>
      <trkpt lat="45.65264" lon="5.98465">
        <ele>1365</ele>
        <time>2014-02-15T11:52:41.000Z</time>
      </trkpt>
      <trkpt lat="45.65244" lon="5.98505">
        <ele>1360.1999511719</ele>
        <time>2014-02-15T11:52:46.000Z</time>
      </trkpt>
      <trkpt lat="45.65217" lon="5.98543">
        <ele>1355</ele>
        <time>2014-02-15T11:52:51.000Z</time>
      </trkpt>
      <trkpt lat="45.65193" lon="5.98562">
        <ele>1351.1999511719</ele>
        <time>2014-02-15T11:52:56.000Z</time>
      </trkpt>
      <trkpt lat="45.65175" lon="5.98567">
        <ele>1349.4000244141</ele>
        <time>2014-02-15T11:53:00.000Z</time>
      </trkpt>
      <trkpt lat="45.65167" lon="5.98569">
        <ele>1348.4000244141</ele>
        <time>2014-02-15T11:53:02.000Z</time>
      </trkpt>
      <trkpt lat="45.65135" lon="5.98582">
        <ele>1344</ele>
        <time>2014-02-15T11:53:08.000Z</time>
      </trkpt>
      <trkpt lat="45.65129" lon="5.98585">
        <ele>1343.1999511719</ele>
        <time>2014-02-15T11:53:09.000Z</time>
      </trkpt>
      <trkpt lat="45.65114" lon="5.9859">
        <ele>1341.1999511719</ele>
        <time>2014-02-15T11:53:13.000Z</time>
      </trkpt>
      <trkpt lat="45.65094" lon="5.98586">
        <ele>1339.8000488281</ele>
        <time>2014-02-15T11:53:19.000Z</time>
      </trkpt>
      <trkpt lat="45.65082" lon="5.98578">
        <ele>1339.4000244141</ele>
        <time>2014-02-15T11:53:22.000Z</time>
      </trkpt>
      <trkpt lat="45.65069" lon="5.98574">
        <ele>1338.8000488281</ele>
        <time>2014-02-15T11:53:26.000Z</time>
      </trkpt>
      <trkpt lat="45.65066" lon="5.98573">
        <ele>1338.5999755859</ele>
        <time>2014-02-15T11:53:27.000Z</time>
      </trkpt>
      <trkpt lat="45.6505" lon="5.98569">
        <ele>1337.8000488281</ele>
        <time>2014-02-15T11:53:32.000Z</time>
      </trkpt>
      <trkpt lat="45.65044" lon="5.98564">
        <ele>1337.5999755859</ele>
        <time>2014-02-15T11:53:36.000Z</time>
      </trkpt>
      <trkpt lat="45.65048" lon="5.98563">
        <ele>1338</ele>
        <time>2014-02-15T11:53:40.000Z</time>
      </trkpt>
      <trkpt lat="45.6505" lon="5.9856">
        <ele>1338.4000244141</ele>
        <time>2014-02-15T11:53:43.000Z</time>
      </trkpt>
      <trkpt lat="45.65049" lon="5.98554">
        <ele>1338.5999755859</ele>
        <time>2014-02-15T11:53:47.000Z</time>
      </trkpt>
      <trkpt lat="45.65042" lon="5.98546">
        <ele>1338.5999755859</ele>
        <time>2014-02-15T11:53:51.000Z</time>
      </trkpt>
      <trkpt lat="45.65038" lon="5.98543">
        <ele>1338.4000244141</ele>
        <time>2014-02-15T11:53:53.000Z</time>
      </trkpt>
      <trkpt lat="45.65031" lon="5.98538">
        <ele>1338</ele>
        <time>2014-02-15T11:53:57.000Z</time>
      </trkpt>
      <trkpt lat="45.6502" lon="5.98524">
        <ele>1337.8000488281</ele>
        <time>2014-02-15T11:54:03.000Z</time>
      </trkpt>
      <trkpt lat="45.6501" lon="5.98513">
        <ele>1337.4000244141</ele>
        <time>2014-02-15T11:54:08.000Z</time>
      </trkpt>
      <trkpt lat="45.65003" lon="5.98505">
        <ele>1337</ele>
        <time>2014-02-15T11:54:12.000Z</time>
      </trkpt>
      <trkpt lat="45.64995" lon="5.98492">
        <ele>1337.1999511719</ele>
        <time>2014-02-15T11:54:17.000Z</time>
      </trkpt>
      <trkpt lat="45.64989" lon="5.98486">
        <ele>1337.4000244141</ele>
        <time>2014-02-15T11:54:20.000Z</time>
      </trkpt>
      <trkpt lat="45.64977" lon="5.98471">
        <ele>1337.8000488281</ele>
        <time>2014-02-15T11:54:26.000Z</time>
      </trkpt>
      <trkpt lat="45.64967" lon="5.98458">
        <ele>1338.1999511719</ele>
        <time>2014-02-15T11:54:31.000Z</time>
      </trkpt>
      <trkpt lat="45.64966" lon="5.98456">
        <ele>1338.1999511719</ele>
        <time>2014-02-15T11:54:32.000Z</time>
      </trkpt>
      <trkpt lat="45.64955" lon="5.98439">
        <ele>1338.5999755859</ele>
        <time>2014-02-15T11:54:38.000Z</time>
      </trkpt>
      <trkpt lat="45.64954" lon="5.98437">
        <ele>1338.8000488281</ele>
        <time>2014-02-15T11:54:39.000Z</time>
      </trkpt>
      <trkpt lat="45.64945" lon="5.98426">
        <ele>1339</ele>
        <time>2014-02-15T11:54:43.000Z</time>
      </trkpt>
      <trkpt lat="45.64943" lon="5.98424">
        <ele>1339</ele>
        <time>2014-02-15T11:54:44.000Z</time>
      </trkpt>
      <trkpt lat="45.64939" lon="5.98417">
        <ele>1339.1999511719</ele>
        <time>2014-02-15T11:54:46.000Z</time>
      </trkpt>
      <trkpt lat="45.64935" lon="5.98405">
        <ele>1339.5999755859</ele>
        <time>2014-02-15T11:54:49.000Z</time>
      </trkpt>
      <trkpt lat="45.64927" lon="5.9839">
        <ele>1339.8000488281</ele>
        <time>2014-02-15T11:54:54.000Z</time>
      </trkpt>
      <trkpt lat="45.64922" lon="5.98379">
        <ele>1339.8000488281</ele>
        <time>2014-02-15T11:54:58.000Z</time>
      </trkpt>
      <trkpt lat="45.64918" lon="5.9837">
        <ele>1339.5999755859</ele>
        <time>2014-02-15T11:55:01.000Z</time>
      </trkpt>
      <trkpt lat="45.64912" lon="5.98352">
        <ele>1339.5999755859</ele>
        <time>2014-02-15T11:55:08.000Z</time>
      </trkpt>
      <trkpt lat="45.64911" lon="5.98349">
        <ele>1339.5999755859</ele>
        <time>2014-02-15T11:55:09.000Z</time>
      </trkpt>
      <trkpt lat="45.64904" lon="5.98331">
        <ele>1339.5999755859</ele>
        <time>2014-02-15T11:55:16.000Z</time>
      </trkpt>
      <trkpt lat="45.64903" lon="5.98329">
        <ele>1339.8000488281</ele>
        <time>2014-02-15T11:55:17.000Z</time>
      </trkpt>
      <trkpt lat="45.64899" lon="5.98324">
        <ele>1340.1999511719</ele>
        <time>2014-02-15T11:55:23.000Z</time>
      </trkpt>
      <trkpt lat="45.64899" lon="5.98321">
        <ele>1340.5999755859</ele>
        <time>2014-02-15T11:55:35.000Z</time>
      </trkpt>
      <trkpt lat="45.64895" lon="5.98303">
        <ele>1342.1999511719</ele>
        <time>2014-02-15T11:55:42.000Z</time>
      </trkpt>
      <trkpt lat="45.64894" lon="5.983">
        <ele>1342.1999511719</ele>
        <time>2014-02-15T11:55:43.000Z</time>
      </trkpt>
      <trkpt lat="45.64889" lon="5.98287">
        <ele>1343.1999511719</ele>
        <time>2014-02-15T11:55:48.000Z</time>
      </trkpt>
      <trkpt lat="45.64884" lon="5.98273">
        <ele>1343.8000488281</ele>
        <time>2014-02-15T11:55:54.000Z</time>
      </trkpt>
      <trkpt lat="45.64878" lon="5.9826">
        <ele>1344.1999511719</ele>
        <time>2014-02-15T11:56:00.000Z</time>
      </trkpt>
      <trkpt lat="45.64874" lon="5.98252">
        <ele>1344.1999511719</ele>
        <time>2014-02-15T11:56:04.000Z</time>
      </trkpt>
      <trkpt lat="45.6487" lon="5.98249">
        <ele>1343.8000488281</ele>
        <time>2014-02-15T11:56:08.000Z</time>
      </trkpt>
      <trkpt lat="45.6488" lon="5.98266">
        <ele>1344</ele>
        <time>2014-02-15T11:57:05.000Z</time>
      </trkpt>
      <trkpt lat="45.64889" lon="5.98287">
        <ele>1343.1999511719</ele>
        <time>2014-02-15T11:57:10.000Z</time>
      </trkpt>
      <trkpt lat="45.64891" lon="5.98296">
        <ele>1342.4000244141</ele>
        <time>2014-02-15T11:57:12.000Z</time>
      </trkpt>
      <trkpt lat="45.64894" lon="5.98311">
        <ele>1341.1999511719</ele>
        <time>2014-02-15T11:57:15.000Z</time>
      </trkpt>
      <trkpt lat="45.6489" lon="5.98341">
        <ele>1338.8000488281</ele>
        <time>2014-02-15T11:57:21.000Z</time>
      </trkpt>
      <trkpt lat="45.64884" lon="5.98358">
        <ele>1338.4000244141</ele>
        <time>2014-02-15T11:57:25.000Z</time>
      </trkpt>
      <trkpt lat="45.64875" lon="5.98377">
        <ele>1338.1999511719</ele>
        <time>2014-02-15T11:57:29.000Z</time>
      </trkpt>
      <trkpt lat="45.64865" lon="5.98393">
        <ele>1338.1999511719</ele>
        <time>2014-02-15T11:57:33.000Z</time>
      </trkpt>
      <trkpt lat="45.64856" lon="5.98409">
        <ele>1338.1999511719</ele>
        <time>2014-02-15T11:57:38.000Z</time>
      </trkpt>
      <trkpt lat="45.64851" lon="5.98419">
        <ele>1338</ele>
        <time>2014-02-15T11:57:42.000Z</time>
      </trkpt>
      <trkpt lat="45.64845" lon="5.98438">
        <ele>1337.1999511719</ele>
        <time>2014-02-15T11:57:48.000Z</time>
      </trkpt>
      <trkpt lat="45.64841" lon="5.98449">
        <ele>1336.5999755859</ele>
        <time>2014-02-15T11:57:52.000Z</time>
      </trkpt>
      <trkpt lat="45.64837" lon="5.98455">
        <ele>1336.1999511719</ele>
        <time>2014-02-15T11:57:58.000Z</time>
      </trkpt>
      <trkpt lat="45.64836" lon="5.98458">
        <ele>1336</ele>
        <time>2014-02-15T11:58:00.000Z</time>
      </trkpt>
      <trkpt lat="45.64835" lon="5.98463">
        <ele>1335.8000488281</ele>
        <time>2014-02-15T11:58:08.000Z</time>
      </trkpt>
      <trkpt lat="45.64832" lon="5.9847">
        <ele>1335.4000244141</ele>
        <time>2014-02-15T11:58:11.000Z</time>
      </trkpt>
      <trkpt lat="45.64823" lon="5.98491">
        <ele>1333.4000244141</ele>
        <time>2014-02-15T11:58:16.000Z</time>
      </trkpt>
      <trkpt lat="45.64817" lon="5.98508">
        <ele>1331.4000244141</ele>
        <time>2014-02-15T11:58:21.000Z</time>
      </trkpt>
      <trkpt lat="45.64808" lon="5.98523">
        <ele>1329</ele>
        <time>2014-02-15T11:58:27.000Z</time>
      </trkpt>
      <trkpt lat="45.64791" lon="5.98532">
        <ele>1327</ele>
        <time>2014-02-15T11:58:32.000Z</time>
      </trkpt>
      <trkpt lat="45.64774" lon="5.9853">
        <ele>1325.8000488281</ele>
        <time>2014-02-15T11:58:35.000Z</time>
      </trkpt>
      <trkpt lat="45.64765" lon="5.98526">
        <ele>1325.4000244141</ele>
        <time>2014-02-15T11:58:37.000Z</time>
      </trkpt>
      <trkpt lat="45.64752" lon="5.98515">
        <ele>1324.5999755859</ele>
        <time>2014-02-15T11:58:41.000Z</time>
      </trkpt>
      <trkpt lat="45.64738" lon="5.98499">
        <ele>1324.4000244141</ele>
        <time>2014-02-15T11:58:49.000Z</time>
      </trkpt>
      <trkpt lat="45.64725" lon="5.98495">
        <ele>1323.8000488281</ele>
        <time>2014-02-15T11:58:53.000Z</time>
      </trkpt>
      <trkpt lat="45.64716" lon="5.98491">
        <ele>1323.5999755859</ele>
        <time>2014-02-15T11:58:57.000Z</time>
      </trkpt>
      <trkpt lat="45.64711" lon="5.9849">
        <ele>1323.4000244141</ele>
        <time>2014-02-15T11:59:00.000Z</time>
      </trkpt>
      <trkpt lat="45.64706" lon="5.98489">
        <ele>1323</ele>
        <time>2014-02-15T11:59:03.000Z</time>
      </trkpt>
      <trkpt lat="45.64699" lon="5.98496">
        <ele>1322.1999511719</ele>
        <time>2014-02-15T11:59:07.000Z</time>
      </trkpt>
      <trkpt lat="45.64685" lon="5.9851">
        <ele>1320.8000488281</ele>
        <time>2014-02-15T11:59:13.000Z</time>
      </trkpt>
      <trkpt lat="45.64669" lon="5.98519">
        <ele>1319.4000244141</ele>
        <time>2014-02-15T11:59:18.000Z</time>
      </trkpt>
      <trkpt lat="45.64663" lon="5.98525">
        <ele>1318.8000488281</ele>
        <time>2014-02-15T11:59:20.000Z</time>
      </trkpt>
      <trkpt lat="45.6465" lon="5.98536">
        <ele>1317.4000244141</ele>
        <time>2014-02-15T11:59:24.000Z</time>
      </trkpt>
      <trkpt lat="45.64639" lon="5.9855">
        <ele>1316.1999511719</ele>
        <time>2014-02-15T11:59:27.000Z</time>
      </trkpt>
      <trkpt lat="45.64624" lon="5.98566">
        <ele>1314.8000488281</ele>
        <time>2014-02-15T11:59:31.000Z</time>
      </trkpt>
      <trkpt lat="45.64602" lon="5.98582">
        <ele>1313.1999511719</ele>
        <time>2014-02-15T11:59:36.000Z</time>
      </trkpt>
      <trkpt lat="45.64587" lon="5.98588">
        <ele>1312.5999755859</ele>
        <time>2014-02-15T11:59:39.000Z</time>
      </trkpt>
      <trkpt lat="45.64578" lon="5.98591">
        <ele>1312.1999511719</ele>
        <time>2014-02-15T11:59:41.000Z</time>
      </trkpt>
      <trkpt lat="45.64555" lon="5.98594">
        <ele>1311.1999511719</ele>
        <time>2014-02-15T11:59:46.000Z</time>
      </trkpt>
      <trkpt lat="45.64542" lon="5.98593">
        <ele>1310.4000244141</ele>
        <time>2014-02-15T11:59:49.000Z</time>
      </trkpt>
      <trkpt lat="45.6453" lon="5.98591">
        <ele>1309.8000488281</ele>
        <time>2014-02-15T11:59:52.000Z</time>
      </trkpt>
      <trkpt lat="45.64517" lon="5.98588">
        <ele>1309</ele>
        <time>2014-02-15T11:59:55.000Z</time>
      </trkpt>
      <trkpt lat="45.64513" lon="5.98587">
        <ele>1308.8000488281</ele>
        <time>2014-02-15T11:59:56.000Z</time>
      </trkpt>
      <trkpt lat="45.64487" lon="5.98586">
        <ele>1308.4000244141</ele>
        <time>2014-02-15T12:00:03.000Z</time>
      </trkpt>
      <trkpt lat="45.64471" lon="5.98592">
        <ele>1308.8000488281</ele>
        <time>2014-02-15T12:00:07.000Z</time>
      </trkpt>
      <trkpt lat="45.64468" lon="5.98594">
        <ele>1309</ele>
        <time>2014-02-15T12:00:08.000Z</time>
      </trkpt>
      <trkpt lat="45.64456" lon="5.98601">
        <ele>1309.1999511719</ele>
        <time>2014-02-15T12:00:11.000Z</time>
      </trkpt>
      <trkpt lat="45.64442" lon="5.98607">
        <ele>1309.1999511719</ele>
        <time>2014-02-15T12:00:14.000Z</time>
      </trkpt>
      <trkpt lat="45.64434" lon="5.98611">
        <ele>1309.1999511719</ele>
        <time>2014-02-15T12:00:16.000Z</time>
      </trkpt>
      <trkpt lat="45.64416" lon="5.98624">
        <ele>1309</ele>
        <time>2014-02-15T12:00:21.000Z</time>
      </trkpt>
      <trkpt lat="45.64401" lon="5.98635">
        <ele>1308.4000244141</ele>
        <time>2014-02-15T12:00:26.000Z</time>
      </trkpt>
      <trkpt lat="45.64389" lon="5.98641">
        <ele>1307.5999755859</ele>
        <time>2014-02-15T12:00:30.000Z</time>
      </trkpt>
      <trkpt lat="45.64379" lon="5.98646">
        <ele>1307.1999511719</ele>
        <time>2014-02-15T12:00:33.000Z</time>
      </trkpt>
      <trkpt lat="45.6437" lon="5.98653">
        <ele>1306.4000244141</ele>
        <time>2014-02-15T12:00:36.000Z</time>
      </trkpt>
      <trkpt lat="45.6436" lon="5.98659">
        <ele>1305.8000488281</ele>
        <time>2014-02-15T12:00:39.000Z</time>
      </trkpt>
      <trkpt lat="45.64348" lon="5.98664">
        <ele>1304.8000488281</ele>
        <time>2014-02-15T12:00:43.000Z</time>
      </trkpt>
      <trkpt lat="45.6434" lon="5.98668">
        <ele>1304.4000244141</ele>
        <time>2014-02-15T12:00:46.000Z</time>
      </trkpt>
      <trkpt lat="45.64337" lon="5.98669">
        <ele>1304.1999511719</ele>
        <time>2014-02-15T12:00:47.000Z</time>
      </trkpt>
      <trkpt lat="45.64321" lon="5.98679">
        <ele>1303.5999755859</ele>
        <time>2014-02-15T12:00:52.000Z</time>
      </trkpt>
      <trkpt lat="45.64308" lon="5.9868">
        <ele>1303.4000244141</ele>
        <time>2014-02-15T12:00:56.000Z</time>
      </trkpt>
      <trkpt lat="45.64298" lon="5.98674">
        <ele>1303.1999511719</ele>
        <time>2014-02-15T12:01:00.000Z</time>
      </trkpt>
      <trkpt lat="45.64297" lon="5.98673">
        <ele>1303.1999511719</ele>
        <time>2014-02-15T12:01:01.000Z</time>
      </trkpt>
      <trkpt lat="45.64294" lon="5.98666">
        <ele>1303</ele>
        <time>2014-02-15T12:01:07.000Z</time>
      </trkpt>
      <trkpt lat="45.64294" lon="5.98666">
        <ele>1303</ele>
        <time>2014-02-15T12:01:15.000Z</time>
      </trkpt>
      <trkpt lat="45.64293" lon="5.98665">
        <ele>1303</ele>
        <time>2014-02-15T12:01:20.000Z</time>
      </trkpt>
      <trkpt lat="45.64287" lon="5.98656">
        <ele>1303.1999511719</ele>
        <time>2014-02-15T12:01:25.000Z</time>
      </trkpt>
      <trkpt lat="45.64286" lon="5.98654">
        <ele>1303.1999511719</ele>
        <time>2014-02-15T12:01:30.000Z</time>
      </trkpt>
      <trkpt lat="45.64285" lon="5.98652">
        <ele>1303.1999511719</ele>
        <time>2014-02-15T12:01:43.000Z</time>
      </trkpt>
      <trkpt lat="45.64279" lon="5.98641">
        <ele>1303.4000244141</ele>
        <time>2014-02-15T12:01:48.000Z</time>
      </trkpt>
      <trkpt lat="45.64275" lon="5.98634">
        <ele>1303.4000244141</ele>
        <time>2014-02-15T12:01:51.000Z</time>
      </trkpt>
      <trkpt lat="45.6427" lon="5.98624">
        <ele>1303.1999511719</ele>
        <time>2014-02-15T12:01:55.000Z</time>
      </trkpt>
      <trkpt lat="45.64268" lon="5.9862">
        <ele>1303.1999511719</ele>
        <time>2014-02-15T12:01:56.000Z</time>
      </trkpt>
      <trkpt lat="45.64258" lon="5.98604">
        <ele>1302.5999755859</ele>
        <time>2014-02-15T12:02:01.000Z</time>
      </trkpt>
      <trkpt lat="45.64251" lon="5.98593">
        <ele>1302</ele>
        <time>2014-02-15T12:02:05.000Z</time>
      </trkpt>
      <trkpt lat="45.64241" lon="5.98577">
        <ele>1301.8000488281</ele>
        <time>2014-02-15T12:02:11.000Z</time>
      </trkpt>
      <trkpt lat="45.64236" lon="5.98571">
        <ele>1301.5999755859</ele>
        <time>2014-02-15T12:02:13.000Z</time>
      </trkpt>
      <trkpt lat="45.64221" lon="5.98545">
        <ele>1301.4000244141</ele>
        <time>2014-02-15T12:02:19.000Z</time>
      </trkpt>
      <trkpt lat="45.64207" lon="5.98526">
        <ele>1301</ele>
        <time>2014-02-15T12:02:24.000Z</time>
      </trkpt>
      <trkpt lat="45.64195" lon="5.98518">
        <ele>1300.4000244141</ele>
        <time>2014-02-15T12:02:28.000Z</time>
      </trkpt>
      <trkpt lat="45.6418" lon="5.98526">
        <ele>1299.4000244141</ele>
        <time>2014-02-15T12:02:33.000Z</time>
      </trkpt>
      <trkpt lat="45.64176" lon="5.98531">
        <ele>1299.1999511719</ele>
        <time>2014-02-15T12:02:35.000Z</time>
      </trkpt>
      <trkpt lat="45.6416" lon="5.98545">
        <ele>1298.1999511719</ele>
        <time>2014-02-15T12:02:41.000Z</time>
      </trkpt>
      <trkpt lat="45.64152" lon="5.98553">
        <ele>1297.5999755859</ele>
        <time>2014-02-15T12:02:44.000Z</time>
      </trkpt>
      <trkpt lat="45.64145" lon="5.9856">
        <ele>1297.4000244141</ele>
        <time>2014-02-15T12:02:48.000Z</time>
      </trkpt>
      <trkpt lat="45.64144" lon="5.98561">
        <ele>1297.1999511719</ele>
        <time>2014-02-15T12:02:49.000Z</time>
      </trkpt>
      <trkpt lat="45.64289" lon="5.99972">
        <ele>1265.5999755859</ele>
        <time>2014-02-15T12:12:12.000Z</time>
      </trkpt>
      <trkpt lat="45.64302" lon="5.99988">
        <ele>1265.5999755859</ele>
        <time>2014-02-15T12:12:17.000Z</time>
      </trkpt>
      <trkpt lat="45.64308" lon="6.00002">
        <ele>1265.8000488281</ele>
        <time>2014-02-15T12:12:21.000Z</time>
      </trkpt>
      <trkpt lat="45.64313" lon="6.00034">
        <ele>1266</ele>
        <time>2014-02-15T12:12:28.000Z</time>
      </trkpt>
      <trkpt lat="45.64322" lon="6.0007">
        <ele>1263.1999511719</ele>
        <time>2014-02-15T12:12:35.000Z</time>
      </trkpt>
      <trkpt lat="45.64332" lon="6.00093">
        <ele>1262</ele>
        <time>2014-02-15T12:12:41.000Z</time>
      </trkpt>
      <trkpt lat="45.64344" lon="6.00113">
        <ele>1260</ele>
        <time>2014-02-15T12:12:46.000Z</time>
      </trkpt>
      <trkpt lat="45.64355" lon="6.00135">
        <ele>1258</ele>
        <time>2014-02-15T12:12:51.000Z</time>
      </trkpt>
      <trkpt lat="45.64366" lon="6.00158">
        <ele>1256.4000244141</ele>
        <time>2014-02-15T12:12:56.000Z</time>
      </trkpt>
      <trkpt lat="45.64378" lon="6.00191">
        <ele>1254.4000244141</ele>
        <time>2014-02-15T12:13:03.000Z</time>
      </trkpt>
      <trkpt lat="45.64383" lon="6.00211">
        <ele>1253.4000244141</ele>
        <time>2014-02-15T12:13:06.000Z</time>
      </trkpt>
      <trkpt lat="45.64389" lon="6.00252">
        <ele>1251.5999755859</ele>
        <time>2014-02-15T12:13:11.000Z</time>
      </trkpt>
      <trkpt lat="45.64402" lon="6.00289">
        <ele>1250.1999511719</ele>
        <time>2014-02-15T12:13:16.000Z</time>
      </trkpt>
      <trkpt lat="45.64415" lon="6.00312">
        <ele>1249.4000244141</ele>
        <time>2014-02-15T12:13:21.000Z</time>
      </trkpt>
      <trkpt lat="45.6442" lon="6.0032">
        <ele>1248.8000488281</ele>
        <time>2014-02-15T12:13:23.000Z</time>
      </trkpt>
      <trkpt lat="45.64428" lon="6.00332">
        <ele>1247.5999755859</ele>
        <time>2014-02-15T12:13:26.000Z</time>
      </trkpt>
      <trkpt lat="45.64433" lon="6.0034">
        <ele>1247.1999511719</ele>
        <time>2014-02-15T12:13:28.000Z</time>
      </trkpt>
      <trkpt lat="45.64446" lon="6.00364">
        <ele>1246.1999511719</ele>
        <time>2014-02-15T12:13:34.000Z</time>
      </trkpt>
      <trkpt lat="45.64449" lon="6.00374">
        <ele>1246</ele>
        <time>2014-02-15T12:13:36.000Z</time>
      </trkpt>
      <trkpt lat="45.64457" lon="6.00397">
        <ele>1245.4000244141</ele>
        <time>2014-02-15T12:13:41.000Z</time>
      </trkpt>
      <trkpt lat="45.64462" lon="6.00414">
        <ele>1244.8000488281</ele>
        <time>2014-02-15T12:13:45.000Z</time>
      </trkpt>
      <trkpt lat="45.64467" lon="6.00433">
        <ele>1244.1999511719</ele>
        <time>2014-02-15T12:13:49.000Z</time>
      </trkpt>
      <trkpt lat="45.64472" lon="6.00453">
        <ele>1243.4000244141</ele>
        <time>2014-02-15T12:13:53.000Z</time>
      </trkpt>
      <trkpt lat="45.64477" lon="6.00473">
        <ele>1242.8000488281</ele>
        <time>2014-02-15T12:13:57.000Z</time>
      </trkpt>
      <trkpt lat="45.64481" lon="6.00499">
        <ele>1242.1999511719</ele>
        <time>2014-02-15T12:14:02.000Z</time>
      </trkpt>
      <trkpt lat="45.64474" lon="6.00519">
        <ele>1242</ele>
        <time>2014-02-15T12:14:06.000Z</time>
      </trkpt>
      <trkpt lat="45.6446" lon="6.00525">
        <ele>1242</ele>
        <time>2014-02-15T12:14:10.000Z</time>
      </trkpt>
      <trkpt lat="45.64452" lon="6.00524">
        <ele>1242.1999511719</ele>
        <time>2014-02-15T12:14:13.000Z</time>
      </trkpt>
      <trkpt lat="45.64447" lon="6.00524">
        <ele>1242.1999511719</ele>
        <time>2014-02-15T12:14:17.000Z</time>
      </trkpt>
      <trkpt lat="45.64445" lon="6.00524">
        <ele>1242.1999511719</ele>
        <time>2014-02-15T12:14:18.000Z</time>
      </trkpt>
      <trkpt lat="45.64436" lon="6.00525">
        <ele>1242.1999511719</ele>
        <time>2014-02-15T12:14:22.000Z</time>
      </trkpt>
      <trkpt lat="45.64429" lon="6.00528">
        <ele>1242.1999511719</ele>
        <time>2014-02-15T12:14:25.000Z</time>
      </trkpt>
      <trkpt lat="45.64426" lon="6.00529">
        <ele>1242.1999511719</ele>
        <time>2014-02-15T12:14:26.000Z</time>
      </trkpt>
      <trkpt lat="45.64407" lon="6.00534">
        <ele>1242.1999511719</ele>
        <time>2014-02-15T12:14:32.000Z</time>
      </trkpt>
      <trkpt lat="45.64395" lon="6.00542">
        <ele>1242.1999511719</ele>
        <time>2014-02-15T12:14:36.000Z</time>
      </trkpt>
      <trkpt lat="45.64385" lon="6.00564">
        <ele>1242</ele>
        <time>2014-02-15T12:14:40.000Z</time>
      </trkpt>
      <trkpt lat="45.64395" lon="6.00584">
        <ele>1241.4000244141</ele>
        <time>2014-02-15T12:14:44.000Z</time>
      </trkpt>
      <trkpt lat="45.64403" lon="6.0059">
        <ele>1241</ele>
        <time>2014-02-15T12:14:46.000Z</time>
      </trkpt>
      <trkpt lat="45.64411" lon="6.00597">
        <ele>1240.4000244141</ele>
        <time>2014-02-15T12:14:48.000Z</time>
      </trkpt>
      <trkpt lat="45.64418" lon="6.00606">
        <ele>1239.5999755859</ele>
        <time>2014-02-15T12:14:50.000Z</time>
      </trkpt>
      <trkpt lat="45.64432" lon="6.00626">
        <ele>1238.4000244141</ele>
        <time>2014-02-15T12:14:54.000Z</time>
      </trkpt>
      <trkpt lat="45.64437" lon="6.00637">
        <ele>1237.8000488281</ele>
        <time>2014-02-15T12:14:56.000Z</time>
      </trkpt>
      <trkpt lat="45.64449" lon="6.00656">
        <ele>1236.5999755859</ele>
        <time>2014-02-15T12:15:01.000Z</time>
      </trkpt>
      <trkpt lat="45.64457" lon="6.00664">
        <ele>1236.1999511719</ele>
        <time>2014-02-15T12:15:04.000Z</time>
      </trkpt>
      <trkpt lat="45.64472" lon="6.00673">
        <ele>1235.4000244141</ele>
        <time>2014-02-15T12:15:09.000Z</time>
      </trkpt>
      <trkpt lat="45.64482" lon="6.00678">
        <ele>1235</ele>
        <time>2014-02-15T12:15:12.000Z</time>
      </trkpt>
      <trkpt lat="45.64495" lon="6.00688">
        <ele>1234.1999511719</ele>
        <time>2014-02-15T12:15:16.000Z</time>
      </trkpt>
      <trkpt lat="45.64507" lon="6.00708">
        <ele>1232.8000488281</ele>
        <time>2014-02-15T12:15:21.000Z</time>
      </trkpt>
      <trkpt lat="45.6451" lon="6.00713">
        <ele>1232.4000244141</ele>
        <time>2014-02-15T12:15:22.000Z</time>
      </trkpt>
      <trkpt lat="45.645" lon="6.00742">
        <ele>1229.5999755859</ele>
        <time>2014-02-15T12:15:27.000Z</time>
      </trkpt>
      <trkpt lat="45.64484" lon="6.0076">
        <ele>1228.1999511719</ele>
        <time>2014-02-15T12:15:33.000Z</time>
      </trkpt>
      <trkpt lat="45.64481" lon="6.00763">
        <ele>1228</ele>
        <time>2014-02-15T12:15:34.000Z</time>
      </trkpt>
      <trkpt lat="45.64466" lon="6.00776">
        <ele>1227.5999755859</ele>
        <time>2014-02-15T12:15:38.000Z</time>
      </trkpt>
      <trkpt lat="45.64451" lon="6.00794">
        <ele>1227.1999511719</ele>
        <time>2014-02-15T12:15:41.000Z</time>
      </trkpt>
      <trkpt lat="45.64441" lon="6.00812">
        <ele>1227</ele>
        <time>2014-02-15T12:15:45.000Z</time>
      </trkpt>
      <trkpt lat="45.6444" lon="6.00815">
        <ele>1227</ele>
        <time>2014-02-15T12:15:46.000Z</time>
      </trkpt>
      <trkpt lat="45.64438" lon="6.00821">
        <ele>1226.8000488281</ele>
        <time>2014-02-15T12:15:48.000Z</time>
      </trkpt>
      <trkpt lat="45.64433" lon="6.00831">
        <ele>1226.8000488281</ele>
        <time>2014-02-15T12:15:51.000Z</time>
      </trkpt>
      <trkpt lat="45.64425" lon="6.00842">
        <ele>1226.5999755859</ele>
        <time>2014-02-15T12:15:55.000Z</time>
      </trkpt>
      <trkpt lat="45.64412" lon="6.00852">
        <ele>1226</ele>
        <time>2014-02-15T12:15:59.000Z</time>
      </trkpt>
      <trkpt lat="45.64399" lon="6.00852">
        <ele>1225.5999755859</ele>
        <time>2014-02-15T12:16:03.000Z</time>
      </trkpt>
      <trkpt lat="45.64381" lon="6.00847">
        <ele>1225.4000244141</ele>
        <time>2014-02-15T12:16:08.000Z</time>
      </trkpt>
      <trkpt lat="45.64368" lon="6.00842">
        <ele>1225.5999755859</ele>
        <time>2014-02-15T12:16:12.000Z</time>
      </trkpt>
      <trkpt lat="45.64363" lon="6.00833">
        <ele>1226</ele>
        <time>2014-02-15T12:16:16.000Z</time>
      </trkpt>
      <trkpt lat="45.64354" lon="6.00824">
        <ele>1226.4000244141</ele>
        <time>2014-02-15T12:16:21.000Z</time>
      </trkpt>
      <trkpt lat="45.64349" lon="6.00815">
        <ele>1227</ele>
        <time>2014-02-15T12:16:25.000Z</time>
      </trkpt>
      <trkpt lat="45.64342" lon="6.00807">
        <ele>1227.5999755859</ele>
        <time>2014-02-15T12:16:29.000Z</time>
      </trkpt>
      <trkpt lat="45.64341" lon="6.00805">
        <ele>1227.8000488281</ele>
        <time>2014-02-15T12:16:30.000Z</time>
      </trkpt>
      <trkpt lat="45.64328" lon="6.00788">
        <ele>1229.1999511719</ele>
        <time>2014-02-15T12:16:38.000Z</time>
      </trkpt>
      <trkpt lat="45.64322" lon="6.00779">
        <ele>1229.8000488281</ele>
        <time>2014-02-15T12:16:42.000Z</time>
      </trkpt>
      <trkpt lat="45.64318" lon="6.00775">
        <ele>1230.1999511719</ele>
        <time>2014-02-15T12:16:44.000Z</time>
      </trkpt>
      <trkpt lat="45.64312" lon="6.00761">
        <ele>1231.5999755859</ele>
        <time>2014-02-15T12:16:50.000Z</time>
      </trkpt>
      <trkpt lat="45.64308" lon="6.0075">
        <ele>1232.5999755859</ele>
        <time>2014-02-15T12:16:54.000Z</time>
      </trkpt>
      <trkpt lat="45.64306" lon="6.00746">
        <ele>1233</ele>
        <time>2014-02-15T12:16:56.000Z</time>
      </trkpt>
      <trkpt lat="45.64303" lon="6.00733">
        <ele>1233.8000488281</ele>
        <time>2014-02-15T12:17:02.000Z</time>
      </trkpt>
      <trkpt lat="45.64299" lon="6.0072">
        <ele>1234.5999755859</ele>
        <time>2014-02-15T12:17:08.000Z</time>
      </trkpt>
      <trkpt lat="45.64297" lon="6.0071">
        <ele>1235.1999511719</ele>
        <time>2014-02-15T12:17:12.000Z</time>
      </trkpt>
      <trkpt lat="45.64294" lon="6.00696">
        <ele>1236.1999511719</ele>
        <time>2014-02-15T12:17:17.000Z</time>
      </trkpt>
      <trkpt lat="45.64294" lon="6.00687">
        <ele>1236.5999755859</ele>
        <time>2014-02-15T12:17:20.000Z</time>
      </trkpt>
      <trkpt lat="45.64294" lon="6.00674">
        <ele>1237.5999755859</ele>
        <time>2014-02-15T12:17:26.000Z</time>
      </trkpt>
      <trkpt lat="45.64295" lon="6.00666">
        <ele>1238</ele>
        <time>2014-02-15T12:17:29.000Z</time>
      </trkpt>
      <trkpt lat="45.64296" lon="6.00652">
        <ele>1238.5999755859</ele>
        <time>2014-02-15T12:17:35.000Z</time>
      </trkpt>
      <trkpt lat="45.64297" lon="6.00648">
        <ele>1238.8000488281</ele>
        <time>2014-02-15T12:17:37.000Z</time>
      </trkpt>
      <trkpt lat="45.643" lon="6.0064">
        <ele>1239.1999511719</ele>
        <time>2014-02-15T12:17:42.000Z</time>
      </trkpt>
      <trkpt lat="45.64303" lon="6.00632">
        <ele>1239.4000244141</ele>
        <time>2014-02-15T12:17:46.000Z</time>
      </trkpt>
      <trkpt lat="45.64304" lon="6.00627">
        <ele>1239.8000488281</ele>
        <time>2014-02-15T12:17:48.000Z</time>
      </trkpt>
      <trkpt lat="45.64306" lon="6.00623">
        <ele>1240</ele>
        <time>2014-02-15T12:17:50.000Z</time>
      </trkpt>
      <trkpt lat="45.64307" lon="6.00621">
        <ele>1240</ele>
        <time>2014-02-15T12:17:51.000Z</time>
      </trkpt>
      <trkpt lat="45.64308" lon="6.00625">
        <ele>1240</ele>
        <time>2014-02-15T12:21:09.000Z</time>
      </trkpt>
      <trkpt lat="45.64308" lon="6.00625">
        <ele>1240</ele>
        <time>2014-02-15T12:21:10.000Z</time>
      </trkpt>
      <trkpt lat="45.64311" lon="6.0062">
        <ele>1240.1999511719</ele>
        <time>2014-02-15T12:21:14.000Z</time>
      </trkpt>
      <trkpt lat="45.64313" lon="6.00606">
        <ele>1240.8000488281</ele>
        <time>2014-02-15T12:21:19.000Z</time>
      </trkpt>
      <trkpt lat="45.64313" lon="6.00602">
        <ele>1241</ele>
        <time>2014-02-15T12:21:21.000Z</time>
      </trkpt>
      <trkpt lat="45.64312" lon="6.00595">
        <ele>1241.1999511719</ele>
        <time>2014-02-15T12:21:24.000Z</time>
      </trkpt>
      <trkpt lat="45.64312" lon="6.00585">
        <ele>1241.5999755859</ele>
        <time>2014-02-15T12:21:28.000Z</time>
      </trkpt>
      <trkpt lat="45.64306" lon="6.00561">
        <ele>1241.5999755859</ele>
        <time>2014-02-15T12:21:35.000Z</time>
      </trkpt>
      <trkpt lat="45.64298" lon="6.00547">
        <ele>1241.1999511719</ele>
        <time>2014-02-15T12:21:40.000Z</time>
      </trkpt>
      <trkpt lat="45.64292" lon="6.00534">
        <ele>1241</ele>
        <time>2014-02-15T12:21:45.000Z</time>
      </trkpt>
      <trkpt lat="45.64289" lon="6.0053">
        <ele>1241</ele>
        <time>2014-02-15T12:21:47.000Z</time>
      </trkpt>
      <trkpt lat="45.64284" lon="6.00522">
        <ele>1241</ele>
        <time>2014-02-15T12:21:51.000Z</time>
      </trkpt>
      <trkpt lat="45.64279" lon="6.00513">
        <ele>1240.8000488281</ele>
        <time>2014-02-15T12:21:55.000Z</time>
      </trkpt>
      <trkpt lat="45.64272" lon="6.005">
        <ele>1240.8000488281</ele>
        <time>2014-02-15T12:22:00.000Z</time>
      </trkpt>
      <trkpt lat="45.64269" lon="6.00492">
        <ele>1241</ele>
        <time>2014-02-15T12:22:03.000Z</time>
      </trkpt>
      <trkpt lat="45.64263" lon="6.00478">
        <ele>1241.4000244141</ele>
        <time>2014-02-15T12:22:08.000Z</time>
      </trkpt>
      <trkpt lat="45.64256" lon="6.00468">
        <ele>1241.8000488281</ele>
        <time>2014-02-15T12:22:12.000Z</time>
      </trkpt>
      <trkpt lat="45.64248" lon="6.00449">
        <ele>1242.1999511719</ele>
        <time>2014-02-15T12:22:17.000Z</time>
      </trkpt>
      <trkpt lat="45.64242" lon="6.00441">
        <ele>1242.4000244141</ele>
        <time>2014-02-15T12:22:20.000Z</time>
      </trkpt>
      <trkpt lat="45.64239" lon="6.00435">
        <ele>1242.4000244141</ele>
        <time>2014-02-15T12:22:22.000Z</time>
      </trkpt>
      <trkpt lat="45.64233" lon="6.00425">
        <ele>1242.8000488281</ele>
        <time>2014-02-15T12:22:26.000Z</time>
      </trkpt>
      <trkpt lat="45.64229" lon="6.00417">
        <ele>1243</ele>
        <time>2014-02-15T12:22:29.000Z</time>
      </trkpt>
      <trkpt lat="45.64222" lon="6.00402">
        <ele>1243.5999755859</ele>
        <time>2014-02-15T12:22:35.000Z</time>
      </trkpt>
      <trkpt lat="45.64214" lon="6.0039">
        <ele>1244</ele>
        <time>2014-02-15T12:22:40.000Z</time>
      </trkpt>
      <trkpt lat="45.64209" lon="6.00382">
        <ele>1244.5999755859</ele>
        <time>2014-02-15T12:22:44.000Z</time>
      </trkpt>
      <trkpt lat="45.64202" lon="6.0037">
        <ele>1245.1999511719</ele>
        <time>2014-02-15T12:22:49.000Z</time>
      </trkpt>
      <trkpt lat="45.64198" lon="6.00363">
        <ele>1245.8000488281</ele>
        <time>2014-02-15T12:22:52.000Z</time>
      </trkpt>
      <trkpt lat="45.64194" lon="6.00355">
        <ele>1246.5999755859</ele>
        <time>2014-02-15T12:22:55.000Z</time>
      </trkpt>
      <trkpt lat="45.64187" lon="6.00342">
        <ele>1247.8000488281</ele>
        <time>2014-02-15T12:23:01.000Z</time>
      </trkpt>
      <trkpt lat="45.64185" lon="6.00339">
        <ele>1248</ele>
        <time>2014-02-15T12:23:02.000Z</time>
      </trkpt>
      <trkpt lat="45.64178" lon="6.00323">
        <ele>1249</ele>
        <time>2014-02-15T12:23:09.000Z</time>
      </trkpt>
      <trkpt lat="45.64173" lon="6.00315">
        <ele>1249.1999511719</ele>
        <time>2014-02-15T12:23:13.000Z</time>
      </trkpt>
      <trkpt lat="45.64165" lon="6.00304">
        <ele>1249.5999755859</ele>
        <time>2014-02-15T12:23:18.000Z</time>
      </trkpt>
      <trkpt lat="45.64159" lon="6.00295">
        <ele>1249.5999755859</ele>
        <time>2014-02-15T12:23:22.000Z</time>
      </trkpt>
      <trkpt lat="45.64147" lon="6.00273">
        <ele>1249.8000488281</ele>
        <time>2014-02-15T12:23:30.000Z</time>
      </trkpt>
      <trkpt lat="45.6414" lon="6.00263">
        <ele>1250.1999511719</ele>
        <time>2014-02-15T12:23:34.000Z</time>
      </trkpt>
      <trkpt lat="45.64134" lon="6.00252">
        <ele>1250.5999755859</ele>
        <time>2014-02-15T12:23:39.000Z</time>
      </trkpt>
      <trkpt lat="45.64127" lon="6.00238">
        <ele>1250.8000488281</ele>
        <time>2014-02-15T12:23:44.000Z</time>
      </trkpt>
      <trkpt lat="45.64121" lon="6.00223">
        <ele>1251.4000244141</ele>
        <time>2014-02-15T12:23:49.000Z</time>
      </trkpt>
      <trkpt lat="45.64115" lon="6.00205">
        <ele>1252</ele>
        <time>2014-02-15T12:23:54.000Z</time>
      </trkpt>
      <trkpt lat="45.64114" lon="6.00194">
        <ele>1252.4000244141</ele>
        <time>2014-02-15T12:23:57.000Z</time>
      </trkpt>
      <trkpt lat="45.64109" lon="6.00175">
        <ele>1253</ele>
        <time>2014-02-15T12:24:03.000Z</time>
      </trkpt>
      <trkpt lat="45.64105" lon="6.00159">
        <ele>1253.5999755859</ele>
        <time>2014-02-15T12:24:08.000Z</time>
      </trkpt>
      <trkpt lat="45.641" lon="6.00143">
        <ele>1254</ele>
        <time>2014-02-15T12:24:14.000Z</time>
      </trkpt>
      <trkpt lat="45.64094" lon="6.0013">
        <ele>1254.1999511719</ele>
        <time>2014-02-15T12:24:19.000Z</time>
      </trkpt>
      <trkpt lat="45.64092" lon="6.00128">
        <ele>1254.4000244141</ele>
        <time>2014-02-15T12:24:20.000Z</time>
      </trkpt>
      <trkpt lat="45.64082" lon="6.00112">
        <ele>1254.5999755859</ele>
        <time>2014-02-15T12:24:27.000Z</time>
      </trkpt>
      <trkpt lat="45.64074" lon="6.00102">
        <ele>1254.5999755859</ele>
        <time>2014-02-15T12:24:32.000Z</time>
      </trkpt>
      <trkpt lat="45.64067" lon="6.0009">
        <ele>1254.5999755859</ele>
        <time>2014-02-15T12:24:37.000Z</time>
      </trkpt>
      <trkpt lat="45.64059" lon="6.0008">
        <ele>1254.8000488281</ele>
        <time>2014-02-15T12:24:42.000Z</time>
      </trkpt>
      <trkpt lat="45.6405" lon="6.00068">
        <ele>1255.4000244141</ele>
        <time>2014-02-15T12:24:47.000Z</time>
      </trkpt>
      <trkpt lat="45.64046" lon="6.00062">
        <ele>1255.8000488281</ele>
        <time>2014-02-15T12:24:50.000Z</time>
      </trkpt>
      <trkpt lat="45.64038" lon="6.00049">
        <ele>1256.5999755859</ele>
        <time>2014-02-15T12:24:56.000Z</time>
      </trkpt>
      <trkpt lat="45.64035" lon="6.00042">
        <ele>1257</ele>
        <time>2014-02-15T12:24:59.000Z</time>
      </trkpt>
      <trkpt lat="45.64026" lon="6.00031">
        <ele>1258</ele>
        <time>2014-02-15T12:25:04.000Z</time>
      </trkpt>
      <trkpt lat="45.64019" lon="6.00022">
        <ele>1258.8000488281</ele>
        <time>2014-02-15T12:25:08.000Z</time>
      </trkpt>
      <trkpt lat="45.6401" lon="6.00012">
        <ele>1259.5999755859</ele>
        <time>2014-02-15T12:25:13.000Z</time>
      </trkpt>
      <trkpt lat="45.64" lon="6.00002">
        <ele>1260.8000488281</ele>
        <time>2014-02-15T12:25:18.000Z</time>
      </trkpt>
      <trkpt lat="45.6399" lon="5.99993">
        <ele>1260.1999511719</ele>
        <time>2014-02-15T12:25:23.000Z</time>
      </trkpt>
      <trkpt lat="45.63981" lon="5.99988">
        <ele>1259.4000244141</ele>
        <time>2014-02-15T12:25:27.000Z</time>
      </trkpt>
      <trkpt lat="45.6397" lon="5.99981">
        <ele>1258.4000244141</ele>
        <time>2014-02-15T12:25:32.000Z</time>
      </trkpt>
      <trkpt lat="45.6396" lon="5.99977">
        <ele>1257.5999755859</ele>
        <time>2014-02-15T12:25:36.000Z</time>
      </trkpt>
      <trkpt lat="45.63948" lon="5.99972">
        <ele>1256.5999755859</ele>
        <time>2014-02-15T12:25:40.000Z</time>
      </trkpt>
      <trkpt lat="45.63936" lon="5.99968">
        <ele>1255.5999755859</ele>
        <time>2014-02-15T12:25:44.000Z</time>
      </trkpt>
      <trkpt lat="45.63919" lon="5.99959">
        <ele>1254.1999511719</ele>
        <time>2014-02-15T12:25:49.000Z</time>
      </trkpt>
      <trkpt lat="45.63904" lon="5.99948">
        <ele>1256.1999511719</ele>
        <time>2014-02-15T12:25:54.000Z</time>
      </trkpt>
      <trkpt lat="45.63893" lon="5.99938">
        <ele>1256</ele>
        <time>2014-02-15T12:25:58.000Z</time>
      </trkpt>
      <trkpt lat="45.63881" lon="5.99929">
        <ele>1256</ele>
        <time>2014-02-15T12:26:02.000Z</time>
      </trkpt>
      <trkpt lat="45.63872" lon="5.99918">
        <ele>1256.1999511719</ele>
        <time>2014-02-15T12:26:06.000Z</time>
      </trkpt>
      <trkpt lat="45.63867" lon="5.99911">
        <ele>1256.1999511719</ele>
        <time>2014-02-15T12:26:09.000Z</time>
      </trkpt>
      <trkpt lat="45.6386" lon="5.99902">
        <ele>1256.1999511719</ele>
        <time>2014-02-15T12:26:13.000Z</time>
      </trkpt>
      <trkpt lat="45.63853" lon="5.99894">
        <ele>1256.1999511719</ele>
        <time>2014-02-15T12:26:17.000Z</time>
      </trkpt>
      <trkpt lat="45.63846" lon="5.99884">
        <ele>1256.4000244141</ele>
        <time>2014-02-15T12:26:21.000Z</time>
      </trkpt>
      <trkpt lat="45.63839" lon="5.99869">
        <ele>1257</ele>
        <time>2014-02-15T12:26:26.000Z</time>
      </trkpt>
      <trkpt lat="45.63836" lon="5.99864">
        <ele>1257.1999511719</ele>
        <time>2014-02-15T12:26:28.000Z</time>
      </trkpt>
      <trkpt lat="45.63834" lon="5.99858">
        <ele>1257.5999755859</ele>
        <time>2014-02-15T12:26:30.000Z</time>
      </trkpt>
      <trkpt lat="45.63832" lon="5.99839">
        <ele>1258.5999755859</ele>
        <time>2014-02-15T12:26:36.000Z</time>
      </trkpt>
      <trkpt lat="45.63833" lon="5.99832">
        <ele>1259</ele>
        <time>2014-02-15T12:26:38.000Z</time>
      </trkpt>
      <trkpt lat="45.63833" lon="5.99819">
        <ele>1259.4000244141</ele>
        <time>2014-02-15T12:26:42.000Z</time>
      </trkpt>
      <trkpt lat="45.6384" lon="5.99807">
        <ele>1259.8000488281</ele>
        <time>2014-02-15T12:26:48.000Z</time>
      </trkpt>
      <trkpt lat="45.63846" lon="5.99797">
        <ele>1260.1999511719</ele>
        <time>2014-02-15T12:26:54.000Z</time>
      </trkpt>
      <trkpt lat="45.63849" lon="5.99795">
        <ele>1260.4000244141</ele>
        <time>2014-02-15T12:26:56.000Z</time>
      </trkpt>
      <trkpt lat="45.6386" lon="5.99794">
        <ele>1260.8000488281</ele>
        <time>2014-02-15T12:27:03.000Z</time>
      </trkpt>
      <trkpt lat="45.63862" lon="5.99794">
        <ele>1261</ele>
        <time>2014-02-15T12:27:04.000Z</time>
      </trkpt>
      <trkpt lat="45.6387" lon="5.99797">
        <ele>1261</ele>
        <time>2014-02-15T12:27:08.000Z</time>
      </trkpt>
      <trkpt lat="45.63879" lon="5.99803">
        <ele>1261</ele>
        <time>2014-02-15T12:27:13.000Z</time>
      </trkpt>
      <trkpt lat="45.63891" lon="5.99807">
        <ele>1261.1999511719</ele>
        <time>2014-02-15T12:27:19.000Z</time>
      </trkpt>
      <trkpt lat="45.63896" lon="5.99809">
        <ele>1261.1999511719</ele>
        <time>2014-02-15T12:27:23.000Z</time>
      </trkpt>
      <trkpt lat="45.63904" lon="5.99812">
        <ele>1261.1999511719</ele>
        <time>2014-02-15T12:27:28.000Z</time>
      </trkpt>
      <trkpt lat="45.63918" lon="5.99818">
        <ele>1261.1999511719</ele>
        <time>2014-02-15T12:27:35.000Z</time>
      </trkpt>
      <trkpt lat="45.6393" lon="5.9982">
        <ele>1262.1999511719</ele>
        <time>2014-02-15T12:27:40.000Z</time>
      </trkpt>
      <trkpt lat="45.63938" lon="5.99823">
        <ele>1262.8000488281</ele>
        <time>2014-02-15T12:27:45.000Z</time>
      </trkpt>
      <trkpt lat="45.63949" lon="5.99828">
        <ele>1263.5999755859</ele>
        <time>2014-02-15T12:27:50.000Z</time>
      </trkpt>
      <trkpt lat="45.63959" lon="5.99832">
        <ele>1264.1999511719</ele>
        <time>2014-02-15T12:27:55.000Z</time>
      </trkpt>
      <trkpt lat="45.63969" lon="5.99835">
        <ele>1265</ele>
        <time>2014-02-15T12:28:01.000Z</time>
      </trkpt>
      <trkpt lat="45.63975" lon="5.99838">
        <ele>1265.4000244141</ele>
        <time>2014-02-15T12:28:05.000Z</time>
      </trkpt>
      <trkpt lat="45.63984" lon="5.99837">
        <ele>1266.4000244141</ele>
        <time>2014-02-15T12:28:11.000Z</time>
      </trkpt>
      <trkpt lat="45.63995" lon="5.99834">
        <ele>1267.4000244141</ele>
        <time>2014-02-15T12:28:17.000Z</time>
      </trkpt>
      <trkpt lat="45.64007" lon="5.9983">
        <ele>1268.4000244141</ele>
        <time>2014-02-15T12:28:23.000Z</time>
      </trkpt>
      <trkpt lat="45.6401" lon="5.9983">
        <ele>1268.4000244141</ele>
        <time>2014-02-15T12:28:24.000Z</time>
      </trkpt>
      <trkpt lat="45.64018" lon="5.99825">
        <ele>1268.8000488281</ele>
        <time>2014-02-15T12:28:28.000Z</time>
      </trkpt>
      <trkpt lat="45.64026" lon="5.99818">
        <ele>1269.4000244141</ele>
        <time>2014-02-15T12:28:32.000Z</time>
      </trkpt>
      <trkpt lat="45.64034" lon="5.99805">
        <ele>1270.5999755859</ele>
        <time>2014-02-15T12:28:38.000Z</time>
      </trkpt>
      <trkpt lat="45.6404" lon="5.99795">
        <ele>1271.1999511719</ele>
        <time>2014-02-15T12:28:43.000Z</time>
      </trkpt>
      <trkpt lat="45.64043" lon="5.99788">
        <ele>1271.8000488281</ele>
        <time>2014-02-15T12:28:46.000Z</time>
      </trkpt>
      <trkpt lat="45.64045" lon="5.99772">
        <ele>1272.8000488281</ele>
        <time>2014-02-15T12:28:52.000Z</time>
      </trkpt>
      <trkpt lat="45.64046" lon="5.99757">
        <ele>1274</ele>
        <time>2014-02-15T12:28:57.000Z</time>
      </trkpt>
      <trkpt lat="45.64046" lon="5.99754">
        <ele>1274.1999511719</ele>
        <time>2014-02-15T12:28:58.000Z</time>
      </trkpt>
      <trkpt lat="45.64045" lon="5.99734">
        <ele>1274.8000488281</ele>
        <time>2014-02-15T12:29:04.000Z</time>
      </trkpt>
      <trkpt lat="45.64042" lon="5.99718">
        <ele>1275.1999511719</ele>
        <time>2014-02-15T12:29:09.000Z</time>
      </trkpt>
      <trkpt lat="45.64038" lon="5.99703">
        <ele>1275.5999755859</ele>
        <time>2014-02-15T12:29:15.000Z</time>
      </trkpt>
      <trkpt lat="45.64034" lon="5.99687">
        <ele>1276</ele>
        <time>2014-02-15T12:29:21.000Z</time>
      </trkpt>
      <trkpt lat="45.64028" lon="5.99674">
        <ele>1276.1999511719</ele>
        <time>2014-02-15T12:29:26.000Z</time>
      </trkpt>
      <trkpt lat="45.64022" lon="5.99662">
        <ele>1276.4000244141</ele>
        <time>2014-02-15T12:29:30.000Z</time>
      </trkpt>
      <trkpt lat="45.64014" lon="5.99648">
        <ele>1276.5999755859</ele>
        <time>2014-02-15T12:29:34.000Z</time>
      </trkpt>
      <trkpt lat="45.64007" lon="5.99635">
        <ele>1276.8000488281</ele>
        <time>2014-02-15T12:29:38.000Z</time>
      </trkpt>
      <trkpt lat="45.64001" lon="5.99625">
        <ele>1277</ele>
        <time>2014-02-15T12:29:43.000Z</time>
      </trkpt>
      <trkpt lat="45.63997" lon="5.99616">
        <ele>1277</ele>
        <time>2014-02-15T12:29:47.000Z</time>
      </trkpt>
      <trkpt lat="45.63995" lon="5.99613">
        <ele>1277</ele>
        <time>2014-02-15T12:29:49.000Z</time>
      </trkpt>
      <trkpt lat="45.63988" lon="5.996">
        <ele>1276.8000488281</ele>
        <time>2014-02-15T12:29:56.000Z</time>
      </trkpt>
      <trkpt lat="45.63982" lon="5.99587">
        <ele>1276.5999755859</ele>
        <time>2014-02-15T12:30:01.000Z</time>
      </trkpt>
      <trkpt lat="45.63977" lon="5.99577">
        <ele>1276.8000488281</ele>
        <time>2014-02-15T12:30:05.000Z</time>
      </trkpt>
      <trkpt lat="45.63972" lon="5.99563">
        <ele>1277.1999511719</ele>
        <time>2014-02-15T12:30:10.000Z</time>
      </trkpt>
      <trkpt lat="45.63969" lon="5.9954">
        <ele>1278.5999755859</ele>
        <time>2014-02-15T12:30:17.000Z</time>
      </trkpt>
      <trkpt lat="45.63967" lon="5.99524">
        <ele>1279.4000244141</ele>
        <time>2014-02-15T12:30:23.000Z</time>
      </trkpt>
      <trkpt lat="45.63968" lon="5.99514">
        <ele>1280.1999511719</ele>
        <time>2014-02-15T12:30:27.000Z</time>
      </trkpt>
      <trkpt lat="45.63969" lon="5.99504">
        <ele>1280.8000488281</ele>
        <time>2014-02-15T12:30:31.000Z</time>
      </trkpt>
      <trkpt lat="45.63971" lon="5.99495">
        <ele>1281.4000244141</ele>
        <time>2014-02-15T12:30:35.000Z</time>
      </trkpt>
      <trkpt lat="45.63976" lon="5.99483">
        <ele>1282</ele>
        <time>2014-02-15T12:30:40.000Z</time>
      </trkpt>
      <trkpt lat="45.63977" lon="5.99474">
        <ele>1282.4000244141</ele>
        <time>2014-02-15T12:30:44.000Z</time>
      </trkpt>
      <trkpt lat="45.63974" lon="5.99459">
        <ele>1282.8000488281</ele>
        <time>2014-02-15T12:30:50.000Z</time>
      </trkpt>
      <trkpt lat="45.63963" lon="5.99449">
        <ele>1282.4000244141</ele>
        <time>2014-02-15T12:30:55.000Z</time>
      </trkpt>
      <trkpt lat="45.63947" lon="5.99443">
        <ele>1281.4000244141</ele>
        <time>2014-02-15T12:31:00.000Z</time>
      </trkpt>
      <trkpt lat="45.63925" lon="5.99435">
        <ele>1280.1999511719</ele>
        <time>2014-02-15T12:31:06.000Z</time>
      </trkpt>
      <trkpt lat="45.63918" lon="5.99432">
        <ele>1279.8000488281</ele>
        <time>2014-02-15T12:31:08.000Z</time>
      </trkpt>
      <trkpt lat="45.63906" lon="5.99423">
        <ele>1279</ele>
        <time>2014-02-15T12:31:12.000Z</time>
      </trkpt>
      <trkpt lat="45.63896" lon="5.9941">
        <ele>1278.8000488281</ele>
        <time>2014-02-15T12:31:17.000Z</time>
      </trkpt>
      <trkpt lat="45.63889" lon="5.99396">
        <ele>1278.8000488281</ele>
        <time>2014-02-15T12:31:22.000Z</time>
      </trkpt>
      <trkpt lat="45.6388" lon="5.99384">
        <ele>1278.5999755859</ele>
        <time>2014-02-15T12:31:27.000Z</time>
      </trkpt>
      <trkpt lat="45.63871" lon="5.99373">
        <ele>1278.4000244141</ele>
        <time>2014-02-15T12:31:31.000Z</time>
      </trkpt>
      <trkpt lat="45.63859" lon="5.99358">
        <ele>1278</ele>
        <time>2014-02-15T12:31:35.000Z</time>
      </trkpt>
      <trkpt lat="45.63845" lon="5.99341">
        <ele>1277.5999755859</ele>
        <time>2014-02-15T12:31:39.000Z</time>
      </trkpt>
      <trkpt lat="45.63842" lon="5.99336">
        <ele>1277.4000244141</ele>
        <time>2014-02-15T12:31:40.000Z</time>
      </trkpt>
      <trkpt lat="45.6383" lon="5.99326">
        <ele>1277.4000244141</ele>
        <time>2014-02-15T12:31:44.000Z</time>
      </trkpt>
      <trkpt lat="45.63823" lon="5.99329">
        <ele>1277.4000244141</ele>
        <time>2014-02-15T12:31:47.000Z</time>
      </trkpt>
      <trkpt lat="45.63815" lon="5.99341">
        <ele>1277</ele>
        <time>2014-02-15T12:31:50.000Z</time>
      </trkpt>
      <trkpt lat="45.63813" lon="5.99345">
        <ele>1277</ele>
        <time>2014-02-15T12:31:53.000Z</time>
      </trkpt>
      <trkpt lat="45.63811" lon="5.99348">
        <ele>1276.8000488281</ele>
        <time>2014-02-15T12:31:54.000Z</time>
      </trkpt>
      <trkpt lat="45.63807" lon="5.99357">
        <ele>1276.4000244141</ele>
        <time>2014-02-15T12:31:57.000Z</time>
      </trkpt>
      <trkpt lat="45.63799" lon="5.9937">
        <ele>1275.5999755859</ele>
        <time>2014-02-15T12:32:04.000Z</time>
      </trkpt>
      <trkpt lat="45.63783" lon="5.99394">
        <ele>1273.8000488281</ele>
        <time>2014-02-15T12:32:13.000Z</time>
      </trkpt>
      <trkpt lat="45.63764" lon="5.99424">
        <ele>1271.1999511719</ele>
        <time>2014-02-15T12:32:19.000Z</time>
      </trkpt>
      <trkpt lat="45.63749" lon="5.99447">
        <ele>1269.5999755859</ele>
        <time>2014-02-15T12:32:23.000Z</time>
      </trkpt>
      <trkpt lat="45.63739" lon="5.99467">
        <ele>1268.1999511719</ele>
        <time>2014-02-15T12:32:27.000Z</time>
      </trkpt>
      <trkpt lat="45.63727" lon="5.99482">
        <ele>1267</ele>
        <time>2014-02-15T12:32:33.000Z</time>
      </trkpt>
      <trkpt lat="45.63724" lon="5.99484">
        <ele>1266.8000488281</ele>
        <time>2014-02-15T12:32:34.000Z</time>
      </trkpt>
      <trkpt lat="45.6371" lon="5.99482">
        <ele>1266.4000244141</ele>
        <time>2014-02-15T12:32:39.000Z</time>
      </trkpt>
      <trkpt lat="45.63705" lon="5.99472">
        <ele>1266.8000488281</ele>
        <time>2014-02-15T12:32:42.000Z</time>
      </trkpt>
      <trkpt lat="45.63704" lon="5.99469">
        <ele>1266.8000488281</ele>
        <time>2014-02-15T12:32:43.000Z</time>
      </trkpt>
      <trkpt lat="45.63699" lon="5.99446">
        <ele>1267.8000488281</ele>
        <time>2014-02-15T12:32:49.000Z</time>
      </trkpt>
      <trkpt lat="45.63697" lon="5.99423">
        <ele>1268.8000488281</ele>
        <time>2014-02-15T12:32:53.000Z</time>
      </trkpt>
      <trkpt lat="45.63697" lon="5.99413">
        <ele>1269.4000244141</ele>
        <time>2014-02-15T12:32:57.000Z</time>
      </trkpt>
      <trkpt lat="45.63696" lon="5.99399">
        <ele>1270.8000488281</ele>
        <time>2014-02-15T12:33:02.000Z</time>
      </trkpt>
      <trkpt lat="45.63696" lon="5.99388">
        <ele>1271.8000488281</ele>
        <time>2014-02-15T12:33:07.000Z</time>
      </trkpt>
      <trkpt lat="45.63695" lon="5.99373">
        <ele>1273.1999511719</ele>
        <time>2014-02-15T12:33:14.000Z</time>
      </trkpt>
      <trkpt lat="45.63689" lon="5.99357">
        <ele>1274.5999755859</ele>
        <time>2014-02-15T12:33:20.000Z</time>
      </trkpt>
      <trkpt lat="45.63683" lon="5.99346">
        <ele>1275.4000244141</ele>
        <time>2014-02-15T12:33:25.000Z</time>
      </trkpt>
      <trkpt lat="45.63675" lon="5.99338">
        <ele>1275.8000488281</ele>
        <time>2014-02-15T12:33:30.000Z</time>
      </trkpt>
      <trkpt lat="45.63672" lon="5.99335">
        <ele>1276</ele>
        <time>2014-02-15T12:33:32.000Z</time>
      </trkpt>
      <trkpt lat="45.63664" lon="5.99328">
        <ele>1276.1999511719</ele>
        <time>2014-02-15T12:33:37.000Z</time>
      </trkpt>
      <trkpt lat="45.63661" lon="5.99326">
        <ele>1276.1999511719</ele>
        <time>2014-02-15T12:33:39.000Z</time>
      </trkpt>
      <trkpt lat="45.63654" lon="5.99318">
        <ele>1276.5999755859</ele>
        <time>2014-02-15T12:33:45.000Z</time>
      </trkpt>
      <trkpt lat="45.63648" lon="5.99311">
        <ele>1276.8000488281</ele>
        <time>2014-02-15T12:33:49.000Z</time>
      </trkpt>
      <trkpt lat="45.63642" lon="5.99305">
        <ele>1277</ele>
        <time>2014-02-15T12:33:53.000Z</time>
      </trkpt>
      <trkpt lat="45.63635" lon="5.99299">
        <ele>1277.1999511719</ele>
        <time>2014-02-15T12:33:57.000Z</time>
      </trkpt>
      <trkpt lat="45.63626" lon="5.9929">
        <ele>1277.4000244141</ele>
        <time>2014-02-15T12:34:03.000Z</time>
      </trkpt>
      <trkpt lat="45.63618" lon="5.99282">
        <ele>1277.5999755859</ele>
        <time>2014-02-15T12:34:08.000Z</time>
      </trkpt>
      <trkpt lat="45.63615" lon="5.9928">
        <ele>1277.5999755859</ele>
        <time>2014-02-15T12:34:10.000Z</time>
      </trkpt>
      <trkpt lat="45.63612" lon="5.99277">
        <ele>1277.5999755859</ele>
        <time>2014-02-15T12:34:12.000Z</time>
      </trkpt>
      <trkpt lat="45.63603" lon="5.99269">
        <ele>1277.8000488281</ele>
        <time>2014-02-15T12:34:17.000Z</time>
      </trkpt>
      <trkpt lat="45.63593" lon="5.99261">
        <ele>1277.8000488281</ele>
        <time>2014-02-15T12:34:22.000Z</time>
      </trkpt>
      <trkpt lat="45.63583" lon="5.99251">
        <ele>1278</ele>
        <time>2014-02-15T12:34:28.000Z</time>
      </trkpt>
      <trkpt lat="45.63577" lon="5.99244">
        <ele>1277.5999755859</ele>
        <time>2014-02-15T12:34:32.000Z</time>
      </trkpt>
      <trkpt lat="45.63571" lon="5.99237">
        <ele>1277.4000244141</ele>
        <time>2014-02-15T12:34:36.000Z</time>
      </trkpt>
      <trkpt lat="45.63564" lon="5.99229">
        <ele>1277</ele>
        <time>2014-02-15T12:34:40.000Z</time>
      </trkpt>
      <trkpt lat="45.63563" lon="5.99227">
        <ele>1277</ele>
        <time>2014-02-15T12:34:41.000Z</time>
      </trkpt>
      <trkpt lat="45.63551" lon="5.99213">
        <ele>1276.8000488281</ele>
        <time>2014-02-15T12:34:48.000Z</time>
      </trkpt>
      <trkpt lat="45.6354" lon="5.99204">
        <ele>1276.4000244141</ele>
        <time>2014-02-15T12:34:53.000Z</time>
      </trkpt>
      <trkpt lat="45.63538" lon="5.99203">
        <ele>1276.1999511719</ele>
        <time>2014-02-15T12:34:54.000Z</time>
      </trkpt>
      <trkpt lat="45.63529" lon="5.99195">
        <ele>1276</ele>
        <time>2014-02-15T12:34:59.000Z</time>
      </trkpt>
      <trkpt lat="45.6352" lon="5.99182">
        <ele>1276.1999511719</ele>
        <time>2014-02-15T12:35:05.000Z</time>
      </trkpt>
      <trkpt lat="45.63515" lon="5.99171">
        <ele>1276.5999755859</ele>
        <time>2014-02-15T12:35:09.000Z</time>
      </trkpt>
      <trkpt lat="45.63515" lon="5.99158">
        <ele>1277.8000488281</ele>
        <time>2014-02-15T12:35:13.000Z</time>
      </trkpt>
      <trkpt lat="45.63521" lon="5.99141">
        <ele>1279.5999755859</ele>
        <time>2014-02-15T12:35:19.000Z</time>
      </trkpt>
      <trkpt lat="45.63527" lon="5.99132">
        <ele>1280.8000488281</ele>
        <time>2014-02-15T12:35:24.000Z</time>
      </trkpt>
      <trkpt lat="45.63533" lon="5.99129">
        <ele>1281.4000244141</ele>
        <time>2014-02-15T12:35:28.000Z</time>
      </trkpt>
      <trkpt lat="45.63539" lon="5.99126">
        <ele>1282</ele>
        <time>2014-02-15T12:35:32.000Z</time>
      </trkpt>
      <trkpt lat="45.63551" lon="5.99127">
        <ele>1282.5999755859</ele>
        <time>2014-02-15T12:35:38.000Z</time>
      </trkpt>
      <trkpt lat="45.63558" lon="5.99129">
        <ele>1282.8000488281</ele>
        <time>2014-02-15T12:35:42.000Z</time>
      </trkpt>
      <trkpt lat="45.63567" lon="5.99131">
        <ele>1283</ele>
        <time>2014-02-15T12:35:45.000Z</time>
      </trkpt>
      <trkpt lat="45.63572" lon="5.99133">
        <ele>1283.1999511719</ele>
        <time>2014-02-15T12:35:47.000Z</time>
      </trkpt>
      <trkpt lat="45.63587" lon="5.9914">
        <ele>1283.1999511719</ele>
        <time>2014-02-15T12:35:54.000Z</time>
      </trkpt>
      <trkpt lat="45.63598" lon="5.99145">
        <ele>1283</ele>
        <time>2014-02-15T12:35:59.000Z</time>
      </trkpt>
      <trkpt lat="45.63609" lon="5.99152">
        <ele>1282.5999755859</ele>
        <time>2014-02-15T12:36:04.000Z</time>
      </trkpt>
      <trkpt lat="45.63611" lon="5.99153">
        <ele>1282.5999755859</ele>
        <time>2014-02-15T12:36:05.000Z</time>
      </trkpt>
      <trkpt lat="45.6362" lon="5.99159">
        <ele>1282.4000244141</ele>
        <time>2014-02-15T12:36:09.000Z</time>
      </trkpt>
      <trkpt lat="45.63632" lon="5.99163">
        <ele>1282.4000244141</ele>
        <time>2014-02-15T12:36:14.000Z</time>
      </trkpt>
      <trkpt lat="45.63645" lon="5.99166">
        <ele>1282.5999755859</ele>
        <time>2014-02-15T12:36:18.000Z</time>
      </trkpt>
      <trkpt lat="45.63655" lon="5.99163">
        <ele>1283</ele>
        <time>2014-02-15T12:36:21.000Z</time>
      </trkpt>
      <trkpt lat="45.63666" lon="5.99153">
        <ele>1283.5999755859</ele>
        <time>2014-02-15T12:36:27.000Z</time>
      </trkpt>
      <trkpt lat="45.63677" lon="5.99145">
        <ele>1284.4000244141</ele>
        <time>2014-02-15T12:36:32.000Z</time>
      </trkpt>
      <trkpt lat="45.63689" lon="5.99134">
        <ele>1285</ele>
        <time>2014-02-15T12:36:37.000Z</time>
      </trkpt>
      <trkpt lat="45.63692" lon="5.99131">
        <ele>1285.1999511719</ele>
        <time>2014-02-15T12:36:39.000Z</time>
      </trkpt>
      <trkpt lat="45.63702" lon="5.99119">
        <ele>1285.8000488281</ele>
        <time>2014-02-15T12:36:44.000Z</time>
      </trkpt>
      <trkpt lat="45.63706" lon="5.99111">
        <ele>1286.1999511719</ele>
        <time>2014-02-15T12:36:47.000Z</time>
      </trkpt>
      <trkpt lat="45.6371" lon="5.99106">
        <ele>1286.4000244141</ele>
        <time>2014-02-15T12:36:50.000Z</time>
      </trkpt>
      <trkpt lat="45.63715" lon="5.991">
        <ele>1286.5999755859</ele>
        <time>2014-02-15T12:36:53.000Z</time>
      </trkpt>
      <trkpt lat="45.63722" lon="5.99093">
        <ele>1286.8000488281</ele>
        <time>2014-02-15T12:36:58.000Z</time>
      </trkpt>
      <trkpt lat="45.63723" lon="5.99092">
        <ele>1286.8000488281</ele>
        <time>2014-02-15T12:36:59.000Z</time>
      </trkpt>
      <trkpt lat="45.63726" lon="5.99089">
        <ele>1286.8000488281</ele>
        <time>2014-02-15T12:37:01.000Z</time>
      </trkpt>
      <trkpt lat="45.63733" lon="5.99078">
        <ele>1287</ele>
        <time>2014-02-15T12:37:06.000Z</time>
      </trkpt>
      <trkpt lat="45.63734" lon="5.99074">
        <ele>1287</ele>
        <time>2014-02-15T12:37:07.000Z</time>
      </trkpt>
      <trkpt lat="45.63736" lon="5.9906">
        <ele>1287</ele>
        <time>2014-02-15T12:37:11.000Z</time>
      </trkpt>
      <trkpt lat="45.63734" lon="5.9905">
        <ele>1287</ele>
        <time>2014-02-15T12:37:14.000Z</time>
      </trkpt>
      <trkpt lat="45.63727" lon="5.99034">
        <ele>1287.1999511719</ele>
        <time>2014-02-15T12:37:19.000Z</time>
      </trkpt>
      <trkpt lat="45.6372" lon="5.99023">
        <ele>1287.1999511719</ele>
        <time>2014-02-15T12:37:23.000Z</time>
      </trkpt>
      <trkpt lat="45.63713" lon="5.99015">
        <ele>1287.4000244141</ele>
        <time>2014-02-15T12:37:27.000Z</time>
      </trkpt>
      <trkpt lat="45.63712" lon="5.99013">
        <ele>1287.4000244141</ele>
        <time>2014-02-15T12:37:28.000Z</time>
      </trkpt>
      <trkpt lat="45.63704" lon="5.98999">
        <ele>1287.5999755859</ele>
        <time>2014-02-15T12:37:33.000Z</time>
      </trkpt>
      <trkpt lat="45.63695" lon="5.98984">
        <ele>1287.5999755859</ele>
        <time>2014-02-15T12:37:39.000Z</time>
      </trkpt>
      <trkpt lat="45.63686" lon="5.98975">
        <ele>1287.5999755859</ele>
        <time>2014-02-15T12:37:44.000Z</time>
      </trkpt>
      <trkpt lat="45.63685" lon="5.98973">
        <ele>1287.5999755859</ele>
        <time>2014-02-15T12:37:45.000Z</time>
      </trkpt>
      <trkpt lat="45.63674" lon="5.98961">
        <ele>1287.5999755859</ele>
        <time>2014-02-15T12:37:52.000Z</time>
      </trkpt>
      <trkpt lat="45.63666" lon="5.98954">
        <ele>1287.4000244141</ele>
        <time>2014-02-15T12:37:57.000Z</time>
      </trkpt>
      <trkpt lat="45.63656" lon="5.98951">
        <ele>1287.4000244141</ele>
        <time>2014-02-15T12:38:02.000Z</time>
      </trkpt>
      <trkpt lat="45.63649" lon="5.98948">
        <ele>1287.5999755859</ele>
        <time>2014-02-15T12:38:06.000Z</time>
      </trkpt>
      <trkpt lat="45.63646" lon="5.98947">
        <ele>1287.5999755859</ele>
        <time>2014-02-15T12:38:08.000Z</time>
      </trkpt>
      <trkpt lat="45.63636" lon="5.98942">
        <ele>1287.5999755859</ele>
        <time>2014-02-15T12:38:18.000Z</time>
      </trkpt>
      <trkpt lat="45.63623" lon="5.9893">
        <ele>1287.5999755859</ele>
        <time>2014-02-15T12:38:23.000Z</time>
      </trkpt>
      <trkpt lat="45.63618" lon="5.98924">
        <ele>1287.5999755859</ele>
        <time>2014-02-15T12:38:26.000Z</time>
      </trkpt>
      <trkpt lat="45.63617" lon="5.9892">
        <ele>1287.5999755859</ele>
        <time>2014-02-15T12:38:33.000Z</time>
      </trkpt>
      <trkpt lat="45.63616" lon="5.989">
        <ele>1287.5999755859</ele>
        <time>2014-02-15T12:38:40.000Z</time>
      </trkpt>
      <trkpt lat="45.63616" lon="5.98889">
        <ele>1287.8000488281</ele>
        <time>2014-02-15T12:38:43.000Z</time>
      </trkpt>
      <trkpt lat="45.63618" lon="5.98877">
        <ele>1287.8000488281</ele>
        <time>2014-02-15T12:38:46.000Z</time>
      </trkpt>
      <trkpt lat="45.63621" lon="5.98853">
        <ele>1287.8000488281</ele>
        <time>2014-02-15T12:38:52.000Z</time>
      </trkpt>
      <trkpt lat="45.63623" lon="5.98831">
        <ele>1288</ele>
        <time>2014-02-15T12:38:57.000Z</time>
      </trkpt>
      <trkpt lat="45.63624" lon="5.98812">
        <ele>1288</ele>
        <time>2014-02-15T12:39:02.000Z</time>
      </trkpt>
      <trkpt lat="45.63623" lon="5.98797">
        <ele>1288</ele>
        <time>2014-02-15T12:39:06.000Z</time>
      </trkpt>
      <trkpt lat="45.63622" lon="5.98779">
        <ele>1288</ele>
        <time>2014-02-15T12:39:10.000Z</time>
      </trkpt>
      <trkpt lat="45.63623" lon="5.98762">
        <ele>1288</ele>
        <time>2014-02-15T12:39:14.000Z</time>
      </trkpt>
      <trkpt lat="45.63623" lon="5.98746">
        <ele>1288</ele>
        <time>2014-02-15T12:39:18.000Z</time>
      </trkpt>
      <trkpt lat="45.63621" lon="5.9873">
        <ele>1288</ele>
        <time>2014-02-15T12:39:23.000Z</time>
      </trkpt>
      <trkpt lat="45.63616" lon="5.98718">
        <ele>1287.8000488281</ele>
        <time>2014-02-15T12:39:28.000Z</time>
      </trkpt>
      <trkpt lat="45.63612" lon="5.98707">
        <ele>1287.8000488281</ele>
        <time>2014-02-15T12:39:34.000Z</time>
      </trkpt>
      <trkpt lat="45.63607" lon="5.98694">
        <ele>1287.5999755859</ele>
        <time>2014-02-15T12:39:39.000Z</time>
      </trkpt>
      <trkpt lat="45.63606" lon="5.98679">
        <ele>1287.8000488281</ele>
        <time>2014-02-15T12:39:44.000Z</time>
      </trkpt>
      <trkpt lat="45.63612" lon="5.98665">
        <ele>1288</ele>
        <time>2014-02-15T12:39:49.000Z</time>
      </trkpt>
      <trkpt lat="45.63614" lon="5.98654">
        <ele>1288.1999511719</ele>
        <time>2014-02-15T12:39:52.000Z</time>
      </trkpt>
      <trkpt lat="45.6361" lon="5.98632">
        <ele>1288</ele>
        <time>2014-02-15T12:39:58.000Z</time>
      </trkpt>
      <trkpt lat="45.63605" lon="5.98621">
        <ele>1288</ele>
        <time>2014-02-15T12:40:02.000Z</time>
      </trkpt>
      <trkpt lat="45.63599" lon="5.98608">
        <ele>1287.5999755859</ele>
        <time>2014-02-15T12:40:07.000Z</time>
      </trkpt>
      <trkpt lat="45.63598" lon="5.98606">
        <ele>1287.5999755859</ele>
        <time>2014-02-15T12:40:08.000Z</time>
      </trkpt>
      <trkpt lat="45.63591" lon="5.98595">
        <ele>1287.4000244141</ele>
        <time>2014-02-15T12:40:13.000Z</time>
      </trkpt>
      <trkpt lat="45.63584" lon="5.98581">
        <ele>1287.1999511719</ele>
        <time>2014-02-15T12:40:19.000Z</time>
      </trkpt>
      <trkpt lat="45.63576" lon="5.98568">
        <ele>1288.5999755859</ele>
        <time>2014-02-15T12:40:25.000Z</time>
      </trkpt>
      <trkpt lat="45.63571" lon="5.98561">
        <ele>1289.4000244141</ele>
        <time>2014-02-15T12:40:30.000Z</time>
      </trkpt>
      <trkpt lat="45.63565" lon="5.98551">
        <ele>1290.4000244141</ele>
        <time>2014-02-15T12:40:36.000Z</time>
      </trkpt>
      <trkpt lat="45.63563" lon="5.98546">
        <ele>1290.5999755859</ele>
        <time>2014-02-15T12:40:38.000Z</time>
      </trkpt>
      <trkpt lat="45.63554" lon="5.98535">
        <ele>1291.5999755859</ele>
        <time>2014-02-15T12:40:44.000Z</time>
      </trkpt>
      <trkpt lat="45.6355" lon="5.98527">
        <ele>1292</ele>
        <time>2014-02-15T12:40:49.000Z</time>
      </trkpt>
      <trkpt lat="45.6355" lon="5.98527">
        <ele>1292</ele>
        <time>2014-02-15T12:40:54.000Z</time>
      </trkpt>
      <trkpt lat="45.63548" lon="5.98523">
        <ele>1292.4000244141</ele>
        <time>2014-02-15T12:41:05.000Z</time>
      </trkpt>
      <trkpt lat="45.63544" lon="5.98511">
        <ele>1293</ele>
        <time>2014-02-15T12:41:11.000Z</time>
      </trkpt>
      <trkpt lat="45.63543" lon="5.9851">
        <ele>1293</ele>
        <time>2014-02-15T12:41:12.000Z</time>
      </trkpt>
      <trkpt lat="45.63539" lon="5.98499">
        <ele>1293.5999755859</ele>
        <time>2014-02-15T12:41:18.000Z</time>
      </trkpt>
      <trkpt lat="45.63537" lon="5.9849">
        <ele>1293.8000488281</ele>
        <time>2014-02-15T12:41:22.000Z</time>
      </trkpt>
      <trkpt lat="45.63535" lon="5.98484">
        <ele>1293.8000488281</ele>
        <time>2014-02-15T12:41:24.000Z</time>
      </trkpt>
      <trkpt lat="45.63533" lon="5.98475">
        <ele>1294</ele>
        <time>2014-02-15T12:41:28.000Z</time>
      </trkpt>
      <trkpt lat="45.6353" lon="5.9846">
        <ele>1294.4000244141</ele>
        <time>2014-02-15T12:41:34.000Z</time>
      </trkpt>
      <trkpt lat="45.63525" lon="5.98443">
        <ele>1294.5999755859</ele>
        <time>2014-02-15T12:41:40.000Z</time>
      </trkpt>
      <trkpt lat="45.63522" lon="5.98429">
        <ele>1294.8000488281</ele>
        <time>2014-02-15T12:41:45.000Z</time>
      </trkpt>
      <trkpt lat="45.63515" lon="5.98413">
        <ele>1294.8000488281</ele>
        <time>2014-02-15T12:41:51.000Z</time>
      </trkpt>
      <trkpt lat="45.63509" lon="5.984">
        <ele>1294.5999755859</ele>
        <time>2014-02-15T12:41:55.000Z</time>
      </trkpt>
      <trkpt lat="45.63502" lon="5.98388">
        <ele>1294.4000244141</ele>
        <time>2014-02-15T12:42:00.000Z</time>
      </trkpt>
      <trkpt lat="45.63497" lon="5.98378">
        <ele>1294.4000244141</ele>
        <time>2014-02-15T12:42:04.000Z</time>
      </trkpt>
      <trkpt lat="45.63491" lon="5.9836">
        <ele>1294.5999755859</ele>
        <time>2014-02-15T12:42:10.000Z</time>
      </trkpt>
      <trkpt lat="45.63489" lon="5.98338">
        <ele>1294.8000488281</ele>
        <time>2014-02-15T12:42:16.000Z</time>
      </trkpt>
      <trkpt lat="45.63491" lon="5.98322">
        <ele>1294.8000488281</ele>
        <time>2014-02-15T12:42:21.000Z</time>
      </trkpt>
      <trkpt lat="45.63497" lon="5.98307">
        <ele>1295</ele>
        <time>2014-02-15T12:42:26.000Z</time>
      </trkpt>
      <trkpt lat="45.63508" lon="5.98295">
        <ele>1295.4000244141</ele>
        <time>2014-02-15T12:42:30.000Z</time>
      </trkpt>
      <trkpt lat="45.63521" lon="5.98288">
        <ele>1296.1999511719</ele>
        <time>2014-02-15T12:42:35.000Z</time>
      </trkpt>
      <trkpt lat="45.63535" lon="5.98287">
        <ele>1297.1999511719</ele>
        <time>2014-02-15T12:42:40.000Z</time>
      </trkpt>
      <trkpt lat="45.6354" lon="5.98288">
        <ele>1297.4000244141</ele>
        <time>2014-02-15T12:42:42.000Z</time>
      </trkpt>
      <trkpt lat="45.63547" lon="5.98294">
        <ele>1297.8000488281</ele>
        <time>2014-02-15T12:42:46.000Z</time>
      </trkpt>
      <trkpt lat="45.63553" lon="5.98304">
        <ele>1298</ele>
        <time>2014-02-15T12:42:50.000Z</time>
      </trkpt>
      <trkpt lat="45.6356" lon="5.98319">
        <ele>1298.1999511719</ele>
        <time>2014-02-15T12:42:55.000Z</time>
      </trkpt>
      <trkpt lat="45.6357" lon="5.98336">
        <ele>1298.4000244141</ele>
        <time>2014-02-15T12:43:01.000Z</time>
      </trkpt>
      <trkpt lat="45.63578" lon="5.98339">
        <ele>1298.5999755859</ele>
        <time>2014-02-15T12:43:04.000Z</time>
      </trkpt>
      <trkpt lat="45.63586" lon="5.9834">
        <ele>1299</ele>
        <time>2014-02-15T12:43:07.000Z</time>
      </trkpt>
      <trkpt lat="45.63601" lon="5.9835">
        <ele>1299.1999511719</ele>
        <time>2014-02-15T12:43:12.000Z</time>
      </trkpt>
      <trkpt lat="45.63615" lon="5.9836">
        <ele>1299.4000244141</ele>
        <time>2014-02-15T12:43:16.000Z</time>
      </trkpt>
      <trkpt lat="45.63619" lon="5.98361">
        <ele>1299.4000244141</ele>
        <time>2014-02-15T12:43:17.000Z</time>
      </trkpt>
      <trkpt lat="45.63633" lon="5.98364">
        <ele>1299.5999755859</ele>
        <time>2014-02-15T12:43:22.000Z</time>
      </trkpt>
      <trkpt lat="45.63643" lon="5.98366">
        <ele>1299.5999755859</ele>
        <time>2014-02-15T12:43:26.000Z</time>
      </trkpt>
      <trkpt lat="45.63652" lon="5.98374">
        <ele>1299.4000244141</ele>
        <time>2014-02-15T12:43:30.000Z</time>
      </trkpt>
      <trkpt lat="45.63662" lon="5.98384">
        <ele>1299</ele>
        <time>2014-02-15T12:43:34.000Z</time>
      </trkpt>
      <trkpt lat="45.63674" lon="5.984">
        <ele>1298.1999511719</ele>
        <time>2014-02-15T12:43:39.000Z</time>
      </trkpt>
      <trkpt lat="45.63681" lon="5.98414">
        <ele>1297.8000488281</ele>
        <time>2014-02-15T12:43:43.000Z</time>
      </trkpt>
      <trkpt lat="45.63691" lon="5.98425">
        <ele>1297.8000488281</ele>
        <time>2014-02-15T12:43:47.000Z</time>
      </trkpt>
      <trkpt lat="45.63698" lon="5.98437">
        <ele>1297.4000244141</ele>
        <time>2014-02-15T12:43:51.000Z</time>
      </trkpt>
      <trkpt lat="45.63703" lon="5.98444">
        <ele>1297.4000244141</ele>
        <time>2014-02-15T12:43:53.000Z</time>
      </trkpt>
      <trkpt lat="45.63709" lon="5.98456">
        <ele>1297</ele>
        <time>2014-02-15T12:43:58.000Z</time>
      </trkpt>
      <trkpt lat="45.6372" lon="5.98463">
        <ele>1296.8000488281</ele>
        <time>2014-02-15T12:44:05.000Z</time>
      </trkpt>
      <trkpt lat="45.6373" lon="5.98461">
        <ele>1297.1999511719</ele>
        <time>2014-02-15T12:44:10.000Z</time>
      </trkpt>
      <trkpt lat="45.63734" lon="5.98458">
        <ele>1297.5999755859</ele>
        <time>2014-02-15T12:44:13.000Z</time>
      </trkpt>
      <trkpt lat="45.63742" lon="5.98448">
        <ele>1298.4000244141</ele>
        <time>2014-02-15T12:44:19.000Z</time>
      </trkpt>
      <trkpt lat="45.63747" lon="5.98439">
        <ele>1299.1999511719</ele>
        <time>2014-02-15T12:44:24.000Z</time>
      </trkpt>
      <trkpt lat="45.63755" lon="5.98427">
        <ele>1300.1999511719</ele>
        <time>2014-02-15T12:44:30.000Z</time>
      </trkpt>
      <trkpt lat="45.63761" lon="5.98415">
        <ele>1301</ele>
        <time>2014-02-15T12:44:35.000Z</time>
      </trkpt>
      <trkpt lat="45.63764" lon="5.98407">
        <ele>1301.1999511719</ele>
        <time>2014-02-15T12:44:38.000Z</time>
      </trkpt>
      <trkpt lat="45.6377" lon="5.98394">
        <ele>1301.8000488281</ele>
        <time>2014-02-15T12:44:43.000Z</time>
      </trkpt>
      <trkpt lat="45.63772" lon="5.98388">
        <ele>1302</ele>
        <time>2014-02-15T12:44:45.000Z</time>
      </trkpt>
      <trkpt lat="45.63777" lon="5.98371">
        <ele>1302.5999755859</ele>
        <time>2014-02-15T12:44:51.000Z</time>
      </trkpt>
      <trkpt lat="45.63778" lon="5.98356">
        <ele>1303.4000244141</ele>
        <time>2014-02-15T12:44:56.000Z</time>
      </trkpt>
      <trkpt lat="45.63778" lon="5.98344">
        <ele>1303.8000488281</ele>
        <time>2014-02-15T12:45:00.000Z</time>
      </trkpt>
      <trkpt lat="45.63778" lon="5.98332">
        <ele>1304.4000244141</ele>
        <time>2014-02-15T12:45:04.000Z</time>
      </trkpt>
      <trkpt lat="45.63775" lon="5.98318">
        <ele>1304.5999755859</ele>
        <time>2014-02-15T12:45:09.000Z</time>
      </trkpt>
      <trkpt lat="45.6377" lon="5.98303">
        <ele>1304.5999755859</ele>
        <time>2014-02-15T12:45:15.000Z</time>
      </trkpt>
      <trkpt lat="45.63762" lon="5.98297">
        <ele>1304.5999755859</ele>
        <time>2014-02-15T12:45:20.000Z</time>
      </trkpt>
      <trkpt lat="45.63751" lon="5.98294">
        <ele>1304.4000244141</ele>
        <time>2014-02-15T12:45:25.000Z</time>
      </trkpt>
      <trkpt lat="45.6374" lon="5.98291">
        <ele>1304.4000244141</ele>
        <time>2014-02-15T12:45:30.000Z</time>
      </trkpt>
      <trkpt lat="45.63729" lon="5.9829">
        <ele>1304.4000244141</ele>
        <time>2014-02-15T12:45:35.000Z</time>
      </trkpt>
      <trkpt lat="45.63718" lon="5.98289">
        <ele>1304.4000244141</ele>
        <time>2014-02-15T12:45:39.000Z</time>
      </trkpt>
      <trkpt lat="45.63715" lon="5.9829">
        <ele>1304.4000244141</ele>
        <time>2014-02-15T12:45:40.000Z</time>
      </trkpt>
      <trkpt lat="45.637" lon="5.98288">
        <ele>1304.4000244141</ele>
        <time>2014-02-15T12:45:45.000Z</time>
      </trkpt>
      <trkpt lat="45.63694" lon="5.98287">
        <ele>1304.4000244141</ele>
        <time>2014-02-15T12:45:47.000Z</time>
      </trkpt>
      <trkpt lat="45.63681" lon="5.98281">
        <ele>1304.5999755859</ele>
        <time>2014-02-15T12:45:52.000Z</time>
      </trkpt>
      <trkpt lat="45.63675" lon="5.98275">
        <ele>1304.8000488281</ele>
        <time>2014-02-15T12:45:55.000Z</time>
      </trkpt>
      <trkpt lat="45.63668" lon="5.98262">
        <ele>1305.4000244141</ele>
        <time>2014-02-15T12:45:59.000Z</time>
      </trkpt>
      <trkpt lat="45.63666" lon="5.98256">
        <ele>1305.5999755859</ele>
        <time>2014-02-15T12:46:01.000Z</time>
      </trkpt>
      <trkpt lat="45.63659" lon="5.98238">
        <ele>1305.5999755859</ele>
        <time>2014-02-15T12:46:07.000Z</time>
      </trkpt>
      <trkpt lat="45.63656" lon="5.98226">
        <ele>1305.4000244141</ele>
        <time>2014-02-15T12:46:11.000Z</time>
      </trkpt>
      <trkpt lat="45.63656" lon="5.98223">
        <ele>1305.4000244141</ele>
        <time>2014-02-15T12:46:12.000Z</time>
      </trkpt>
      <trkpt lat="45.63655" lon="5.98206">
        <ele>1305.4000244141</ele>
        <time>2014-02-15T12:46:18.000Z</time>
      </trkpt>
      <trkpt lat="45.63658" lon="5.98192">
        <ele>1305.4000244141</ele>
        <time>2014-02-15T12:46:23.000Z</time>
      </trkpt>
      <trkpt lat="45.63659" lon="5.98188">
        <ele>1305.5999755859</ele>
        <time>2014-02-15T12:46:25.000Z</time>
      </trkpt>
      <trkpt lat="45.63665" lon="5.98177">
        <ele>1305.8000488281</ele>
        <time>2014-02-15T12:46:30.000Z</time>
      </trkpt>
      <trkpt lat="45.63669" lon="5.98174">
        <ele>1306</ele>
        <time>2014-02-15T12:46:32.000Z</time>
      </trkpt>
      <trkpt lat="45.63682" lon="5.98171">
        <ele>1306</ele>
        <time>2014-02-15T12:46:38.000Z</time>
      </trkpt>
      <trkpt lat="45.63693" lon="5.98168">
        <ele>1306</ele>
        <time>2014-02-15T12:46:44.000Z</time>
      </trkpt>
      <trkpt lat="45.63704" lon="5.98164">
        <ele>1306</ele>
        <time>2014-02-15T12:46:49.000Z</time>
      </trkpt>
      <trkpt lat="45.63711" lon="5.98163">
        <ele>1306</ele>
        <time>2014-02-15T12:46:52.000Z</time>
      </trkpt>
      <trkpt lat="45.63723" lon="5.98158">
        <ele>1306.1999511719</ele>
        <time>2014-02-15T12:46:58.000Z</time>
      </trkpt>
      <trkpt lat="45.63733" lon="5.98152">
        <ele>1306.4000244141</ele>
        <time>2014-02-15T12:47:03.000Z</time>
      </trkpt>
      <trkpt lat="45.63741" lon="5.98146">
        <ele>1306.4000244141</ele>
        <time>2014-02-15T12:47:07.000Z</time>
      </trkpt>
      <trkpt lat="45.63751" lon="5.98136">
        <ele>1306.8000488281</ele>
        <time>2014-02-15T12:47:12.000Z</time>
      </trkpt>
      <trkpt lat="45.63757" lon="5.98125">
        <ele>1307</ele>
        <time>2014-02-15T12:47:17.000Z</time>
      </trkpt>
      <trkpt lat="45.63761" lon="5.98113">
        <ele>1307.1999511719</ele>
        <time>2014-02-15T12:47:21.000Z</time>
      </trkpt>
      <trkpt lat="45.63765" lon="5.98095">
        <ele>1307.5999755859</ele>
        <time>2014-02-15T12:47:25.000Z</time>
      </trkpt>
      <trkpt lat="45.63769" lon="5.98082">
        <ele>1307.8000488281</ele>
        <time>2014-02-15T12:47:29.000Z</time>
      </trkpt>
      <trkpt lat="45.63772" lon="5.98077">
        <ele>1308</ele>
        <time>2014-02-15T12:47:31.000Z</time>
      </trkpt>
      <trkpt lat="45.63776" lon="5.98067">
        <ele>1308.1999511719</ele>
        <time>2014-02-15T12:47:36.000Z</time>
      </trkpt>
      <trkpt lat="45.63778" lon="5.98062">
        <ele>1308.1999511719</ele>
        <time>2014-02-15T12:47:38.000Z</time>
      </trkpt>
      <trkpt lat="45.63785" lon="5.98048">
        <ele>1308.5999755859</ele>
        <time>2014-02-15T12:47:43.000Z</time>
      </trkpt>
      <trkpt lat="45.6379" lon="5.98035">
        <ele>1309</ele>
        <time>2014-02-15T12:47:47.000Z</time>
      </trkpt>
      <trkpt lat="45.63795" lon="5.98017">
        <ele>1309.4000244141</ele>
        <time>2014-02-15T12:47:52.000Z</time>
      </trkpt>
      <trkpt lat="45.63799" lon="5.98004">
        <ele>1309.8000488281</ele>
        <time>2014-02-15T12:47:56.000Z</time>
      </trkpt>
      <trkpt lat="45.63801" lon="5.98001">
        <ele>1310</ele>
        <time>2014-02-15T12:47:57.000Z</time>
      </trkpt>
      <trkpt lat="45.6381" lon="5.97993">
        <ele>1310.5999755859</ele>
        <time>2014-02-15T12:48:02.000Z</time>
      </trkpt>
      <trkpt lat="45.63815" lon="5.97991">
        <ele>1310.5999755859</ele>
        <time>2014-02-15T12:48:04.000Z</time>
      </trkpt>
      <trkpt lat="45.6383" lon="5.97993">
        <ele>1310.4000244141</ele>
        <time>2014-02-15T12:48:10.000Z</time>
      </trkpt>
      <trkpt lat="45.63841" lon="5.97995">
        <ele>1311.1999511719</ele>
        <time>2014-02-15T12:48:14.000Z</time>
      </trkpt>
      <trkpt lat="45.6385" lon="5.97995">
        <ele>1312.1999511719</ele>
        <time>2014-02-15T12:48:17.000Z</time>
      </trkpt>
      <trkpt lat="45.63859" lon="5.97999">
        <ele>1312.8000488281</ele>
        <time>2014-02-15T12:48:21.000Z</time>
      </trkpt>
      <trkpt lat="45.63865" lon="5.98005">
        <ele>1313.1999511719</ele>
        <time>2014-02-15T12:48:25.000Z</time>
      </trkpt>
      <trkpt lat="45.63866" lon="5.98006">
        <ele>1313.1999511719</ele>
        <time>2014-02-15T12:48:26.000Z</time>
      </trkpt>
      <trkpt lat="45.63871" lon="5.98012">
        <ele>1313.4000244141</ele>
        <time>2014-02-15T12:48:30.000Z</time>
      </trkpt>
      <trkpt lat="45.63876" lon="5.9802">
        <ele>1313.5999755859</ele>
        <time>2014-02-15T12:48:34.000Z</time>
      </trkpt>
      <trkpt lat="45.63878" lon="5.98022">
        <ele>1313.5999755859</ele>
        <time>2014-02-15T12:48:35.000Z</time>
      </trkpt>
      <trkpt lat="45.63887" lon="5.98034">
        <ele>1313.8000488281</ele>
        <time>2014-02-15T12:48:41.000Z</time>
      </trkpt>
      <trkpt lat="45.63892" lon="5.98042">
        <ele>1313.8000488281</ele>
        <time>2014-02-15T12:48:44.000Z</time>
      </trkpt>
      <trkpt lat="45.63901" lon="5.98051">
        <ele>1314</ele>
        <time>2014-02-15T12:48:48.000Z</time>
      </trkpt>
      <trkpt lat="45.63912" lon="5.98065">
        <ele>1314</ele>
        <time>2014-02-15T12:48:54.000Z</time>
      </trkpt>
      <trkpt lat="45.63927" lon="5.98079">
        <ele>1313.5999755859</ele>
        <time>2014-02-15T12:49:00.000Z</time>
      </trkpt>
      <trkpt lat="45.63939" lon="5.98088">
        <ele>1313.1999511719</ele>
        <time>2014-02-15T12:49:04.000Z</time>
      </trkpt>
      <trkpt lat="45.63948" lon="5.98096">
        <ele>1312.8000488281</ele>
        <time>2014-02-15T12:49:09.000Z</time>
      </trkpt>
      <trkpt lat="45.63959" lon="5.98101">
        <ele>1312.5999755859</ele>
        <time>2014-02-15T12:49:14.000Z</time>
      </trkpt>
      <trkpt lat="45.63973" lon="5.98102">
        <ele>1312.8000488281</ele>
        <time>2014-02-15T12:49:19.000Z</time>
      </trkpt>
      <trkpt lat="45.63987" lon="5.98104">
        <ele>1313</ele>
        <time>2014-02-15T12:49:25.000Z</time>
      </trkpt>
      <trkpt lat="45.63994" lon="5.98102">
        <ele>1313.1999511719</ele>
        <time>2014-02-15T12:49:29.000Z</time>
      </trkpt>
      <trkpt lat="45.63996" lon="5.98106">
        <ele>1313</ele>
        <time>2014-02-15T12:49:35.000Z</time>
      </trkpt>
      <trkpt lat="45.64004" lon="5.9813">
        <ele>1311.4000244141</ele>
        <time>2014-02-15T12:49:42.000Z</time>
      </trkpt>
      <trkpt lat="45.64011" lon="5.98165">
        <ele>1308.5999755859</ele>
        <time>2014-02-15T12:49:48.000Z</time>
      </trkpt>
      <trkpt lat="45.64018" lon="5.98192">
        <ele>1306.4000244141</ele>
        <time>2014-02-15T12:49:54.000Z</time>
      </trkpt>
      <trkpt lat="45.64029" lon="5.98224">
        <ele>1303.8000488281</ele>
        <time>2014-02-15T12:50:03.000Z</time>
      </trkpt>
      <trkpt lat="45.6404" lon="5.98247">
        <ele>1301.4000244141</ele>
        <time>2014-02-15T12:50:11.000Z</time>
      </trkpt>
      <trkpt lat="45.6405" lon="5.98274">
        <ele>1299.8000488281</ele>
        <time>2014-02-15T12:50:17.000Z</time>
      </trkpt>
      <trkpt lat="45.64066" lon="5.98304">
        <ele>1298.4000244141</ele>
        <time>2014-02-15T12:50:22.000Z</time>
      </trkpt>
      <trkpt lat="45.64086" lon="5.98321">
        <ele>1297.4000244141</ele>
        <time>2014-02-15T12:50:28.000Z</time>
      </trkpt>
      <trkpt lat="45.64089" lon="5.98324">
        <ele>1297.5999755859</ele>
        <time>2014-02-15T12:50:29.000Z</time>
      </trkpt>
      <trkpt lat="45.64103" lon="5.98329">
        <ele>1297.5999755859</ele>
        <time>2014-02-15T12:50:33.000Z</time>
      </trkpt>
      <trkpt lat="45.64116" lon="5.98334">
        <ele>1297.8000488281</ele>
        <time>2014-02-15T12:50:37.000Z</time>
      </trkpt>
      <trkpt lat="45.64125" lon="5.98349">
        <ele>1297.8000488281</ele>
        <time>2014-02-15T12:50:42.000Z</time>
      </trkpt>
      <trkpt lat="45.64126" lon="5.98357">
        <ele>1297.8000488281</ele>
        <time>2014-02-15T12:50:46.000Z</time>
      </trkpt>
      <trkpt lat="45.64128" lon="5.98361">
        <ele>1297.8000488281</ele>
        <time>2014-02-15T12:50:52.000Z</time>
      </trkpt>
      <trkpt lat="45.64128" lon="5.98363">
        <ele>1297.8000488281</ele>
        <time>2014-02-15T12:50:59.000Z</time>
      </trkpt>
      <trkpt lat="45.6413" lon="5.98366">
        <ele>1297.8000488281</ele>
        <time>2014-02-15T12:51:07.000Z</time>
      </trkpt>
      <trkpt lat="45.64135" lon="5.98373">
        <ele>1298</ele>
        <time>2014-02-15T12:51:14.000Z</time>
      </trkpt>
      <trkpt lat="45.64135" lon="5.98373">
        <ele>1298</ele>
        <time>2014-02-15T12:51:20.000Z</time>
      </trkpt>
      <trkpt lat="45.64136" lon="5.98375">
        <ele>1298</ele>
        <time>2014-02-15T12:51:26.000Z</time>
      </trkpt>
      <trkpt lat="45.64139" lon="5.98384">
        <ele>1298.1999511719</ele>
        <time>2014-02-15T12:51:29.000Z</time>
      </trkpt>
      <trkpt lat="45.64142" lon="5.98397">
        <ele>1298.1999511719</ele>
        <time>2014-02-15T12:51:32.000Z</time>
      </trkpt>
      <trkpt lat="45.64142" lon="5.98416">
        <ele>1298.1999511719</ele>
        <time>2014-02-15T12:51:37.000Z</time>
      </trkpt>
      <trkpt lat="45.64141" lon="5.98428">
        <ele>1298</ele>
        <time>2014-02-15T12:51:41.000Z</time>
      </trkpt>
      <trkpt lat="45.64142" lon="5.98447">
        <ele>1298</ele>
        <time>2014-02-15T12:51:46.000Z</time>
      </trkpt>
      <trkpt lat="45.64142" lon="5.98451">
        <ele>1298</ele>
        <time>2014-02-15T12:51:47.000Z</time>
      </trkpt>
      <trkpt lat="45.64144" lon="5.98459">
        <ele>1298</ele>
        <time>2014-02-15T12:51:49.000Z</time>
      </trkpt>
      <trkpt lat="45.6415" lon="5.98475">
        <ele>1298.1999511719</ele>
        <time>2014-02-15T12:51:55.000Z</time>
      </trkpt>
      <trkpt lat="45.64155" lon="5.98483">
        <ele>1298.4000244141</ele>
        <time>2014-02-15T12:52:00.000Z</time>
      </trkpt>
      <trkpt lat="45.64162" lon="5.98492">
        <ele>1298.8000488281</ele>
        <time>2014-02-15T12:52:05.000Z</time>
      </trkpt>
      <trkpt lat="45.6417" lon="5.98498">
        <ele>1299.1999511719</ele>
        <time>2014-02-15T12:52:09.000Z</time>
      </trkpt>
      <trkpt lat="45.64175" lon="5.98501">
        <ele>1299.4000244141</ele>
        <time>2014-02-15T12:52:11.000Z</time>
      </trkpt>
      <trkpt lat="45.64187" lon="5.9851">
        <ele>1300</ele>
        <time>2014-02-15T12:52:18.000Z</time>
      </trkpt>
      <trkpt lat="45.64193" lon="5.98513">
        <ele>1300.4000244141</ele>
        <time>2014-02-15T12:52:21.000Z</time>
      </trkpt>
      <trkpt lat="45.64204" lon="5.98521">
        <ele>1300.8000488281</ele>
        <time>2014-02-15T12:52:25.000Z</time>
      </trkpt>
      <trkpt lat="45.64212" lon="5.98532">
        <ele>1301.1999511719</ele>
        <time>2014-02-15T12:52:30.000Z</time>
      </trkpt>
      <trkpt lat="45.6422" lon="5.98539">
        <ele>1301.4000244141</ele>
        <time>2014-02-15T12:52:34.000Z</time>
      </trkpt>
      <trkpt lat="45.64226" lon="5.98548">
        <ele>1301.5999755859</ele>
        <time>2014-02-15T12:52:39.000Z</time>
      </trkpt>
      <trkpt lat="45.64233" lon="5.98555">
        <ele>1301.8000488281</ele>
        <time>2014-02-15T12:52:43.000Z</time>
      </trkpt>
      <trkpt lat="45.64237" lon="5.9856">
        <ele>1301.8000488281</ele>
        <time>2014-02-15T12:52:46.000Z</time>
      </trkpt>
      <trkpt lat="45.64241" lon="5.98566">
        <ele>1302</ele>
        <time>2014-02-15T12:52:49.000Z</time>
      </trkpt>
      <trkpt lat="45.64246" lon="5.98573">
        <ele>1302</ele>
        <time>2014-02-15T12:52:53.000Z</time>
      </trkpt>
      <trkpt lat="45.64251" lon="5.98581">
        <ele>1302</ele>
        <time>2014-02-15T12:52:57.000Z</time>
      </trkpt>
      <trkpt lat="45.64252" lon="5.98585">
        <ele>1302.1999511719</ele>
        <time>2014-02-15T12:52:59.000Z</time>
      </trkpt>
      <trkpt lat="45.64256" lon="5.98594">
        <ele>1302.5999755859</ele>
        <time>2014-02-15T12:53:03.000Z</time>
      </trkpt>
      <trkpt lat="45.64263" lon="5.98607">
        <ele>1303</ele>
        <time>2014-02-15T12:53:08.000Z</time>
      </trkpt>
      <trkpt lat="45.64269" lon="5.98617">
        <ele>1303.1999511719</ele>
        <time>2014-02-15T12:53:12.000Z</time>
      </trkpt>
      <trkpt lat="45.64275" lon="5.98628">
        <ele>1303.4000244141</ele>
        <time>2014-02-15T12:53:17.000Z</time>
      </trkpt>
      <trkpt lat="45.6428" lon="5.98638">
        <ele>1303.4000244141</ele>
        <time>2014-02-15T12:53:22.000Z</time>
      </trkpt>
      <trkpt lat="45.6429" lon="5.98654">
        <ele>1303.4000244141</ele>
        <time>2014-02-15T12:53:31.000Z</time>
      </trkpt>
      <trkpt lat="45.64292" lon="5.98656">
        <ele>1303.4000244141</ele>
        <time>2014-02-15T12:53:37.000Z</time>
      </trkpt>
      <trkpt lat="45.64294" lon="5.98657">
        <ele>1303.4000244141</ele>
        <time>2014-02-15T12:53:45.000Z</time>
      </trkpt>
      <trkpt lat="45.64295" lon="5.98659">
        <ele>1303.4000244141</ele>
        <time>2014-02-15T12:53:46.000Z</time>
      </trkpt>
      <trkpt lat="45.64298" lon="5.98666">
        <ele>1303.1999511719</ele>
        <time>2014-02-15T12:53:54.000Z</time>
      </trkpt>
      <trkpt lat="45.64298" lon="5.98666">
        <ele>1303.1999511719</ele>
        <time>2014-02-15T12:54:03.000Z</time>
      </trkpt>
      <trkpt lat="45.64299" lon="5.98667">
        <ele>1303.1999511719</ele>
        <time>2014-02-15T12:54:07.000Z</time>
      </trkpt>
      <trkpt lat="45.64311" lon="5.98677">
        <ele>1303.4000244141</ele>
        <time>2014-02-15T12:54:13.000Z</time>
      </trkpt>
      <trkpt lat="45.64321" lon="5.98676">
        <ele>1303.8000488281</ele>
        <time>2014-02-15T12:54:17.000Z</time>
      </trkpt>
      <trkpt lat="45.64331" lon="5.98673">
        <ele>1304</ele>
        <time>2014-02-15T12:54:21.000Z</time>
      </trkpt>
      <trkpt lat="45.64339" lon="5.98668">
        <ele>1304.1999511719</ele>
        <time>2014-02-15T12:54:25.000Z</time>
      </trkpt>
      <trkpt lat="45.6435" lon="5.98662">
        <ele>1305</ele>
        <time>2014-02-15T12:54:30.000Z</time>
      </trkpt>
      <trkpt lat="45.64359" lon="5.98655">
        <ele>1305.8000488281</ele>
        <time>2014-02-15T12:54:34.000Z</time>
      </trkpt>
      <trkpt lat="45.64368" lon="5.98649">
        <ele>1306.5999755859</ele>
        <time>2014-02-15T12:54:38.000Z</time>
      </trkpt>
      <trkpt lat="45.64371" lon="5.98647">
        <ele>1306.8000488281</ele>
        <time>2014-02-15T12:54:39.000Z</time>
      </trkpt>
      <trkpt lat="45.64382" lon="5.9864">
        <ele>1307.5999755859</ele>
        <time>2014-02-15T12:54:44.000Z</time>
      </trkpt>
      <trkpt lat="45.64391" lon="5.98633">
        <ele>1308</ele>
        <time>2014-02-15T12:54:48.000Z</time>
      </trkpt>
      <trkpt lat="45.64403" lon="5.98625">
        <ele>1308.5999755859</ele>
        <time>2014-02-15T12:54:53.000Z</time>
      </trkpt>
      <trkpt lat="45.64412" lon="5.98619">
        <ele>1309</ele>
        <time>2014-02-15T12:54:57.000Z</time>
      </trkpt>
      <trkpt lat="45.64421" lon="5.98613">
        <ele>1309.1999511719</ele>
        <time>2014-02-15T12:55:01.000Z</time>
      </trkpt>
      <trkpt lat="45.6443" lon="5.98606">
        <ele>1309.4000244141</ele>
        <time>2014-02-15T12:55:05.000Z</time>
      </trkpt>
      <trkpt lat="45.64432" lon="5.98604">
        <ele>1309.4000244141</ele>
        <time>2014-02-15T12:55:06.000Z</time>
      </trkpt>
      <trkpt lat="45.64437" lon="5.986">
        <ele>1309.4000244141</ele>
        <time>2014-02-15T12:55:09.000Z</time>
      </trkpt>
      <trkpt lat="45.64444" lon="5.98596">
        <ele>1309.1999511719</ele>
        <time>2014-02-15T12:55:13.000Z</time>
      </trkpt>
      <trkpt lat="45.64453" lon="5.9859">
        <ele>1309.1999511719</ele>
        <time>2014-02-15T12:55:18.000Z</time>
      </trkpt>
      <trkpt lat="45.64459" lon="5.98588">
        <ele>1309</ele>
        <time>2014-02-15T12:55:21.000Z</time>
      </trkpt>
      <trkpt lat="45.64472" lon="5.98584">
        <ele>1308.5999755859</ele>
        <time>2014-02-15T12:55:27.000Z</time>
      </trkpt>
      <trkpt lat="45.6448" lon="5.98581">
        <ele>1308.5999755859</ele>
        <time>2014-02-15T12:55:31.000Z</time>
      </trkpt>
      <trkpt lat="45.64491" lon="5.98578">
        <ele>1308.4000244141</ele>
        <time>2014-02-15T12:55:36.000Z</time>
      </trkpt>
      <trkpt lat="45.64499" lon="5.98575">
        <ele>1308.4000244141</ele>
        <time>2014-02-15T12:55:39.000Z</time>
      </trkpt>
      <trkpt lat="45.64506" lon="5.98575">
        <ele>1308.5999755859</ele>
        <time>2014-02-15T12:55:42.000Z</time>
      </trkpt>
      <trkpt lat="45.64517" lon="5.98576">
        <ele>1309.1999511719</ele>
        <time>2014-02-15T12:55:47.000Z</time>
      </trkpt>
      <trkpt lat="45.64519" lon="5.98577">
        <ele>1309.1999511719</ele>
        <time>2014-02-15T12:55:48.000Z</time>
      </trkpt>
      <trkpt lat="45.64523" lon="5.98578">
        <ele>1309.4000244141</ele>
        <time>2014-02-15T12:55:51.000Z</time>
      </trkpt>
      <trkpt lat="45.64531" lon="5.9858">
        <ele>1309.5999755859</ele>
        <time>2014-02-15T12:55:55.000Z</time>
      </trkpt>
      <trkpt lat="45.64538" lon="5.98582">
        <ele>1309.8000488281</ele>
        <time>2014-02-15T12:55:59.000Z</time>
      </trkpt>
      <trkpt lat="45.64545" lon="5.98584">
        <ele>1310.1999511719</ele>
        <time>2014-02-15T12:56:03.000Z</time>
      </trkpt>
      <trkpt lat="45.64558" lon="5.98586">
        <ele>1310.8000488281</ele>
        <time>2014-02-15T12:56:09.000Z</time>
      </trkpt>
      <trkpt lat="45.64566" lon="5.98586">
        <ele>1311.4000244141</ele>
        <time>2014-02-15T12:56:13.000Z</time>
      </trkpt>
      <trkpt lat="45.64576" lon="5.98585">
        <ele>1311.8000488281</ele>
        <time>2014-02-15T12:56:17.000Z</time>
      </trkpt>
      <trkpt lat="45.64588" lon="5.98582">
        <ele>1312.4000244141</ele>
        <time>2014-02-15T12:56:23.000Z</time>
      </trkpt>
      <trkpt lat="45.64597" lon="5.98579">
        <ele>1312.8000488281</ele>
        <time>2014-02-15T12:56:28.000Z</time>
      </trkpt>
      <trkpt lat="45.64605" lon="5.98575">
        <ele>1313.4000244141</ele>
        <time>2014-02-15T12:56:33.000Z</time>
      </trkpt>
      <trkpt lat="45.64613" lon="5.9857">
        <ele>1314</ele>
        <time>2014-02-15T12:56:39.000Z</time>
      </trkpt>
      <trkpt lat="45.64618" lon="5.98565">
        <ele>1314.4000244141</ele>
        <time>2014-02-15T12:56:43.000Z</time>
      </trkpt>
      <trkpt lat="45.64626" lon="5.98559">
        <ele>1315.1999511719</ele>
        <time>2014-02-15T12:56:49.000Z</time>
      </trkpt>
      <trkpt lat="45.64635" lon="5.98551">
        <ele>1316</ele>
        <time>2014-02-15T12:56:54.000Z</time>
      </trkpt>
      <trkpt lat="45.6464" lon="5.98546">
        <ele>1316.4000244141</ele>
        <time>2014-02-15T12:56:57.000Z</time>
      </trkpt>
      <trkpt lat="45.64651" lon="5.98537">
        <ele>1317.5999755859</ele>
        <time>2014-02-15T12:57:04.000Z</time>
      </trkpt>
      <trkpt lat="45.64658" lon="5.98531">
        <ele>1318.1999511719</ele>
        <time>2014-02-15T12:57:09.000Z</time>
      </trkpt>
      <trkpt lat="45.64668" lon="5.98523">
        <ele>1319.1999511719</ele>
        <time>2014-02-15T12:57:15.000Z</time>
      </trkpt>
      <trkpt lat="45.64679" lon="5.98514">
        <ele>1320.1999511719</ele>
        <time>2014-02-15T12:57:21.000Z</time>
      </trkpt>
      <trkpt lat="45.64684" lon="5.9851">
        <ele>1320.5999755859</ele>
        <time>2014-02-15T12:57:24.000Z</time>
      </trkpt>
      <trkpt lat="45.64693" lon="5.98501">
        <ele>1321.5999755859</ele>
        <time>2014-02-15T12:57:30.000Z</time>
      </trkpt>
      <trkpt lat="45.64703" lon="5.98493">
        <ele>1322.5999755859</ele>
        <time>2014-02-15T12:57:36.000Z</time>
      </trkpt>
      <trkpt lat="45.64717" lon="5.9849">
        <ele>1323.8000488281</ele>
        <time>2014-02-15T12:57:43.000Z</time>
      </trkpt>
      <trkpt lat="45.64734" lon="5.98497">
        <ele>1324.1999511719</ele>
        <time>2014-02-15T12:57:49.000Z</time>
      </trkpt>
      <trkpt lat="45.64741" lon="5.985">
        <ele>1324.4000244141</ele>
        <time>2014-02-15T12:57:52.000Z</time>
      </trkpt>
      <trkpt lat="45.64745" lon="5.98511">
        <ele>1324.4000244141</ele>
        <time>2014-02-15T12:57:57.000Z</time>
      </trkpt>
      <trkpt lat="45.64754" lon="5.98524">
        <ele>1324.4000244141</ele>
        <time>2014-02-15T12:58:03.000Z</time>
      </trkpt>
      <trkpt lat="45.64762" lon="5.98539">
        <ele>1324.4000244141</ele>
        <time>2014-02-15T12:58:08.000Z</time>
      </trkpt>
      <trkpt lat="45.64767" lon="5.98552">
        <ele>1324</ele>
        <time>2014-02-15T12:58:12.000Z</time>
      </trkpt>
      <trkpt lat="45.64768" lon="5.98555">
        <ele>1324</ele>
        <time>2014-02-15T12:58:13.000Z</time>
      </trkpt>
      <trkpt lat="45.64772" lon="5.98569">
        <ele>1323.4000244141</ele>
        <time>2014-02-15T12:58:18.000Z</time>
      </trkpt>
      <trkpt lat="45.64772" lon="5.98571">
        <ele>1323.1999511719</ele>
        <time>2014-02-15T12:58:19.000Z</time>
      </trkpt>
      <trkpt lat="45.64772" lon="5.98577">
        <ele>1322.8000488281</ele>
        <time>2014-02-15T12:58:24.000Z</time>
      </trkpt>
      <trkpt lat="45.64773" lon="5.98579">
        <ele>1322.8000488281</ele>
        <time>2014-02-15T12:58:35.000Z</time>
      </trkpt>
      <trkpt lat="45.64774" lon="5.98583">
        <ele>1322.5999755859</ele>
        <time>2014-02-15T12:58:41.000Z</time>
      </trkpt>
      <trkpt lat="45.64776" lon="5.98598">
        <ele>1321.8000488281</ele>
        <time>2014-02-15T12:58:46.000Z</time>
      </trkpt>
      <trkpt lat="45.64777" lon="5.9861">
        <ele>1321</ele>
        <time>2014-02-15T12:58:49.000Z</time>
      </trkpt>
      <trkpt lat="45.64783" lon="5.98625">
        <ele>1320.1999511719</ele>
        <time>2014-02-15T12:58:54.000Z</time>
      </trkpt>
      <trkpt lat="45.64788" lon="5.98641">
        <ele>1319.1999511719</ele>
        <time>2014-02-15T12:58:58.000Z</time>
      </trkpt>
      <trkpt lat="45.64791" lon="5.9865">
        <ele>1318.5999755859</ele>
        <time>2014-02-15T12:59:00.000Z</time>
      </trkpt>
      <trkpt lat="45.64802" lon="5.98677">
        <ele>1317.5999755859</ele>
        <time>2014-02-15T12:59:05.000Z</time>
      </trkpt>
      <trkpt lat="45.64814" lon="5.98692">
        <ele>1318</ele>
        <time>2014-02-15T12:59:09.000Z</time>
      </trkpt>
      <trkpt lat="45.64828" lon="5.98712">
        <ele>1318.1999511719</ele>
        <time>2014-02-15T12:59:15.000Z</time>
      </trkpt>
      <trkpt lat="45.64837" lon="5.98723">
        <ele>1318.4000244141</ele>
        <time>2014-02-15T12:59:19.000Z</time>
      </trkpt>
      <trkpt lat="45.64847" lon="5.98734">
        <ele>1318.5999755859</ele>
        <time>2014-02-15T12:59:24.000Z</time>
      </trkpt>
      <trkpt lat="45.64857" lon="5.98739">
        <ele>1318.8000488281</ele>
        <time>2014-02-15T12:59:28.000Z</time>
      </trkpt>
      <trkpt lat="45.6487" lon="5.98747">
        <ele>1319</ele>
        <time>2014-02-15T12:59:34.000Z</time>
      </trkpt>
      <trkpt lat="45.64881" lon="5.98749">
        <ele>1319</ele>
        <time>2014-02-15T12:59:38.000Z</time>
      </trkpt>
      <trkpt lat="45.64895" lon="5.98751">
        <ele>1319</ele>
        <time>2014-02-15T12:59:42.000Z</time>
      </trkpt>
      <trkpt lat="45.64907" lon="5.98751">
        <ele>1319</ele>
        <time>2014-02-15T12:59:45.000Z</time>
      </trkpt>
      <trkpt lat="45.64919" lon="5.98752">
        <ele>1319.1999511719</ele>
        <time>2014-02-15T12:59:49.000Z</time>
      </trkpt>
      <trkpt lat="45.64931" lon="5.98753">
        <ele>1319.8000488281</ele>
        <time>2014-02-15T12:59:53.000Z</time>
      </trkpt>
      <trkpt lat="45.6494" lon="5.98754">
        <ele>1320.1999511719</ele>
        <time>2014-02-15T12:59:56.000Z</time>
      </trkpt>
      <trkpt lat="45.64954" lon="5.98758">
        <ele>1321</ele>
        <time>2014-02-15T13:00:01.000Z</time>
      </trkpt>
      <trkpt lat="45.64966" lon="5.98761">
        <ele>1321.5999755859</ele>
        <time>2014-02-15T13:00:06.000Z</time>
      </trkpt>
      <trkpt lat="45.64977" lon="5.98771">
        <ele>1322.5999755859</ele>
        <time>2014-02-15T13:00:11.000Z</time>
      </trkpt>
      <trkpt lat="45.64978" lon="5.98774">
        <ele>1322.5999755859</ele>
        <time>2014-02-15T13:00:12.000Z</time>
      </trkpt>
      <trkpt lat="45.64981" lon="5.98787">
        <ele>1323.1999511719</ele>
        <time>2014-02-15T13:00:16.000Z</time>
      </trkpt>
      <trkpt lat="45.64981" lon="5.98824">
        <ele>1324.4000244141</ele>
        <time>2014-02-15T13:00:23.000Z</time>
      </trkpt>
      <trkpt lat="45.64984" lon="5.98833">
        <ele>1324.8000488281</ele>
        <time>2014-02-15T13:00:28.000Z</time>
      </trkpt>
      <trkpt lat="45.64991" lon="5.98839">
        <ele>1325.5999755859</ele>
        <time>2014-02-15T13:00:34.000Z</time>
      </trkpt>
      <trkpt lat="45.64997" lon="5.98844">
        <ele>1326.1999511719</ele>
        <time>2014-02-15T13:00:39.000Z</time>
      </trkpt>
      <trkpt lat="45.65" lon="5.98846">
        <ele>1326.4000244141</ele>
        <time>2014-02-15T13:00:41.000Z</time>
      </trkpt>
      <trkpt lat="45.65006" lon="5.98853">
        <ele>1327</ele>
        <time>2014-02-15T13:00:45.000Z</time>
      </trkpt>
      <trkpt lat="45.6501" lon="5.98857">
        <ele>1327.4000244141</ele>
        <time>2014-02-15T13:00:49.000Z</time>
      </trkpt>
      <trkpt lat="45.65013" lon="5.9886">
        <ele>1327.5999755859</ele>
        <time>2014-02-15T13:00:51.000Z</time>
      </trkpt>
      <trkpt lat="45.65021" lon="5.98866">
        <ele>1328.1999511719</ele>
        <time>2014-02-15T13:00:58.000Z</time>
      </trkpt>
      <trkpt lat="45.65028" lon="5.98868">
        <ele>1328.4000244141</ele>
        <time>2014-02-15T13:01:02.000Z</time>
      </trkpt>
      <trkpt lat="45.65032" lon="5.98873">
        <ele>1328.5999755859</ele>
        <time>2014-02-15T13:01:07.000Z</time>
      </trkpt>
      <trkpt lat="45.65036" lon="5.98877">
        <ele>1328.8000488281</ele>
        <time>2014-02-15T13:01:11.000Z</time>
      </trkpt>
      <trkpt lat="45.65044" lon="5.98882">
        <ele>1329</ele>
        <time>2014-02-15T13:01:18.000Z</time>
      </trkpt>
      <trkpt lat="45.65057" lon="5.98888">
        <ele>1329.4000244141</ele>
        <time>2014-02-15T13:01:22.000Z</time>
      </trkpt>
      <trkpt lat="45.65072" lon="5.98894">
        <ele>1329.5999755859</ele>
        <time>2014-02-15T13:01:27.000Z</time>
      </trkpt>
      <trkpt lat="45.65083" lon="5.98897">
        <ele>1329.5999755859</ele>
        <time>2014-02-15T13:01:32.000Z</time>
      </trkpt>
      <trkpt lat="45.65094" lon="5.989">
        <ele>1330</ele>
        <time>2014-02-15T13:01:36.000Z</time>
      </trkpt>
      <trkpt lat="45.65103" lon="5.98898">
        <ele>1330.4000244141</ele>
        <time>2014-02-15T13:01:40.000Z</time>
      </trkpt>
      <trkpt lat="45.65114" lon="5.98895">
        <ele>1330.5999755859</ele>
        <time>2014-02-15T13:01:45.000Z</time>
      </trkpt>
      <trkpt lat="45.65116" lon="5.98895">
        <ele>1330.8000488281</ele>
        <time>2014-02-15T13:01:46.000Z</time>
      </trkpt>
      <trkpt lat="45.6512" lon="5.98894">
        <ele>1330.8000488281</ele>
        <time>2014-02-15T13:01:50.000Z</time>
      </trkpt>
      <trkpt lat="45.65126" lon="5.98892">
        <ele>1331</ele>
        <time>2014-02-15T13:01:55.000Z</time>
      </trkpt>
      <trkpt lat="45.6513" lon="5.98891">
        <ele>1331.1999511719</ele>
        <time>2014-02-15T13:02:00.000Z</time>
      </trkpt>
      <trkpt lat="45.65133" lon="5.98891">
        <ele>1331.1999511719</ele>
        <time>2014-02-15T13:02:02.000Z</time>
      </trkpt>
      <trkpt lat="45.65139" lon="5.9889">
        <ele>1331.4000244141</ele>
        <time>2014-02-15T13:02:08.000Z</time>
      </trkpt>
      <trkpt lat="45.65149" lon="5.98885">
        <ele>1331.5999755859</ele>
        <time>2014-02-15T13:02:16.000Z</time>
      </trkpt>
      <trkpt lat="45.6516" lon="5.98882">
        <ele>1331.5999755859</ele>
        <time>2014-02-15T13:02:21.000Z</time>
      </trkpt>
      <trkpt lat="45.6517" lon="5.98882">
        <ele>1332</ele>
        <time>2014-02-15T13:02:26.000Z</time>
      </trkpt>
      <trkpt lat="45.65186" lon="5.98892">
        <ele>1333</ele>
        <time>2014-02-15T13:02:32.000Z</time>
      </trkpt>
      <trkpt lat="45.65195" lon="5.98904">
        <ele>1333.8000488281</ele>
        <time>2014-02-15T13:02:36.000Z</time>
      </trkpt>
      <trkpt lat="45.65205" lon="5.98918">
        <ele>1334.4000244141</ele>
        <time>2014-02-15T13:02:40.000Z</time>
      </trkpt>
      <trkpt lat="45.65211" lon="5.98926">
        <ele>1335.1999511719</ele>
        <time>2014-02-15T13:02:43.000Z</time>
      </trkpt>
      <trkpt lat="45.65216" lon="5.98932">
        <ele>1335.8000488281</ele>
        <time>2014-02-15T13:02:45.000Z</time>
      </trkpt>
      <trkpt lat="45.65233" lon="5.98943">
        <ele>1336.8000488281</ele>
        <time>2014-02-15T13:02:51.000Z</time>
      </trkpt>
      <trkpt lat="45.65242" lon="5.98948">
        <ele>1337</ele>
        <time>2014-02-15T13:02:55.000Z</time>
      </trkpt>
      <trkpt lat="45.6525" lon="5.98957">
        <ele>1337.4000244141</ele>
        <time>2014-02-15T13:02:59.000Z</time>
      </trkpt>
      <trkpt lat="45.65258" lon="5.98968">
        <ele>1338.4000244141</ele>
        <time>2014-02-15T13:03:03.000Z</time>
      </trkpt>
      <trkpt lat="45.65265" lon="5.9898">
        <ele>1339.1999511719</ele>
        <time>2014-02-15T13:03:07.000Z</time>
      </trkpt>
      <trkpt lat="45.6527" lon="5.99002">
        <ele>1339.8000488281</ele>
        <time>2014-02-15T13:03:11.000Z</time>
      </trkpt>
      <trkpt lat="45.65277" lon="5.99026">
        <ele>1341.5999755859</ele>
        <time>2014-02-15T13:03:15.000Z</time>
      </trkpt>
      <trkpt lat="45.65279" lon="5.99032">
        <ele>1342</ele>
        <time>2014-02-15T13:03:16.000Z</time>
      </trkpt>
      <trkpt lat="45.65288" lon="5.99055">
        <ele>1343</ele>
        <time>2014-02-15T13:03:21.000Z</time>
      </trkpt>
      <trkpt lat="45.65297" lon="5.99069">
        <ele>1343</ele>
        <time>2014-02-15T13:03:25.000Z</time>
      </trkpt>
      <trkpt lat="45.65309" lon="5.99085">
        <ele>1342.5999755859</ele>
        <time>2014-02-15T13:03:31.000Z</time>
      </trkpt>
      <trkpt lat="45.65313" lon="5.99089">
        <ele>1342.5999755859</ele>
        <time>2014-02-15T13:03:33.000Z</time>
      </trkpt>
      <trkpt lat="45.65324" lon="5.99096">
        <ele>1342.1999511719</ele>
        <time>2014-02-15T13:03:38.000Z</time>
      </trkpt>
      <trkpt lat="45.65327" lon="5.99099">
        <ele>1342.1999511719</ele>
        <time>2014-02-15T13:03:40.000Z</time>
      </trkpt>
      <trkpt lat="45.65337" lon="5.99108">
        <ele>1342.5999755859</ele>
        <time>2014-02-15T13:03:46.000Z</time>
      </trkpt>
      <trkpt lat="45.65344" lon="5.99116">
        <ele>1343.8000488281</ele>
        <time>2014-02-15T13:03:51.000Z</time>
      </trkpt>
      <trkpt lat="45.65352" lon="5.99126">
        <ele>1345</ele>
        <time>2014-02-15T13:03:57.000Z</time>
      </trkpt>
      <trkpt lat="45.65353" lon="5.99128">
        <ele>1345.1999511719</ele>
        <time>2014-02-15T13:03:58.000Z</time>
      </trkpt>
      <trkpt lat="45.65358" lon="5.99133">
        <ele>1345.8000488281</ele>
        <time>2014-02-15T13:04:01.000Z</time>
      </trkpt>
      <trkpt lat="45.65363" lon="5.99145">
        <ele>1346.8000488281</ele>
        <time>2014-02-15T13:04:06.000Z</time>
      </trkpt>
      <trkpt lat="45.65369" lon="5.99159">
        <ele>1348</ele>
        <time>2014-02-15T13:04:12.000Z</time>
      </trkpt>
      <trkpt lat="45.65372" lon="5.99169">
        <ele>1348.5999755859</ele>
        <time>2014-02-15T13:04:16.000Z</time>
      </trkpt>
      <trkpt lat="45.65373" lon="5.99184">
        <ele>1350</ele>
        <time>2014-02-15T13:04:20.000Z</time>
      </trkpt>
      <trkpt lat="45.65372" lon="5.99204">
        <ele>1351.8000488281</ele>
        <time>2014-02-15T13:04:25.000Z</time>
      </trkpt>
      <trkpt lat="45.65371" lon="5.99219">
        <ele>1353</ele>
        <time>2014-02-15T13:04:29.000Z</time>
      </trkpt>
      <trkpt lat="45.65372" lon="5.99233">
        <ele>1354.1999511719</ele>
        <time>2014-02-15T13:04:33.000Z</time>
      </trkpt>
      <trkpt lat="45.65377" lon="5.99245">
        <ele>1355</ele>
        <time>2014-02-15T13:04:38.000Z</time>
      </trkpt>
      <trkpt lat="45.6538" lon="5.99256">
        <ele>1355.5999755859</ele>
        <time>2014-02-15T13:04:43.000Z</time>
      </trkpt>
      <trkpt lat="45.65381" lon="5.99266">
        <ele>1356</ele>
        <time>2014-02-15T13:04:47.000Z</time>
      </trkpt>
      <trkpt lat="45.65381" lon="5.99277">
        <ele>1356.5999755859</ele>
        <time>2014-02-15T13:04:51.000Z</time>
      </trkpt>
      <trkpt lat="45.65379" lon="5.99298">
        <ele>1357.8000488281</ele>
        <time>2014-02-15T13:04:57.000Z</time>
      </trkpt>
      <trkpt lat="45.65379" lon="5.99305">
        <ele>1358.1999511719</ele>
        <time>2014-02-15T13:04:59.000Z</time>
      </trkpt>
      <trkpt lat="45.65379" lon="5.99314">
        <ele>1358.5999755859</ele>
        <time>2014-02-15T13:05:02.000Z</time>
      </trkpt>
      <trkpt lat="45.65383" lon="5.99326">
        <ele>1359</ele>
        <time>2014-02-15T13:05:06.000Z</time>
      </trkpt>
      <trkpt lat="45.65386" lon="5.99336">
        <ele>1359.1999511719</ele>
        <time>2014-02-15T13:05:09.000Z</time>
      </trkpt>
      <trkpt lat="45.65388" lon="5.99342">
        <ele>1359.1999511719</ele>
        <time>2014-02-15T13:05:11.000Z</time>
      </trkpt>
      <trkpt lat="45.65393" lon="5.9936">
        <ele>1359.5999755859</ele>
        <time>2014-02-15T13:05:17.000Z</time>
      </trkpt>
      <trkpt lat="45.65395" lon="5.9937">
        <ele>1359.8000488281</ele>
        <time>2014-02-15T13:05:21.000Z</time>
      </trkpt>
      <trkpt lat="45.65399" lon="5.99382">
        <ele>1360</ele>
        <time>2014-02-15T13:05:26.000Z</time>
      </trkpt>
      <trkpt lat="45.65404" lon="5.99393">
        <ele>1360.1999511719</ele>
        <time>2014-02-15T13:05:30.000Z</time>
      </trkpt>
      <trkpt lat="45.65409" lon="5.99407">
        <ele>1360.5999755859</ele>
        <time>2014-02-15T13:05:35.000Z</time>
      </trkpt>
      <trkpt lat="45.65412" lon="5.99412">
        <ele>1360.8000488281</ele>
        <time>2014-02-15T13:05:37.000Z</time>
      </trkpt>
      <trkpt lat="45.6542" lon="5.99423">
        <ele>1361.1999511719</ele>
        <time>2014-02-15T13:05:42.000Z</time>
      </trkpt>
      <trkpt lat="45.65425" lon="5.99434">
        <ele>1361.4000244141</ele>
        <time>2014-02-15T13:05:46.000Z</time>
      </trkpt>
      <trkpt lat="45.65431" lon="5.99441">
        <ele>1361.5999755859</ele>
        <time>2014-02-15T13:05:49.000Z</time>
      </trkpt>
      <trkpt lat="45.65438" lon="5.99453">
        <ele>1361.8000488281</ele>
        <time>2014-02-15T13:05:53.000Z</time>
      </trkpt>
      <trkpt lat="45.65443" lon="5.9947">
        <ele>1361.5999755859</ele>
        <time>2014-02-15T13:05:58.000Z</time>
      </trkpt>
      <trkpt lat="45.6545" lon="5.99485">
        <ele>1361.4000244141</ele>
        <time>2014-02-15T13:06:02.000Z</time>
      </trkpt>
      <trkpt lat="45.65454" lon="5.99495">
        <ele>1361.1999511719</ele>
        <time>2014-02-15T13:06:04.000Z</time>
      </trkpt>
      <trkpt lat="45.65464" lon="5.99524">
        <ele>1362</ele>
        <time>2014-02-15T13:06:09.000Z</time>
      </trkpt>
      <trkpt lat="45.65466" lon="5.99541">
        <ele>1362.5999755859</ele>
        <time>2014-02-15T13:06:12.000Z</time>
      </trkpt>
      <trkpt lat="45.65468" lon="5.99565">
        <ele>1363.4000244141</ele>
        <time>2014-02-15T13:06:17.000Z</time>
      </trkpt>
      <trkpt lat="45.65471" lon="5.9958">
        <ele>1363.5999755859</ele>
        <time>2014-02-15T13:06:21.000Z</time>
      </trkpt>
      <trkpt lat="45.65479" lon="5.99603">
        <ele>1364.4000244141</ele>
        <time>2014-02-15T13:06:28.000Z</time>
      </trkpt>
      <trkpt lat="45.65486" lon="5.9962">
        <ele>1364.5999755859</ele>
        <time>2014-02-15T13:06:33.000Z</time>
      </trkpt>
      <trkpt lat="45.65494" lon="5.99633">
        <ele>1364.1999511719</ele>
        <time>2014-02-15T13:06:37.000Z</time>
      </trkpt>
      <trkpt lat="45.65499" lon="5.99644">
        <ele>1363.8000488281</ele>
        <time>2014-02-15T13:06:41.000Z</time>
      </trkpt>
      <trkpt lat="45.65506" lon="5.99653">
        <ele>1364.1999511719</ele>
        <time>2014-02-15T13:06:45.000Z</time>
      </trkpt>
      <trkpt lat="45.65508" lon="5.99656">
        <ele>1364.4000244141</ele>
        <time>2014-02-15T13:06:46.000Z</time>
      </trkpt>
      <trkpt lat="45.65516" lon="5.99667">
        <ele>1364.8000488281</ele>
        <time>2014-02-15T13:06:50.000Z</time>
      </trkpt>
      <trkpt lat="45.65523" lon="5.9968">
        <ele>1365.8000488281</ele>
        <time>2014-02-15T13:06:54.000Z</time>
      </trkpt>
      <trkpt lat="45.65529" lon="5.99696">
        <ele>1366.4000244141</ele>
        <time>2014-02-15T13:06:58.000Z</time>
      </trkpt>
      <trkpt lat="45.65537" lon="5.99709">
        <ele>1366.4000244141</ele>
        <time>2014-02-15T13:07:02.000Z</time>
      </trkpt>
      <trkpt lat="45.65545" lon="5.99723">
        <ele>1365.8000488281</ele>
        <time>2014-02-15T13:07:06.000Z</time>
      </trkpt>
      <trkpt lat="45.65551" lon="5.99736">
        <ele>1364.8000488281</ele>
        <time>2014-02-15T13:07:09.000Z</time>
      </trkpt>
      <trkpt lat="45.65562" lon="5.99758">
        <ele>1363.1999511719</ele>
        <time>2014-02-15T13:07:14.000Z</time>
      </trkpt>
      <trkpt lat="45.65566" lon="5.99764">
        <ele>1362.5999755859</ele>
        <time>2014-02-15T13:07:16.000Z</time>
      </trkpt>
      <trkpt lat="45.65576" lon="5.99781">
        <ele>1361.1999511719</ele>
        <time>2014-02-15T13:07:21.000Z</time>
      </trkpt>
      <trkpt lat="45.65582" lon="5.99793">
        <ele>1360.1999511719</ele>
        <time>2014-02-15T13:07:24.000Z</time>
      </trkpt>
      <trkpt lat="45.65593" lon="5.99809">
        <ele>1360.8000488281</ele>
        <time>2014-02-15T13:07:28.000Z</time>
      </trkpt>
      <trkpt lat="45.65596" lon="5.99812">
        <ele>1361</ele>
        <time>2014-02-15T13:07:29.000Z</time>
      </trkpt>
      <trkpt lat="45.65608" lon="5.99824">
        <ele>1361.1999511719</ele>
        <time>2014-02-15T13:07:35.000Z</time>
      </trkpt>
      <trkpt lat="45.65618" lon="5.99832">
        <ele>1361.1999511719</ele>
        <time>2014-02-15T13:07:40.000Z</time>
      </trkpt>
      <trkpt lat="45.65627" lon="5.99844">
        <ele>1362.1999511719</ele>
        <time>2014-02-15T13:07:45.000Z</time>
      </trkpt>
      <trkpt lat="45.65636" lon="5.99861">
        <ele>1363.5999755859</ele>
        <time>2014-02-15T13:07:50.000Z</time>
      </trkpt>
      <trkpt lat="45.65645" lon="5.99877">
        <ele>1364.1999511719</ele>
        <time>2014-02-15T13:07:54.000Z</time>
      </trkpt>
      <trkpt lat="45.65652" lon="5.99899">
        <ele>1364.4000244141</ele>
        <time>2014-02-15T13:07:59.000Z</time>
      </trkpt>
      <trkpt lat="45.65659" lon="5.99912">
        <ele>1363.5999755859</ele>
        <time>2014-02-15T13:08:03.000Z</time>
      </trkpt>
      <trkpt lat="45.6566" lon="5.99915">
        <ele>1363.4000244141</ele>
        <time>2014-02-15T13:08:04.000Z</time>
      </trkpt>
      <trkpt lat="45.6567" lon="5.99928">
        <ele>1363.1999511719</ele>
        <time>2014-02-15T13:08:09.000Z</time>
      </trkpt>
      <trkpt lat="45.65673" lon="5.9993">
        <ele>1363.4000244141</ele>
        <time>2014-02-15T13:08:10.000Z</time>
      </trkpt>
      <trkpt lat="45.65678" lon="5.99936">
        <ele>1364</ele>
        <time>2014-02-15T13:08:12.000Z</time>
      </trkpt>
      <trkpt lat="45.65687" lon="5.99951">
        <ele>1364.8000488281</ele>
        <time>2014-02-15T13:08:16.000Z</time>
      </trkpt>
      <trkpt lat="45.65697" lon="5.99967">
        <ele>1365.1999511719</ele>
        <time>2014-02-15T13:08:20.000Z</time>
      </trkpt>
      <trkpt lat="45.65706" lon="5.99982">
        <ele>1365</ele>
        <time>2014-02-15T13:08:24.000Z</time>
      </trkpt>
      <trkpt lat="45.65714" lon="5.99994">
        <ele>1364.1999511719</ele>
        <time>2014-02-15T13:08:28.000Z</time>
      </trkpt>
      <trkpt lat="45.65719" lon="6">
        <ele>1363.8000488281</ele>
        <time>2014-02-15T13:08:30.000Z</time>
      </trkpt>
      <trkpt lat="45.65727" lon="6.00017">
        <ele>1362.8000488281</ele>
        <time>2014-02-15T13:08:35.000Z</time>
      </trkpt>
      <trkpt lat="45.65732" lon="6.00035">
        <ele>1362.1999511719</ele>
        <time>2014-02-15T13:08:39.000Z</time>
      </trkpt>
      <trkpt lat="45.65735" lon="6.00051">
        <ele>1364.4000244141</ele>
        <time>2014-02-15T13:08:43.000Z</time>
      </trkpt>
      <trkpt lat="45.65737" lon="6.00062">
        <ele>1364.4000244141</ele>
        <time>2014-02-15T13:08:47.000Z</time>
      </trkpt>
      <trkpt lat="45.65738" lon="6.00064">
        <ele>1364.4000244141</ele>
        <time>2014-02-15T13:08:48.000Z</time>
      </trkpt>
      <trkpt lat="45.65742" lon="6.00078">
        <ele>1363.8000488281</ele>
        <time>2014-02-15T13:08:55.000Z</time>
      </trkpt>
      <trkpt lat="45.65747" lon="6.00094">
        <ele>1364.4000244141</ele>
        <time>2014-02-15T13:09:00.000Z</time>
      </trkpt>
      <trkpt lat="45.65751" lon="6.0011">
        <ele>1365.8000488281</ele>
        <time>2014-02-15T13:09:04.000Z</time>
      </trkpt>
      <trkpt lat="45.65755" lon="6.00124">
        <ele>1367.5999755859</ele>
        <time>2014-02-15T13:09:08.000Z</time>
      </trkpt>
      <trkpt lat="45.65759" lon="6.00134">
        <ele>1368.5999755859</ele>
        <time>2014-02-15T13:09:13.000Z</time>
      </trkpt>
      <trkpt lat="45.65765" lon="6.00142">
        <ele>1369</ele>
        <time>2014-02-15T13:09:18.000Z</time>
      </trkpt>
      <trkpt lat="45.65771" lon="6.0015">
        <ele>1369.4000244141</ele>
        <time>2014-02-15T13:09:23.000Z</time>
      </trkpt>
      <trkpt lat="45.65779" lon="6.0016">
        <ele>1369.4000244141</ele>
        <time>2014-02-15T13:09:29.000Z</time>
      </trkpt>
      <trkpt lat="45.6579" lon="6.0017">
        <ele>1369.4000244141</ele>
        <time>2014-02-15T13:09:33.000Z</time>
      </trkpt>
      <trkpt lat="45.65794" lon="6.00177">
        <ele>1370</ele>
        <time>2014-02-15T13:09:35.000Z</time>
      </trkpt>
      <trkpt lat="45.65804" lon="6.00191">
        <ele>1371</ele>
        <time>2014-02-15T13:09:40.000Z</time>
      </trkpt>
      <trkpt lat="45.6581" lon="6.00202">
        <ele>1372</ele>
        <time>2014-02-15T13:09:44.000Z</time>
      </trkpt>
      <trkpt lat="45.65817" lon="6.00215">
        <ele>1372.8000488281</ele>
        <time>2014-02-15T13:09:48.000Z</time>
      </trkpt>
      <trkpt lat="45.65822" lon="6.00225">
        <ele>1373</ele>
        <time>2014-02-15T13:09:51.000Z</time>
      </trkpt>
      <trkpt lat="45.65831" lon="6.00233">
        <ele>1372.1999511719</ele>
        <time>2014-02-15T13:09:54.000Z</time>
      </trkpt>
      <trkpt lat="45.6584" lon="6.00239">
        <ele>1372.4000244141</ele>
        <time>2014-02-15T13:09:57.000Z</time>
      </trkpt>
      <trkpt lat="45.65849" lon="6.00246">
        <ele>1372.8000488281</ele>
        <time>2014-02-15T13:10:01.000Z</time>
      </trkpt>
      <trkpt lat="45.65858" lon="6.00249">
        <ele>1372.8000488281</ele>
        <time>2014-02-15T13:10:05.000Z</time>
      </trkpt>
      <trkpt lat="45.65863" lon="6.00253">
        <ele>1373.1999511719</ele>
        <time>2014-02-15T13:10:07.000Z</time>
      </trkpt>
      <trkpt lat="45.65874" lon="6.0026">
        <ele>1373.8000488281</ele>
        <time>2014-02-15T13:10:12.000Z</time>
      </trkpt>
      <trkpt lat="45.65886" lon="6.00273">
        <ele>1375.1999511719</ele>
        <time>2014-02-15T13:10:17.000Z</time>
      </trkpt>
      <trkpt lat="45.65893" lon="6.00285">
        <ele>1376.4000244141</ele>
        <time>2014-02-15T13:10:20.000Z</time>
      </trkpt>
      <trkpt lat="45.65903" lon="6.00298">
        <ele>1377</ele>
        <time>2014-02-15T13:10:25.000Z</time>
      </trkpt>
      <trkpt lat="45.65908" lon="6.00302">
        <ele>1376.8000488281</ele>
        <time>2014-02-15T13:10:29.000Z</time>
      </trkpt>
      <trkpt lat="45.65917" lon="6.00309">
        <ele>1376.4000244141</ele>
        <time>2014-02-15T13:10:35.000Z</time>
      </trkpt>
      <trkpt lat="45.65924" lon="6.0032">
        <ele>1377.5999755859</ele>
        <time>2014-02-15T13:10:39.000Z</time>
      </trkpt>
      <trkpt lat="45.65928" lon="6.00331">
        <ele>1378.5999755859</ele>
        <time>2014-02-15T13:10:43.000Z</time>
      </trkpt>
      <trkpt lat="45.65932" lon="6.00338">
        <ele>1379.4000244141</ele>
        <time>2014-02-15T13:10:45.000Z</time>
      </trkpt>
      <trkpt lat="45.65936" lon="6.00347">
        <ele>1380.5999755859</ele>
        <time>2014-02-15T13:10:48.000Z</time>
      </trkpt>
      <trkpt lat="45.65941" lon="6.00361">
        <ele>1382.1999511719</ele>
        <time>2014-02-15T13:10:53.000Z</time>
      </trkpt>
      <trkpt lat="45.65943" lon="6.00365">
        <ele>1382.5999755859</ele>
        <time>2014-02-15T13:10:55.000Z</time>
      </trkpt>
      <trkpt lat="45.65952" lon="6.0038">
        <ele>1383.5999755859</ele>
        <time>2014-02-15T13:11:01.000Z</time>
      </trkpt>
      <trkpt lat="45.65959" lon="6.00388">
        <ele>1383.8000488281</ele>
        <time>2014-02-15T13:11:05.000Z</time>
      </trkpt>
      <trkpt lat="45.65966" lon="6.00395">
        <ele>1383.8000488281</ele>
        <time>2014-02-15T13:11:09.000Z</time>
      </trkpt>
      <trkpt lat="45.65976" lon="6.00406">
        <ele>1383.1999511719</ele>
        <time>2014-02-15T13:11:15.000Z</time>
      </trkpt>
      <trkpt lat="45.65984" lon="6.00419">
        <ele>1383</ele>
        <time>2014-02-15T13:11:19.000Z</time>
      </trkpt>
      <trkpt lat="45.65996" lon="6.00436">
        <ele>1383.4000244141</ele>
        <time>2014-02-15T13:11:25.000Z</time>
      </trkpt>
      <trkpt lat="45.66002" lon="6.0045">
        <ele>1384.1999511719</ele>
        <time>2014-02-15T13:11:29.000Z</time>
      </trkpt>
      <trkpt lat="45.6601" lon="6.00464">
        <ele>1385.5999755859</ele>
        <time>2014-02-15T13:11:33.000Z</time>
      </trkpt>
      <trkpt lat="45.66019" lon="6.00473">
        <ele>1386</ele>
        <time>2014-02-15T13:11:37.000Z</time>
      </trkpt>
      <trkpt lat="45.66031" lon="6.00478">
        <ele>1385.5999755859</ele>
        <time>2014-02-15T13:11:41.000Z</time>
      </trkpt>
      <trkpt lat="45.66039" lon="6.00473">
        <ele>1384.4000244141</ele>
        <time>2014-02-15T13:11:45.000Z</time>
      </trkpt>
      <trkpt lat="45.66054" lon="6.00454">
        <ele>1382</ele>
        <time>2014-02-15T13:11:52.000Z</time>
      </trkpt>
      <trkpt lat="45.66057" lon="6.00449">
        <ele>1381.4000244141</ele>
        <time>2014-02-15T13:11:54.000Z</time>
      </trkpt>
      <trkpt lat="45.66075" lon="6.00429">
        <ele>1379.5999755859</ele>
        <time>2014-02-15T13:12:01.000Z</time>
      </trkpt>
      <trkpt lat="45.66087" lon="6.00418">
        <ele>1379</ele>
        <time>2014-02-15T13:12:06.000Z</time>
      </trkpt>
      <trkpt lat="45.66092" lon="6.00415">
        <ele>1379</ele>
        <time>2014-02-15T13:12:08.000Z</time>
      </trkpt>
      <trkpt lat="45.66113" lon="6.0041">
        <ele>1378.8000488281</ele>
        <time>2014-02-15T13:12:15.000Z</time>
      </trkpt>
      <trkpt lat="45.66135" lon="6.00408">
        <ele>1378.8000488281</ele>
        <time>2014-02-15T13:12:20.000Z</time>
      </trkpt>
      <trkpt lat="45.66154" lon="6.00397">
        <ele>1378.4000244141</ele>
        <time>2014-02-15T13:12:25.000Z</time>
      </trkpt>
      <trkpt lat="45.6616" lon="6.00392">
        <ele>1378.4000244141</ele>
        <time>2014-02-15T13:12:27.000Z</time>
      </trkpt>
      <trkpt lat="45.66179" lon="6.00388">
        <ele>1379</ele>
        <time>2014-02-15T13:12:33.000Z</time>
      </trkpt>
      <trkpt lat="45.66188" lon="6.00393">
        <ele>1379.4000244141</ele>
        <time>2014-02-15T13:12:37.000Z</time>
      </trkpt>
      <trkpt lat="45.66197" lon="6.00398">
        <ele>1379.8000488281</ele>
        <time>2014-02-15T13:12:42.000Z</time>
      </trkpt>
      <trkpt lat="45.6621" lon="6.00406">
        <ele>1380.4000244141</ele>
        <time>2014-02-15T13:12:47.000Z</time>
      </trkpt>
      <trkpt lat="45.6622" lon="6.00417">
        <ele>1381</ele>
        <time>2014-02-15T13:12:51.000Z</time>
      </trkpt>
      <trkpt lat="45.66229" lon="6.00426">
        <ele>1381.1999511719</ele>
        <time>2014-02-15T13:12:55.000Z</time>
      </trkpt>
      <trkpt lat="45.66231" lon="6.00429">
        <ele>1381.1999511719</ele>
        <time>2014-02-15T13:12:56.000Z</time>
      </trkpt>
      <trkpt lat="45.6624" lon="6.00445">
        <ele>1381.4000244141</ele>
        <time>2014-02-15T13:13:02.000Z</time>
      </trkpt>
      <trkpt lat="45.66244" lon="6.00457">
        <ele>1381.4000244141</ele>
        <time>2014-02-15T13:13:07.000Z</time>
      </trkpt>
      <trkpt lat="45.66245" lon="6.00463">
        <ele>1381.4000244141</ele>
        <time>2014-02-15T13:13:09.000Z</time>
      </trkpt>
      <trkpt lat="45.66253" lon="6.00474">
        <ele>1381.4000244141</ele>
        <time>2014-02-15T13:13:15.000Z</time>
      </trkpt>
      <trkpt lat="45.66256" lon="6.00476">
        <ele>1381.4000244141</ele>
        <time>2014-02-15T13:13:17.000Z</time>
      </trkpt>
      <trkpt lat="45.66263" lon="6.00476">
        <ele>1381.4000244141</ele>
        <time>2014-02-15T13:13:22.000Z</time>
      </trkpt>
      <trkpt lat="45.66275" lon="6.00482">
        <ele>1381.5999755859</ele>
        <time>2014-02-15T13:13:27.000Z</time>
      </trkpt>
      <trkpt lat="45.66279" lon="6.00489">
        <ele>1381.5999755859</ele>
        <time>2014-02-15T13:13:29.000Z</time>
      </trkpt>
      <trkpt lat="45.66283" lon="6.00511">
        <ele>1381.5999755859</ele>
        <time>2014-02-15T13:13:34.000Z</time>
      </trkpt>
      <trkpt lat="45.66286" lon="6.00522">
        <ele>1382</ele>
        <time>2014-02-15T13:13:37.000Z</time>
      </trkpt>
      <trkpt lat="45.6629" lon="6.00538">
        <ele>1382.1999511719</ele>
        <time>2014-02-15T13:13:43.000Z</time>
      </trkpt>
      <trkpt lat="45.66294" lon="6.00547">
        <ele>1382.1999511719</ele>
        <time>2014-02-15T13:13:47.000Z</time>
      </trkpt>
      <trkpt lat="45.66298" lon="6.00561">
        <ele>1382.4000244141</ele>
        <time>2014-02-15T13:13:52.000Z</time>
      </trkpt>
      <trkpt lat="45.66297" lon="6.00574">
        <ele>1382.5999755859</ele>
        <time>2014-02-15T13:13:56.000Z</time>
      </trkpt>
      <trkpt lat="45.66298" lon="6.00588">
        <ele>1382.8000488281</ele>
        <time>2014-02-15T13:14:01.000Z</time>
      </trkpt>
      <trkpt lat="45.66301" lon="6.00603">
        <ele>1383.1999511719</ele>
        <time>2014-02-15T13:14:05.000Z</time>
      </trkpt>
      <trkpt lat="45.66304" lon="6.00612">
        <ele>1383.1999511719</ele>
        <time>2014-02-15T13:14:09.000Z</time>
      </trkpt>
      <trkpt lat="45.66307" lon="6.00622">
        <ele>1383.1999511719</ele>
        <time>2014-02-15T13:14:14.000Z</time>
      </trkpt>
      <trkpt lat="45.6631" lon="6.00636">
        <ele>1383.1999511719</ele>
        <time>2014-02-15T13:14:18.000Z</time>
      </trkpt>
      <trkpt lat="45.66311" lon="6.00641">
        <ele>1383.1999511719</ele>
        <time>2014-02-15T13:14:19.000Z</time>
      </trkpt>
      <trkpt lat="45.66317" lon="6.00666">
        <ele>1383</ele>
        <time>2014-02-15T13:14:26.000Z</time>
      </trkpt>
      <trkpt lat="45.66319" lon="6.00673">
        <ele>1383.1999511719</ele>
        <time>2014-02-15T13:14:28.000Z</time>
      </trkpt>
      <trkpt lat="45.66321" lon="6.00685">
        <ele>1383.5999755859</ele>
        <time>2014-02-15T13:14:33.000Z</time>
      </trkpt>
      <trkpt lat="45.66325" lon="6.00695">
        <ele>1383.5999755859</ele>
        <time>2014-02-15T13:14:37.000Z</time>
      </trkpt>
      <trkpt lat="45.66328" lon="6.007">
        <ele>1383.4000244141</ele>
        <time>2014-02-15T13:14:39.000Z</time>
      </trkpt>
      <trkpt lat="45.6634" lon="6.00712">
        <ele>1383.4000244141</ele>
        <time>2014-02-15T13:14:44.000Z</time>
      </trkpt>
      <trkpt lat="45.66347" lon="6.00721">
        <ele>1383.8000488281</ele>
        <time>2014-02-15T13:14:49.000Z</time>
      </trkpt>
      <trkpt lat="45.66349" lon="6.00725">
        <ele>1384</ele>
        <time>2014-02-15T13:14:51.000Z</time>
      </trkpt>
      <trkpt lat="45.66357" lon="6.00736">
        <ele>1384.4000244141</ele>
        <time>2014-02-15T13:14:56.000Z</time>
      </trkpt>
      <trkpt lat="45.66361" lon="6.00741">
        <ele>1384.5999755859</ele>
        <time>2014-02-15T13:15:01.000Z</time>
      </trkpt>
      <trkpt lat="45.66361" lon="6.00742">
        <ele>1384.8000488281</ele>
        <time>2014-02-15T13:15:14.000Z</time>
      </trkpt>
      <trkpt lat="45.66363" lon="6.00746">
        <ele>1384.8000488281</ele>
        <time>2014-02-15T13:15:18.000Z</time>
      </trkpt>
      <trkpt lat="45.66371" lon="6.00759">
        <ele>1385.8000488281</ele>
        <time>2014-02-15T13:15:24.000Z</time>
      </trkpt>
      <trkpt lat="45.66376" lon="6.00768">
        <ele>1386.4000244141</ele>
        <time>2014-02-15T13:15:29.000Z</time>
      </trkpt>
      <trkpt lat="45.66381" lon="6.00782">
        <ele>1387.4000244141</ele>
        <time>2014-02-15T13:15:34.000Z</time>
      </trkpt>
      <trkpt lat="45.66387" lon="6.00794">
        <ele>1388</ele>
        <time>2014-02-15T13:15:39.000Z</time>
      </trkpt>
      <trkpt lat="45.66387" lon="6.00797">
        <ele>1388.1999511719</ele>
        <time>2014-02-15T13:15:40.000Z</time>
      </trkpt>
      <trkpt lat="45.66391" lon="6.00808">
        <ele>1388.8000488281</ele>
        <time>2014-02-15T13:15:44.000Z</time>
      </trkpt>
      <trkpt lat="45.66394" lon="6.00824">
        <ele>1389.8000488281</ele>
        <time>2014-02-15T13:15:48.000Z</time>
      </trkpt>
      <trkpt lat="45.66398" lon="6.00848">
        <ele>1391.5999755859</ele>
        <time>2014-02-15T13:15:54.000Z</time>
      </trkpt>
      <trkpt lat="45.66408" lon="6.00861">
        <ele>1392.1999511719</ele>
        <time>2014-02-15T13:15:59.000Z</time>
      </trkpt>
      <trkpt lat="45.66421" lon="6.00862">
        <ele>1391.4000244141</ele>
        <time>2014-02-15T13:16:05.000Z</time>
      </trkpt>
      <trkpt lat="45.66434" lon="6.0086">
        <ele>1390.1999511719</ele>
        <time>2014-02-15T13:16:09.000Z</time>
      </trkpt>
      <trkpt lat="45.66447" lon="6.00851">
        <ele>1388.5999755859</ele>
        <time>2014-02-15T13:16:13.000Z</time>
      </trkpt>
      <trkpt lat="45.66467" lon="6.00849">
        <ele>1387</ele>
        <time>2014-02-15T13:16:18.000Z</time>
      </trkpt>
      <trkpt lat="45.66476" lon="6.00858">
        <ele>1387</ele>
        <time>2014-02-15T13:16:21.000Z</time>
      </trkpt>
      <trkpt lat="45.66486" lon="6.00873">
        <ele>1387</ele>
        <time>2014-02-15T13:16:26.000Z</time>
      </trkpt>
      <trkpt lat="45.66487" lon="6.00876">
        <ele>1387.1999511719</ele>
        <time>2014-02-15T13:16:27.000Z</time>
      </trkpt>
      <trkpt lat="45.66492" lon="6.00892">
        <ele>1387.5999755859</ele>
        <time>2014-02-15T13:16:33.000Z</time>
      </trkpt>
      <trkpt lat="45.66499" lon="6.00901">
        <ele>1387.4000244141</ele>
        <time>2014-02-15T13:16:38.000Z</time>
      </trkpt>
      <trkpt lat="45.66506" lon="6.00908">
        <ele>1387.5999755859</ele>
        <time>2014-02-15T13:16:41.000Z</time>
      </trkpt>
      <trkpt lat="45.66516" lon="6.00925">
        <ele>1389</ele>
        <time>2014-02-15T13:16:47.000Z</time>
      </trkpt>
      <trkpt lat="45.66521" lon="6.00935">
        <ele>1390.5999755859</ele>
        <time>2014-02-15T13:16:51.000Z</time>
      </trkpt>
      <trkpt lat="45.66524" lon="6.00941">
        <ele>1391.1999511719</ele>
        <time>2014-02-15T13:16:53.000Z</time>
      </trkpt>
      <trkpt lat="45.66532" lon="6.00952">
        <ele>1392.5999755859</ele>
        <time>2014-02-15T13:16:58.000Z</time>
      </trkpt>
      <trkpt lat="45.66538" lon="6.00962">
        <ele>1393.4000244141</ele>
        <time>2014-02-15T13:17:02.000Z</time>
      </trkpt>
      <trkpt lat="45.66546" lon="6.00974">
        <ele>1394.4000244141</ele>
        <time>2014-02-15T13:17:07.000Z</time>
      </trkpt>
      <trkpt lat="45.66554" lon="6.00973">
        <ele>1393.5999755859</ele>
        <time>2014-02-15T13:17:11.000Z</time>
      </trkpt>
      <trkpt lat="45.66559" lon="6.00969">
        <ele>1392.8000488281</ele>
        <time>2014-02-15T13:17:13.000Z</time>
      </trkpt>
      <trkpt lat="45.66577" lon="6.00954">
        <ele>1390</ele>
        <time>2014-02-15T13:17:20.000Z</time>
      </trkpt>
      <trkpt lat="45.6658" lon="6.00951">
        <ele>1389.5999755859</ele>
        <time>2014-02-15T13:17:21.000Z</time>
      </trkpt>
      <trkpt lat="45.6659" lon="6.00946">
        <ele>1388.8000488281</ele>
        <time>2014-02-15T13:17:25.000Z</time>
      </trkpt>
      <trkpt lat="45.66605" lon="6.00947">
        <ele>1388.4000244141</ele>
        <time>2014-02-15T13:17:31.000Z</time>
      </trkpt>
      <trkpt lat="45.66622" lon="6.00953">
        <ele>1388.1999511719</ele>
        <time>2014-02-15T13:17:37.000Z</time>
      </trkpt>
      <trkpt lat="45.66639" lon="6.00963">
        <ele>1387.8000488281</ele>
        <time>2014-02-15T13:17:42.000Z</time>
      </trkpt>
      <trkpt lat="45.6666" lon="6.0097">
        <ele>1387</ele>
        <time>2014-02-15T13:17:47.000Z</time>
      </trkpt>
      <trkpt lat="45.66671" lon="6.00975">
        <ele>1386.5999755859</ele>
        <time>2014-02-15T13:17:51.000Z</time>
      </trkpt>
      <trkpt lat="45.66682" lon="6.00984">
        <ele>1386.1999511719</ele>
        <time>2014-02-15T13:17:56.000Z</time>
      </trkpt>
      <trkpt lat="45.66685" lon="6.00987">
        <ele>1386.1999511719</ele>
        <time>2014-02-15T13:17:58.000Z</time>
      </trkpt>
      <trkpt lat="45.66693" lon="6.00992">
        <ele>1386</ele>
        <time>2014-02-15T13:18:02.000Z</time>
      </trkpt>
      <trkpt lat="45.66703" lon="6.00995">
        <ele>1385.5999755859</ele>
        <time>2014-02-15T13:18:07.000Z</time>
      </trkpt>
      <trkpt lat="45.66715" lon="6.00997">
        <ele>1385.1999511719</ele>
        <time>2014-02-15T13:18:11.000Z</time>
      </trkpt>
      <trkpt lat="45.66726" lon="6.00997">
        <ele>1384.8000488281</ele>
        <time>2014-02-15T13:18:15.000Z</time>
      </trkpt>
      <trkpt lat="45.66746" lon="6.01007">
        <ele>1384.5999755859</ele>
        <time>2014-02-15T13:18:21.000Z</time>
      </trkpt>
      <trkpt lat="45.66749" lon="6.01009">
        <ele>1384.5999755859</ele>
        <time>2014-02-15T13:18:22.000Z</time>
      </trkpt>
      <trkpt lat="45.66761" lon="6.0102">
        <ele>1385.4000244141</ele>
        <time>2014-02-15T13:18:28.000Z</time>
      </trkpt>
      <trkpt lat="45.6677" lon="6.01036">
        <ele>1386.4000244141</ele>
        <time>2014-02-15T13:18:32.000Z</time>
      </trkpt>
      <trkpt lat="45.66772" lon="6.01043">
        <ele>1386.5999755859</ele>
        <time>2014-02-15T13:18:34.000Z</time>
      </trkpt>
      <trkpt lat="45.66778" lon="6.01047">
        <ele>1386.8000488281</ele>
        <time>2014-02-15T13:18:37.000Z</time>
      </trkpt>
      <trkpt lat="45.66781" lon="6.01058">
        <ele>1387.4000244141</ele>
        <time>2014-02-15T13:18:41.000Z</time>
      </trkpt>
      <trkpt lat="45.66791" lon="6.01073">
        <ele>1387.5999755859</ele>
        <time>2014-02-15T13:18:46.000Z</time>
      </trkpt>
      <trkpt lat="45.66797" lon="6.01079">
        <ele>1387.8000488281</ele>
        <time>2014-02-15T13:18:50.000Z</time>
      </trkpt>
      <trkpt lat="45.66801" lon="6.01086">
        <ele>1388</ele>
        <time>2014-02-15T13:18:53.000Z</time>
      </trkpt>
      <trkpt lat="45.66808" lon="6.01089">
        <ele>1388</ele>
        <time>2014-02-15T13:18:57.000Z</time>
      </trkpt>
      <trkpt lat="45.66827" lon="6.01091">
        <ele>1387.8000488281</ele>
        <time>2014-02-15T13:19:03.000Z</time>
      </trkpt>
      <trkpt lat="45.66841" lon="6.01079">
        <ele>1386.5999755859</ele>
        <time>2014-02-15T13:19:07.000Z</time>
      </trkpt>
      <trkpt lat="45.66851" lon="6.01072">
        <ele>1386.1999511719</ele>
        <time>2014-02-15T13:19:09.000Z</time>
      </trkpt>
      <trkpt lat="45.66871" lon="6.01067">
        <ele>1385.1999511719</ele>
        <time>2014-02-15T13:19:13.000Z</time>
      </trkpt>
      <trkpt lat="45.66881" lon="6.01073">
        <ele>1384.5999755859</ele>
        <time>2014-02-15T13:19:15.000Z</time>
      </trkpt>
      <trkpt lat="45.66915" lon="6.01113">
        <ele>1381.4000244141</ele>
        <time>2014-02-15T13:19:21.000Z</time>
      </trkpt>
      <trkpt lat="45.66925" lon="6.01122">
        <ele>1380.5999755859</ele>
        <time>2014-02-15T13:19:24.000Z</time>
      </trkpt>
      <trkpt lat="45.66928" lon="6.01125">
        <ele>1380.4000244141</ele>
        <time>2014-02-15T13:19:25.000Z</time>
      </trkpt>
      <trkpt lat="45.66935" lon="6.01135">
        <ele>1379.8000488281</ele>
        <time>2014-02-15T13:19:28.000Z</time>
      </trkpt>
      <trkpt lat="45.6694" lon="6.01153">
        <ele>1378.8000488281</ele>
        <time>2014-02-15T13:19:32.000Z</time>
      </trkpt>
      <trkpt lat="45.6694" lon="6.01162">
        <ele>1378.4000244141</ele>
        <time>2014-02-15T13:19:34.000Z</time>
      </trkpt>
      <trkpt lat="45.6694" lon="6.01181">
        <ele>1379.1999511719</ele>
        <time>2014-02-15T13:19:38.000Z</time>
      </trkpt>
      <trkpt lat="45.66944" lon="6.01199">
        <ele>1380</ele>
        <time>2014-02-15T13:19:42.000Z</time>
      </trkpt>
      <trkpt lat="45.66949" lon="6.01215">
        <ele>1380.4000244141</ele>
        <time>2014-02-15T13:19:46.000Z</time>
      </trkpt>
      <trkpt lat="45.66958" lon="6.01226">
        <ele>1380.1999511719</ele>
        <time>2014-02-15T13:19:49.000Z</time>
      </trkpt>
      <trkpt lat="45.66967" lon="6.01233">
        <ele>1379.8000488281</ele>
        <time>2014-02-15T13:19:52.000Z</time>
      </trkpt>
      <trkpt lat="45.66987" lon="6.0124">
        <ele>1378</ele>
        <time>2014-02-15T13:19:56.000Z</time>
      </trkpt>
      <trkpt lat="45.67002" lon="6.01252">
        <ele>1377.1999511719</ele>
        <time>2014-02-15T13:20:00.000Z</time>
      </trkpt>
      <trkpt lat="45.67006" lon="6.01254">
        <ele>1377.1999511719</ele>
        <time>2014-02-15T13:20:01.000Z</time>
      </trkpt>
      <trkpt lat="45.67023" lon="6.01266">
        <ele>1377.1999511719</ele>
        <time>2014-02-15T13:20:06.000Z</time>
      </trkpt>
      <trkpt lat="45.67028" lon="6.01272">
        <ele>1377.4000244141</ele>
        <time>2014-02-15T13:20:08.000Z</time>
      </trkpt>
      <trkpt lat="45.67041" lon="6.01288">
        <ele>1377.5999755859</ele>
        <time>2014-02-15T13:20:13.000Z</time>
      </trkpt>
      <trkpt lat="45.67049" lon="6.01298">
        <ele>1377.5999755859</ele>
        <time>2014-02-15T13:20:17.000Z</time>
      </trkpt>
      <trkpt lat="45.67058" lon="6.01312">
        <ele>1377.5999755859</ele>
        <time>2014-02-15T13:20:21.000Z</time>
      </trkpt>
      <trkpt lat="45.67068" lon="6.01329">
        <ele>1377.4000244141</ele>
        <time>2014-02-15T13:20:25.000Z</time>
      </trkpt>
      <trkpt lat="45.67071" lon="6.0136">
        <ele>1377.4000244141</ele>
        <time>2014-02-15T13:20:30.000Z</time>
      </trkpt>
      <trkpt lat="45.67075" lon="6.01374">
        <ele>1377.1999511719</ele>
        <time>2014-02-15T13:20:33.000Z</time>
      </trkpt>
      <trkpt lat="45.67081" lon="6.01395">
        <ele>1376.4000244141</ele>
        <time>2014-02-15T13:20:38.000Z</time>
      </trkpt>
      <trkpt lat="45.67085" lon="6.01402">
        <ele>1376</ele>
        <time>2014-02-15T13:20:40.000Z</time>
      </trkpt>
      <trkpt lat="45.67092" lon="6.01417">
        <ele>1375.4000244141</ele>
        <time>2014-02-15T13:20:44.000Z</time>
      </trkpt>
      <trkpt lat="45.671" lon="6.01434">
        <ele>1375.5999755859</ele>
        <time>2014-02-15T13:20:49.000Z</time>
      </trkpt>
      <trkpt lat="45.67112" lon="6.01455">
        <ele>1375.5999755859</ele>
        <time>2014-02-15T13:20:53.000Z</time>
      </trkpt>
      <trkpt lat="45.67128" lon="6.01466">
        <ele>1374.8000488281</ele>
        <time>2014-02-15T13:20:57.000Z</time>
      </trkpt>
      <trkpt lat="45.67142" lon="6.0147">
        <ele>1373.8000488281</ele>
        <time>2014-02-15T13:21:02.000Z</time>
      </trkpt>
      <trkpt lat="45.67152" lon="6.01476">
        <ele>1373.4000244141</ele>
        <time>2014-02-15T13:21:07.000Z</time>
      </trkpt>
      <trkpt lat="45.67159" lon="6.01472">
        <ele>1372.5999755859</ele>
        <time>2014-02-15T13:21:10.000Z</time>
      </trkpt>
      <trkpt lat="45.67166" lon="6.01456">
        <ele>1371.4000244141</ele>
        <time>2014-02-15T13:21:15.000Z</time>
      </trkpt>
      <trkpt lat="45.67174" lon="6.01428">
        <ele>1370.4000244141</ele>
        <time>2014-02-15T13:21:20.000Z</time>
      </trkpt>
      <trkpt lat="45.6718" lon="6.01411">
        <ele>1369.8000488281</ele>
        <time>2014-02-15T13:21:23.000Z</time>
      </trkpt>
      <trkpt lat="45.67185" lon="6.0139">
        <ele>1369.4000244141</ele>
        <time>2014-02-15T13:21:28.000Z</time>
      </trkpt>
      <trkpt lat="45.67187" lon="6.01377">
        <ele>1369.1999511719</ele>
        <time>2014-02-15T13:21:30.000Z</time>
      </trkpt>
      <trkpt lat="45.67192" lon="6.01353">
        <ele>1368.8000488281</ele>
        <time>2014-02-15T13:21:34.000Z</time>
      </trkpt>
      <trkpt lat="45.67194" lon="6.01348">
        <ele>1368.5999755859</ele>
        <time>2014-02-15T13:21:36.000Z</time>
      </trkpt>
      <trkpt lat="45.67196" lon="6.01337">
        <ele>1368.4000244141</ele>
        <time>2014-02-15T13:21:42.000Z</time>
      </trkpt>
      <trkpt lat="45.67199" lon="6.01321">
        <ele>1368.8000488281</ele>
        <time>2014-02-15T13:21:47.000Z</time>
      </trkpt>
      <trkpt lat="45.67204" lon="6.01303">
        <ele>1369.4000244141</ele>
        <time>2014-02-15T13:21:52.000Z</time>
      </trkpt>
      <trkpt lat="45.67209" lon="6.01283">
        <ele>1370</ele>
        <time>2014-02-15T13:21:57.000Z</time>
      </trkpt>
      <trkpt lat="45.6721" lon="6.01276">
        <ele>1370.1999511719</ele>
        <time>2014-02-15T13:21:58.000Z</time>
      </trkpt>
      <trkpt lat="45.67217" lon="6.01238">
        <ele>1371</ele>
        <time>2014-02-15T13:22:03.000Z</time>
      </trkpt>
      <trkpt lat="45.67224" lon="6.01218">
        <ele>1371.1999511719</ele>
        <time>2014-02-15T13:22:06.000Z</time>
      </trkpt>
      <trkpt lat="45.67236" lon="6.01194">
        <ele>1371.1999511719</ele>
        <time>2014-02-15T13:22:11.000Z</time>
      </trkpt>
      <trkpt lat="45.67238" lon="6.01191">
        <ele>1371</ele>
        <time>2014-02-15T13:22:12.000Z</time>
      </trkpt>
      <trkpt lat="45.67248" lon="6.01181">
        <ele>1370.8000488281</ele>
        <time>2014-02-15T13:22:18.000Z</time>
      </trkpt>
      <trkpt lat="45.67257" lon="6.01174">
        <ele>1371.1999511719</ele>
        <time>2014-02-15T13:22:22.000Z</time>
      </trkpt>
      <trkpt lat="45.67269" lon="6.01165">
        <ele>1372.1999511719</ele>
        <time>2014-02-15T13:22:26.000Z</time>
      </trkpt>
      <trkpt lat="45.6728" lon="6.01155">
        <ele>1373.1999511719</ele>
        <time>2014-02-15T13:22:30.000Z</time>
      </trkpt>
      <trkpt lat="45.67293" lon="6.0115">
        <ele>1374.1999511719</ele>
        <time>2014-02-15T13:22:35.000Z</time>
      </trkpt>
      <trkpt lat="45.67295" lon="6.0115">
        <ele>1374.4000244141</ele>
        <time>2014-02-15T13:22:36.000Z</time>
      </trkpt>
      <trkpt lat="45.67305" lon="6.01146">
        <ele>1375.1999511719</ele>
        <time>2014-02-15T13:22:40.000Z</time>
      </trkpt>
      <trkpt lat="45.67309" lon="6.01144">
        <ele>1375.5999755859</ele>
        <time>2014-02-15T13:22:41.000Z</time>
      </trkpt>
      <trkpt lat="45.67317" lon="6.0113">
        <ele>1376.5999755859</ele>
        <time>2014-02-15T13:22:46.000Z</time>
      </trkpt>
      <trkpt lat="45.67324" lon="6.0112">
        <ele>1377.5999755859</ele>
        <time>2014-02-15T13:22:52.000Z</time>
      </trkpt>
      <trkpt lat="45.67327" lon="6.01114">
        <ele>1378.1999511719</ele>
        <time>2014-02-15T13:22:55.000Z</time>
      </trkpt>
      <trkpt lat="45.6733" lon="6.01111">
        <ele>1378.4000244141</ele>
        <time>2014-02-15T13:22:59.000Z</time>
      </trkpt>
      <trkpt lat="45.67335" lon="6.01107">
        <ele>1379</ele>
        <time>2014-02-15T13:23:03.000Z</time>
      </trkpt>
      <trkpt lat="45.67342" lon="6.01102">
        <ele>1379.5999755859</ele>
        <time>2014-02-15T13:23:09.000Z</time>
      </trkpt>
      <trkpt lat="45.67347" lon="6.01099">
        <ele>1379.8000488281</ele>
        <time>2014-02-15T13:23:13.000Z</time>
      </trkpt>
      <trkpt lat="45.6735" lon="6.01094">
        <ele>1380.1999511719</ele>
        <time>2014-02-15T13:23:17.000Z</time>
      </trkpt>
      <trkpt lat="45.67355" lon="6.01086">
        <ele>1380.5999755859</ele>
        <time>2014-02-15T13:23:21.000Z</time>
      </trkpt>
      <trkpt lat="45.67357" lon="6.01082">
        <ele>1381</ele>
        <time>2014-02-15T13:23:23.000Z</time>
      </trkpt>
      <trkpt lat="45.67375" lon="6.01071">
        <ele>1382</ele>
        <time>2014-02-15T13:23:29.000Z</time>
      </trkpt>
      <trkpt lat="45.67387" lon="6.01064">
        <ele>1382.5999755859</ele>
        <time>2014-02-15T13:23:33.000Z</time>
      </trkpt>
      <trkpt lat="45.67393" lon="6.01061">
        <ele>1383</ele>
        <time>2014-02-15T13:23:36.000Z</time>
      </trkpt>
      <trkpt lat="45.67403" lon="6.01061">
        <ele>1383.4000244141</ele>
        <time>2014-02-15T13:23:41.000Z</time>
      </trkpt>
      <trkpt lat="45.67415" lon="6.01055">
        <ele>1384.4000244141</ele>
        <time>2014-02-15T13:23:45.000Z</time>
      </trkpt>
      <trkpt lat="45.67427" lon="6.01048">
        <ele>1384.5999755859</ele>
        <time>2014-02-15T13:23:48.000Z</time>
      </trkpt>
      <trkpt lat="45.67447" lon="6.01042">
        <ele>1384.4000244141</ele>
        <time>2014-02-15T13:23:53.000Z</time>
      </trkpt>
      <trkpt lat="45.67455" lon="6.01037">
        <ele>1384.4000244141</ele>
        <time>2014-02-15T13:23:56.000Z</time>
      </trkpt>
      <trkpt lat="45.67463" lon="6.01034">
        <ele>1384.1999511719</ele>
        <time>2014-02-15T13:24:01.000Z</time>
      </trkpt>
      <trkpt lat="45.67465" lon="6.01032">
        <ele>1384.1999511719</ele>
        <time>2014-02-15T13:24:04.000Z</time>
      </trkpt>
      <trkpt lat="45.67475" lon="6.01027">
        <ele>1384</ele>
        <time>2014-02-15T13:24:09.000Z</time>
      </trkpt>
      <trkpt lat="45.67481" lon="6.01025">
        <ele>1383.8000488281</ele>
        <time>2014-02-15T13:24:11.000Z</time>
      </trkpt>
      <trkpt lat="45.6749" lon="6.01018">
        <ele>1383.5999755859</ele>
        <time>2014-02-15T13:24:16.000Z</time>
      </trkpt>
      <trkpt lat="45.67498" lon="6.01011">
        <ele>1383.1999511719</ele>
        <time>2014-02-15T13:24:20.000Z</time>
      </trkpt>
      <trkpt lat="45.67514" lon="6.00999">
        <ele>1381.4000244141</ele>
        <time>2014-02-15T13:24:24.000Z</time>
      </trkpt>
      <trkpt lat="45.67531" lon="6.00995">
        <ele>1379.1999511719</ele>
        <time>2014-02-15T13:24:27.000Z</time>
      </trkpt>
      <trkpt lat="45.6754" lon="6.00996">
        <ele>1378</ele>
        <time>2014-02-15T13:24:29.000Z</time>
      </trkpt>
      <trkpt lat="45.67557" lon="6.01009">
        <ele>1377</ele>
        <time>2014-02-15T13:24:35.000Z</time>
      </trkpt>
      <trkpt lat="45.6757" lon="6.0102">
        <ele>1376.8000488281</ele>
        <time>2014-02-15T13:24:41.000Z</time>
      </trkpt>
      <trkpt lat="45.67579" lon="6.0102">
        <ele>1375.8000488281</ele>
        <time>2014-02-15T13:24:45.000Z</time>
      </trkpt>
      <trkpt lat="45.67583" lon="6.0103">
        <ele>1376.5999755859</ele>
        <time>2014-02-15T13:24:48.000Z</time>
      </trkpt>
      <trkpt lat="45.67583" lon="6.01032">
        <ele>1377</ele>
        <time>2014-02-15T13:24:49.000Z</time>
      </trkpt>
      <trkpt lat="45.67585" lon="6.0104">
        <ele>1377.8000488281</ele>
        <time>2014-02-15T13:24:55.000Z</time>
      </trkpt>
      <trkpt lat="45.67582" lon="6.01044">
        <ele>1378.4000244141</ele>
        <time>2014-02-15T13:24:57.000Z</time>
      </trkpt>
      <trkpt lat="45.67576" lon="6.01049">
        <ele>1379.1999511719</ele>
        <time>2014-02-15T13:24:59.000Z</time>
      </trkpt>
      <trkpt lat="45.67574" lon="6.01051">
        <ele>1379.5999755859</ele>
        <time>2014-02-15T13:25:02.000Z</time>
      </trkpt>
      <trkpt lat="45.6757" lon="6.01058">
        <ele>1380.5999755859</ele>
        <time>2014-02-15T13:25:06.000Z</time>
      </trkpt>
      <trkpt lat="45.67564" lon="6.01065">
        <ele>1381.5999755859</ele>
        <time>2014-02-15T13:25:11.000Z</time>
      </trkpt>
      <trkpt lat="45.67557" lon="6.01072">
        <ele>1382.4000244141</ele>
        <time>2014-02-15T13:25:15.000Z</time>
      </trkpt>
      <trkpt lat="45.67558" lon="6.01083">
        <ele>1383.4000244141</ele>
        <time>2014-02-15T13:25:19.000Z</time>
      </trkpt>
      <trkpt lat="45.67557" lon="6.01088">
        <ele>1383.4000244141</ele>
        <time>2014-02-15T13:25:21.000Z</time>
      </trkpt>
      <trkpt lat="45.67556" lon="6.01094">
        <ele>1383.4000244141</ele>
        <time>2014-02-15T13:25:24.000Z</time>
      </trkpt>
      <trkpt lat="45.67552" lon="6.01102">
        <ele>1383.4000244141</ele>
        <time>2014-02-15T13:25:28.000Z</time>
      </trkpt>
      <trkpt lat="45.67551" lon="6.01114">
        <ele>1383.4000244141</ele>
        <time>2014-02-15T13:25:32.000Z</time>
      </trkpt>
      <trkpt lat="45.67549" lon="6.01122">
        <ele>1383.4000244141</ele>
        <time>2014-02-15T13:25:35.000Z</time>
      </trkpt>
      <trkpt lat="45.67543" lon="6.01143">
        <ele>1383.5999755859</ele>
        <time>2014-02-15T13:25:41.000Z</time>
      </trkpt>
      <trkpt lat="45.67541" lon="6.01172">
        <ele>1383.4000244141</ele>
        <time>2014-02-15T13:25:46.000Z</time>
      </trkpt>
      <trkpt lat="45.67533" lon="6.01193">
        <ele>1383.1999511719</ele>
        <time>2014-02-15T13:25:50.000Z</time>
      </trkpt>
      <trkpt lat="45.6753" lon="6.01198">
        <ele>1383</ele>
        <time>2014-02-15T13:25:51.000Z</time>
      </trkpt>
      <trkpt lat="45.67523" lon="6.01211">
        <ele>1382.5999755859</ele>
        <time>2014-02-15T13:25:56.000Z</time>
      </trkpt>
      <trkpt lat="45.67521" lon="6.01214">
        <ele>1382.4000244141</ele>
        <time>2014-02-15T13:25:57.000Z</time>
      </trkpt>
      <trkpt lat="45.67515" lon="6.01231">
        <ele>1381.5999755859</ele>
        <time>2014-02-15T13:26:02.000Z</time>
      </trkpt>
      <trkpt lat="45.67512" lon="6.01235">
        <ele>1381.4000244141</ele>
        <time>2014-02-15T13:26:03.000Z</time>
      </trkpt>
      <trkpt lat="45.67506" lon="6.01247">
        <ele>1380.5999755859</ele>
        <time>2014-02-15T13:26:07.000Z</time>
      </trkpt>
      <trkpt lat="45.67504" lon="6.01255">
        <ele>1380.5999755859</ele>
        <time>2014-02-15T13:26:10.000Z</time>
      </trkpt>
      <trkpt lat="45.67503" lon="6.0126">
        <ele>1380.5999755859</ele>
        <time>2014-02-15T13:26:13.000Z</time>
      </trkpt>
      <trkpt lat="45.67497" lon="6.01269">
        <ele>1380.5999755859</ele>
        <time>2014-02-15T13:26:19.000Z</time>
      </trkpt>
      <trkpt lat="45.67494" lon="6.01273">
        <ele>1380.5999755859</ele>
        <time>2014-02-15T13:26:21.000Z</time>
      </trkpt>
      <trkpt lat="45.67488" lon="6.01281">
        <ele>1380.8000488281</ele>
        <time>2014-02-15T13:26:26.000Z</time>
      </trkpt>
      <trkpt lat="45.67486" lon="6.01283">
        <ele>1380.8000488281</ele>
        <time>2014-02-15T13:26:27.000Z</time>
      </trkpt>
      <trkpt lat="45.67477" lon="6.01292">
        <ele>1380.5999755859</ele>
        <time>2014-02-15T13:26:31.000Z</time>
      </trkpt>
      <trkpt lat="45.67468" lon="6.01301">
        <ele>1380.5999755859</ele>
        <time>2014-02-15T13:26:34.000Z</time>
      </trkpt>
      <trkpt lat="45.67465" lon="6.01303">
        <ele>1380.5999755859</ele>
        <time>2014-02-15T13:26:35.000Z</time>
      </trkpt>
      <trkpt lat="45.67455" lon="6.01323">
        <ele>1380.5999755859</ele>
        <time>2014-02-15T13:26:40.000Z</time>
      </trkpt>
      <trkpt lat="45.67453" lon="6.01345">
        <ele>1381.1999511719</ele>
        <time>2014-02-15T13:26:45.000Z</time>
      </trkpt>
      <trkpt lat="45.67449" lon="6.01362">
        <ele>1381.4000244141</ele>
        <time>2014-02-15T13:26:50.000Z</time>
      </trkpt>
      <trkpt lat="45.67445" lon="6.01376">
        <ele>1381.5999755859</ele>
        <time>2014-02-15T13:26:54.000Z</time>
      </trkpt>
      <trkpt lat="45.67445" lon="6.01379">
        <ele>1381.5999755859</ele>
        <time>2014-02-15T13:26:55.000Z</time>
      </trkpt>
      <trkpt lat="45.67447" lon="6.01398">
        <ele>1382.4000244141</ele>
        <time>2014-02-15T13:27:01.000Z</time>
      </trkpt>
      <trkpt lat="45.67448" lon="6.01405">
        <ele>1382.8000488281</ele>
        <time>2014-02-15T13:27:04.000Z</time>
      </trkpt>
      <trkpt lat="45.6745" lon="6.0141">
        <ele>1383</ele>
        <time>2014-02-15T13:27:06.000Z</time>
      </trkpt>
      <trkpt lat="45.67449" lon="6.01416">
        <ele>1383</ele>
        <time>2014-02-15T13:27:08.000Z</time>
      </trkpt>
      <trkpt lat="45.67447" lon="6.01428">
        <ele>1382.8000488281</ele>
        <time>2014-02-15T13:27:12.000Z</time>
      </trkpt>
      <trkpt lat="45.67452" lon="6.01442">
        <ele>1383.1999511719</ele>
        <time>2014-02-15T13:27:17.000Z</time>
      </trkpt>
      <trkpt lat="45.67454" lon="6.01449">
        <ele>1383.4000244141</ele>
        <time>2014-02-15T13:27:19.000Z</time>
      </trkpt>
      <trkpt lat="45.6746" lon="6.01463">
        <ele>1383.8000488281</ele>
        <time>2014-02-15T13:27:23.000Z</time>
      </trkpt>
      <trkpt lat="45.67456" lon="6.01484">
        <ele>1383.1999511719</ele>
        <time>2014-02-15T13:27:28.000Z</time>
      </trkpt>
      <trkpt lat="45.67442" lon="6.01505">
        <ele>1381.1999511719</ele>
        <time>2014-02-15T13:27:33.000Z</time>
      </trkpt>
      <trkpt lat="45.67434" lon="6.01517">
        <ele>1379.5999755859</ele>
        <time>2014-02-15T13:27:35.000Z</time>
      </trkpt>
      <trkpt lat="45.67421" lon="6.01562">
        <ele>1376.8000488281</ele>
        <time>2014-02-15T13:27:40.000Z</time>
      </trkpt>
      <trkpt lat="45.67426" lon="6.0158">
        <ele>1376.8000488281</ele>
        <time>2014-02-15T13:27:43.000Z</time>
      </trkpt>
      <trkpt lat="45.67436" lon="6.01588">
        <ele>1377.1999511719</ele>
        <time>2014-02-15T13:27:46.000Z</time>
      </trkpt>
      <trkpt lat="45.67439" lon="6.01592">
        <ele>1377.1999511719</ele>
        <time>2014-02-15T13:27:47.000Z</time>
      </trkpt>
      <trkpt lat="45.67445" lon="6.01605">
        <ele>1377.1999511719</ele>
        <time>2014-02-15T13:27:50.000Z</time>
      </trkpt>
      <trkpt lat="45.67447" lon="6.01616">
        <ele>1377</ele>
        <time>2014-02-15T13:27:52.000Z</time>
      </trkpt>
      <trkpt lat="45.67448" lon="6.01663">
        <ele>1375.4000244141</ele>
        <time>2014-02-15T13:27:57.000Z</time>
      </trkpt>
      <trkpt lat="45.67449" lon="6.01672">
        <ele>1375.1999511719</ele>
        <time>2014-02-15T13:27:58.000Z</time>
      </trkpt>
      <trkpt lat="45.6745" lon="6.01698">
        <ele>1375</ele>
        <time>2014-02-15T13:28:02.000Z</time>
      </trkpt>
      <trkpt lat="45.67446" lon="6.01721">
        <ele>1374.1999511719</ele>
        <time>2014-02-15T13:28:07.000Z</time>
      </trkpt>
      <trkpt lat="45.67446" lon="6.01742">
        <ele>1374</ele>
        <time>2014-02-15T13:28:12.000Z</time>
      </trkpt>
      <trkpt lat="45.67449" lon="6.01757">
        <ele>1374</ele>
        <time>2014-02-15T13:28:16.000Z</time>
      </trkpt>
      <trkpt lat="45.67446" lon="6.01779">
        <ele>1373.8000488281</ele>
        <time>2014-02-15T13:28:20.000Z</time>
      </trkpt>
      <trkpt lat="45.67447" lon="6.0181">
        <ele>1373.8000488281</ele>
        <time>2014-02-15T13:28:26.000Z</time>
      </trkpt>
      <trkpt lat="45.67448" lon="6.01836">
        <ele>1374.1999511719</ele>
        <time>2014-02-15T13:28:31.000Z</time>
      </trkpt>
      <trkpt lat="45.67448" lon="6.01849">
        <ele>1374.8000488281</ele>
        <time>2014-02-15T13:28:34.000Z</time>
      </trkpt>
      <trkpt lat="45.6745" lon="6.01861">
        <ele>1375.4000244141</ele>
        <time>2014-02-15T13:28:38.000Z</time>
      </trkpt>
      <trkpt lat="45.67452" lon="6.01874">
        <ele>1376.1999511719</ele>
        <time>2014-02-15T13:28:42.000Z</time>
      </trkpt>
      <trkpt lat="45.67454" lon="6.01882">
        <ele>1376.8000488281</ele>
        <time>2014-02-15T13:28:45.000Z</time>
      </trkpt>
      <trkpt lat="45.67461" lon="6.01897">
        <ele>1377.8000488281</ele>
        <time>2014-02-15T13:28:50.000Z</time>
      </trkpt>
      <trkpt lat="45.67463" lon="6.01905">
        <ele>1378.4000244141</ele>
        <time>2014-02-15T13:28:52.000Z</time>
      </trkpt>
      <trkpt lat="45.67465" lon="6.01936">
        <ele>1378.1999511719</ele>
        <time>2014-02-15T13:28:58.000Z</time>
      </trkpt>
      <trkpt lat="45.67468" lon="6.01956">
        <ele>1377.4000244141</ele>
        <time>2014-02-15T13:29:02.000Z</time>
      </trkpt>
      <trkpt lat="45.67469" lon="6.01965">
        <ele>1377.1999511719</ele>
        <time>2014-02-15T13:29:04.000Z</time>
      </trkpt>
      <trkpt lat="45.67477" lon="6.01974">
        <ele>1377</ele>
        <time>2014-02-15T13:29:08.000Z</time>
      </trkpt>
      <trkpt lat="45.67481" lon="6.01978">
        <ele>1376.8000488281</ele>
        <time>2014-02-15T13:29:12.000Z</time>
      </trkpt>
      <trkpt lat="45.67488" lon="6.01982">
        <ele>1376.8000488281</ele>
        <time>2014-02-15T13:29:17.000Z</time>
      </trkpt>
      <trkpt lat="45.6749" lon="6.01984">
        <ele>1376.8000488281</ele>
        <time>2014-02-15T13:29:19.000Z</time>
      </trkpt>
      <trkpt lat="45.67499" lon="6.01991">
        <ele>1376.4000244141</ele>
        <time>2014-02-15T13:29:26.000Z</time>
      </trkpt>
      <trkpt lat="45.67503" lon="6.01995">
        <ele>1376.4000244141</ele>
        <time>2014-02-15T13:29:28.000Z</time>
      </trkpt>
      <trkpt lat="45.67505" lon="6.02002">
        <ele>1376</ele>
        <time>2014-02-15T13:29:31.000Z</time>
      </trkpt>
      <trkpt lat="45.67512" lon="6.0201">
        <ele>1376</ele>
        <time>2014-02-15T13:29:35.000Z</time>
      </trkpt>
      <trkpt lat="45.67517" lon="6.02014">
        <ele>1375.8000488281</ele>
        <time>2014-02-15T13:29:38.000Z</time>
      </trkpt>
      <trkpt lat="45.67523" lon="6.02019">
        <ele>1375.8000488281</ele>
        <time>2014-02-15T13:29:43.000Z</time>
      </trkpt>
      <trkpt lat="45.67526" lon="6.02021">
        <ele>1375.8000488281</ele>
        <time>2014-02-15T13:29:45.000Z</time>
      </trkpt>
      <trkpt lat="45.67533" lon="6.02025">
        <ele>1376</ele>
        <time>2014-02-15T13:29:49.000Z</time>
      </trkpt>
      <trkpt lat="45.67541" lon="6.02027">
        <ele>1376.1999511719</ele>
        <time>2014-02-15T13:29:53.000Z</time>
      </trkpt>
      <trkpt lat="45.67554" lon="6.02035">
        <ele>1376.4000244141</ele>
        <time>2014-02-15T13:29:59.000Z</time>
      </trkpt>
      <trkpt lat="45.67562" lon="6.02042">
        <ele>1376.4000244141</ele>
        <time>2014-02-15T13:30:03.000Z</time>
      </trkpt>
      <trkpt lat="45.67564" lon="6.02044">
        <ele>1376.1999511719</ele>
        <time>2014-02-15T13:30:04.000Z</time>
      </trkpt>
      <trkpt lat="45.67571" lon="6.0206">
        <ele>1375.8000488281</ele>
        <time>2014-02-15T13:30:09.000Z</time>
      </trkpt>
      <trkpt lat="45.67581" lon="6.0207">
        <ele>1375.5999755859</ele>
        <time>2014-02-15T13:30:14.000Z</time>
      </trkpt>
      <trkpt lat="45.67597" lon="6.02062">
        <ele>1377.4000244141</ele>
        <time>2014-02-15T13:30:17.000Z</time>
      </trkpt>
      <trkpt lat="45.6761" lon="6.02046">
        <ele>1379</ele>
        <time>2014-02-15T13:30:20.000Z</time>
      </trkpt>
      <trkpt lat="45.67622" lon="6.02026">
        <ele>1380.1999511719</ele>
        <time>2014-02-15T13:30:25.000Z</time>
      </trkpt>
      <trkpt lat="45.67628" lon="6.02016">
        <ele>1380.8000488281</ele>
        <time>2014-02-15T13:30:28.000Z</time>
      </trkpt>
      <trkpt lat="45.67642" lon="6.01995">
        <ele>1381.5999755859</ele>
        <time>2014-02-15T13:30:34.000Z</time>
      </trkpt>
      <trkpt lat="45.67646" lon="6.01988">
        <ele>1382</ele>
        <time>2014-02-15T13:30:37.000Z</time>
      </trkpt>
      <trkpt lat="45.6765" lon="6.0198">
        <ele>1382.1999511719</ele>
        <time>2014-02-15T13:30:42.000Z</time>
      </trkpt>
      <trkpt lat="45.67654" lon="6.01974">
        <ele>1382.5999755859</ele>
        <time>2014-02-15T13:30:46.000Z</time>
      </trkpt>
      <trkpt lat="45.67656" lon="6.01971">
        <ele>1382.5999755859</ele>
        <time>2014-02-15T13:30:48.000Z</time>
      </trkpt>
      <trkpt lat="45.67661" lon="6.01957">
        <ele>1383</ele>
        <time>2014-02-15T13:30:54.000Z</time>
      </trkpt>
      <trkpt lat="45.67663" lon="6.01954">
        <ele>1383.1999511719</ele>
        <time>2014-02-15T13:30:56.000Z</time>
      </trkpt>
      <trkpt lat="45.6767" lon="6.01942">
        <ele>1383.5999755859</ele>
        <time>2014-02-15T13:31:02.000Z</time>
      </trkpt>
      <trkpt lat="45.67674" lon="6.01933">
        <ele>1384</ele>
        <time>2014-02-15T13:31:07.000Z</time>
      </trkpt>
      <trkpt lat="45.67681" lon="6.01917">
        <ele>1384.5999755859</ele>
        <time>2014-02-15T13:31:13.000Z</time>
      </trkpt>
      <trkpt lat="45.67686" lon="6.01909">
        <ele>1385</ele>
        <time>2014-02-15T13:31:15.000Z</time>
      </trkpt>
      <trkpt lat="45.6769" lon="6.01888">
        <ele>1386</ele>
        <time>2014-02-15T13:31:21.000Z</time>
      </trkpt>
      <trkpt lat="45.67691" lon="6.01886">
        <ele>1386.1999511719</ele>
        <time>2014-02-15T13:31:22.000Z</time>
      </trkpt>
      <trkpt lat="45.67693" lon="6.01872">
        <ele>1386.8000488281</ele>
        <time>2014-02-15T13:31:27.000Z</time>
      </trkpt>
      <trkpt lat="45.67696" lon="6.01853">
        <ele>1387.5999755859</ele>
        <time>2014-02-15T13:31:33.000Z</time>
      </trkpt>
      <trkpt lat="45.67701" lon="6.01842">
        <ele>1387.8000488281</ele>
        <time>2014-02-15T13:31:38.000Z</time>
      </trkpt>
      <trkpt lat="45.67704" lon="6.01827">
        <ele>1388</ele>
        <time>2014-02-15T13:31:43.000Z</time>
      </trkpt>
      <trkpt lat="45.67704" lon="6.01825">
        <ele>1388</ele>
        <time>2014-02-15T13:31:44.000Z</time>
      </trkpt>
      <trkpt lat="45.67703" lon="6.01825">
        <ele>1388.1999511719</ele>
        <time>2014-02-15T13:31:51.000Z</time>
      </trkpt>
      <trkpt lat="45.67702" lon="6.01826">
        <ele>1388.1999511719</ele>
        <time>2014-02-15T13:31:58.000Z</time>
      </trkpt>
      <trkpt lat="45.67708" lon="6.01806">
        <ele>1387.8000488281</ele>
        <time>2014-02-15T13:32:04.000Z</time>
      </trkpt>
      <trkpt lat="45.67712" lon="6.01793">
        <ele>1387.5999755859</ele>
        <time>2014-02-15T13:32:09.000Z</time>
      </trkpt>
      <trkpt lat="45.67714" lon="6.01791">
        <ele>1387.4000244141</ele>
        <time>2014-02-15T13:32:10.000Z</time>
      </trkpt>
      <trkpt lat="45.67725" lon="6.01783">
        <ele>1386.5999755859</ele>
        <time>2014-02-15T13:32:16.000Z</time>
      </trkpt>
      <trkpt lat="45.67729" lon="6.01781">
        <ele>1386.4000244141</ele>
        <time>2014-02-15T13:32:18.000Z</time>
      </trkpt>
      <trkpt lat="45.67736" lon="6.01789">
        <ele>1386.1999511719</ele>
        <time>2014-02-15T13:32:23.000Z</time>
      </trkpt>
      <trkpt lat="45.67742" lon="6.01799">
        <ele>1386.1999511719</ele>
        <time>2014-02-15T13:32:28.000Z</time>
      </trkpt>
      <trkpt lat="45.67747" lon="6.01805">
        <ele>1386.1999511719</ele>
        <time>2014-02-15T13:32:31.000Z</time>
      </trkpt>
      <trkpt lat="45.67754" lon="6.01817">
        <ele>1386.4000244141</ele>
        <time>2014-02-15T13:32:35.000Z</time>
      </trkpt>
      <trkpt lat="45.67756" lon="6.0182">
        <ele>1386.5999755859</ele>
        <time>2014-02-15T13:32:36.000Z</time>
      </trkpt>
      <trkpt lat="45.67767" lon="6.01838">
        <ele>1387.1999511719</ele>
        <time>2014-02-15T13:32:43.000Z</time>
      </trkpt>
      <trkpt lat="45.67778" lon="6.01851">
        <ele>1387.4000244141</ele>
        <time>2014-02-15T13:32:48.000Z</time>
      </trkpt>
      <trkpt lat="45.67791" lon="6.01862">
        <ele>1387.4000244141</ele>
        <time>2014-02-15T13:32:53.000Z</time>
      </trkpt>
      <trkpt lat="45.67803" lon="6.01868">
        <ele>1387.5999755859</ele>
        <time>2014-02-15T13:32:57.000Z</time>
      </trkpt>
      <trkpt lat="45.67813" lon="6.01876">
        <ele>1387.8000488281</ele>
        <time>2014-02-15T13:33:02.000Z</time>
      </trkpt>
      <trkpt lat="45.67825" lon="6.01891">
        <ele>1387.8000488281</ele>
        <time>2014-02-15T13:33:08.000Z</time>
      </trkpt>
      <trkpt lat="45.67828" lon="6.01893">
        <ele>1388</ele>
        <time>2014-02-15T13:33:09.000Z</time>
      </trkpt>
      <trkpt lat="45.67829" lon="6.01907">
        <ele>1388</ele>
        <time>2014-02-15T13:33:13.000Z</time>
      </trkpt>
      <trkpt lat="45.67834" lon="6.01929">
        <ele>1387.8000488281</ele>
        <time>2014-02-15T13:33:18.000Z</time>
      </trkpt>
      <trkpt lat="45.67845" lon="6.01955">
        <ele>1387</ele>
        <time>2014-02-15T13:33:22.000Z</time>
      </trkpt>
      <trkpt lat="45.6785" lon="6.01959">
        <ele>1386.8000488281</ele>
        <time>2014-02-15T13:33:23.000Z</time>
      </trkpt>
      <trkpt lat="45.67864" lon="6.01965">
        <ele>1386.1999511719</ele>
        <time>2014-02-15T13:33:26.000Z</time>
      </trkpt>
      <trkpt lat="45.67874" lon="6.01972">
        <ele>1385.8000488281</ele>
        <time>2014-02-15T13:33:29.000Z</time>
      </trkpt>
      <trkpt lat="45.67883" lon="6.01984">
        <ele>1385.1999511719</ele>
        <time>2014-02-15T13:33:32.000Z</time>
      </trkpt>
      <trkpt lat="45.67893" lon="6.02005">
        <ele>1385</ele>
        <time>2014-02-15T13:33:37.000Z</time>
      </trkpt>
      <trkpt lat="45.67898" lon="6.02015">
        <ele>1385.1999511719</ele>
        <time>2014-02-15T13:33:40.000Z</time>
      </trkpt>
      <trkpt lat="45.67902" lon="6.02035">
        <ele>1385.8000488281</ele>
        <time>2014-02-15T13:33:45.000Z</time>
      </trkpt>
      <trkpt lat="45.67907" lon="6.0205">
        <ele>1386</ele>
        <time>2014-02-15T13:33:49.000Z</time>
      </trkpt>
      <trkpt lat="45.67917" lon="6.02071">
        <ele>1386.5999755859</ele>
        <time>2014-02-15T13:33:54.000Z</time>
      </trkpt>
      <trkpt lat="45.67927" lon="6.0209">
        <ele>1385.4000244141</ele>
        <time>2014-02-15T13:33:59.000Z</time>
      </trkpt>
      <trkpt lat="45.6793" lon="6.02098">
        <ele>1384.5999755859</ele>
        <time>2014-02-15T13:34:01.000Z</time>
      </trkpt>
      <trkpt lat="45.67942" lon="6.02118">
        <ele>1382.5999755859</ele>
        <time>2014-02-15T13:34:06.000Z</time>
      </trkpt>
      <trkpt lat="45.67948" lon="6.02124">
        <ele>1381.5999755859</ele>
        <time>2014-02-15T13:34:08.000Z</time>
      </trkpt>
      <trkpt lat="45.67955" lon="6.02131">
        <ele>1380.4000244141</ele>
        <time>2014-02-15T13:34:11.000Z</time>
      </trkpt>
      <trkpt lat="45.6796" lon="6.02153">
        <ele>1379.4000244141</ele>
        <time>2014-02-15T13:34:17.000Z</time>
      </trkpt>
      <trkpt lat="45.67965" lon="6.02187">
        <ele>1378.8000488281</ele>
        <time>2014-02-15T13:34:23.000Z</time>
      </trkpt>
      <trkpt lat="45.67968" lon="6.02196">
        <ele>1378.5999755859</ele>
        <time>2014-02-15T13:34:25.000Z</time>
      </trkpt>
      <trkpt lat="45.67984" lon="6.02201">
        <ele>1377</ele>
        <time>2014-02-15T13:34:29.000Z</time>
      </trkpt>
      <trkpt lat="45.67995" lon="6.02189">
        <ele>1375</ele>
        <time>2014-02-15T13:34:32.000Z</time>
      </trkpt>
      <trkpt lat="45.68003" lon="6.0217">
        <ele>1373.1999511719</ele>
        <time>2014-02-15T13:34:36.000Z</time>
      </trkpt>
      <trkpt lat="45.68011" lon="6.02156">
        <ele>1373</ele>
        <time>2014-02-15T13:34:39.000Z</time>
      </trkpt>
      <trkpt lat="45.68015" lon="6.02144">
        <ele>1372.5999755859</ele>
        <time>2014-02-15T13:34:41.000Z</time>
      </trkpt>
      <trkpt lat="45.68017" lon="6.02109">
        <ele>1371.5999755859</ele>
        <time>2014-02-15T13:34:45.000Z</time>
      </trkpt>
      <trkpt lat="45.68031" lon="6.02076">
        <ele>1367.5999755859</ele>
        <time>2014-02-15T13:34:50.000Z</time>
      </trkpt>
      <trkpt lat="45.68038" lon="6.02078">
        <ele>1366.1999511719</ele>
        <time>2014-02-15T13:34:52.000Z</time>
      </trkpt>
      <trkpt lat="45.68042" lon="6.02088">
        <ele>1366.4000244141</ele>
        <time>2014-02-15T13:34:55.000Z</time>
      </trkpt>
      <trkpt lat="45.68052" lon="6.02105">
        <ele>1366.4000244141</ele>
        <time>2014-02-15T13:35:01.000Z</time>
      </trkpt>
      <trkpt lat="45.68062" lon="6.02116">
        <ele>1366.8000488281</ele>
        <time>2014-02-15T13:35:06.000Z</time>
      </trkpt>
      <trkpt lat="45.68068" lon="6.02124">
        <ele>1367.1999511719</ele>
        <time>2014-02-15T13:35:09.000Z</time>
      </trkpt>
      <trkpt lat="45.68079" lon="6.0213">
        <ele>1367.4000244141</ele>
        <time>2014-02-15T13:35:14.000Z</time>
      </trkpt>
      <trkpt lat="45.68089" lon="6.02136">
        <ele>1367.4000244141</ele>
        <time>2014-02-15T13:35:18.000Z</time>
      </trkpt>
      <trkpt lat="45.68094" lon="6.02139">
        <ele>1367.1999511719</ele>
        <time>2014-02-15T13:35:20.000Z</time>
      </trkpt>
      <trkpt lat="45.68108" lon="6.02149">
        <ele>1366.8000488281</ele>
        <time>2014-02-15T13:35:26.000Z</time>
      </trkpt>
      <trkpt lat="45.68121" lon="6.02161">
        <ele>1366.8000488281</ele>
        <time>2014-02-15T13:35:31.000Z</time>
      </trkpt>
      <trkpt lat="45.6813" lon="6.02171">
        <ele>1366.8000488281</ele>
        <time>2014-02-15T13:35:36.000Z</time>
      </trkpt>
      <trkpt lat="45.68137" lon="6.0218">
        <ele>1367</ele>
        <time>2014-02-15T13:35:40.000Z</time>
      </trkpt>
      <trkpt lat="45.68147" lon="6.02197">
        <ele>1367.8000488281</ele>
        <time>2014-02-15T13:35:46.000Z</time>
      </trkpt>
      <trkpt lat="45.68158" lon="6.02209">
        <ele>1368.1999511719</ele>
        <time>2014-02-15T13:35:51.000Z</time>
      </trkpt>
      <trkpt lat="45.68168" lon="6.02223">
        <ele>1369</ele>
        <time>2014-02-15T13:35:56.000Z</time>
      </trkpt>
      <trkpt lat="45.68178" lon="6.02235">
        <ele>1368.4000244141</ele>
        <time>2014-02-15T13:36:00.000Z</time>
      </trkpt>
      <trkpt lat="45.68186" lon="6.02244">
        <ele>1367.4000244141</ele>
        <time>2014-02-15T13:36:04.000Z</time>
      </trkpt>
      <trkpt lat="45.68193" lon="6.02254">
        <ele>1367</ele>
        <time>2014-02-15T13:36:09.000Z</time>
      </trkpt>
      <trkpt lat="45.68204" lon="6.02266">
        <ele>1366.8000488281</ele>
        <time>2014-02-15T13:36:14.000Z</time>
      </trkpt>
      <trkpt lat="45.68213" lon="6.02282">
        <ele>1367.4000244141</ele>
        <time>2014-02-15T13:36:19.000Z</time>
      </trkpt>
      <trkpt lat="45.68218" lon="6.02294">
        <ele>1368.5999755859</ele>
        <time>2014-02-15T13:36:23.000Z</time>
      </trkpt>
      <trkpt lat="45.68224" lon="6.02308">
        <ele>1370</ele>
        <time>2014-02-15T13:36:28.000Z</time>
      </trkpt>
      <trkpt lat="45.6823" lon="6.02323">
        <ele>1371.5999755859</ele>
        <time>2014-02-15T13:36:33.000Z</time>
      </trkpt>
      <trkpt lat="45.68236" lon="6.02333">
        <ele>1372.4000244141</ele>
        <time>2014-02-15T13:36:37.000Z</time>
      </trkpt>
      <trkpt lat="45.68246" lon="6.02347">
        <ele>1373.1999511719</ele>
        <time>2014-02-15T13:36:42.000Z</time>
      </trkpt>
      <trkpt lat="45.68253" lon="6.02356">
        <ele>1373.5999755859</ele>
        <time>2014-02-15T13:36:45.000Z</time>
      </trkpt>
      <trkpt lat="45.68256" lon="6.02358">
        <ele>1373.1999511719</ele>
        <time>2014-02-15T13:36:46.000Z</time>
      </trkpt>
      <trkpt lat="45.68267" lon="6.02372">
        <ele>1373.4000244141</ele>
        <time>2014-02-15T13:36:51.000Z</time>
      </trkpt>
      <trkpt lat="45.6827" lon="6.02376">
        <ele>1373.5999755859</ele>
        <time>2014-02-15T13:36:52.000Z</time>
      </trkpt>
      <trkpt lat="45.68289" lon="6.02399">
        <ele>1373</ele>
        <time>2014-02-15T13:36:59.000Z</time>
      </trkpt>
      <trkpt lat="45.68305" lon="6.02407">
        <ele>1370</ele>
        <time>2014-02-15T13:37:04.000Z</time>
      </trkpt>
      <trkpt lat="45.68315" lon="6.0241">
        <ele>1367.1999511719</ele>
        <time>2014-02-15T13:37:08.000Z</time>
      </trkpt>
      <trkpt lat="45.68335" lon="6.02424">
        <ele>1364</ele>
        <time>2014-02-15T13:37:14.000Z</time>
      </trkpt>
      <trkpt lat="45.6834" lon="6.02428">
        <ele>1363.8000488281</ele>
        <time>2014-02-15T13:37:16.000Z</time>
      </trkpt>
      <trkpt lat="45.68357" lon="6.02444">
        <ele>1363.5999755859</ele>
        <time>2014-02-15T13:37:23.000Z</time>
      </trkpt>
      <trkpt lat="45.68371" lon="6.02455">
        <ele>1363.1999511719</ele>
        <time>2014-02-15T13:37:28.000Z</time>
      </trkpt>
      <trkpt lat="45.68379" lon="6.02464">
        <ele>1363.4000244141</ele>
        <time>2014-02-15T13:37:31.000Z</time>
      </trkpt>
      <trkpt lat="45.68394" lon="6.02473">
        <ele>1362.5999755859</ele>
        <time>2014-02-15T13:37:35.000Z</time>
      </trkpt>
      <trkpt lat="45.68409" lon="6.02479">
        <ele>1361.1999511719</ele>
        <time>2014-02-15T13:37:39.000Z</time>
      </trkpt>
      <trkpt lat="45.68421" lon="6.02482">
        <ele>1360</ele>
        <time>2014-02-15T13:37:42.000Z</time>
      </trkpt>
      <trkpt lat="45.68445" lon="6.02488">
        <ele>1356.8000488281</ele>
        <time>2014-02-15T13:37:48.000Z</time>
      </trkpt>
      <trkpt lat="45.68449" lon="6.02489">
        <ele>1356.4000244141</ele>
        <time>2014-02-15T13:37:49.000Z</time>
      </trkpt>
      <trkpt lat="45.68466" lon="6.02498">
        <ele>1354.5999755859</ele>
        <time>2014-02-15T13:37:53.000Z</time>
      </trkpt>
      <trkpt lat="45.68482" lon="6.02516">
        <ele>1352.8000488281</ele>
        <time>2014-02-15T13:37:57.000Z</time>
      </trkpt>
      <trkpt lat="45.6849" lon="6.02545">
        <ele>1352.8000488281</ele>
        <time>2014-02-15T13:38:01.000Z</time>
      </trkpt>
      <trkpt lat="45.68492" lon="6.02557">
        <ele>1353.4000244141</ele>
        <time>2014-02-15T13:38:03.000Z</time>
      </trkpt>
      <trkpt lat="45.68494" lon="6.02585">
        <ele>1354.4000244141</ele>
        <time>2014-02-15T13:38:08.000Z</time>
      </trkpt>
      <trkpt lat="45.68495" lon="6.02631">
        <ele>1352.8000488281</ele>
        <time>2014-02-15T13:38:17.000Z</time>
      </trkpt>
      <trkpt lat="45.68499" lon="6.02648">
        <ele>1351.5999755859</ele>
        <time>2014-02-15T13:38:20.000Z</time>
      </trkpt>
      <trkpt lat="45.68502" lon="6.02671">
        <ele>1350.1999511719</ele>
        <time>2014-02-15T13:38:23.000Z</time>
      </trkpt>
      <trkpt lat="45.68506" lon="6.0269">
        <ele>1348.5999755859</ele>
        <time>2014-02-15T13:38:26.000Z</time>
      </trkpt>
      <trkpt lat="45.68505" lon="6.02726">
        <ele>1347</ele>
        <time>2014-02-15T13:38:31.000Z</time>
      </trkpt>
      <trkpt lat="45.68504" lon="6.02743">
        <ele>1346.5999755859</ele>
        <time>2014-02-15T13:38:33.000Z</time>
      </trkpt>
      <trkpt lat="45.68502" lon="6.02758">
        <ele>1345.5999755859</ele>
        <time>2014-02-15T13:38:35.000Z</time>
      </trkpt>
      <trkpt lat="45.68497" lon="6.02795">
        <ele>1342.5999755859</ele>
        <time>2014-02-15T13:38:40.000Z</time>
      </trkpt>
      <trkpt lat="45.68489" lon="6.02821">
        <ele>1341.5999755859</ele>
        <time>2014-02-15T13:38:44.000Z</time>
      </trkpt>
      <trkpt lat="45.68488" lon="6.02827">
        <ele>1341.4000244141</ele>
        <time>2014-02-15T13:38:45.000Z</time>
      </trkpt>
      <trkpt lat="45.68476" lon="6.02853">
        <ele>1343.4000244141</ele>
        <time>2014-02-15T13:38:50.000Z</time>
      </trkpt>
      <trkpt lat="45.68469" lon="6.02862">
        <ele>1345</ele>
        <time>2014-02-15T13:38:52.000Z</time>
      </trkpt>
      <trkpt lat="45.68447" lon="6.02877">
        <ele>1350.5999755859</ele>
        <time>2014-02-15T13:38:57.000Z</time>
      </trkpt>
      <trkpt lat="45.68431" lon="6.02897">
        <ele>1354.8000488281</ele>
        <time>2014-02-15T13:39:01.000Z</time>
      </trkpt>
      <trkpt lat="45.6843" lon="6.02915">
        <ele>1355.1999511719</ele>
        <time>2014-02-15T13:39:04.000Z</time>
      </trkpt>
      <trkpt lat="45.68435" lon="6.02942">
        <ele>1353.5999755859</ele>
        <time>2014-02-15T13:39:08.000Z</time>
      </trkpt>
      <trkpt lat="45.68439" lon="6.02953">
        <ele>1352.1999511719</ele>
        <time>2014-02-15T13:39:10.000Z</time>
      </trkpt>
      <trkpt lat="45.68453" lon="6.02968">
        <ele>1348.8000488281</ele>
        <time>2014-02-15T13:39:15.000Z</time>
      </trkpt>
      <trkpt lat="45.68473" lon="6.02985">
        <ele>1344.1999511719</ele>
        <time>2014-02-15T13:39:20.000Z</time>
      </trkpt>
      <trkpt lat="45.6849" lon="6.03015">
        <ele>1341</ele>
        <time>2014-02-15T13:39:25.000Z</time>
      </trkpt>
      <trkpt lat="45.68493" lon="6.0303">
        <ele>1340.4000244141</ele>
        <time>2014-02-15T13:39:27.000Z</time>
      </trkpt>
      <trkpt lat="45.68495" lon="6.03068">
        <ele>1339.8000488281</ele>
        <time>2014-02-15T13:39:32.000Z</time>
      </trkpt>
      <trkpt lat="45.68493" lon="6.03093">
        <ele>1339.8000488281</ele>
        <time>2014-02-15T13:39:36.000Z</time>
      </trkpt>
      <trkpt lat="45.68491" lon="6.03118">
        <ele>1339.4000244141</ele>
        <time>2014-02-15T13:39:40.000Z</time>
      </trkpt>
      <trkpt lat="45.68487" lon="6.03156">
        <ele>1338.8000488281</ele>
        <time>2014-02-15T13:39:45.000Z</time>
      </trkpt>
      <trkpt lat="45.6849" lon="6.03184">
        <ele>1337.1999511719</ele>
        <time>2014-02-15T13:39:49.000Z</time>
      </trkpt>
      <trkpt lat="45.68487" lon="6.03216">
        <ele>1335.5999755859</ele>
        <time>2014-02-15T13:39:54.000Z</time>
      </trkpt>
      <trkpt lat="45.68481" lon="6.03234">
        <ele>1334.8000488281</ele>
        <time>2014-02-15T13:39:57.000Z</time>
      </trkpt>
      <trkpt lat="45.68468" lon="6.03261">
        <ele>1334</ele>
        <time>2014-02-15T13:40:02.000Z</time>
      </trkpt>
      <trkpt lat="45.68461" lon="6.03276">
        <ele>1333.8000488281</ele>
        <time>2014-02-15T13:40:05.000Z</time>
      </trkpt>
      <trkpt lat="45.68456" lon="6.03286">
        <ele>1333.4000244141</ele>
        <time>2014-02-15T13:40:07.000Z</time>
      </trkpt>
      <trkpt lat="45.68449" lon="6.033">
        <ele>1332.8000488281</ele>
        <time>2014-02-15T13:40:10.000Z</time>
      </trkpt>
      <trkpt lat="45.68439" lon="6.03309">
        <ele>1332</ele>
        <time>2014-02-15T13:40:13.000Z</time>
      </trkpt>
      <trkpt lat="45.68417" lon="6.03315">
        <ele>1330.5999755859</ele>
        <time>2014-02-15T13:40:19.000Z</time>
      </trkpt>
      <trkpt lat="45.68397" lon="6.03311">
        <ele>1329.5999755859</ele>
        <time>2014-02-15T13:40:24.000Z</time>
      </trkpt>
      <trkpt lat="45.68382" lon="6.03311">
        <ele>1328.8000488281</ele>
        <time>2014-02-15T13:40:28.000Z</time>
      </trkpt>
      <trkpt lat="45.68365" lon="6.0331">
        <ele>1327.5999755859</ele>
        <time>2014-02-15T13:40:33.000Z</time>
      </trkpt>
      <trkpt lat="45.68345" lon="6.03308">
        <ele>1326.5999755859</ele>
        <time>2014-02-15T13:40:39.000Z</time>
      </trkpt>
      <trkpt lat="45.68331" lon="6.03299">
        <ele>1326.1999511719</ele>
        <time>2014-02-15T13:40:43.000Z</time>
      </trkpt>
      <trkpt lat="45.68319" lon="6.03288">
        <ele>1325.4000244141</ele>
        <time>2014-02-15T13:40:47.000Z</time>
      </trkpt>
      <trkpt lat="45.68307" lon="6.03272">
        <ele>1324.8000488281</ele>
        <time>2014-02-15T13:40:52.000Z</time>
      </trkpt>
      <trkpt lat="45.68298" lon="6.03255">
        <ele>1324.5999755859</ele>
        <time>2014-02-15T13:40:56.000Z</time>
      </trkpt>
      <trkpt lat="45.68293" lon="6.03237">
        <ele>1325</ele>
        <time>2014-02-15T13:41:00.000Z</time>
      </trkpt>
      <trkpt lat="45.68287" lon="6.03215">
        <ele>1325.1999511719</ele>
        <time>2014-02-15T13:41:05.000Z</time>
      </trkpt>
      <trkpt lat="45.68282" lon="6.03202">
        <ele>1325.1999511719</ele>
        <time>2014-02-15T13:41:09.000Z</time>
      </trkpt>
      <trkpt lat="45.68275" lon="6.03187">
        <ele>1324.8000488281</ele>
        <time>2014-02-15T13:41:13.000Z</time>
      </trkpt>
      <trkpt lat="45.68266" lon="6.0317">
        <ele>1324.4000244141</ele>
        <time>2014-02-15T13:41:17.000Z</time>
      </trkpt>
      <trkpt lat="45.68249" lon="6.03164">
        <ele>1322.4000244141</ele>
        <time>2014-02-15T13:41:22.000Z</time>
      </trkpt>
      <trkpt lat="45.68246" lon="6.03166">
        <ele>1322.1999511719</ele>
        <time>2014-02-15T13:41:23.000Z</time>
      </trkpt>
      <trkpt lat="45.68231" lon="6.03178">
        <ele>1321.1999511719</ele>
        <time>2014-02-15T13:41:28.000Z</time>
      </trkpt>
      <trkpt lat="45.68219" lon="6.03183">
        <ele>1320.8000488281</ele>
        <time>2014-02-15T13:41:32.000Z</time>
      </trkpt>
      <trkpt lat="45.68207" lon="6.03183">
        <ele>1320.5999755859</ele>
        <time>2014-02-15T13:41:36.000Z</time>
      </trkpt>
      <trkpt lat="45.68193" lon="6.03183">
        <ele>1320.4000244141</ele>
        <time>2014-02-15T13:41:40.000Z</time>
      </trkpt>
      <trkpt lat="45.68183" lon="6.03182">
        <ele>1320.4000244141</ele>
        <time>2014-02-15T13:41:43.000Z</time>
      </trkpt>
      <trkpt lat="45.68167" lon="6.03191">
        <ele>1319.1999511719</ele>
        <time>2014-02-15T13:41:49.000Z</time>
      </trkpt>
      <trkpt lat="45.6816" lon="6.03206">
        <ele>1318.1999511719</ele>
        <time>2014-02-15T13:41:53.000Z</time>
      </trkpt>
      <trkpt lat="45.68154" lon="6.03221">
        <ele>1317</ele>
        <time>2014-02-15T13:41:57.000Z</time>
      </trkpt>
      <trkpt lat="45.68138" lon="6.03238">
        <ele>1316.1999511719</ele>
        <time>2014-02-15T13:42:03.000Z</time>
      </trkpt>
      <trkpt lat="45.68131" lon="6.03242">
        <ele>1316.1999511719</ele>
        <time>2014-02-15T13:42:05.000Z</time>
      </trkpt>
      <trkpt lat="45.68118" lon="6.03253">
        <ele>1315.4000244141</ele>
        <time>2014-02-15T13:42:09.000Z</time>
      </trkpt>
      <trkpt lat="45.68111" lon="6.03258">
        <ele>1315.1999511719</ele>
        <time>2014-02-15T13:42:11.000Z</time>
      </trkpt>
      <trkpt lat="45.68099" lon="6.03271">
        <ele>1313.4000244141</ele>
        <time>2014-02-15T13:42:15.000Z</time>
      </trkpt>
      <trkpt lat="45.6809" lon="6.03283">
        <ele>1311.5999755859</ele>
        <time>2014-02-15T13:42:18.000Z</time>
      </trkpt>
      <trkpt lat="45.68085" lon="6.03292">
        <ele>1309.8000488281</ele>
        <time>2014-02-15T13:42:20.000Z</time>
      </trkpt>
      <trkpt lat="45.68079" lon="6.03309">
        <ele>1306.5999755859</ele>
        <time>2014-02-15T13:42:24.000Z</time>
      </trkpt>
      <trkpt lat="45.68071" lon="6.03326">
        <ele>1303.4000244141</ele>
        <time>2014-02-15T13:42:28.000Z</time>
      </trkpt>
      <trkpt lat="45.68066" lon="6.03332">
        <ele>1302.8000488281</ele>
        <time>2014-02-15T13:42:30.000Z</time>
      </trkpt>
      <trkpt lat="45.68047" lon="6.03342">
        <ele>1303.5999755859</ele>
        <time>2014-02-15T13:42:35.000Z</time>
      </trkpt>
      <trkpt lat="45.6804" lon="6.03344">
        <ele>1304.1999511719</ele>
        <time>2014-02-15T13:42:37.000Z</time>
      </trkpt>
      <trkpt lat="45.68034" lon="6.03344">
        <ele>1304.8000488281</ele>
        <time>2014-02-15T13:42:39.000Z</time>
      </trkpt>
      <trkpt lat="45.68018" lon="6.03336">
        <ele>1306.4000244141</ele>
        <time>2014-02-15T13:42:44.000Z</time>
      </trkpt>
      <trkpt lat="45.68004" lon="6.03326">
        <ele>1309.1999511719</ele>
        <time>2014-02-15T13:42:49.000Z</time>
      </trkpt>
      <trkpt lat="45.6799" lon="6.03319">
        <ele>1311</ele>
        <time>2014-02-15T13:42:53.000Z</time>
      </trkpt>
      <trkpt lat="45.67979" lon="6.03317">
        <ele>1312</ele>
        <time>2014-02-15T13:42:56.000Z</time>
      </trkpt>
      <trkpt lat="45.67964" lon="6.03313">
        <ele>1313.1999511719</ele>
        <time>2014-02-15T13:43:01.000Z</time>
      </trkpt>
      <trkpt lat="45.67953" lon="6.03314">
        <ele>1313.5999755859</ele>
        <time>2014-02-15T13:43:05.000Z</time>
      </trkpt>
      <trkpt lat="45.67946" lon="6.03311">
        <ele>1314.1999511719</ele>
        <time>2014-02-15T13:43:09.000Z</time>
      </trkpt>
      <trkpt lat="45.67936" lon="6.03308">
        <ele>1315</ele>
        <time>2014-02-15T13:43:14.000Z</time>
      </trkpt>
      <trkpt lat="45.67928" lon="6.03304">
        <ele>1315.8000488281</ele>
        <time>2014-02-15T13:43:18.000Z</time>
      </trkpt>
      <trkpt lat="45.67915" lon="6.03301">
        <ele>1316.4000244141</ele>
        <time>2014-02-15T13:43:23.000Z</time>
      </trkpt>
      <trkpt lat="45.67905" lon="6.03301">
        <ele>1315.8000488281</ele>
        <time>2014-02-15T13:43:27.000Z</time>
      </trkpt>
      <trkpt lat="45.67898" lon="6.03301">
        <ele>1315.1999511719</ele>
        <time>2014-02-15T13:43:30.000Z</time>
      </trkpt>
      <trkpt lat="45.67884" lon="6.03298">
        <ele>1314.5999755859</ele>
        <time>2014-02-15T13:43:36.000Z</time>
      </trkpt>
      <trkpt lat="45.67875" lon="6.03296">
        <ele>1314.1999511719</ele>
        <time>2014-02-15T13:43:40.000Z</time>
      </trkpt>
      <trkpt lat="45.67873" lon="6.03294">
        <ele>1314.1999511719</ele>
        <time>2014-02-15T13:43:41.000Z</time>
      </trkpt>
      <trkpt lat="45.67866" lon="6.03293">
        <ele>1313.8000488281</ele>
        <time>2014-02-15T13:43:45.000Z</time>
      </trkpt>
      <trkpt lat="45.67855" lon="6.03289">
        <ele>1313.1999511719</ele>
        <time>2014-02-15T13:43:51.000Z</time>
      </trkpt>
      <trkpt lat="45.67846" lon="6.03284">
        <ele>1312.8000488281</ele>
        <time>2014-02-15T13:43:56.000Z</time>
      </trkpt>
      <trkpt lat="45.67841" lon="6.03282">
        <ele>1312.5999755859</ele>
        <time>2014-02-15T13:43:59.000Z</time>
      </trkpt>
      <trkpt lat="45.67837" lon="6.0328">
        <ele>1312.1999511719</ele>
        <time>2014-02-15T13:44:01.000Z</time>
      </trkpt>
      <trkpt lat="45.67829" lon="6.03276">
        <ele>1311.8000488281</ele>
        <time>2014-02-15T13:44:05.000Z</time>
      </trkpt>
      <trkpt lat="45.67821" lon="6.03275">
        <ele>1311</ele>
        <time>2014-02-15T13:44:09.000Z</time>
      </trkpt>
      <trkpt lat="45.67813" lon="6.03272">
        <ele>1310.4000244141</ele>
        <time>2014-02-15T13:44:13.000Z</time>
      </trkpt>
      <trkpt lat="45.67801" lon="6.03261">
        <ele>1309.5999755859</ele>
        <time>2014-02-15T13:44:20.000Z</time>
      </trkpt>
      <trkpt lat="45.67793" lon="6.03253">
        <ele>1309</ele>
        <time>2014-02-15T13:44:25.000Z</time>
      </trkpt>
      <trkpt lat="45.67789" lon="6.03246">
        <ele>1309.1999511719</ele>
        <time>2014-02-15T13:44:31.000Z</time>
      </trkpt>
      <trkpt lat="45.67787" lon="6.03245">
        <ele>1309</ele>
        <time>2014-02-15T13:44:39.000Z</time>
      </trkpt>
      <trkpt lat="45.67775" lon="6.03244">
        <ele>1308.1999511719</ele>
        <time>2014-02-15T13:44:45.000Z</time>
      </trkpt>
      <trkpt lat="45.67767" lon="6.03239">
        <ele>1307.8000488281</ele>
        <time>2014-02-15T13:44:51.000Z</time>
      </trkpt>
      <trkpt lat="45.67762" lon="6.03235">
        <ele>1307.8000488281</ele>
        <time>2014-02-15T13:44:55.000Z</time>
      </trkpt>
      <trkpt lat="45.67759" lon="6.03219">
        <ele>1309</ele>
        <time>2014-02-15T13:45:01.000Z</time>
      </trkpt>
      <trkpt lat="45.67756" lon="6.03205">
        <ele>1310.1999511719</ele>
        <time>2014-02-15T13:45:06.000Z</time>
      </trkpt>
      <trkpt lat="45.67752" lon="6.032">
        <ele>1310.1999511719</ele>
        <time>2014-02-15T13:45:08.000Z</time>
      </trkpt>
      <trkpt lat="45.67743" lon="6.03201">
        <ele>1309</ele>
        <time>2014-02-15T13:45:12.000Z</time>
      </trkpt>
      <trkpt lat="45.67734" lon="6.03202">
        <ele>1308.1999511719</ele>
        <time>2014-02-15T13:45:15.000Z</time>
      </trkpt>
      <trkpt lat="45.6773" lon="6.03203">
        <ele>1307.8000488281</ele>
        <time>2014-02-15T13:45:17.000Z</time>
      </trkpt>
      <trkpt lat="45.67729" lon="6.03206">
        <ele>1307.4000244141</ele>
        <time>2014-02-15T13:45:24.000Z</time>
      </trkpt>
      <trkpt lat="45.67859" lon="6.03179">
        <ele>1326.8000488281</ele>
        <time>2014-02-15T13:57:35.000Z</time>
      </trkpt>
      <trkpt lat="45.67859" lon="6.03172">
        <ele>1328</ele>
        <time>2014-02-15T13:57:37.000Z</time>
      </trkpt>
      <trkpt lat="45.67858" lon="6.03161">
        <ele>1329.4000244141</ele>
        <time>2014-02-15T13:57:42.000Z</time>
      </trkpt>
      <trkpt lat="45.67857" lon="6.03151">
        <ele>1330.8000488281</ele>
        <time>2014-02-15T13:57:48.000Z</time>
      </trkpt>
      <trkpt lat="45.67857" lon="6.03146">
        <ele>1331.4000244141</ele>
        <time>2014-02-15T13:57:50.000Z</time>
      </trkpt>
      <trkpt lat="45.67857" lon="6.03142">
        <ele>1332</ele>
        <time>2014-02-15T13:57:52.000Z</time>
      </trkpt>
      <trkpt lat="45.67857" lon="6.03133">
        <ele>1333.1999511719</ele>
        <time>2014-02-15T13:57:57.000Z</time>
      </trkpt>
      <trkpt lat="45.67854" lon="6.03123">
        <ele>1334.1999511719</ele>
        <time>2014-02-15T13:58:03.000Z</time>
      </trkpt>
      <trkpt lat="45.67854" lon="6.03118">
        <ele>1334.8000488281</ele>
        <time>2014-02-15T13:58:05.000Z</time>
      </trkpt>
      <trkpt lat="45.67852" lon="6.03108">
        <ele>1335.8000488281</ele>
        <time>2014-02-15T13:58:10.000Z</time>
      </trkpt>
      <trkpt lat="45.67848" lon="6.03099">
        <ele>1336.8000488281</ele>
        <time>2014-02-15T13:58:15.000Z</time>
      </trkpt>
      <trkpt lat="45.67845" lon="6.03088">
        <ele>1337.8000488281</ele>
        <time>2014-02-15T13:58:19.000Z</time>
      </trkpt>
      <trkpt lat="45.67839" lon="6.03077">
        <ele>1338</ele>
        <time>2014-02-15T13:58:25.000Z</time>
      </trkpt>
      <trkpt lat="45.67833" lon="6.03075">
        <ele>1337.4000244141</ele>
        <time>2014-02-15T13:58:29.000Z</time>
      </trkpt>
      <trkpt lat="45.67833" lon="6.03075">
        <ele>1337.4000244141</ele>
        <time>2014-02-15T13:58:35.000Z</time>
      </trkpt>
      <trkpt lat="45.67832" lon="6.03075">
        <ele>1337.1999511719</ele>
        <time>2014-02-15T13:58:47.000Z</time>
      </trkpt>
      <trkpt lat="45.67829" lon="6.03075">
        <ele>1336.8000488281</ele>
        <time>2014-02-15T13:59:31.000Z</time>
      </trkpt>
      <trkpt lat="45.67825" lon="6.0307">
        <ele>1336.4000244141</ele>
        <time>2014-02-15T13:59:35.000Z</time>
      </trkpt>
      <trkpt lat="45.67818" lon="6.03057">
        <ele>1336</ele>
        <time>2014-02-15T13:59:40.000Z</time>
      </trkpt>
      <trkpt lat="45.67809" lon="6.03042">
        <ele>1335.5999755859</ele>
        <time>2014-02-15T13:59:45.000Z</time>
      </trkpt>
      <trkpt lat="45.678" lon="6.03034">
        <ele>1334.5999755859</ele>
        <time>2014-02-15T13:59:49.000Z</time>
      </trkpt>
      <trkpt lat="45.67788" lon="6.03016">
        <ele>1333.8000488281</ele>
        <time>2014-02-15T13:59:54.000Z</time>
      </trkpt>
      <trkpt lat="45.67785" lon="6.0301">
        <ele>1333.8000488281</ele>
        <time>2014-02-15T13:59:55.000Z</time>
      </trkpt>
      <trkpt lat="45.6778" lon="6.02993">
        <ele>1334</ele>
        <time>2014-02-15T14:00:00.000Z</time>
      </trkpt>
      <trkpt lat="45.67778" lon="6.02971">
        <ele>1334.8000488281</ele>
        <time>2014-02-15T14:00:05.000Z</time>
      </trkpt>
      <trkpt lat="45.67776" lon="6.02951">
        <ele>1335.4000244141</ele>
        <time>2014-02-15T14:00:09.000Z</time>
      </trkpt>
      <trkpt lat="45.67773" lon="6.0293">
        <ele>1335.8000488281</ele>
        <time>2014-02-15T14:00:14.000Z</time>
      </trkpt>
      <trkpt lat="45.67774" lon="6.02917">
        <ele>1336.5999755859</ele>
        <time>2014-02-15T14:00:18.000Z</time>
      </trkpt>
      <trkpt lat="45.67773" lon="6.02905">
        <ele>1336.4000244141</ele>
        <time>2014-02-15T14:00:21.000Z</time>
      </trkpt>
      <trkpt lat="45.6778" lon="6.02877">
        <ele>1337.5999755859</ele>
        <time>2014-02-15T14:00:27.000Z</time>
      </trkpt>
      <trkpt lat="45.67782" lon="6.02854">
        <ele>1338</ele>
        <time>2014-02-15T14:00:31.000Z</time>
      </trkpt>
      <trkpt lat="45.67779" lon="6.02833">
        <ele>1337.5999755859</ele>
        <time>2014-02-15T14:00:36.000Z</time>
      </trkpt>
      <trkpt lat="45.67777" lon="6.02819">
        <ele>1337.5999755859</ele>
        <time>2014-02-15T14:00:41.000Z</time>
      </trkpt>
      <trkpt lat="45.67772" lon="6.02805">
        <ele>1337.1999511719</ele>
        <time>2014-02-15T14:00:46.000Z</time>
      </trkpt>
      <trkpt lat="45.67766" lon="6.02792">
        <ele>1336.4000244141</ele>
        <time>2014-02-15T14:00:50.000Z</time>
      </trkpt>
      <trkpt lat="45.67761" lon="6.02788">
        <ele>1335.5999755859</ele>
        <time>2014-02-15T14:00:54.000Z</time>
      </trkpt>
      <trkpt lat="45.67753" lon="6.02785">
        <ele>1334.1999511719</ele>
        <time>2014-02-15T14:00:58.000Z</time>
      </trkpt>
      <trkpt lat="45.67746" lon="6.02779">
        <ele>1333.1999511719</ele>
        <time>2014-02-15T14:01:03.000Z</time>
      </trkpt>
      <trkpt lat="45.67737" lon="6.02775">
        <ele>1332.4000244141</ele>
        <time>2014-02-15T14:01:06.000Z</time>
      </trkpt>
      <trkpt lat="45.67722" lon="6.02788">
        <ele>1330.1999511719</ele>
        <time>2014-02-15T14:01:10.000Z</time>
      </trkpt>
      <trkpt lat="45.67715" lon="6.02802">
        <ele>1328.8000488281</ele>
        <time>2014-02-15T14:01:12.000Z</time>
      </trkpt>
      <trkpt lat="45.67689" lon="6.02808">
        <ele>1325.1999511719</ele>
        <time>2014-02-15T14:01:16.000Z</time>
      </trkpt>
      <trkpt lat="45.67677" lon="6.02792">
        <ele>1324.5999755859</ele>
        <time>2014-02-15T14:01:18.000Z</time>
      </trkpt>
      <trkpt lat="45.6767" lon="6.02771">
        <ele>1325.5999755859</ele>
        <time>2014-02-15T14:01:21.000Z</time>
      </trkpt>
      <trkpt lat="45.67666" lon="6.02758">
        <ele>1326.1999511719</ele>
        <time>2014-02-15T14:01:24.000Z</time>
      </trkpt>
      <trkpt lat="45.67661" lon="6.02745">
        <ele>1327.4000244141</ele>
        <time>2014-02-15T14:01:27.000Z</time>
      </trkpt>
      <trkpt lat="45.67649" lon="6.02721">
        <ele>1329</ele>
        <time>2014-02-15T14:01:32.000Z</time>
      </trkpt>
      <trkpt lat="45.6764" lon="6.02697">
        <ele>1330.8000488281</ele>
        <time>2014-02-15T14:01:37.000Z</time>
      </trkpt>
      <trkpt lat="45.67634" lon="6.02677">
        <ele>1332.1999511719</ele>
        <time>2014-02-15T14:01:42.000Z</time>
      </trkpt>
      <trkpt lat="45.67629" lon="6.02666">
        <ele>1333</ele>
        <time>2014-02-15T14:01:46.000Z</time>
      </trkpt>
      <trkpt lat="45.67629" lon="6.02661">
        <ele>1333.4000244141</ele>
        <time>2014-02-15T14:01:48.000Z</time>
      </trkpt>
      <trkpt lat="45.67623" lon="6.02646">
        <ele>1334.4000244141</ele>
        <time>2014-02-15T14:01:54.000Z</time>
      </trkpt>
      <trkpt lat="45.67618" lon="6.02635">
        <ele>1335</ele>
        <time>2014-02-15T14:01:59.000Z</time>
      </trkpt>
      <trkpt lat="45.67617" lon="6.02634">
        <ele>1335</ele>
        <time>2014-02-15T14:02:00.000Z</time>
      </trkpt>
      <trkpt lat="45.67616" lon="6.0263">
        <ele>1335.1999511719</ele>
        <time>2014-02-15T14:02:02.000Z</time>
      </trkpt>
      <trkpt lat="45.67614" lon="6.02624">
        <ele>1335.5999755859</ele>
        <time>2014-02-15T14:02:06.000Z</time>
      </trkpt>
      <trkpt lat="45.67614" lon="6.02619">
        <ele>1336</ele>
        <time>2014-02-15T14:02:12.000Z</time>
      </trkpt>
      <trkpt lat="45.67613" lon="6.02617">
        <ele>1336.1999511719</ele>
        <time>2014-02-15T14:02:13.000Z</time>
      </trkpt>
      <trkpt lat="45.67613" lon="6.0261">
        <ele>1336.8000488281</ele>
        <time>2014-02-15T14:02:16.000Z</time>
      </trkpt>
      <trkpt lat="45.6761" lon="6.02603">
        <ele>1337.1999511719</ele>
        <time>2014-02-15T14:02:20.000Z</time>
      </trkpt>
      <trkpt lat="45.6761" lon="6.02594">
        <ele>1337.8000488281</ele>
        <time>2014-02-15T14:02:24.000Z</time>
      </trkpt>
      <trkpt lat="45.6761" lon="6.02591">
        <ele>1338.1999511719</ele>
        <time>2014-02-15T14:02:26.000Z</time>
      </trkpt>
      <trkpt lat="45.67607" lon="6.02578">
        <ele>1339</ele>
        <time>2014-02-15T14:02:31.000Z</time>
      </trkpt>
      <trkpt lat="45.67607" lon="6.02569">
        <ele>1340</ele>
        <time>2014-02-15T14:02:35.000Z</time>
      </trkpt>
      <trkpt lat="45.67607" lon="6.02556">
        <ele>1341.5999755859</ele>
        <time>2014-02-15T14:02:40.000Z</time>
      </trkpt>
      <trkpt lat="45.67606" lon="6.02548">
        <ele>1342.4000244141</ele>
        <time>2014-02-15T14:02:44.000Z</time>
      </trkpt>
      <trkpt lat="45.67604" lon="6.02535">
        <ele>1343.8000488281</ele>
        <time>2014-02-15T14:02:50.000Z</time>
      </trkpt>
      <trkpt lat="45.67602" lon="6.02524">
        <ele>1344.8000488281</ele>
        <time>2014-02-15T14:02:56.000Z</time>
      </trkpt>
      <trkpt lat="45.676" lon="6.02514">
        <ele>1345.5999755859</ele>
        <time>2014-02-15T14:03:02.000Z</time>
      </trkpt>
      <trkpt lat="45.67598" lon="6.02506">
        <ele>1346.4000244141</ele>
        <time>2014-02-15T14:03:06.000Z</time>
      </trkpt>
      <trkpt lat="45.67596" lon="6.02501">
        <ele>1346.8000488281</ele>
        <time>2014-02-15T14:03:09.000Z</time>
      </trkpt>
      <trkpt lat="45.67595" lon="6.02497">
        <ele>1346.8000488281</ele>
        <time>2014-02-15T14:03:11.000Z</time>
      </trkpt>
      <trkpt lat="45.67592" lon="6.02485">
        <ele>1347.4000244141</ele>
        <time>2014-02-15T14:03:17.000Z</time>
      </trkpt>
      <trkpt lat="45.67589" lon="6.02474">
        <ele>1348</ele>
        <time>2014-02-15T14:03:23.000Z</time>
      </trkpt>
      <trkpt lat="45.67588" lon="6.02465">
        <ele>1348.5999755859</ele>
        <time>2014-02-15T14:03:27.000Z</time>
      </trkpt>
      <trkpt lat="45.67588" lon="6.02461">
        <ele>1349</ele>
        <time>2014-02-15T14:03:29.000Z</time>
      </trkpt>
      <trkpt lat="45.67585" lon="6.02449">
        <ele>1349.5999755859</ele>
        <time>2014-02-15T14:03:35.000Z</time>
      </trkpt>
      <trkpt lat="45.67583" lon="6.02438">
        <ele>1350.1999511719</ele>
        <time>2014-02-15T14:03:40.000Z</time>
      </trkpt>
      <trkpt lat="45.67582" lon="6.02436">
        <ele>1350.4000244141</ele>
        <time>2014-02-15T14:03:41.000Z</time>
      </trkpt>
      <trkpt lat="45.67578" lon="6.02424">
        <ele>1351.5999755859</ele>
        <time>2014-02-15T14:03:47.000Z</time>
      </trkpt>
      <trkpt lat="45.67575" lon="6.02414">
        <ele>1352.5999755859</ele>
        <time>2014-02-15T14:03:52.000Z</time>
      </trkpt>
      <trkpt lat="45.6757" lon="6.02402">
        <ele>1354</ele>
        <time>2014-02-15T14:03:58.000Z</time>
      </trkpt>
      <trkpt lat="45.67567" lon="6.02395">
        <ele>1354.8000488281</ele>
        <time>2014-02-15T14:04:02.000Z</time>
      </trkpt>
      <trkpt lat="45.67566" lon="6.0239">
        <ele>1355.1999511719</ele>
        <time>2014-02-15T14:04:04.000Z</time>
      </trkpt>
      <trkpt lat="45.67564" lon="6.02384">
        <ele>1355.8000488281</ele>
        <time>2014-02-15T14:04:07.000Z</time>
      </trkpt>
      <trkpt lat="45.67559" lon="6.0237">
        <ele>1357.1999511719</ele>
        <time>2014-02-15T14:04:14.000Z</time>
      </trkpt>
      <trkpt lat="45.67558" lon="6.02368">
        <ele>1357.4000244141</ele>
        <time>2014-02-15T14:04:15.000Z</time>
      </trkpt>
      <trkpt lat="45.67554" lon="6.02357">
        <ele>1358.4000244141</ele>
        <time>2014-02-15T14:04:21.000Z</time>
      </trkpt>
      <trkpt lat="45.6755" lon="6.02352">
        <ele>1359</ele>
        <time>2014-02-15T14:04:24.000Z</time>
      </trkpt>
      <trkpt lat="45.67547" lon="6.02338">
        <ele>1360.1999511719</ele>
        <time>2014-02-15T14:04:29.000Z</time>
      </trkpt>
      <trkpt lat="45.67542" lon="6.02325">
        <ele>1360.8000488281</ele>
        <time>2014-02-15T14:04:34.000Z</time>
      </trkpt>
      <trkpt lat="45.67536" lon="6.02313">
        <ele>1361.1999511719</ele>
        <time>2014-02-15T14:04:38.000Z</time>
      </trkpt>
      <trkpt lat="45.6753" lon="6.02299">
        <ele>1361.5999755859</ele>
        <time>2014-02-15T14:04:44.000Z</time>
      </trkpt>
      <trkpt lat="45.67528" lon="6.02294">
        <ele>1361.5999755859</ele>
        <time>2014-02-15T14:04:47.000Z</time>
      </trkpt>
      <trkpt lat="45.67526" lon="6.02281">
        <ele>1362</ele>
        <time>2014-02-15T14:04:52.000Z</time>
      </trkpt>
      <trkpt lat="45.67523" lon="6.02271">
        <ele>1362</ele>
        <time>2014-02-15T14:04:56.000Z</time>
      </trkpt>
      <trkpt lat="45.6752" lon="6.02262">
        <ele>1362.1999511719</ele>
        <time>2014-02-15T14:04:59.000Z</time>
      </trkpt>
      <trkpt lat="45.67512" lon="6.02249">
        <ele>1361.8000488281</ele>
        <time>2014-02-15T14:05:04.000Z</time>
      </trkpt>
      <trkpt lat="45.67509" lon="6.02243">
        <ele>1361.8000488281</ele>
        <time>2014-02-15T14:05:06.000Z</time>
      </trkpt>
      <trkpt lat="45.67501" lon="6.0223">
        <ele>1361.8000488281</ele>
        <time>2014-02-15T14:05:10.000Z</time>
      </trkpt>
      <trkpt lat="45.67494" lon="6.02215">
        <ele>1362.4000244141</ele>
        <time>2014-02-15T14:05:14.000Z</time>
      </trkpt>
      <trkpt lat="45.67492" lon="6.02209">
        <ele>1362.5999755859</ele>
        <time>2014-02-15T14:05:16.000Z</time>
      </trkpt>
      <trkpt lat="45.6749" lon="6.02197">
        <ele>1363.1999511719</ele>
        <time>2014-02-15T14:05:20.000Z</time>
      </trkpt>
      <trkpt lat="45.67491" lon="6.02188">
        <ele>1363.4000244141</ele>
        <time>2014-02-15T14:05:23.000Z</time>
      </trkpt>
      <trkpt lat="45.67492" lon="6.02179">
        <ele>1363.8000488281</ele>
        <time>2014-02-15T14:05:26.000Z</time>
      </trkpt>
      <trkpt lat="45.67496" lon="6.02169">
        <ele>1364</ele>
        <time>2014-02-15T14:05:30.000Z</time>
      </trkpt>
      <trkpt lat="45.67498" lon="6.02162">
        <ele>1364.4000244141</ele>
        <time>2014-02-15T14:05:33.000Z</time>
      </trkpt>
      <trkpt lat="45.675" lon="6.02156">
        <ele>1364.8000488281</ele>
        <time>2014-02-15T14:05:36.000Z</time>
      </trkpt>
      <trkpt lat="45.67502" lon="6.02146">
        <ele>1365.5999755859</ele>
        <time>2014-02-15T14:05:40.000Z</time>
      </trkpt>
      <trkpt lat="45.67503" lon="6.0214">
        <ele>1366</ele>
        <time>2014-02-15T14:05:43.000Z</time>
      </trkpt>
      <trkpt lat="45.67504" lon="6.02131">
        <ele>1366.8000488281</ele>
        <time>2014-02-15T14:05:49.000Z</time>
      </trkpt>
      <trkpt lat="45.67504" lon="6.02122">
        <ele>1367.4000244141</ele>
        <time>2014-02-15T14:05:53.000Z</time>
      </trkpt>
      <trkpt lat="45.67502" lon="6.02111">
        <ele>1368.1999511719</ele>
        <time>2014-02-15T14:05:59.000Z</time>
      </trkpt>
      <trkpt lat="45.67501" lon="6.02109">
        <ele>1368.1999511719</ele>
        <time>2014-02-15T14:06:00.000Z</time>
      </trkpt>
      <trkpt lat="45.675" lon="6.02098">
        <ele>1369</ele>
        <time>2014-02-15T14:06:06.000Z</time>
      </trkpt>
      <trkpt lat="45.67497" lon="6.02085">
        <ele>1370</ele>
        <time>2014-02-15T14:06:11.000Z</time>
      </trkpt>
      <trkpt lat="45.67494" lon="6.02074">
        <ele>1370.8000488281</ele>
        <time>2014-02-15T14:06:15.000Z</time>
      </trkpt>
      <trkpt lat="45.6749" lon="6.0206">
        <ele>1371.8000488281</ele>
        <time>2014-02-15T14:06:22.000Z</time>
      </trkpt>
      <trkpt lat="45.6749" lon="6.02053">
        <ele>1372.1999511719</ele>
        <time>2014-02-15T14:06:26.000Z</time>
      </trkpt>
      <trkpt lat="45.67489" lon="6.0205">
        <ele>1372.4000244141</ele>
        <time>2014-02-15T14:06:28.000Z</time>
      </trkpt>
      <trkpt lat="45.67487" lon="6.02038">
        <ele>1373.4000244141</ele>
        <time>2014-02-15T14:06:34.000Z</time>
      </trkpt>
      <trkpt lat="45.67486" lon="6.02036">
        <ele>1373.4000244141</ele>
        <time>2014-02-15T14:06:35.000Z</time>
      </trkpt>
      <trkpt lat="45.67484" lon="6.02031">
        <ele>1373.8000488281</ele>
        <time>2014-02-15T14:06:38.000Z</time>
      </trkpt>
      <trkpt lat="45.67483" lon="6.02022">
        <ele>1374.4000244141</ele>
        <time>2014-02-15T14:06:43.000Z</time>
      </trkpt>
      <trkpt lat="45.67481" lon="6.02018">
        <ele>1374.5999755859</ele>
        <time>2014-02-15T14:06:47.000Z</time>
      </trkpt>
      <trkpt lat="45.67479" lon="6.02016">
        <ele>1374.8000488281</ele>
        <time>2014-02-15T14:06:55.000Z</time>
      </trkpt>
      <trkpt lat="45.67477" lon="6.02012">
        <ele>1375</ele>
        <time>2014-02-15T14:07:02.000Z</time>
      </trkpt>
      <trkpt lat="45.67476" lon="6.02007">
        <ele>1375.1999511719</ele>
        <time>2014-02-15T14:07:04.000Z</time>
      </trkpt>
      <trkpt lat="45.67477" lon="6.01988">
        <ele>1376.1999511719</ele>
        <time>2014-02-15T14:07:09.000Z</time>
      </trkpt>
      <trkpt lat="45.67483" lon="6.01985">
        <ele>1376.5999755859</ele>
        <time>2014-02-15T14:07:13.000Z</time>
      </trkpt>
      <trkpt lat="45.67489" lon="6.01986">
        <ele>1376.5999755859</ele>
        <time>2014-02-15T14:07:16.000Z</time>
      </trkpt>
      <trkpt lat="45.6749" lon="6.01986">
        <ele>1376.5999755859</ele>
        <time>2014-02-15T14:07:19.000Z</time>
      </trkpt>
      <trkpt lat="45.67494" lon="6.01987">
        <ele>1376.5999755859</ele>
        <time>2014-02-15T14:07:22.000Z</time>
      </trkpt>
      <trkpt lat="45.67498" lon="6.0199">
        <ele>1376.5999755859</ele>
        <time>2014-02-15T14:07:25.000Z</time>
      </trkpt>
      <trkpt lat="45.67503" lon="6.02003">
        <ele>1376</ele>
        <time>2014-02-15T14:07:31.000Z</time>
      </trkpt>
      <trkpt lat="45.67514" lon="6.02014">
        <ele>1375.5999755859</ele>
        <time>2014-02-15T14:07:36.000Z</time>
      </trkpt>
      <trkpt lat="45.67518" lon="6.02015">
        <ele>1375.8000488281</ele>
        <time>2014-02-15T14:07:38.000Z</time>
      </trkpt>
      <trkpt lat="45.67525" lon="6.02021">
        <ele>1375.8000488281</ele>
        <time>2014-02-15T14:07:43.000Z</time>
      </trkpt>
      <trkpt lat="45.67537" lon="6.02026">
        <ele>1376</ele>
        <time>2014-02-15T14:07:48.000Z</time>
      </trkpt>
      <trkpt lat="45.67543" lon="6.02031">
        <ele>1376</ele>
        <time>2014-02-15T14:07:51.000Z</time>
      </trkpt>
      <trkpt lat="45.67557" lon="6.02042">
        <ele>1376</ele>
        <time>2014-02-15T14:07:57.000Z</time>
      </trkpt>
      <trkpt lat="45.67567" lon="6.0205">
        <ele>1376.1999511719</ele>
        <time>2014-02-15T14:08:01.000Z</time>
      </trkpt>
      <trkpt lat="45.67576" lon="6.02062">
        <ele>1375.8000488281</ele>
        <time>2014-02-15T14:08:05.000Z</time>
      </trkpt>
      <trkpt lat="45.67586" lon="6.0207">
        <ele>1376</ele>
        <time>2014-02-15T14:08:09.000Z</time>
      </trkpt>
      <trkpt lat="45.6759" lon="6.02071">
        <ele>1376.4000244141</ele>
        <time>2014-02-15T14:08:10.000Z</time>
      </trkpt>
      <trkpt lat="45.67614" lon="6.02044">
        <ele>1379.1999511719</ele>
        <time>2014-02-15T14:08:15.000Z</time>
      </trkpt>
      <trkpt lat="45.67625" lon="6.02026">
        <ele>1380.4000244141</ele>
        <time>2014-02-15T14:08:19.000Z</time>
      </trkpt>
      <trkpt lat="45.67631" lon="6.02008">
        <ele>1381</ele>
        <time>2014-02-15T14:08:23.000Z</time>
      </trkpt>
      <trkpt lat="45.67644" lon="6.01995">
        <ele>1381.5999755859</ele>
        <time>2014-02-15T14:08:28.000Z</time>
      </trkpt>
      <trkpt lat="45.67649" lon="6.01986">
        <ele>1382</ele>
        <time>2014-02-15T14:08:31.000Z</time>
      </trkpt>
      <trkpt lat="45.67654" lon="6.01979">
        <ele>1382.4000244141</ele>
        <time>2014-02-15T14:08:36.000Z</time>
      </trkpt>
      <trkpt lat="45.6766" lon="6.01968">
        <ele>1382.8000488281</ele>
        <time>2014-02-15T14:08:42.000Z</time>
      </trkpt>
      <trkpt lat="45.67666" lon="6.01959">
        <ele>1383</ele>
        <time>2014-02-15T14:08:46.000Z</time>
      </trkpt>
      <trkpt lat="45.67669" lon="6.01949">
        <ele>1383.4000244141</ele>
        <time>2014-02-15T14:08:49.000Z</time>
      </trkpt>
      <trkpt lat="45.67674" lon="6.01929">
        <ele>1384</ele>
        <time>2014-02-15T14:08:56.000Z</time>
      </trkpt>
      <trkpt lat="45.6768" lon="6.01913">
        <ele>1384.5999755859</ele>
        <time>2014-02-15T14:09:01.000Z</time>
      </trkpt>
      <trkpt lat="45.67685" lon="6.01904">
        <ele>1385.1999511719</ele>
        <time>2014-02-15T14:09:03.000Z</time>
      </trkpt>
      <trkpt lat="45.67689" lon="6.01892">
        <ele>1385.8000488281</ele>
        <time>2014-02-15T14:09:06.000Z</time>
      </trkpt>
      <trkpt lat="45.67694" lon="6.01878">
        <ele>1386.5999755859</ele>
        <time>2014-02-15T14:09:11.000Z</time>
      </trkpt>
      <trkpt lat="45.67694" lon="6.0187">
        <ele>1386.8000488281</ele>
        <time>2014-02-15T14:09:14.000Z</time>
      </trkpt>
      <trkpt lat="45.67694" lon="6.0186">
        <ele>1387.1999511719</ele>
        <time>2014-02-15T14:09:17.000Z</time>
      </trkpt>
      <trkpt lat="45.677" lon="6.01852">
        <ele>1387.5999755859</ele>
        <time>2014-02-15T14:09:21.000Z</time>
      </trkpt>
      <trkpt lat="45.67701" lon="6.01842">
        <ele>1387.8000488281</ele>
        <time>2014-02-15T14:09:25.000Z</time>
      </trkpt>
      <trkpt lat="45.67702" lon="6.0184">
        <ele>1388</ele>
        <time>2014-02-15T14:09:26.000Z</time>
      </trkpt>
      <trkpt lat="45.67706" lon="6.01813">
        <ele>1388</ele>
        <time>2014-02-15T14:09:32.000Z</time>
      </trkpt>
      <trkpt lat="45.6771" lon="6.01802">
        <ele>1387.8000488281</ele>
        <time>2014-02-15T14:09:35.000Z</time>
      </trkpt>
      <trkpt lat="45.67714" lon="6.01791">
        <ele>1387.4000244141</ele>
        <time>2014-02-15T14:09:39.000Z</time>
      </trkpt>
      <trkpt lat="45.67719" lon="6.01784">
        <ele>1387</ele>
        <time>2014-02-15T14:09:42.000Z</time>
      </trkpt>
      <trkpt lat="45.6773" lon="6.01783">
        <ele>1386.4000244141</ele>
        <time>2014-02-15T14:09:47.000Z</time>
      </trkpt>
      <trkpt lat="45.67742" lon="6.01793">
        <ele>1386</ele>
        <time>2014-02-15T14:09:52.000Z</time>
      </trkpt>
      <trkpt lat="45.67748" lon="6.01802">
        <ele>1386</ele>
        <time>2014-02-15T14:09:56.000Z</time>
      </trkpt>
      <trkpt lat="45.67754" lon="6.01812">
        <ele>1386.1999511719</ele>
        <time>2014-02-15T14:10:00.000Z</time>
      </trkpt>
      <trkpt lat="45.67759" lon="6.01822">
        <ele>1386.5999755859</ele>
        <time>2014-02-15T14:10:03.000Z</time>
      </trkpt>
      <trkpt lat="45.67766" lon="6.01838">
        <ele>1387.1999511719</ele>
        <time>2014-02-15T14:10:08.000Z</time>
      </trkpt>
      <trkpt lat="45.67772" lon="6.01849">
        <ele>1387.1999511719</ele>
        <time>2014-02-15T14:10:12.000Z</time>
      </trkpt>
      <trkpt lat="45.67784" lon="6.01864">
        <ele>1387.4000244141</ele>
        <time>2014-02-15T14:10:17.000Z</time>
      </trkpt>
      <trkpt lat="45.67796" lon="6.01875">
        <ele>1387.5999755859</ele>
        <time>2014-02-15T14:10:21.000Z</time>
      </trkpt>
      <trkpt lat="45.67806" lon="6.01878">
        <ele>1387.5999755859</ele>
        <time>2014-02-15T14:10:25.000Z</time>
      </trkpt>
      <trkpt lat="45.67814" lon="6.01884">
        <ele>1387.8000488281</ele>
        <time>2014-02-15T14:10:30.000Z</time>
      </trkpt>
      <trkpt lat="45.67819" lon="6.01895">
        <ele>1387.8000488281</ele>
        <time>2014-02-15T14:10:34.000Z</time>
      </trkpt>
      <trkpt lat="45.67824" lon="6.01912">
        <ele>1387.8000488281</ele>
        <time>2014-02-15T14:10:39.000Z</time>
      </trkpt>
      <trkpt lat="45.67832" lon="6.01934">
        <ele>1387.8000488281</ele>
        <time>2014-02-15T14:10:44.000Z</time>
      </trkpt>
      <trkpt lat="45.67843" lon="6.01953">
        <ele>1387.1999511719</ele>
        <time>2014-02-15T14:10:47.000Z</time>
      </trkpt>
      <trkpt lat="45.67875" lon="6.01978">
        <ele>1385.5999755859</ele>
        <time>2014-02-15T14:10:53.000Z</time>
      </trkpt>
      <trkpt lat="45.6789" lon="6.01994">
        <ele>1385</ele>
        <time>2014-02-15T14:10:57.000Z</time>
      </trkpt>
      <trkpt lat="45.67898" lon="6.02008">
        <ele>1385</ele>
        <time>2014-02-15T14:11:00.000Z</time>
      </trkpt>
      <trkpt lat="45.67902" lon="6.02016">
        <ele>1385</ele>
        <time>2014-02-15T14:11:02.000Z</time>
      </trkpt>
      <trkpt lat="45.67912" lon="6.0205">
        <ele>1386</ele>
        <time>2014-02-15T14:11:08.000Z</time>
      </trkpt>
      <trkpt lat="45.67919" lon="6.02073">
        <ele>1386.1999511719</ele>
        <time>2014-02-15T14:11:12.000Z</time>
      </trkpt>
      <trkpt lat="45.67921" lon="6.02079">
        <ele>1386.1999511719</ele>
        <time>2014-02-15T14:11:13.000Z</time>
      </trkpt>
      <trkpt lat="45.67933" lon="6.02104">
        <ele>1384.1999511719</ele>
        <time>2014-02-15T14:11:18.000Z</time>
      </trkpt>
      <trkpt lat="45.67941" lon="6.02119">
        <ele>1382.8000488281</ele>
        <time>2014-02-15T14:11:21.000Z</time>
      </trkpt>
      <trkpt lat="45.67947" lon="6.02128">
        <ele>1381.5999755859</ele>
        <time>2014-02-15T14:11:23.000Z</time>
      </trkpt>
      <trkpt lat="45.67956" lon="6.02144">
        <ele>1380</ele>
        <time>2014-02-15T14:11:27.000Z</time>
      </trkpt>
      <trkpt lat="45.67963" lon="6.02163">
        <ele>1378.8000488281</ele>
        <time>2014-02-15T14:11:31.000Z</time>
      </trkpt>
      <trkpt lat="45.67969" lon="6.02188">
        <ele>1378.1999511719</ele>
        <time>2014-02-15T14:11:35.000Z</time>
      </trkpt>
      <trkpt lat="45.67986" lon="6.02203">
        <ele>1376.8000488281</ele>
        <time>2014-02-15T14:11:39.000Z</time>
      </trkpt>
      <trkpt lat="45.67996" lon="6.02191">
        <ele>1375</ele>
        <time>2014-02-15T14:11:41.000Z</time>
      </trkpt>
      <trkpt lat="45.68002" lon="6.02174">
        <ele>1373.4000244141</ele>
        <time>2014-02-15T14:11:44.000Z</time>
      </trkpt>
      <trkpt lat="45.68012" lon="6.02137">
        <ele>1372.5999755859</ele>
        <time>2014-02-15T14:11:49.000Z</time>
      </trkpt>
      <trkpt lat="45.68019" lon="6.02099">
        <ele>1370.8000488281</ele>
        <time>2014-02-15T14:11:54.000Z</time>
      </trkpt>
      <trkpt lat="45.68031" lon="6.02075">
        <ele>1367.5999755859</ele>
        <time>2014-02-15T14:11:58.000Z</time>
      </trkpt>
      <trkpt lat="45.68041" lon="6.02077">
        <ele>1365.5999755859</ele>
        <time>2014-02-15T14:12:01.000Z</time>
      </trkpt>
      <trkpt lat="45.68043" lon="6.02083">
        <ele>1365.8000488281</ele>
        <time>2014-02-15T14:12:03.000Z</time>
      </trkpt>
      <trkpt lat="45.68042" lon="6.02085">
        <ele>1366</ele>
        <time>2014-02-15T14:12:12.000Z</time>
      </trkpt>
      <trkpt lat="45.68042" lon="6.02086">
        <ele>1366.1999511719</ele>
        <time>2014-02-15T14:12:18.000Z</time>
      </trkpt>
      <trkpt lat="45.68041" lon="6.02087">
        <ele>1366.4000244141</ele>
        <time>2014-02-15T14:12:28.000Z</time>
      </trkpt>
      <trkpt lat="45.68044" lon="6.02094">
        <ele>1366.5999755859</ele>
        <time>2014-02-15T14:12:32.000Z</time>
      </trkpt>
      <trkpt lat="45.68047" lon="6.021">
        <ele>1366.5999755859</ele>
        <time>2014-02-15T14:12:35.000Z</time>
      </trkpt>
      <trkpt lat="45.68058" lon="6.0211">
        <ele>1366.4000244141</ele>
        <time>2014-02-15T14:12:39.000Z</time>
      </trkpt>
      <trkpt lat="45.68065" lon="6.02117">
        <ele>1366.4000244141</ele>
        <time>2014-02-15T14:12:43.000Z</time>
      </trkpt>
      <trkpt lat="45.68075" lon="6.02122">
        <ele>1366.4000244141</ele>
        <time>2014-02-15T14:12:47.000Z</time>
      </trkpt>
      <trkpt lat="45.68084" lon="6.02127">
        <ele>1366.1999511719</ele>
        <time>2014-02-15T14:12:51.000Z</time>
      </trkpt>
      <trkpt lat="45.68096" lon="6.02135">
        <ele>1366</ele>
        <time>2014-02-15T14:12:56.000Z</time>
      </trkpt>
      <trkpt lat="45.68099" lon="6.02137">
        <ele>1366</ele>
        <time>2014-02-15T14:12:57.000Z</time>
      </trkpt>
      <trkpt lat="45.68112" lon="6.02147">
        <ele>1366</ele>
        <time>2014-02-15T14:13:02.000Z</time>
      </trkpt>
      <trkpt lat="45.68121" lon="6.02158">
        <ele>1366.1999511719</ele>
        <time>2014-02-15T14:13:07.000Z</time>
      </trkpt>
      <trkpt lat="45.68134" lon="6.02175">
        <ele>1366.5999755859</ele>
        <time>2014-02-15T14:13:14.000Z</time>
      </trkpt>
      <trkpt lat="45.68139" lon="6.02182">
        <ele>1367</ele>
        <time>2014-02-15T14:13:17.000Z</time>
      </trkpt>
      <trkpt lat="45.68149" lon="6.02198">
        <ele>1367.8000488281</ele>
        <time>2014-02-15T14:13:23.000Z</time>
      </trkpt>
      <trkpt lat="45.68159" lon="6.02212">
        <ele>1368.8000488281</ele>
        <time>2014-02-15T14:13:28.000Z</time>
      </trkpt>
      <trkpt lat="45.68161" lon="6.02215">
        <ele>1369</ele>
        <time>2014-02-15T14:13:29.000Z</time>
      </trkpt>
      <trkpt lat="45.6817" lon="6.02226">
        <ele>1369.1999511719</ele>
        <time>2014-02-15T14:13:33.000Z</time>
      </trkpt>
      <trkpt lat="45.68172" lon="6.02229">
        <ele>1369</ele>
        <time>2014-02-15T14:13:34.000Z</time>
      </trkpt>
      <trkpt lat="45.6818" lon="6.02239">
        <ele>1368.4000244141</ele>
        <time>2014-02-15T14:13:38.000Z</time>
      </trkpt>
      <trkpt lat="45.68188" lon="6.02247">
        <ele>1367.5999755859</ele>
        <time>2014-02-15T14:13:42.000Z</time>
      </trkpt>
      <trkpt lat="45.68195" lon="6.02256">
        <ele>1367</ele>
        <time>2014-02-15T14:13:46.000Z</time>
      </trkpt>
      <trkpt lat="45.68203" lon="6.02266">
        <ele>1366.8000488281</ele>
        <time>2014-02-15T14:13:50.000Z</time>
      </trkpt>
      <trkpt lat="45.68213" lon="6.02279">
        <ele>1366.8000488281</ele>
        <time>2014-02-15T14:13:55.000Z</time>
      </trkpt>
      <trkpt lat="45.6822" lon="6.02292">
        <ele>1367.4000244141</ele>
        <time>2014-02-15T14:13:59.000Z</time>
      </trkpt>
      <trkpt lat="45.68227" lon="6.02306">
        <ele>1368.8000488281</ele>
        <time>2014-02-15T14:14:03.000Z</time>
      </trkpt>
      <trkpt lat="45.68237" lon="6.02321">
        <ele>1369.8000488281</ele>
        <time>2014-02-15T14:14:08.000Z</time>
      </trkpt>
      <trkpt lat="45.68241" lon="6.02332">
        <ele>1370.8000488281</ele>
        <time>2014-02-15T14:14:11.000Z</time>
      </trkpt>
      <trkpt lat="45.68248" lon="6.02342">
        <ele>1371.8000488281</ele>
        <time>2014-02-15T14:14:15.000Z</time>
      </trkpt>
      <trkpt lat="45.68252" lon="6.02351">
        <ele>1372.8000488281</ele>
        <time>2014-02-15T14:14:18.000Z</time>
      </trkpt>
      <trkpt lat="45.68258" lon="6.0236">
        <ele>1373</ele>
        <time>2014-02-15T14:14:21.000Z</time>
      </trkpt>
      <trkpt lat="45.68262" lon="6.02366">
        <ele>1373.1999511719</ele>
        <time>2014-02-15T14:14:23.000Z</time>
      </trkpt>
      <trkpt lat="45.68269" lon="6.02379">
        <ele>1374.5999755859</ele>
        <time>2014-02-15T14:14:27.000Z</time>
      </trkpt>
      <trkpt lat="45.68281" lon="6.02396">
        <ele>1374.8000488281</ele>
        <time>2014-02-15T14:14:33.000Z</time>
      </trkpt>
      <trkpt lat="45.68288" lon="6.02401">
        <ele>1373.8000488281</ele>
        <time>2014-02-15T14:14:35.000Z</time>
      </trkpt>
      <trkpt lat="45.68303" lon="6.02406">
        <ele>1370.1999511719</ele>
        <time>2014-02-15T14:14:40.000Z</time>
      </trkpt>
      <trkpt lat="45.68313" lon="6.0241">
        <ele>1368.1999511719</ele>
        <time>2014-02-15T14:14:43.000Z</time>
      </trkpt>
      <trkpt lat="45.68328" lon="6.02417">
        <ele>1364.5999755859</ele>
        <time>2014-02-15T14:14:47.000Z</time>
      </trkpt>
      <trkpt lat="45.68342" lon="6.02428">
        <ele>1363.4000244141</ele>
        <time>2014-02-15T14:14:51.000Z</time>
      </trkpt>
      <trkpt lat="45.68357" lon="6.02441">
        <ele>1362.8000488281</ele>
        <time>2014-02-15T14:14:55.000Z</time>
      </trkpt>
      <trkpt lat="45.68369" lon="6.02451">
        <ele>1362.5999755859</ele>
        <time>2014-02-15T14:14:58.000Z</time>
      </trkpt>
      <trkpt lat="45.68377" lon="6.02459">
        <ele>1362.8000488281</ele>
        <time>2014-02-15T14:15:00.000Z</time>
      </trkpt>
      <trkpt lat="45.68392" lon="6.02472">
        <ele>1362.5999755859</ele>
        <time>2014-02-15T14:15:04.000Z</time>
      </trkpt>
      <trkpt lat="45.68396" lon="6.02474">
        <ele>1362.5999755859</ele>
        <time>2014-02-15T14:15:05.000Z</time>
      </trkpt>
      <trkpt lat="45.68405" lon="6.02479">
        <ele>1362.1999511719</ele>
        <time>2014-02-15T14:15:07.000Z</time>
      </trkpt>
      <trkpt lat="45.68425" lon="6.02489">
        <ele>1360.8000488281</ele>
        <time>2014-02-15T14:15:12.000Z</time>
      </trkpt>
      <trkpt lat="45.68449" lon="6.02495">
        <ele>1357.4000244141</ele>
        <time>2014-02-15T14:15:18.000Z</time>
      </trkpt>
      <trkpt lat="45.68457" lon="6.02498">
        <ele>1356.4000244141</ele>
        <time>2014-02-15T14:15:20.000Z</time>
      </trkpt>
      <trkpt lat="45.68474" lon="6.0251">
        <ele>1354</ele>
        <time>2014-02-15T14:15:24.000Z</time>
      </trkpt>
      <trkpt lat="45.68487" lon="6.02523">
        <ele>1352.1999511719</ele>
        <time>2014-02-15T14:15:27.000Z</time>
      </trkpt>
      <trkpt lat="45.68494" lon="6.02541">
        <ele>1351.8000488281</ele>
        <time>2014-02-15T14:15:30.000Z</time>
      </trkpt>
      <trkpt lat="45.68498" lon="6.02572">
        <ele>1352.8000488281</ele>
        <time>2014-02-15T14:15:35.000Z</time>
      </trkpt>
      <trkpt lat="45.68498" lon="6.02582">
        <ele>1353.4000244141</ele>
        <time>2014-02-15T14:15:39.000Z</time>
      </trkpt>
      <trkpt lat="45.68499" lon="6.02582">
        <ele>1353.1999511719</ele>
        <time>2014-02-15T14:15:46.000Z</time>
      </trkpt>
      <trkpt lat="45.68499" lon="6.02581">
        <ele>1353</ele>
        <time>2014-02-15T14:15:56.000Z</time>
      </trkpt>
      <trkpt lat="45.68501" lon="6.02582">
        <ele>1352.5999755859</ele>
        <time>2014-02-15T14:16:21.000Z</time>
      </trkpt>
      <trkpt lat="45.685" lon="6.02584">
        <ele>1353</ele>
        <time>2014-02-15T14:16:29.000Z</time>
      </trkpt>
      <trkpt lat="45.685" lon="6.02596">
        <ele>1352.8000488281</ele>
        <time>2014-02-15T14:16:33.000Z</time>
      </trkpt>
      <trkpt lat="45.68502" lon="6.02627">
        <ele>1351.4000244141</ele>
        <time>2014-02-15T14:16:41.000Z</time>
      </trkpt>
      <trkpt lat="45.68504" lon="6.02647">
        <ele>1350.8000488281</ele>
        <time>2014-02-15T14:16:45.000Z</time>
      </trkpt>
      <trkpt lat="45.68504" lon="6.0267">
        <ele>1350</ele>
        <time>2014-02-15T14:16:49.000Z</time>
      </trkpt>
      <trkpt lat="45.68505" lon="6.02692">
        <ele>1348.5999755859</ele>
        <time>2014-02-15T14:16:53.000Z</time>
      </trkpt>
      <trkpt lat="45.68507" lon="6.02703">
        <ele>1347.8000488281</ele>
        <time>2014-02-15T14:16:55.000Z</time>
      </trkpt>
      <trkpt lat="45.68507" lon="6.02728">
        <ele>1346.5999755859</ele>
        <time>2014-02-15T14:16:59.000Z</time>
      </trkpt>
      <trkpt lat="45.68507" lon="6.02735">
        <ele>1346.1999511719</ele>
        <time>2014-02-15T14:17:00.000Z</time>
      </trkpt>
      <trkpt lat="45.68504" lon="6.02749">
        <ele>1346</ele>
        <time>2014-02-15T14:17:02.000Z</time>
      </trkpt>
      <trkpt lat="45.68501" lon="6.02777">
        <ele>1343.8000488281</ele>
        <time>2014-02-15T14:17:06.000Z</time>
      </trkpt>
      <trkpt lat="45.685" lon="6.02791">
        <ele>1342.5999755859</ele>
        <time>2014-02-15T14:17:08.000Z</time>
      </trkpt>
      <trkpt lat="45.68495" lon="6.02823">
        <ele>1340.4000244141</ele>
        <time>2014-02-15T14:17:13.000Z</time>
      </trkpt>
      <trkpt lat="45.6849" lon="6.02834">
        <ele>1340.4000244141</ele>
        <time>2014-02-15T14:17:15.000Z</time>
      </trkpt>
      <trkpt lat="45.68475" lon="6.02858">
        <ele>1343.5999755859</ele>
        <time>2014-02-15T14:17:20.000Z</time>
      </trkpt>
      <trkpt lat="45.68467" lon="6.02865">
        <ele>1345.5999755859</ele>
        <time>2014-02-15T14:17:22.000Z</time>
      </trkpt>
      <trkpt lat="45.68459" lon="6.02872">
        <ele>1347.5999755859</ele>
        <time>2014-02-15T14:17:24.000Z</time>
      </trkpt>
      <trkpt lat="45.68448" lon="6.02899">
        <ele>1350.4000244141</ele>
        <time>2014-02-15T14:17:29.000Z</time>
      </trkpt>
      <trkpt lat="45.68448" lon="6.02905">
        <ele>1350.4000244141</ele>
        <time>2014-02-15T14:17:30.000Z</time>
      </trkpt>
      <trkpt lat="45.68446" lon="6.0294">
        <ele>1350.5999755859</ele>
        <time>2014-02-15T14:17:36.000Z</time>
      </trkpt>
      <trkpt lat="45.68455" lon="6.02962">
        <ele>1348.1999511719</ele>
        <time>2014-02-15T14:17:40.000Z</time>
      </trkpt>
      <trkpt lat="45.68471" lon="6.02975">
        <ele>1344.8000488281</ele>
        <time>2014-02-15T14:17:44.000Z</time>
      </trkpt>
      <trkpt lat="45.68481" lon="6.02982">
        <ele>1342.5999755859</ele>
        <time>2014-02-15T14:17:47.000Z</time>
      </trkpt>
      <trkpt lat="45.68493" lon="6.03001">
        <ele>1340.4000244141</ele>
        <time>2014-02-15T14:17:51.000Z</time>
      </trkpt>
      <trkpt lat="45.68503" lon="6.0302">
        <ele>1338.4000244141</ele>
        <time>2014-02-15T14:17:54.000Z</time>
      </trkpt>
      <trkpt lat="45.68502" lon="6.03047">
        <ele>1338.5999755859</ele>
        <time>2014-02-15T14:17:58.000Z</time>
      </trkpt>
      <trkpt lat="45.68502" lon="6.0306">
        <ele>1338.5999755859</ele>
        <time>2014-02-15T14:18:00.000Z</time>
      </trkpt>
      <trkpt lat="45.68505" lon="6.03085">
        <ele>1338</ele>
        <time>2014-02-15T14:18:04.000Z</time>
      </trkpt>
      <trkpt lat="45.68502" lon="6.03107">
        <ele>1338</ele>
        <time>2014-02-15T14:18:07.000Z</time>
      </trkpt>
      <trkpt lat="45.685" lon="6.03137">
        <ele>1337.8000488281</ele>
        <time>2014-02-15T14:18:12.000Z</time>
      </trkpt>
      <trkpt lat="45.68501" lon="6.03179">
        <ele>1336.4000244141</ele>
        <time>2014-02-15T14:18:18.000Z</time>
      </trkpt>
      <trkpt lat="45.685" lon="6.03193">
        <ele>1335.8000488281</ele>
        <time>2014-02-15T14:18:20.000Z</time>
      </trkpt>
      <trkpt lat="45.68494" lon="6.03225">
        <ele>1334.5999755859</ele>
        <time>2014-02-15T14:18:25.000Z</time>
      </trkpt>
      <trkpt lat="45.68484" lon="6.03243">
        <ele>1334</ele>
        <time>2014-02-15T14:18:30.000Z</time>
      </trkpt>
      <trkpt lat="45.68481" lon="6.03244">
        <ele>1334</ele>
        <time>2014-02-15T14:18:36.000Z</time>
      </trkpt>
      <trkpt lat="45.68478" lon="6.03244">
        <ele>1334.1999511719</ele>
        <time>2014-02-15T14:18:53.000Z</time>
      </trkpt>
      <trkpt lat="45.68479" lon="6.03244">
        <ele>1334.1999511719</ele>
        <time>2014-02-15T14:19:08.000Z</time>
      </trkpt>
      <trkpt lat="45.68482" lon="6.03244">
        <ele>1334</ele>
        <time>2014-02-15T14:19:16.000Z</time>
      </trkpt>
      <trkpt lat="45.68483" lon="6.03244">
        <ele>1334</ele>
        <time>2014-02-15T14:19:28.000Z</time>
      </trkpt>
      <trkpt lat="45.68477" lon="6.03248">
        <ele>1334</ele>
        <time>2014-02-15T14:19:53.000Z</time>
      </trkpt>
      <trkpt lat="45.68478" lon="6.03249">
        <ele>1333.8000488281</ele>
        <time>2014-02-15T14:20:07.000Z</time>
      </trkpt>
      <trkpt lat="45.6848" lon="6.03246">
        <ele>1334</ele>
        <time>2014-02-15T14:20:26.000Z</time>
      </trkpt>
      <trkpt lat="45.68474" lon="6.03245">
        <ele>1334.4000244141</ele>
        <time>2014-02-15T14:21:06.000Z</time>
      </trkpt>
      <trkpt lat="45.68473" lon="6.03243">
        <ele>1334.4000244141</ele>
        <time>2014-02-15T14:21:21.000Z</time>
      </trkpt>
      <trkpt lat="45.68474" lon="6.03244">
        <ele>1334.4000244141</ele>
        <time>2014-02-15T14:21:35.000Z</time>
      </trkpt>
      <trkpt lat="45.68474" lon="6.03245">
        <ele>1334.4000244141</ele>
        <time>2014-02-15T14:21:55.000Z</time>
      </trkpt>
      <trkpt lat="45.68476" lon="6.03246">
        <ele>1334.1999511719</ele>
        <time>2014-02-15T14:22:12.000Z</time>
      </trkpt>
      <trkpt lat="45.68477" lon="6.03245">
        <ele>1334.1999511719</ele>
        <time>2014-02-15T14:22:21.000Z</time>
      </trkpt>
      <trkpt lat="45.68479" lon="6.03247">
        <ele>1334</ele>
        <time>2014-02-15T14:22:44.000Z</time>
      </trkpt>
      <trkpt lat="45.68479" lon="6.03248">
        <ele>1333.8000488281</ele>
        <time>2014-02-15T14:22:57.000Z</time>
      </trkpt>
      <trkpt lat="45.68479" lon="6.03248">
        <ele>1333.8000488281</ele>
        <time>2014-02-15T14:23:09.000Z</time>
      </trkpt>
      <trkpt lat="45.68479" lon="6.03248">
        <ele>1333.8000488281</ele>
        <time>2014-02-15T14:23:17.000Z</time>
      </trkpt>
      <trkpt lat="45.6848" lon="6.03255">
        <ele>1333.8000488281</ele>
        <time>2014-02-15T14:23:23.000Z</time>
      </trkpt>
      <trkpt lat="45.68479" lon="6.03257">
        <ele>1333.8000488281</ele>
        <time>2014-02-15T14:23:24.000Z</time>
      </trkpt>
      <trkpt lat="45.6847" lon="6.03264">
        <ele>1333.8000488281</ele>
        <time>2014-02-15T14:23:29.000Z</time>
      </trkpt>
      <trkpt lat="45.68468" lon="6.03267">
        <ele>1333.8000488281</ele>
        <time>2014-02-15T14:23:30.000Z</time>
      </trkpt>
      <trkpt lat="45.68457" lon="6.03285">
        <ele>1333.4000244141</ele>
        <time>2014-02-15T14:23:35.000Z</time>
      </trkpt>
      <trkpt lat="45.68449" lon="6.033">
        <ele>1332.8000488281</ele>
        <time>2014-02-15T14:23:38.000Z</time>
      </trkpt>
      <trkpt lat="45.68437" lon="6.03315">
        <ele>1331.5999755859</ele>
        <time>2014-02-15T14:23:41.000Z</time>
      </trkpt>
      <trkpt lat="45.68422" lon="6.03323">
        <ele>1330.1999511719</ele>
        <time>2014-02-15T14:23:45.000Z</time>
      </trkpt>
      <trkpt lat="45.68415" lon="6.03324">
        <ele>1329.8000488281</ele>
        <time>2014-02-15T14:23:47.000Z</time>
      </trkpt>
      <trkpt lat="45.68403" lon="6.03322">
        <ele>1329.1999511719</ele>
        <time>2014-02-15T14:23:50.000Z</time>
      </trkpt>
      <trkpt lat="45.68389" lon="6.03317">
        <ele>1328.5999755859</ele>
        <time>2014-02-15T14:23:54.000Z</time>
      </trkpt>
      <trkpt lat="45.68362" lon="6.03312">
        <ele>1327.4000244141</ele>
        <time>2014-02-15T14:24:01.000Z</time>
      </trkpt>
      <trkpt lat="45.68355" lon="6.03309">
        <ele>1327.1999511719</ele>
        <time>2014-02-15T14:24:03.000Z</time>
      </trkpt>
      <trkpt lat="45.68339" lon="6.03306">
        <ele>1326.4000244141</ele>
        <time>2014-02-15T14:24:08.000Z</time>
      </trkpt>
      <trkpt lat="45.68326" lon="6.03298">
        <ele>1325.5999755859</ele>
        <time>2014-02-15T14:24:12.000Z</time>
      </trkpt>
      <trkpt lat="45.68314" lon="6.03283">
        <ele>1325</ele>
        <time>2014-02-15T14:24:16.000Z</time>
      </trkpt>
      <trkpt lat="45.68311" lon="6.0328">
        <ele>1325</ele>
        <time>2014-02-15T14:24:17.000Z</time>
      </trkpt>
      <trkpt lat="45.68302" lon="6.03257">
        <ele>1325</ele>
        <time>2014-02-15T14:24:22.000Z</time>
      </trkpt>
      <trkpt lat="45.68296" lon="6.0324">
        <ele>1325.1999511719</ele>
        <time>2014-02-15T14:24:26.000Z</time>
      </trkpt>
      <trkpt lat="45.68289" lon="6.03221">
        <ele>1325.1999511719</ele>
        <time>2014-02-15T14:24:30.000Z</time>
      </trkpt>
      <trkpt lat="45.68288" lon="6.03216">
        <ele>1325.1999511719</ele>
        <time>2014-02-15T14:24:31.000Z</time>
      </trkpt>
      <trkpt lat="45.68282" lon="6.032">
        <ele>1325.1999511719</ele>
        <time>2014-02-15T14:24:35.000Z</time>
      </trkpt>
      <trkpt lat="45.68272" lon="6.03181">
        <ele>1324.5999755859</ele>
        <time>2014-02-15T14:24:39.000Z</time>
      </trkpt>
      <trkpt lat="45.68269" lon="6.03173">
        <ele>1324.5999755859</ele>
        <time>2014-02-15T14:24:41.000Z</time>
      </trkpt>
      <trkpt lat="45.68254" lon="6.03166">
        <ele>1322.8000488281</ele>
        <time>2014-02-15T14:24:45.000Z</time>
      </trkpt>
      <trkpt lat="45.68245" lon="6.03168">
        <ele>1322</ele>
        <time>2014-02-15T14:24:47.000Z</time>
      </trkpt>
      <trkpt lat="45.68228" lon="6.03177">
        <ele>1321.1999511719</ele>
        <time>2014-02-15T14:24:51.000Z</time>
      </trkpt>
      <trkpt lat="45.68212" lon="6.03187">
        <ele>1320.4000244141</ele>
        <time>2014-02-15T14:24:55.000Z</time>
      </trkpt>
      <trkpt lat="45.68204" lon="6.03189">
        <ele>1320</ele>
        <time>2014-02-15T14:24:57.000Z</time>
      </trkpt>
      <trkpt lat="45.6818" lon="6.03188">
        <ele>1319.5999755859</ele>
        <time>2014-02-15T14:25:03.000Z</time>
      </trkpt>
      <trkpt lat="45.68164" lon="6.03193">
        <ele>1319.1999511719</ele>
        <time>2014-02-15T14:25:07.000Z</time>
      </trkpt>
      <trkpt lat="45.6815" lon="6.03202">
        <ele>1320</ele>
        <time>2014-02-15T14:25:11.000Z</time>
      </trkpt>
      <trkpt lat="45.68143" lon="6.03213">
        <ele>1319.4000244141</ele>
        <time>2014-02-15T14:25:14.000Z</time>
      </trkpt>
      <trkpt lat="45.68138" lon="6.0322">
        <ele>1319</ele>
        <time>2014-02-15T14:25:16.000Z</time>
      </trkpt>
      <trkpt lat="45.68127" lon="6.03232">
        <ele>1318.1999511719</ele>
        <time>2014-02-15T14:25:20.000Z</time>
      </trkpt>
      <trkpt lat="45.68117" lon="6.0324">
        <ele>1318</ele>
        <time>2014-02-15T14:25:23.000Z</time>
      </trkpt>
      <trkpt lat="45.68098" lon="6.03251">
        <ele>1317.5999755859</ele>
        <time>2014-02-15T14:25:28.000Z</time>
      </trkpt>
      <trkpt lat="45.68086" lon="6.03259">
        <ele>1316.8000488281</ele>
        <time>2014-02-15T14:25:32.000Z</time>
      </trkpt>
      <trkpt lat="45.68075" lon="6.03271">
        <ele>1315</ele>
        <time>2014-02-15T14:25:36.000Z</time>
      </trkpt>
      <trkpt lat="45.68067" lon="6.03287">
        <ele>1312.1999511719</ele>
        <time>2014-02-15T14:25:40.000Z</time>
      </trkpt>
      <trkpt lat="45.68065" lon="6.0329">
        <ele>1311.5999755859</ele>
        <time>2014-02-15T14:25:41.000Z</time>
      </trkpt>
      <trkpt lat="45.68063" lon="6.03311">
        <ele>1307.1999511719</ele>
        <time>2014-02-15T14:25:45.000Z</time>
      </trkpt>
      <trkpt lat="45.6806" lon="6.03319">
        <ele>1306</ele>
        <time>2014-02-15T14:25:47.000Z</time>
      </trkpt>
      <trkpt lat="45.68055" lon="6.03322">
        <ele>1305.5999755859</ele>
        <time>2014-02-15T14:25:49.000Z</time>
      </trkpt>
      <trkpt lat="45.68043" lon="6.03335">
        <ele>1304.1999511719</ele>
        <time>2014-02-15T14:25:54.000Z</time>
      </trkpt>
      <trkpt lat="45.68028" lon="6.03341">
        <ele>1305.4000244141</ele>
        <time>2014-02-15T14:25:59.000Z</time>
      </trkpt>
      <trkpt lat="45.68022" lon="6.0334">
        <ele>1305.8000488281</ele>
        <time>2014-02-15T14:26:01.000Z</time>
      </trkpt>
      <trkpt lat="45.6801" lon="6.03334">
        <ele>1307.1999511719</ele>
        <time>2014-02-15T14:26:05.000Z</time>
      </trkpt>
      <trkpt lat="45.68005" lon="6.03329">
        <ele>1308.4000244141</ele>
        <time>2014-02-15T14:26:07.000Z</time>
      </trkpt>
      <trkpt lat="45.6799" lon="6.03321">
        <ele>1310.8000488281</ele>
        <time>2014-02-15T14:26:12.000Z</time>
      </trkpt>
      <trkpt lat="45.67976" lon="6.0332">
        <ele>1311.5999755859</ele>
        <time>2014-02-15T14:26:16.000Z</time>
      </trkpt>
      <trkpt lat="45.67963" lon="6.03319">
        <ele>1312.4000244141</ele>
        <time>2014-02-15T14:26:20.000Z</time>
      </trkpt>
      <trkpt lat="45.67952" lon="6.03319">
        <ele>1312.8000488281</ele>
        <time>2014-02-15T14:26:24.000Z</time>
      </trkpt>
      <trkpt lat="45.67948" lon="6.0332">
        <ele>1313</ele>
        <time>2014-02-15T14:26:26.000Z</time>
      </trkpt>
      <trkpt lat="45.67932" lon="6.03314">
        <ele>1314.4000244141</ele>
        <time>2014-02-15T14:26:34.000Z</time>
      </trkpt>
      <trkpt lat="45.67925" lon="6.03311">
        <ele>1315</ele>
        <time>2014-02-15T14:26:37.000Z</time>
      </trkpt>
      <trkpt lat="45.67911" lon="6.03306">
        <ele>1315.5999755859</ele>
        <time>2014-02-15T14:26:42.000Z</time>
      </trkpt>
      <trkpt lat="45.67904" lon="6.03303">
        <ele>1315.4000244141</ele>
        <time>2014-02-15T14:26:45.000Z</time>
      </trkpt>
      <trkpt lat="45.67892" lon="6.03302">
        <ele>1314.8000488281</ele>
        <time>2014-02-15T14:26:49.000Z</time>
      </trkpt>
      <trkpt lat="45.6788" lon="6.03301">
        <ele>1314.1999511719</ele>
        <time>2014-02-15T14:26:53.000Z</time>
      </trkpt>
      <trkpt lat="45.67871" lon="6.03296">
        <ele>1314</ele>
        <time>2014-02-15T14:26:57.000Z</time>
      </trkpt>
      <trkpt lat="45.67865" lon="6.03293">
        <ele>1313.8000488281</ele>
        <time>2014-02-15T14:26:59.000Z</time>
      </trkpt>
      <trkpt lat="45.67854" lon="6.03288">
        <ele>1313.1999511719</ele>
        <time>2014-02-15T14:27:03.000Z</time>
      </trkpt>
      <trkpt lat="45.67844" lon="6.03285">
        <ele>1312.5999755859</ele>
        <time>2014-02-15T14:27:07.000Z</time>
      </trkpt>
      <trkpt lat="45.67831" lon="6.03282">
        <ele>1311.5999755859</ele>
        <time>2014-02-15T14:27:12.000Z</time>
      </trkpt>
      <trkpt lat="45.67827" lon="6.0328">
        <ele>1311.4000244141</ele>
        <time>2014-02-15T14:27:14.000Z</time>
      </trkpt>
      <trkpt lat="45.6782" lon="6.03279">
        <ele>1310.8000488281</ele>
        <time>2014-02-15T14:27:17.000Z</time>
      </trkpt>
      <trkpt lat="45.67811" lon="6.03275">
        <ele>1310.1999511719</ele>
        <time>2014-02-15T14:27:21.000Z</time>
      </trkpt>
      <trkpt lat="45.67807" lon="6.03274">
        <ele>1309.8000488281</ele>
        <time>2014-02-15T14:27:23.000Z</time>
      </trkpt>
      <trkpt lat="45.67797" lon="6.03266">
        <ele>1309.1999511719</ele>
        <time>2014-02-15T14:27:28.000Z</time>
      </trkpt>
      <trkpt lat="45.67789" lon="6.03261">
        <ele>1308.5999755859</ele>
        <time>2014-02-15T14:27:32.000Z</time>
      </trkpt>
      <trkpt lat="45.67782" lon="6.03254">
        <ele>1308</ele>
        <time>2014-02-15T14:27:36.000Z</time>
      </trkpt>
      <trkpt lat="45.67774" lon="6.03246">
        <ele>1307.8000488281</ele>
        <time>2014-02-15T14:27:41.000Z</time>
      </trkpt>
      <trkpt lat="45.67766" lon="6.03241">
        <ele>1307.4000244141</ele>
        <time>2014-02-15T14:27:45.000Z</time>
      </trkpt>
      <trkpt lat="45.67764" lon="6.0324">
        <ele>1307.4000244141</ele>
        <time>2014-02-15T14:27:46.000Z</time>
      </trkpt>
      <trkpt lat="45.67762" lon="6.03237">
        <ele>1307.4000244141</ele>
        <time>2014-02-15T14:27:48.000Z</time>
      </trkpt>
    </trkseg>
  </trk>
</gpx>